<?xml version="1.0" encoding="UTF-8" standalone="no" ?>
<gpx xmlns="http://www.topografix.com/GPX/1/1" xmlns:xsi="http://www.w3.org/2001/XMLSchema-instance" xsi:schemaLocation="http://www.topografix.com/GPX/1/1 http://www.topografix.com/GPX/1/1/gpx.xsd" version="1.1" creator="VisuGPX - https://www.visugpx.com">
  <metadata>
    <name>Jour 13 - Le Chemin Sauvage</name>
  </metadata>
  <trk>
    <name><![CDATA[2026-05-14 17:32:14]]></name>
    <trkseg>
      <trkpt lat="44.86961" lon="1.8007">
        <ele>342.85</ele>
        <time>2026-05-14T04:57:26Z</time>
      </trkpt>
      <trkpt lat="44.86964" lon="1.80074">
        <ele>342.37</ele>
        <time>2026-05-14T04:57:33Z</time>
      </trkpt>
      <trkpt lat="44.86965" lon="1.80075">
        <ele>344.29</ele>
        <time>2026-05-14T04:57:35Z</time>
      </trkpt>
      <trkpt lat="44.86975" lon="1.8008">
        <ele>344.29</ele>
        <time>2026-05-14T04:57:54Z</time>
      </trkpt>
      <trkpt lat="44.86978" lon="1.8008">
        <ele>342.37</ele>
        <time>2026-05-14T04:58:14Z</time>
      </trkpt>
      <trkpt lat="44.86978" lon="1.8008">
        <ele>340.92</ele>
        <time>2026-05-14T04:58:15Z</time>
      </trkpt>
      <trkpt lat="44.86978" lon="1.80081">
        <ele>343.81</ele>
        <time>2026-05-14T04:58:17Z</time>
      </trkpt>
      <trkpt lat="44.86978" lon="1.80081">
        <ele>343.33</ele>
        <time>2026-05-14T04:58:21Z</time>
      </trkpt>
      <trkpt lat="44.86978" lon="1.80082">
        <ele>339</ele>
        <time>2026-05-14T04:58:22Z</time>
      </trkpt>
      <trkpt lat="44.86975" lon="1.80099">
        <ele>343.81</ele>
        <time>2026-05-14T04:59:03Z</time>
      </trkpt>
      <trkpt lat="44.86974" lon="1.80099">
        <ele>340.44</ele>
        <time>2026-05-14T04:59:16Z</time>
      </trkpt>
      <trkpt lat="44.86976" lon="1.80093">
        <ele>345.73</ele>
        <time>2026-05-14T05:01:08Z</time>
      </trkpt>
      <trkpt lat="44.86977" lon="1.80094">
        <ele>344.29</ele>
        <time>2026-05-14T05:01:33Z</time>
      </trkpt>
      <trkpt lat="44.86977" lon="1.80091">
        <ele>344.77</ele>
        <time>2026-05-14T05:01:44Z</time>
      </trkpt>
      <trkpt lat="44.86977" lon="1.80091">
        <ele>343.81</ele>
        <time>2026-05-14T05:01:47Z</time>
      </trkpt>
      <trkpt lat="44.86977" lon="1.8009">
        <ele>345.25</ele>
        <time>2026-05-14T05:02:07Z</time>
      </trkpt>
      <trkpt lat="44.8698" lon="1.80085">
        <ele>344.77</ele>
        <time>2026-05-14T05:02:31Z</time>
      </trkpt>
      <trkpt lat="44.86984" lon="1.80086">
        <ele>339.96</ele>
        <time>2026-05-14T05:02:43Z</time>
      </trkpt>
      <trkpt lat="44.86985" lon="1.80087">
        <ele>345.25</ele>
        <time>2026-05-14T05:02:44Z</time>
      </trkpt>
      <trkpt lat="44.86986" lon="1.80087">
        <ele>345.73</ele>
        <time>2026-05-14T05:02:46Z</time>
      </trkpt>
      <trkpt lat="44.86988" lon="1.80088">
        <ele>344.29</ele>
        <time>2026-05-14T05:02:48Z</time>
      </trkpt>
      <trkpt lat="44.86991" lon="1.80091">
        <ele>346.21</ele>
        <time>2026-05-14T05:02:52Z</time>
      </trkpt>
      <trkpt lat="44.86993" lon="1.80092">
        <ele>344.29</ele>
        <time>2026-05-14T05:02:54Z</time>
      </trkpt>
      <trkpt lat="44.86995" lon="1.80091">
        <ele>346.21</ele>
        <time>2026-05-14T05:02:56Z</time>
      </trkpt>
      <trkpt lat="44.86997" lon="1.80087">
        <ele>346.21</ele>
        <time>2026-05-14T05:03:00Z</time>
      </trkpt>
      <trkpt lat="44.86997" lon="1.80056">
        <ele>346.69</ele>
        <time>2026-05-14T05:03:19Z</time>
      </trkpt>
      <trkpt lat="44.86992" lon="1.80018">
        <ele>347.17</ele>
        <time>2026-05-14T05:03:41Z</time>
      </trkpt>
      <trkpt lat="44.86981" lon="1.79986">
        <ele>347.65</ele>
        <time>2026-05-14T05:04:01Z</time>
      </trkpt>
      <trkpt lat="44.86968" lon="1.79958">
        <ele>349.1</ele>
        <time>2026-05-14T05:04:20Z</time>
      </trkpt>
      <trkpt lat="44.86958" lon="1.79934">
        <ele>350.06</ele>
        <time>2026-05-14T05:04:35Z</time>
      </trkpt>
      <trkpt lat="44.86941" lon="1.79898">
        <ele>352.94</ele>
        <time>2026-05-14T05:04:59Z</time>
      </trkpt>
      <trkpt lat="44.86929" lon="1.79882">
        <ele>353.9</ele>
        <time>2026-05-14T05:05:16Z</time>
      </trkpt>
      <trkpt lat="44.86908" lon="1.79853">
        <ele>355.34</ele>
        <time>2026-05-14T05:05:36Z</time>
      </trkpt>
      <trkpt lat="44.86887" lon="1.79825">
        <ele>354.86</ele>
        <time>2026-05-14T05:05:55Z</time>
      </trkpt>
      <trkpt lat="44.86863" lon="1.79804">
        <ele>354.86</ele>
        <time>2026-05-14T05:06:16Z</time>
      </trkpt>
      <trkpt lat="44.86849" lon="1.79794">
        <ele>354.86</ele>
        <time>2026-05-14T05:06:28Z</time>
      </trkpt>
      <trkpt lat="44.86842" lon="1.7979">
        <ele>353.42</ele>
        <time>2026-05-14T05:06:33Z</time>
      </trkpt>
      <trkpt lat="44.86817" lon="1.79772">
        <ele>353.42</ele>
        <time>2026-05-14T05:06:55Z</time>
      </trkpt>
      <trkpt lat="44.86794" lon="1.79746">
        <ele>353.42</ele>
        <time>2026-05-14T05:07:14Z</time>
      </trkpt>
      <trkpt lat="44.86777" lon="1.79717">
        <ele>353.42</ele>
        <time>2026-05-14T05:07:35Z</time>
      </trkpt>
      <trkpt lat="44.8676" lon="1.79689">
        <ele>352.94</ele>
        <time>2026-05-14T05:07:58Z</time>
      </trkpt>
      <trkpt lat="44.86733" lon="1.79648">
        <ele>352.46</ele>
        <time>2026-05-14T05:08:22Z</time>
      </trkpt>
      <trkpt lat="44.86714" lon="1.7962">
        <ele>352.46</ele>
        <time>2026-05-14T05:08:43Z</time>
      </trkpt>
      <trkpt lat="44.86691" lon="1.7959">
        <ele>351.98</ele>
        <time>2026-05-14T05:09:06Z</time>
      </trkpt>
      <trkpt lat="44.86668" lon="1.79555">
        <ele>351.98</ele>
        <time>2026-05-14T05:09:29Z</time>
      </trkpt>
      <trkpt lat="44.86667" lon="1.79548">
        <ele>353.42</ele>
        <time>2026-05-14T05:09:32Z</time>
      </trkpt>
      <trkpt lat="44.86663" lon="1.79516">
        <ele>351.98</ele>
        <time>2026-05-14T05:09:52Z</time>
      </trkpt>
      <trkpt lat="44.86663" lon="1.795">
        <ele>351.98</ele>
        <time>2026-05-14T05:10:01Z</time>
      </trkpt>
      <trkpt lat="44.8666" lon="1.79451">
        <ele>350.06</ele>
        <time>2026-05-14T05:10:25Z</time>
      </trkpt>
      <trkpt lat="44.86655" lon="1.79412">
        <ele>348.13</ele>
        <time>2026-05-14T05:10:46Z</time>
      </trkpt>
      <trkpt lat="44.86641" lon="1.79379">
        <ele>345.25</ele>
        <time>2026-05-14T05:11:07Z</time>
      </trkpt>
      <trkpt lat="44.86634" lon="1.79361">
        <ele>344.29</ele>
        <time>2026-05-14T05:11:17Z</time>
      </trkpt>
      <trkpt lat="44.86616" lon="1.79336">
        <ele>341.41</ele>
        <time>2026-05-14T05:11:35Z</time>
      </trkpt>
      <trkpt lat="44.86604" lon="1.79305">
        <ele>339</ele>
        <time>2026-05-14T05:11:54Z</time>
      </trkpt>
      <trkpt lat="44.86592" lon="1.79268">
        <ele>336.6</ele>
        <time>2026-05-14T05:12:15Z</time>
      </trkpt>
      <trkpt lat="44.86582" lon="1.79235">
        <ele>334.2</ele>
        <time>2026-05-14T05:12:35Z</time>
      </trkpt>
      <trkpt lat="44.8657" lon="1.792">
        <ele>331.79</ele>
        <time>2026-05-14T05:12:55Z</time>
      </trkpt>
      <trkpt lat="44.86556" lon="1.79168">
        <ele>331.31</ele>
        <time>2026-05-14T05:13:15Z</time>
      </trkpt>
      <trkpt lat="44.86545" lon="1.79135">
        <ele>330.83</ele>
        <time>2026-05-14T05:13:35Z</time>
      </trkpt>
      <trkpt lat="44.86541" lon="1.79118">
        <ele>332.27</ele>
        <time>2026-05-14T05:13:45Z</time>
      </trkpt>
      <trkpt lat="44.86539" lon="1.79099">
        <ele>333.71</ele>
        <time>2026-05-14T05:14:03Z</time>
      </trkpt>
      <trkpt lat="44.86527" lon="1.79077">
        <ele>335.64</ele>
        <time>2026-05-14T05:14:23Z</time>
      </trkpt>
      <trkpt lat="44.86522" lon="1.79072">
        <ele>336.6</ele>
        <time>2026-05-14T05:14:27Z</time>
      </trkpt>
      <trkpt lat="44.86508" lon="1.79038">
        <ele>339.48</ele>
        <time>2026-05-14T05:14:51Z</time>
      </trkpt>
      <trkpt lat="44.86494" lon="1.7901">
        <ele>340.44</ele>
        <time>2026-05-14T05:15:11Z</time>
      </trkpt>
      <trkpt lat="44.86487" lon="1.78987">
        <ele>341.41</ele>
        <time>2026-05-14T05:15:27Z</time>
      </trkpt>
      <trkpt lat="44.86491" lon="1.78953">
        <ele>342.85</ele>
        <time>2026-05-14T05:15:46Z</time>
      </trkpt>
      <trkpt lat="44.86496" lon="1.78918">
        <ele>343.33</ele>
        <time>2026-05-14T05:16:05Z</time>
      </trkpt>
      <trkpt lat="44.86496" lon="1.78911">
        <ele>343.33</ele>
        <time>2026-05-14T05:16:09Z</time>
      </trkpt>
      <trkpt lat="44.8648" lon="1.78886">
        <ele>341.89</ele>
        <time>2026-05-14T05:16:29Z</time>
      </trkpt>
      <trkpt lat="44.86471" lon="1.78873">
        <ele>340.92</ele>
        <time>2026-05-14T05:16:56Z</time>
      </trkpt>
      <trkpt lat="44.86468" lon="1.78869">
        <ele>341.41</ele>
        <time>2026-05-14T05:17:00Z</time>
      </trkpt>
      <trkpt lat="44.86462" lon="1.78863">
        <ele>335.64</ele>
        <time>2026-05-14T05:17:07Z</time>
      </trkpt>
      <trkpt lat="44.86462" lon="1.78862">
        <ele>342.85</ele>
        <time>2026-05-14T05:17:08Z</time>
      </trkpt>
      <trkpt lat="44.86461" lon="1.7886">
        <ele>342.85</ele>
        <time>2026-05-14T05:17:09Z</time>
      </trkpt>
      <trkpt lat="44.86458" lon="1.78856">
        <ele>339.48</ele>
        <time>2026-05-14T05:17:12Z</time>
      </trkpt>
      <trkpt lat="44.86435" lon="1.78824">
        <ele>338.52</ele>
        <time>2026-05-14T05:17:36Z</time>
      </trkpt>
      <trkpt lat="44.86424" lon="1.78816">
        <ele>338.52</ele>
        <time>2026-05-14T05:17:56Z</time>
      </trkpt>
      <trkpt lat="44.86425" lon="1.78817">
        <ele>339.48</ele>
        <time>2026-05-14T05:18:12Z</time>
      </trkpt>
      <trkpt lat="44.86419" lon="1.78809">
        <ele>338.04</ele>
        <time>2026-05-14T05:18:19Z</time>
      </trkpt>
      <trkpt lat="44.86403" lon="1.78784">
        <ele>339</ele>
        <time>2026-05-14T05:18:38Z</time>
      </trkpt>
      <trkpt lat="44.86399" lon="1.78745">
        <ele>341.41</ele>
        <time>2026-05-14T05:18:58Z</time>
      </trkpt>
      <trkpt lat="44.864" lon="1.78708">
        <ele>343.33</ele>
        <time>2026-05-14T05:19:18Z</time>
      </trkpt>
      <trkpt lat="44.86405" lon="1.78679">
        <ele>343.33</ele>
        <time>2026-05-14T05:19:35Z</time>
      </trkpt>
      <trkpt lat="44.86409" lon="1.78643">
        <ele>343.33</ele>
        <time>2026-05-14T05:19:55Z</time>
      </trkpt>
      <trkpt lat="44.8642" lon="1.78614">
        <ele>343.33</ele>
        <time>2026-05-14T05:20:10Z</time>
      </trkpt>
      <trkpt lat="44.86426" lon="1.78601">
        <ele>342.85</ele>
        <time>2026-05-14T05:20:19Z</time>
      </trkpt>
      <trkpt lat="44.86429" lon="1.78594">
        <ele>342.85</ele>
        <time>2026-05-14T05:20:23Z</time>
      </trkpt>
      <trkpt lat="44.86435" lon="1.78584">
        <ele>342.85</ele>
        <time>2026-05-14T05:20:30Z</time>
      </trkpt>
      <trkpt lat="44.86443" lon="1.78557">
        <ele>343.33</ele>
        <time>2026-05-14T05:20:46Z</time>
      </trkpt>
      <trkpt lat="44.86445" lon="1.78535">
        <ele>343.33</ele>
        <time>2026-05-14T05:20:57Z</time>
      </trkpt>
      <trkpt lat="44.86445" lon="1.78527">
        <ele>343.33</ele>
        <time>2026-05-14T05:21:01Z</time>
      </trkpt>
      <trkpt lat="44.86444" lon="1.78492">
        <ele>340.44</ele>
        <time>2026-05-14T05:21:20Z</time>
      </trkpt>
      <trkpt lat="44.86441" lon="1.78457">
        <ele>337.56</ele>
        <time>2026-05-14T05:21:39Z</time>
      </trkpt>
      <trkpt lat="44.86437" lon="1.78423">
        <ele>336.12</ele>
        <time>2026-05-14T05:21:56Z</time>
      </trkpt>
      <trkpt lat="44.86437" lon="1.78383">
        <ele>335.64</ele>
        <time>2026-05-14T05:22:16Z</time>
      </trkpt>
      <trkpt lat="44.86445" lon="1.78347">
        <ele>335.64</ele>
        <time>2026-05-14T05:22:36Z</time>
      </trkpt>
      <trkpt lat="44.86456" lon="1.78331">
        <ele>337.08</ele>
        <time>2026-05-14T05:22:48Z</time>
      </trkpt>
      <trkpt lat="44.86466" lon="1.78297">
        <ele>339</ele>
        <time>2026-05-14T05:23:10Z</time>
      </trkpt>
      <trkpt lat="44.86468" lon="1.7826">
        <ele>340.92</ele>
        <time>2026-05-14T05:23:30Z</time>
      </trkpt>
      <trkpt lat="44.86467" lon="1.78223">
        <ele>341.89</ele>
        <time>2026-05-14T05:23:51Z</time>
      </trkpt>
      <trkpt lat="44.86468" lon="1.78193">
        <ele>342.37</ele>
        <time>2026-05-14T05:24:08Z</time>
      </trkpt>
      <trkpt lat="44.86467" lon="1.78166">
        <ele>342.85</ele>
        <time>2026-05-14T05:24:24Z</time>
      </trkpt>
      <trkpt lat="44.86463" lon="1.78152">
        <ele>342.85</ele>
        <time>2026-05-14T05:24:32Z</time>
      </trkpt>
      <trkpt lat="44.86452" lon="1.78111">
        <ele>343.81</ele>
        <time>2026-05-14T05:24:55Z</time>
      </trkpt>
      <trkpt lat="44.86436" lon="1.78086">
        <ele>345.25</ele>
        <time>2026-05-14T05:25:13Z</time>
      </trkpt>
      <trkpt lat="44.86425" lon="1.78059">
        <ele>346.21</ele>
        <time>2026-05-14T05:25:34Z</time>
      </trkpt>
      <trkpt lat="44.86407" lon="1.78028">
        <ele>347.65</ele>
        <time>2026-05-14T05:25:55Z</time>
      </trkpt>
      <trkpt lat="44.86385" lon="1.78006">
        <ele>349.1</ele>
        <time>2026-05-14T05:26:17Z</time>
      </trkpt>
      <trkpt lat="44.86365" lon="1.77987">
        <ele>350.54</ele>
        <time>2026-05-14T05:26:36Z</time>
      </trkpt>
      <trkpt lat="44.86344" lon="1.77969">
        <ele>353.42</ele>
        <time>2026-05-14T05:27:01Z</time>
      </trkpt>
      <trkpt lat="44.86324" lon="1.77947">
        <ele>355.83</ele>
        <time>2026-05-14T05:27:21Z</time>
      </trkpt>
      <trkpt lat="44.86306" lon="1.77922">
        <ele>356.79</ele>
        <time>2026-05-14T05:27:41Z</time>
      </trkpt>
      <trkpt lat="44.86288" lon="1.77899">
        <ele>357.27</ele>
        <time>2026-05-14T05:28:02Z</time>
      </trkpt>
      <trkpt lat="44.86259" lon="1.77877">
        <ele>358.71</ele>
        <time>2026-05-14T05:28:23Z</time>
      </trkpt>
      <trkpt lat="44.86247" lon="1.77868">
        <ele>360.15</ele>
        <time>2026-05-14T05:28:38Z</time>
      </trkpt>
      <trkpt lat="44.86252" lon="1.77853">
        <ele>360.15</ele>
        <time>2026-05-14T05:28:47Z</time>
      </trkpt>
      <trkpt lat="44.86252" lon="1.77819">
        <ele>360.15</ele>
        <time>2026-05-14T05:29:09Z</time>
      </trkpt>
      <trkpt lat="44.86254" lon="1.77779">
        <ele>360.15</ele>
        <time>2026-05-14T05:29:27Z</time>
      </trkpt>
      <trkpt lat="44.86253" lon="1.77753">
        <ele>360.15</ele>
        <time>2026-05-14T05:29:42Z</time>
      </trkpt>
      <trkpt lat="44.86257" lon="1.77718">
        <ele>360.15</ele>
        <time>2026-05-14T05:30:01Z</time>
      </trkpt>
      <trkpt lat="44.86264" lon="1.7768">
        <ele>360.15</ele>
        <time>2026-05-14T05:30:22Z</time>
      </trkpt>
      <trkpt lat="44.86271" lon="1.77649">
        <ele>361.59</ele>
        <time>2026-05-14T05:30:40Z</time>
      </trkpt>
      <trkpt lat="44.8628" lon="1.77626">
        <ele>362.07</ele>
        <time>2026-05-14T05:30:56Z</time>
      </trkpt>
      <trkpt lat="44.86284" lon="1.77606">
        <ele>362.07</ele>
        <time>2026-05-14T05:31:08Z</time>
      </trkpt>
      <trkpt lat="44.86284" lon="1.77593">
        <ele>362.07</ele>
        <time>2026-05-14T05:31:16Z</time>
      </trkpt>
      <trkpt lat="44.86289" lon="1.77562">
        <ele>360.63</ele>
        <time>2026-05-14T05:31:32Z</time>
      </trkpt>
      <trkpt lat="44.86288" lon="1.77527">
        <ele>359.67</ele>
        <time>2026-05-14T05:31:50Z</time>
      </trkpt>
      <trkpt lat="44.86288" lon="1.77494">
        <ele>359.67</ele>
        <time>2026-05-14T05:32:08Z</time>
      </trkpt>
      <trkpt lat="44.86289" lon="1.77463">
        <ele>359.67</ele>
        <time>2026-05-14T05:32:24Z</time>
      </trkpt>
      <trkpt lat="44.86288" lon="1.77441">
        <ele>359.67</ele>
        <time>2026-05-14T05:32:37Z</time>
      </trkpt>
      <trkpt lat="44.86288" lon="1.7743">
        <ele>359.67</ele>
        <time>2026-05-14T05:32:43Z</time>
      </trkpt>
      <trkpt lat="44.86292" lon="1.77414">
        <ele>360.63</ele>
        <time>2026-05-14T05:32:52Z</time>
      </trkpt>
      <trkpt lat="44.86294" lon="1.77383">
        <ele>362.07</ele>
        <time>2026-05-14T05:33:10Z</time>
      </trkpt>
      <trkpt lat="44.86297" lon="1.77349">
        <ele>362.07</ele>
        <time>2026-05-14T05:33:29Z</time>
      </trkpt>
      <trkpt lat="44.86298" lon="1.77331">
        <ele>362.07</ele>
        <time>2026-05-14T05:33:38Z</time>
      </trkpt>
      <trkpt lat="44.86304" lon="1.77302">
        <ele>361.59</ele>
        <time>2026-05-14T05:33:53Z</time>
      </trkpt>
      <trkpt lat="44.86311" lon="1.77276">
        <ele>361.59</ele>
        <time>2026-05-14T05:34:09Z</time>
      </trkpt>
      <trkpt lat="44.86312" lon="1.77275">
        <ele>361.59</ele>
        <time>2026-05-14T05:34:10Z</time>
      </trkpt>
      <trkpt lat="44.86322" lon="1.77247">
        <ele>361.59</ele>
        <time>2026-05-14T05:34:26Z</time>
      </trkpt>
      <trkpt lat="44.86331" lon="1.7722">
        <ele>361.59</ele>
        <time>2026-05-14T05:34:42Z</time>
      </trkpt>
      <trkpt lat="44.86342" lon="1.77187">
        <ele>361.59</ele>
        <time>2026-05-14T05:35:00Z</time>
      </trkpt>
      <trkpt lat="44.86344" lon="1.7717">
        <ele>360.63</ele>
        <time>2026-05-14T05:35:12Z</time>
      </trkpt>
      <trkpt lat="44.86344" lon="1.7714">
        <ele>360.63</ele>
        <time>2026-05-14T05:35:27Z</time>
      </trkpt>
      <trkpt lat="44.86348" lon="1.77116">
        <ele>360.63</ele>
        <time>2026-05-14T05:35:39Z</time>
      </trkpt>
      <trkpt lat="44.86351" lon="1.77086">
        <ele>363.04</ele>
        <time>2026-05-14T05:35:56Z</time>
      </trkpt>
      <trkpt lat="44.86353" lon="1.77078">
        <ele>363.52</ele>
        <time>2026-05-14T05:36:01Z</time>
      </trkpt>
      <trkpt lat="44.86355" lon="1.77053">
        <ele>365.92</ele>
        <time>2026-05-14T05:36:19Z</time>
      </trkpt>
      <trkpt lat="44.8636" lon="1.7703">
        <ele>368.32</ele>
        <time>2026-05-14T05:36:36Z</time>
      </trkpt>
      <trkpt lat="44.86366" lon="1.7701">
        <ele>369.76</ele>
        <time>2026-05-14T05:36:51Z</time>
      </trkpt>
      <trkpt lat="44.86357" lon="1.77002">
        <ele>371.21</ele>
        <time>2026-05-14T05:37:09Z</time>
      </trkpt>
      <trkpt lat="44.86348" lon="1.77001">
        <ele>370.73</ele>
        <time>2026-05-14T05:37:18Z</time>
      </trkpt>
      <trkpt lat="44.8633" lon="1.76981">
        <ele>372.17</ele>
        <time>2026-05-14T05:37:38Z</time>
      </trkpt>
      <trkpt lat="44.86317" lon="1.76961">
        <ele>372.65</ele>
        <time>2026-05-14T05:37:58Z</time>
      </trkpt>
      <trkpt lat="44.86312" lon="1.76934">
        <ele>373.61</ele>
        <time>2026-05-14T05:38:15Z</time>
      </trkpt>
      <trkpt lat="44.863" lon="1.7689">
        <ele>374.57</ele>
        <time>2026-05-14T05:38:37Z</time>
      </trkpt>
      <trkpt lat="44.8629" lon="1.7686">
        <ele>375.05</ele>
        <time>2026-05-14T05:38:56Z</time>
      </trkpt>
      <trkpt lat="44.86289" lon="1.76859">
        <ele>375.05</ele>
        <time>2026-05-14T05:38:57Z</time>
      </trkpt>
      <trkpt lat="44.86279" lon="1.76826">
        <ele>376.49</ele>
        <time>2026-05-14T05:39:18Z</time>
      </trkpt>
      <trkpt lat="44.86273" lon="1.76798">
        <ele>377.45</ele>
        <time>2026-05-14T05:39:35Z</time>
      </trkpt>
      <trkpt lat="44.86267" lon="1.76765">
        <ele>378.9</ele>
        <time>2026-05-14T05:39:54Z</time>
      </trkpt>
      <trkpt lat="44.86265" lon="1.76733">
        <ele>379.86</ele>
        <time>2026-05-14T05:40:12Z</time>
      </trkpt>
      <trkpt lat="44.86262" lon="1.76703">
        <ele>380.82</ele>
        <time>2026-05-14T05:40:29Z</time>
      </trkpt>
      <trkpt lat="44.8626" lon="1.76672">
        <ele>381.3</ele>
        <time>2026-05-14T05:40:46Z</time>
      </trkpt>
      <trkpt lat="44.86252" lon="1.76641">
        <ele>382.26</ele>
        <time>2026-05-14T05:41:06Z</time>
      </trkpt>
      <trkpt lat="44.86247" lon="1.7662">
        <ele>383.22</ele>
        <time>2026-05-14T05:41:19Z</time>
      </trkpt>
      <trkpt lat="44.86236" lon="1.76592">
        <ele>384.18</ele>
        <time>2026-05-14T05:41:37Z</time>
      </trkpt>
      <trkpt lat="44.86226" lon="1.76567">
        <ele>385.63</ele>
        <time>2026-05-14T05:41:57Z</time>
      </trkpt>
      <trkpt lat="44.86222" lon="1.76561">
        <ele>384.66</ele>
        <time>2026-05-14T05:42:18Z</time>
      </trkpt>
      <trkpt lat="44.86214" lon="1.76536">
        <ele>386.11</ele>
        <time>2026-05-14T05:42:36Z</time>
      </trkpt>
      <trkpt lat="44.86197" lon="1.7649">
        <ele>386.59</ele>
        <time>2026-05-14T05:43:00Z</time>
      </trkpt>
      <trkpt lat="44.86194" lon="1.76482">
        <ele>385.15</ele>
        <time>2026-05-14T05:43:04Z</time>
      </trkpt>
      <trkpt lat="44.86182" lon="1.76441">
        <ele>384.66</ele>
        <time>2026-05-14T05:43:26Z</time>
      </trkpt>
      <trkpt lat="44.86168" lon="1.76407">
        <ele>383.7</ele>
        <time>2026-05-14T05:43:47Z</time>
      </trkpt>
      <trkpt lat="44.86154" lon="1.76367">
        <ele>381.78</ele>
        <time>2026-05-14T05:44:11Z</time>
      </trkpt>
      <trkpt lat="44.86139" lon="1.76333">
        <ele>379.38</ele>
        <time>2026-05-14T05:44:35Z</time>
      </trkpt>
      <trkpt lat="44.86123" lon="1.76295">
        <ele>377.94</ele>
        <time>2026-05-14T05:44:57Z</time>
      </trkpt>
      <trkpt lat="44.86108" lon="1.76264">
        <ele>376.01</ele>
        <time>2026-05-14T05:45:18Z</time>
      </trkpt>
      <trkpt lat="44.86091" lon="1.76225">
        <ele>373.13</ele>
        <time>2026-05-14T05:45:40Z</time>
      </trkpt>
      <trkpt lat="44.86076" lon="1.76191">
        <ele>371.21</ele>
        <time>2026-05-14T05:46:00Z</time>
      </trkpt>
      <trkpt lat="44.86061" lon="1.76152">
        <ele>368.8</ele>
        <time>2026-05-14T05:46:21Z</time>
      </trkpt>
      <trkpt lat="44.86047" lon="1.76116">
        <ele>366.88</ele>
        <time>2026-05-14T05:46:41Z</time>
      </trkpt>
      <trkpt lat="44.86029" lon="1.76082">
        <ele>364.96</ele>
        <time>2026-05-14T05:47:02Z</time>
      </trkpt>
      <trkpt lat="44.86008" lon="1.76052">
        <ele>363.04</ele>
        <time>2026-05-14T05:47:24Z</time>
      </trkpt>
      <trkpt lat="44.86006" lon="1.76047">
        <ele>363.04</ele>
        <time>2026-05-14T05:47:27Z</time>
      </trkpt>
      <trkpt lat="44.85992" lon="1.76007">
        <ele>360.63</ele>
        <time>2026-05-14T05:47:48Z</time>
      </trkpt>
      <trkpt lat="44.85978" lon="1.75976">
        <ele>360.63</ele>
        <time>2026-05-14T05:48:09Z</time>
      </trkpt>
      <trkpt lat="44.85978" lon="1.75958">
        <ele>359.19</ele>
        <time>2026-05-14T05:48:30Z</time>
      </trkpt>
      <trkpt lat="44.85979" lon="1.75952">
        <ele>359.19</ele>
        <time>2026-05-14T05:49:00Z</time>
      </trkpt>
      <trkpt lat="44.85978" lon="1.75956">
        <ele>358.71</ele>
        <time>2026-05-14T05:49:29Z</time>
      </trkpt>
      <trkpt lat="44.8598" lon="1.75961">
        <ele>355.83</ele>
        <time>2026-05-14T05:49:42Z</time>
      </trkpt>
      <trkpt lat="44.85985" lon="1.75951">
        <ele>355.83</ele>
        <time>2026-05-14T05:49:52Z</time>
      </trkpt>
      <trkpt lat="44.85986" lon="1.75932">
        <ele>353.42</ele>
        <time>2026-05-14T05:50:01Z</time>
      </trkpt>
      <trkpt lat="44.85985" lon="1.75928">
        <ele>356.79</ele>
        <time>2026-05-14T05:50:03Z</time>
      </trkpt>
      <trkpt lat="44.8598" lon="1.75907">
        <ele>353.42</ele>
        <time>2026-05-14T05:50:14Z</time>
      </trkpt>
      <trkpt lat="44.85976" lon="1.75886">
        <ele>352.46</ele>
        <time>2026-05-14T05:50:25Z</time>
      </trkpt>
      <trkpt lat="44.85975" lon="1.7588">
        <ele>353.9</ele>
        <time>2026-05-14T05:50:28Z</time>
      </trkpt>
      <trkpt lat="44.8597" lon="1.75833">
        <ele>351.98</ele>
        <time>2026-05-14T05:50:52Z</time>
      </trkpt>
      <trkpt lat="44.85969" lon="1.75827">
        <ele>353.42</ele>
        <time>2026-05-14T05:50:55Z</time>
      </trkpt>
      <trkpt lat="44.85963" lon="1.75784">
        <ele>354.38</ele>
        <time>2026-05-14T05:51:20Z</time>
      </trkpt>
      <trkpt lat="44.8596" lon="1.75747">
        <ele>357.27</ele>
        <time>2026-05-14T05:51:41Z</time>
      </trkpt>
      <trkpt lat="44.85967" lon="1.75706">
        <ele>357.27</ele>
        <time>2026-05-14T05:52:03Z</time>
      </trkpt>
      <trkpt lat="44.8598" lon="1.75666">
        <ele>358.23</ele>
        <time>2026-05-14T05:52:25Z</time>
      </trkpt>
      <trkpt lat="44.85989" lon="1.75626">
        <ele>357.27</ele>
        <time>2026-05-14T05:52:47Z</time>
      </trkpt>
      <trkpt lat="44.8599" lon="1.756">
        <ele>358.71</ele>
        <time>2026-05-14T05:53:01Z</time>
      </trkpt>
      <trkpt lat="44.85987" lon="1.75571">
        <ele>357.27</ele>
        <time>2026-05-14T05:53:17Z</time>
      </trkpt>
      <trkpt lat="44.85986" lon="1.75565">
        <ele>357.27</ele>
        <time>2026-05-14T05:53:20Z</time>
      </trkpt>
      <trkpt lat="44.85987" lon="1.75557">
        <ele>357.27</ele>
        <time>2026-05-14T05:53:25Z</time>
      </trkpt>
      <trkpt lat="44.85991" lon="1.75513">
        <ele>355.34</ele>
        <time>2026-05-14T05:53:47Z</time>
      </trkpt>
      <trkpt lat="44.85993" lon="1.75465">
        <ele>355.34</ele>
        <time>2026-05-14T05:54:11Z</time>
      </trkpt>
      <trkpt lat="44.85996" lon="1.75443">
        <ele>353.9</ele>
        <time>2026-05-14T05:54:28Z</time>
      </trkpt>
      <trkpt lat="44.86013" lon="1.75456">
        <ele>351.02</ele>
        <time>2026-05-14T05:54:46Z</time>
      </trkpt>
      <trkpt lat="44.86027" lon="1.75477">
        <ele>350.54</ele>
        <time>2026-05-14T05:54:58Z</time>
      </trkpt>
      <trkpt lat="44.86034" lon="1.75485">
        <ele>349.58</ele>
        <time>2026-05-14T05:55:03Z</time>
      </trkpt>
      <trkpt lat="44.86048" lon="1.75505">
        <ele>346.21</ele>
        <time>2026-05-14T05:55:20Z</time>
      </trkpt>
      <trkpt lat="44.86049" lon="1.75506">
        <ele>346.21</ele>
        <time>2026-05-14T05:55:21Z</time>
      </trkpt>
      <trkpt lat="44.86069" lon="1.75532">
        <ele>343.33</ele>
        <time>2026-05-14T05:55:44Z</time>
      </trkpt>
      <trkpt lat="44.86074" lon="1.75539">
        <ele>342.85</ele>
        <time>2026-05-14T05:55:49Z</time>
      </trkpt>
      <trkpt lat="44.86077" lon="1.75544">
        <ele>344.29</ele>
        <time>2026-05-14T05:55:52Z</time>
      </trkpt>
      <trkpt lat="44.86079" lon="1.7555">
        <ele>342.85</ele>
        <time>2026-05-14T05:55:54Z</time>
      </trkpt>
      <trkpt lat="44.86095" lon="1.75575">
        <ele>340.92</ele>
        <time>2026-05-14T05:56:07Z</time>
      </trkpt>
      <trkpt lat="44.86121" lon="1.75593">
        <ele>340.44</ele>
        <time>2026-05-14T05:56:29Z</time>
      </trkpt>
      <trkpt lat="44.86138" lon="1.75606">
        <ele>340.92</ele>
        <time>2026-05-14T05:56:43Z</time>
      </trkpt>
      <trkpt lat="44.86141" lon="1.7561">
        <ele>339.96</ele>
        <time>2026-05-14T05:56:46Z</time>
      </trkpt>
      <trkpt lat="44.86167" lon="1.7564">
        <ele>339.96</ele>
        <time>2026-05-14T05:57:10Z</time>
      </trkpt>
      <trkpt lat="44.86175" lon="1.7565">
        <ele>342.37</ele>
        <time>2026-05-14T05:57:18Z</time>
      </trkpt>
      <trkpt lat="44.86197" lon="1.75691">
        <ele>343.33</ele>
        <time>2026-05-14T05:57:44Z</time>
      </trkpt>
      <trkpt lat="44.862" lon="1.75702">
        <ele>343.81</ele>
        <time>2026-05-14T05:57:50Z</time>
      </trkpt>
      <trkpt lat="44.8622" lon="1.75735">
        <ele>345.73</ele>
        <time>2026-05-14T05:58:14Z</time>
      </trkpt>
      <trkpt lat="44.86238" lon="1.75762">
        <ele>348.62</ele>
        <time>2026-05-14T05:58:34Z</time>
      </trkpt>
      <trkpt lat="44.86249" lon="1.7579">
        <ele>347.65</ele>
        <time>2026-05-14T05:58:52Z</time>
      </trkpt>
      <trkpt lat="44.86258" lon="1.75809">
        <ele>351.5</ele>
        <time>2026-05-14T05:59:06Z</time>
      </trkpt>
      <trkpt lat="44.86273" lon="1.7584">
        <ele>351.5</ele>
        <time>2026-05-14T05:59:26Z</time>
      </trkpt>
      <trkpt lat="44.86282" lon="1.75852">
        <ele>351.02</ele>
        <time>2026-05-14T05:59:47Z</time>
      </trkpt>
      <trkpt lat="44.86292" lon="1.75869">
        <ele>351.02</ele>
        <time>2026-05-14T06:00:03Z</time>
      </trkpt>
      <trkpt lat="44.86303" lon="1.75886">
        <ele>351.02</ele>
        <time>2026-05-14T06:00:19Z</time>
      </trkpt>
      <trkpt lat="44.86318" lon="1.75896">
        <ele>351.02</ele>
        <time>2026-05-14T06:00:34Z</time>
      </trkpt>
      <trkpt lat="44.86347" lon="1.7591">
        <ele>351.02</ele>
        <time>2026-05-14T06:00:53Z</time>
      </trkpt>
      <trkpt lat="44.86353" lon="1.75913">
        <ele>351.98</ele>
        <time>2026-05-14T06:00:58Z</time>
      </trkpt>
      <trkpt lat="44.8637" lon="1.75922">
        <ele>353.9</ele>
        <time>2026-05-14T06:01:14Z</time>
      </trkpt>
      <trkpt lat="44.86393" lon="1.75932">
        <ele>355.34</ele>
        <time>2026-05-14T06:01:34Z</time>
      </trkpt>
      <trkpt lat="44.86414" lon="1.75937">
        <ele>356.31</ele>
        <time>2026-05-14T06:01:51Z</time>
      </trkpt>
      <trkpt lat="44.8644" lon="1.75944">
        <ele>356.79</ele>
        <time>2026-05-14T06:02:10Z</time>
      </trkpt>
      <trkpt lat="44.86456" lon="1.75948">
        <ele>357.27</ele>
        <time>2026-05-14T06:02:21Z</time>
      </trkpt>
      <trkpt lat="44.86479" lon="1.75948">
        <ele>357.27</ele>
        <time>2026-05-14T06:02:40Z</time>
      </trkpt>
      <trkpt lat="44.86498" lon="1.75957">
        <ele>357.27</ele>
        <time>2026-05-14T06:02:57Z</time>
      </trkpt>
      <trkpt lat="44.86514" lon="1.75974">
        <ele>357.27</ele>
        <time>2026-05-14T06:03:13Z</time>
      </trkpt>
      <trkpt lat="44.86526" lon="1.75992">
        <ele>357.27</ele>
        <time>2026-05-14T06:03:27Z</time>
      </trkpt>
      <trkpt lat="44.86538" lon="1.76019">
        <ele>354.86</ele>
        <time>2026-05-14T06:03:42Z</time>
      </trkpt>
      <trkpt lat="44.86555" lon="1.76045">
        <ele>354.38</ele>
        <time>2026-05-14T06:04:01Z</time>
      </trkpt>
      <trkpt lat="44.86574" lon="1.76067">
        <ele>353.9</ele>
        <time>2026-05-14T06:04:17Z</time>
      </trkpt>
      <trkpt lat="44.86594" lon="1.76079">
        <ele>355.83</ele>
        <time>2026-05-14T06:04:32Z</time>
      </trkpt>
      <trkpt lat="44.86612" lon="1.76071">
        <ele>356.31</ele>
        <time>2026-05-14T06:04:48Z</time>
      </trkpt>
      <trkpt lat="44.86627" lon="1.76064">
        <ele>356.31</ele>
        <time>2026-05-14T06:05:03Z</time>
      </trkpt>
      <trkpt lat="44.86645" lon="1.76053">
        <ele>355.83</ele>
        <time>2026-05-14T06:05:20Z</time>
      </trkpt>
      <trkpt lat="44.86647" lon="1.76051">
        <ele>355.83</ele>
        <time>2026-05-14T06:05:22Z</time>
      </trkpt>
      <trkpt lat="44.8668" lon="1.76034">
        <ele>355.83</ele>
        <time>2026-05-14T06:05:42Z</time>
      </trkpt>
      <trkpt lat="44.86701" lon="1.76025">
        <ele>355.83</ele>
        <time>2026-05-14T06:05:58Z</time>
      </trkpt>
      <trkpt lat="44.86717" lon="1.76021">
        <ele>356.31</ele>
        <time>2026-05-14T06:06:14Z</time>
      </trkpt>
      <trkpt lat="44.86734" lon="1.76017">
        <ele>356.31</ele>
        <time>2026-05-14T06:06:28Z</time>
      </trkpt>
      <trkpt lat="44.86751" lon="1.7601">
        <ele>356.79</ele>
        <time>2026-05-14T06:06:42Z</time>
      </trkpt>
      <trkpt lat="44.86769" lon="1.76">
        <ele>357.75</ele>
        <time>2026-05-14T06:06:57Z</time>
      </trkpt>
      <trkpt lat="44.86778" lon="1.75997">
        <ele>357.75</ele>
        <time>2026-05-14T06:07:19Z</time>
      </trkpt>
      <trkpt lat="44.86783" lon="1.75997">
        <ele>357.75</ele>
        <time>2026-05-14T06:07:46Z</time>
      </trkpt>
      <trkpt lat="44.868" lon="1.75993">
        <ele>358.71</ele>
        <time>2026-05-14T06:08:01Z</time>
      </trkpt>
      <trkpt lat="44.86819" lon="1.75984">
        <ele>359.67</ele>
        <time>2026-05-14T06:08:17Z</time>
      </trkpt>
      <trkpt lat="44.86837" lon="1.75974">
        <ele>360.63</ele>
        <time>2026-05-14T06:08:32Z</time>
      </trkpt>
      <trkpt lat="44.86855" lon="1.75961">
        <ele>362.07</ele>
        <time>2026-05-14T06:08:49Z</time>
      </trkpt>
      <trkpt lat="44.86876" lon="1.75946">
        <ele>362.55</ele>
        <time>2026-05-14T06:09:07Z</time>
      </trkpt>
      <trkpt lat="44.86895" lon="1.75933">
        <ele>363.04</ele>
        <time>2026-05-14T06:09:24Z</time>
      </trkpt>
      <trkpt lat="44.86907" lon="1.75924">
        <ele>363.52</ele>
        <time>2026-05-14T06:09:34Z</time>
      </trkpt>
      <trkpt lat="44.86928" lon="1.75911">
        <ele>364</ele>
        <time>2026-05-14T06:09:51Z</time>
      </trkpt>
      <trkpt lat="44.86944" lon="1.75898">
        <ele>364.48</ele>
        <time>2026-05-14T06:10:05Z</time>
      </trkpt>
      <trkpt lat="44.8696" lon="1.75888">
        <ele>364.48</ele>
        <time>2026-05-14T06:10:21Z</time>
      </trkpt>
      <trkpt lat="44.8698" lon="1.75882">
        <ele>364.48</ele>
        <time>2026-05-14T06:10:37Z</time>
      </trkpt>
      <trkpt lat="44.87003" lon="1.75877">
        <ele>364.48</ele>
        <time>2026-05-14T06:10:52Z</time>
      </trkpt>
      <trkpt lat="44.87023" lon="1.75882">
        <ele>364.48</ele>
        <time>2026-05-14T06:11:06Z</time>
      </trkpt>
      <trkpt lat="44.87043" lon="1.75883">
        <ele>363.04</ele>
        <time>2026-05-14T06:11:20Z</time>
      </trkpt>
      <trkpt lat="44.87063" lon="1.7588">
        <ele>362.07</ele>
        <time>2026-05-14T06:11:35Z</time>
      </trkpt>
      <trkpt lat="44.87084" lon="1.75875">
        <ele>360.15</ele>
        <time>2026-05-14T06:11:51Z</time>
      </trkpt>
      <trkpt lat="44.871" lon="1.75869">
        <ele>359.19</ele>
        <time>2026-05-14T06:12:06Z</time>
      </trkpt>
      <trkpt lat="44.87106" lon="1.75867">
        <ele>358.23</ele>
        <time>2026-05-14T06:12:13Z</time>
      </trkpt>
      <trkpt lat="44.8713" lon="1.75865">
        <ele>356.79</ele>
        <time>2026-05-14T06:12:29Z</time>
      </trkpt>
      <trkpt lat="44.87152" lon="1.75879">
        <ele>356.31</ele>
        <time>2026-05-14T06:12:42Z</time>
      </trkpt>
      <trkpt lat="44.87176" lon="1.75882">
        <ele>355.83</ele>
        <time>2026-05-14T06:13:00Z</time>
      </trkpt>
      <trkpt lat="44.87196" lon="1.75883">
        <ele>355.34</ele>
        <time>2026-05-14T06:13:14Z</time>
      </trkpt>
      <trkpt lat="44.87212" lon="1.75885">
        <ele>355.34</ele>
        <time>2026-05-14T06:13:28Z</time>
      </trkpt>
      <trkpt lat="44.8723" lon="1.7589">
        <ele>355.34</ele>
        <time>2026-05-14T06:13:42Z</time>
      </trkpt>
      <trkpt lat="44.87236" lon="1.75893">
        <ele>356.79</ele>
        <time>2026-05-14T06:13:46Z</time>
      </trkpt>
      <trkpt lat="44.87248" lon="1.75898">
        <ele>357.75</ele>
        <time>2026-05-14T06:13:56Z</time>
      </trkpt>
      <trkpt lat="44.87273" lon="1.75909">
        <ele>359.19</ele>
        <time>2026-05-14T06:14:14Z</time>
      </trkpt>
      <trkpt lat="44.87297" lon="1.75917">
        <ele>360.15</ele>
        <time>2026-05-14T06:14:33Z</time>
      </trkpt>
      <trkpt lat="44.87311" lon="1.75925">
        <ele>360.63</ele>
        <time>2026-05-14T06:14:48Z</time>
      </trkpt>
      <trkpt lat="44.87321" lon="1.75925">
        <ele>360.63</ele>
        <time>2026-05-14T06:15:05Z</time>
      </trkpt>
      <trkpt lat="44.87333" lon="1.75922">
        <ele>359.67</ele>
        <time>2026-05-14T06:15:18Z</time>
      </trkpt>
      <trkpt lat="44.87346" lon="1.75929">
        <ele>358.23</ele>
        <time>2026-05-14T06:15:30Z</time>
      </trkpt>
      <trkpt lat="44.8735" lon="1.75932">
        <ele>357.75</ele>
        <time>2026-05-14T06:15:32Z</time>
      </trkpt>
      <trkpt lat="44.87369" lon="1.75947">
        <ele>355.83</ele>
        <time>2026-05-14T06:15:51Z</time>
      </trkpt>
      <trkpt lat="44.87375" lon="1.75951">
        <ele>354.38</ele>
        <time>2026-05-14T06:15:57Z</time>
      </trkpt>
      <trkpt lat="44.87392" lon="1.75987">
        <ele>352.94</ele>
        <time>2026-05-14T06:16:19Z</time>
      </trkpt>
      <trkpt lat="44.87424" lon="1.76016">
        <ele>351.5</ele>
        <time>2026-05-14T06:16:41Z</time>
      </trkpt>
      <trkpt lat="44.87431" lon="1.76021">
        <ele>351.02</ele>
        <time>2026-05-14T06:16:47Z</time>
      </trkpt>
      <trkpt lat="44.87458" lon="1.76036">
        <ele>350.54</ele>
        <time>2026-05-14T06:17:08Z</time>
      </trkpt>
      <trkpt lat="44.87486" lon="1.76042">
        <ele>350.54</ele>
        <time>2026-05-14T06:17:28Z</time>
      </trkpt>
      <trkpt lat="44.87512" lon="1.76043">
        <ele>350.54</ele>
        <time>2026-05-14T06:17:49Z</time>
      </trkpt>
      <trkpt lat="44.87541" lon="1.76042">
        <ele>351.02</ele>
        <time>2026-05-14T06:18:10Z</time>
      </trkpt>
      <trkpt lat="44.8757" lon="1.76046">
        <ele>351.02</ele>
        <time>2026-05-14T06:18:32Z</time>
      </trkpt>
      <trkpt lat="44.876" lon="1.76053">
        <ele>350.06</ele>
        <time>2026-05-14T06:18:55Z</time>
      </trkpt>
      <trkpt lat="44.87625" lon="1.76059">
        <ele>348.62</ele>
        <time>2026-05-14T06:19:15Z</time>
      </trkpt>
      <trkpt lat="44.87653" lon="1.76072">
        <ele>346.69</ele>
        <time>2026-05-14T06:19:36Z</time>
      </trkpt>
      <trkpt lat="44.87674" lon="1.76084">
        <ele>343.33</ele>
        <time>2026-05-14T06:19:54Z</time>
      </trkpt>
      <trkpt lat="44.87695" lon="1.76096">
        <ele>339.96</ele>
        <time>2026-05-14T06:20:12Z</time>
      </trkpt>
      <trkpt lat="44.87699" lon="1.761">
        <ele>341.41</ele>
        <time>2026-05-14T06:20:15Z</time>
      </trkpt>
      <trkpt lat="44.87701" lon="1.76102">
        <ele>339.96</ele>
        <time>2026-05-14T06:20:17Z</time>
      </trkpt>
      <trkpt lat="44.87722" lon="1.7612">
        <ele>336.6</ele>
        <time>2026-05-14T06:20:37Z</time>
      </trkpt>
      <trkpt lat="44.87735" lon="1.76133">
        <ele>333.23</ele>
        <time>2026-05-14T06:20:54Z</time>
      </trkpt>
      <trkpt lat="44.87761" lon="1.76163">
        <ele>330.83</ele>
        <time>2026-05-14T06:21:18Z</time>
      </trkpt>
      <trkpt lat="44.87769" lon="1.76185">
        <ele>331.79</ele>
        <time>2026-05-14T06:21:31Z</time>
      </trkpt>
      <trkpt lat="44.87773" lon="1.76194">
        <ele>333.71</ele>
        <time>2026-05-14T06:21:39Z</time>
      </trkpt>
      <trkpt lat="44.87774" lon="1.76196">
        <ele>331.79</ele>
        <time>2026-05-14T06:21:41Z</time>
      </trkpt>
      <trkpt lat="44.87777" lon="1.76206">
        <ele>333.23</ele>
        <time>2026-05-14T06:21:47Z</time>
      </trkpt>
      <trkpt lat="44.87796" lon="1.76229">
        <ele>334.68</ele>
        <time>2026-05-14T06:22:07Z</time>
      </trkpt>
      <trkpt lat="44.8782" lon="1.76239">
        <ele>334.68</ele>
        <time>2026-05-14T06:22:30Z</time>
      </trkpt>
      <trkpt lat="44.87847" lon="1.76247">
        <ele>336.12</ele>
        <time>2026-05-14T06:22:51Z</time>
      </trkpt>
      <trkpt lat="44.87855" lon="1.76252">
        <ele>336.6</ele>
        <time>2026-05-14T06:22:58Z</time>
      </trkpt>
      <trkpt lat="44.87875" lon="1.76274">
        <ele>339</ele>
        <time>2026-05-14T06:23:22Z</time>
      </trkpt>
      <trkpt lat="44.87886" lon="1.76285">
        <ele>340.44</ele>
        <time>2026-05-14T06:23:35Z</time>
      </trkpt>
      <trkpt lat="44.87895" lon="1.76298">
        <ele>341.41</ele>
        <time>2026-05-14T06:23:47Z</time>
      </trkpt>
      <trkpt lat="44.87914" lon="1.76312">
        <ele>343.81</ele>
        <time>2026-05-14T06:24:09Z</time>
      </trkpt>
      <trkpt lat="44.87923" lon="1.76333">
        <ele>344.29</ele>
        <time>2026-05-14T06:24:28Z</time>
      </trkpt>
      <trkpt lat="44.87922" lon="1.76362">
        <ele>347.65</ele>
        <time>2026-05-14T06:24:48Z</time>
      </trkpt>
      <trkpt lat="44.87922" lon="1.76364">
        <ele>347.65</ele>
        <time>2026-05-14T06:24:49Z</time>
      </trkpt>
      <trkpt lat="44.87917" lon="1.76387">
        <ele>348.62</ele>
        <time>2026-05-14T06:25:05Z</time>
      </trkpt>
      <trkpt lat="44.87932" lon="1.76393">
        <ele>350.06</ele>
        <time>2026-05-14T06:25:25Z</time>
      </trkpt>
      <trkpt lat="44.87962" lon="1.76389">
        <ele>351.02</ele>
        <time>2026-05-14T06:25:46Z</time>
      </trkpt>
      <trkpt lat="44.87981" lon="1.76395">
        <ele>351.98</ele>
        <time>2026-05-14T06:26:02Z</time>
      </trkpt>
      <trkpt lat="44.87984" lon="1.76395">
        <ele>351.98</ele>
        <time>2026-05-14T06:26:04Z</time>
      </trkpt>
      <trkpt lat="44.88004" lon="1.76407">
        <ele>352.94</ele>
        <time>2026-05-14T06:26:24Z</time>
      </trkpt>
      <trkpt lat="44.88017" lon="1.76417">
        <ele>353.9</ele>
        <time>2026-05-14T06:26:35Z</time>
      </trkpt>
      <trkpt lat="44.8803" lon="1.76425">
        <ele>353.9</ele>
        <time>2026-05-14T06:26:47Z</time>
      </trkpt>
      <trkpt lat="44.88034" lon="1.76428">
        <ele>352.46</ele>
        <time>2026-05-14T06:26:51Z</time>
      </trkpt>
      <trkpt lat="44.88061" lon="1.76443">
        <ele>351.5</ele>
        <time>2026-05-14T06:27:14Z</time>
      </trkpt>
      <trkpt lat="44.88087" lon="1.76454">
        <ele>349.58</ele>
        <time>2026-05-14T06:27:35Z</time>
      </trkpt>
      <trkpt lat="44.88115" lon="1.76443">
        <ele>349.1</ele>
        <time>2026-05-14T06:27:57Z</time>
      </trkpt>
      <trkpt lat="44.88123" lon="1.76443">
        <ele>350.54</ele>
        <time>2026-05-14T06:28:04Z</time>
      </trkpt>
      <trkpt lat="44.88155" lon="1.7645">
        <ele>349.1</ele>
        <time>2026-05-14T06:28:28Z</time>
      </trkpt>
      <trkpt lat="44.88161" lon="1.76452">
        <ele>350.54</ele>
        <time>2026-05-14T06:28:32Z</time>
      </trkpt>
      <trkpt lat="44.88183" lon="1.76459">
        <ele>347.65</ele>
        <time>2026-05-14T06:28:51Z</time>
      </trkpt>
      <trkpt lat="44.88204" lon="1.76461">
        <ele>351.02</ele>
        <time>2026-05-14T06:29:08Z</time>
      </trkpt>
      <trkpt lat="44.8823" lon="1.76461">
        <ele>351.5</ele>
        <time>2026-05-14T06:29:28Z</time>
      </trkpt>
      <trkpt lat="44.88246" lon="1.76455">
        <ele>352.94</ele>
        <time>2026-05-14T06:29:42Z</time>
      </trkpt>
      <trkpt lat="44.88273" lon="1.76451">
        <ele>351.98</ele>
        <time>2026-05-14T06:30:04Z</time>
      </trkpt>
      <trkpt lat="44.88298" lon="1.76442">
        <ele>352.46</ele>
        <time>2026-05-14T06:30:25Z</time>
      </trkpt>
      <trkpt lat="44.8832" lon="1.76417">
        <ele>352.46</ele>
        <time>2026-05-14T06:30:47Z</time>
      </trkpt>
      <trkpt lat="44.88334" lon="1.76411">
        <ele>351.98</ele>
        <time>2026-05-14T06:31:06Z</time>
      </trkpt>
      <trkpt lat="44.88334" lon="1.76444">
        <ele>350.54</ele>
        <time>2026-05-14T06:31:25Z</time>
      </trkpt>
      <trkpt lat="44.88332" lon="1.76481">
        <ele>347.65</ele>
        <time>2026-05-14T06:31:47Z</time>
      </trkpt>
      <trkpt lat="44.8833" lon="1.76486">
        <ele>350.06</ele>
        <time>2026-05-14T06:31:50Z</time>
      </trkpt>
      <trkpt lat="44.8833" lon="1.7649">
        <ele>348.13</ele>
        <time>2026-05-14T06:31:52Z</time>
      </trkpt>
      <trkpt lat="44.88337" lon="1.76512">
        <ele>344.77</ele>
        <time>2026-05-14T06:32:06Z</time>
      </trkpt>
      <trkpt lat="44.88352" lon="1.76544">
        <ele>342.37</ele>
        <time>2026-05-14T06:32:28Z</time>
      </trkpt>
      <trkpt lat="44.88367" lon="1.7658">
        <ele>339</ele>
        <time>2026-05-14T06:32:51Z</time>
      </trkpt>
      <trkpt lat="44.88376" lon="1.76608">
        <ele>335.16</ele>
        <time>2026-05-14T06:33:10Z</time>
      </trkpt>
      <trkpt lat="44.88387" lon="1.7663">
        <ele>332.75</ele>
        <time>2026-05-14T06:33:26Z</time>
      </trkpt>
      <trkpt lat="44.88397" lon="1.76655">
        <ele>329.39</ele>
        <time>2026-05-14T06:33:43Z</time>
      </trkpt>
      <trkpt lat="44.88413" lon="1.76682">
        <ele>326.02</ele>
        <time>2026-05-14T06:34:03Z</time>
      </trkpt>
      <trkpt lat="44.8842" lon="1.76692">
        <ele>325.54</ele>
        <time>2026-05-14T06:34:11Z</time>
      </trkpt>
      <trkpt lat="44.88427" lon="1.7671">
        <ele>326.02</ele>
        <time>2026-05-14T06:34:27Z</time>
      </trkpt>
      <trkpt lat="44.88422" lon="1.76703">
        <ele>325.54</ele>
        <time>2026-05-14T06:34:54Z</time>
      </trkpt>
      <trkpt lat="44.88436" lon="1.76723">
        <ele>324.1</ele>
        <time>2026-05-14T06:35:14Z</time>
      </trkpt>
      <trkpt lat="44.88436" lon="1.7673">
        <ele>323.62</ele>
        <time>2026-05-14T06:35:22Z</time>
      </trkpt>
      <trkpt lat="44.8844" lon="1.76733">
        <ele>325.06</ele>
        <time>2026-05-14T06:35:28Z</time>
      </trkpt>
      <trkpt lat="44.88442" lon="1.76727">
        <ele>323.62</ele>
        <time>2026-05-14T06:35:51Z</time>
      </trkpt>
      <trkpt lat="44.88452" lon="1.76747">
        <ele>323.62</ele>
        <time>2026-05-14T06:36:09Z</time>
      </trkpt>
      <trkpt lat="44.88465" lon="1.76781">
        <ele>322.18</ele>
        <time>2026-05-14T06:36:26Z</time>
      </trkpt>
      <trkpt lat="44.88477" lon="1.76819">
        <ele>324.58</ele>
        <time>2026-05-14T06:36:50Z</time>
      </trkpt>
      <trkpt lat="44.88495" lon="1.76839">
        <ele>325.54</ele>
        <time>2026-05-14T06:37:09Z</time>
      </trkpt>
      <trkpt lat="44.88511" lon="1.76843">
        <ele>325.54</ele>
        <time>2026-05-14T06:37:22Z</time>
      </trkpt>
      <trkpt lat="44.88529" lon="1.76835">
        <ele>327.47</ele>
        <time>2026-05-14T06:37:37Z</time>
      </trkpt>
      <trkpt lat="44.88553" lon="1.76841">
        <ele>324.1</ele>
        <time>2026-05-14T06:37:59Z</time>
      </trkpt>
      <trkpt lat="44.88552" lon="1.76839">
        <ele>331.31</ele>
        <time>2026-05-14T06:38:01Z</time>
      </trkpt>
      <trkpt lat="44.88552" lon="1.76837">
        <ele>328.43</ele>
        <time>2026-05-14T06:38:02Z</time>
      </trkpt>
      <trkpt lat="44.88553" lon="1.76835">
        <ele>327.47</ele>
        <time>2026-05-14T06:38:04Z</time>
      </trkpt>
      <trkpt lat="44.88555" lon="1.76832">
        <ele>327.47</ele>
        <time>2026-05-14T06:38:18Z</time>
      </trkpt>
      <trkpt lat="44.88555" lon="1.76832">
        <ele>328.43</ele>
        <time>2026-05-14T06:38:45Z</time>
      </trkpt>
      <trkpt lat="44.88554" lon="1.76832">
        <ele>326.99</ele>
        <time>2026-05-14T06:38:51Z</time>
      </trkpt>
      <trkpt lat="44.88564" lon="1.76807">
        <ele>327.47</ele>
        <time>2026-05-14T06:39:10Z</time>
      </trkpt>
      <trkpt lat="44.88569" lon="1.76791">
        <ele>327.95</ele>
        <time>2026-05-14T06:39:23Z</time>
      </trkpt>
      <trkpt lat="44.88589" lon="1.76759">
        <ele>327.95</ele>
        <time>2026-05-14T06:39:48Z</time>
      </trkpt>
      <trkpt lat="44.88597" lon="1.76746">
        <ele>326.99</ele>
        <time>2026-05-14T06:39:57Z</time>
      </trkpt>
      <trkpt lat="44.88612" lon="1.76699">
        <ele>326.02</ele>
        <time>2026-05-14T06:40:22Z</time>
      </trkpt>
      <trkpt lat="44.88624" lon="1.76666">
        <ele>324.58</ele>
        <time>2026-05-14T06:40:41Z</time>
      </trkpt>
      <trkpt lat="44.88631" lon="1.76645">
        <ele>323.14</ele>
        <time>2026-05-14T06:40:54Z</time>
      </trkpt>
      <trkpt lat="44.88633" lon="1.76638">
        <ele>322.66</ele>
        <time>2026-05-14T06:41:07Z</time>
      </trkpt>
      <trkpt lat="44.88635" lon="1.76619">
        <ele>321.22</ele>
        <time>2026-05-14T06:41:31Z</time>
      </trkpt>
      <trkpt lat="44.88641" lon="1.76581">
        <ele>317.85</ele>
        <time>2026-05-14T06:41:51Z</time>
      </trkpt>
      <trkpt lat="44.88645" lon="1.76558">
        <ele>316.41</ele>
        <time>2026-05-14T06:42:03Z</time>
      </trkpt>
      <trkpt lat="44.88648" lon="1.76523">
        <ele>313.53</ele>
        <time>2026-05-14T06:42:21Z</time>
      </trkpt>
      <trkpt lat="44.88652" lon="1.76475">
        <ele>312.57</ele>
        <time>2026-05-14T06:42:45Z</time>
      </trkpt>
      <trkpt lat="44.88663" lon="1.7644">
        <ele>312.57</ele>
        <time>2026-05-14T06:43:04Z</time>
      </trkpt>
      <trkpt lat="44.88663" lon="1.76434">
        <ele>310.64</ele>
        <time>2026-05-14T06:43:07Z</time>
      </trkpt>
      <trkpt lat="44.88666" lon="1.76398">
        <ele>310.64</ele>
        <time>2026-05-14T06:43:30Z</time>
      </trkpt>
      <trkpt lat="44.88665" lon="1.76345">
        <ele>309.2</ele>
        <time>2026-05-14T06:43:57Z</time>
      </trkpt>
      <trkpt lat="44.88663" lon="1.76339">
        <ele>309.2</ele>
        <time>2026-05-14T06:44:05Z</time>
      </trkpt>
      <trkpt lat="44.88663" lon="1.76343">
        <ele>309.68</ele>
        <time>2026-05-14T06:44:35Z</time>
      </trkpt>
      <trkpt lat="44.88672" lon="1.76301">
        <ele>310.16</ele>
        <time>2026-05-14T06:44:57Z</time>
      </trkpt>
      <trkpt lat="44.88683" lon="1.76255">
        <ele>310.16</ele>
        <time>2026-05-14T06:45:22Z</time>
      </trkpt>
      <trkpt lat="44.88696" lon="1.76221">
        <ele>310.64</ele>
        <time>2026-05-14T06:45:44Z</time>
      </trkpt>
      <trkpt lat="44.8871" lon="1.76185">
        <ele>311.12</ele>
        <time>2026-05-14T06:46:06Z</time>
      </trkpt>
      <trkpt lat="44.88728" lon="1.76152">
        <ele>313.53</ele>
        <time>2026-05-14T06:46:30Z</time>
      </trkpt>
      <trkpt lat="44.88746" lon="1.76116">
        <ele>314.97</ele>
        <time>2026-05-14T06:46:54Z</time>
      </trkpt>
      <trkpt lat="44.88765" lon="1.76084">
        <ele>315.45</ele>
        <time>2026-05-14T06:47:18Z</time>
      </trkpt>
      <trkpt lat="44.88784" lon="1.76048">
        <ele>316.41</ele>
        <time>2026-05-14T06:47:43Z</time>
      </trkpt>
      <trkpt lat="44.88801" lon="1.76027">
        <ele>315.93</ele>
        <time>2026-05-14T06:48:00Z</time>
      </trkpt>
      <trkpt lat="44.88828" lon="1.75999">
        <ele>315.93</ele>
        <time>2026-05-14T06:48:24Z</time>
      </trkpt>
      <trkpt lat="44.88847" lon="1.75963">
        <ele>316.89</ele>
        <time>2026-05-14T06:48:47Z</time>
      </trkpt>
      <trkpt lat="44.88856" lon="1.75934">
        <ele>318.33</ele>
        <time>2026-05-14T06:49:05Z</time>
      </trkpt>
      <trkpt lat="44.88868" lon="1.75893">
        <ele>318.33</ele>
        <time>2026-05-14T06:49:29Z</time>
      </trkpt>
      <trkpt lat="44.88872" lon="1.75881">
        <ele>317.37</ele>
        <time>2026-05-14T06:49:36Z</time>
      </trkpt>
      <trkpt lat="44.88874" lon="1.75876">
        <ele>318.81</ele>
        <time>2026-05-14T06:49:39Z</time>
      </trkpt>
      <trkpt lat="44.88879" lon="1.75858">
        <ele>317.85</ele>
        <time>2026-05-14T06:49:50Z</time>
      </trkpt>
      <trkpt lat="44.88895" lon="1.75827">
        <ele>316.89</ele>
        <time>2026-05-14T06:50:10Z</time>
      </trkpt>
      <trkpt lat="44.88903" lon="1.75815">
        <ele>315.45</ele>
        <time>2026-05-14T06:50:19Z</time>
      </trkpt>
      <trkpt lat="44.88921" lon="1.75781">
        <ele>313.53</ele>
        <time>2026-05-14T06:50:41Z</time>
      </trkpt>
      <trkpt lat="44.88937" lon="1.75748">
        <ele>311.6</ele>
        <time>2026-05-14T06:51:01Z</time>
      </trkpt>
      <trkpt lat="44.88944" lon="1.75724">
        <ele>312.09</ele>
        <time>2026-05-14T06:51:16Z</time>
      </trkpt>
      <trkpt lat="44.8898" lon="1.75723">
        <ele>310.64</ele>
        <time>2026-05-14T06:51:41Z</time>
      </trkpt>
      <trkpt lat="44.89001" lon="1.7572">
        <ele>310.16</ele>
        <time>2026-05-14T06:51:57Z</time>
      </trkpt>
      <trkpt lat="44.89006" lon="1.75719">
        <ele>307.28</ele>
        <time>2026-05-14T06:52:02Z</time>
      </trkpt>
      <trkpt lat="44.89007" lon="1.75719">
        <ele>311.12</ele>
        <time>2026-05-14T06:52:03Z</time>
      </trkpt>
      <trkpt lat="44.8901" lon="1.75723">
        <ele>307.76</ele>
        <time>2026-05-14T06:52:20Z</time>
      </trkpt>
      <trkpt lat="44.89017" lon="1.75723">
        <ele>308.24</ele>
        <time>2026-05-14T06:52:27Z</time>
      </trkpt>
      <trkpt lat="44.8902" lon="1.75723">
        <ele>308.72</ele>
        <time>2026-05-14T06:52:50Z</time>
      </trkpt>
      <trkpt lat="44.89027" lon="1.75714">
        <ele>307.28</ele>
        <time>2026-05-14T06:53:02Z</time>
      </trkpt>
      <trkpt lat="44.89029" lon="1.75711">
        <ele>309.68</ele>
        <time>2026-05-14T06:53:04Z</time>
      </trkpt>
      <trkpt lat="44.89032" lon="1.75708">
        <ele>308.24</ele>
        <time>2026-05-14T06:53:07Z</time>
      </trkpt>
      <trkpt lat="44.89046" lon="1.75691">
        <ele>306.8</ele>
        <time>2026-05-14T06:53:23Z</time>
      </trkpt>
      <trkpt lat="44.89065" lon="1.75682">
        <ele>303.43</ele>
        <time>2026-05-14T06:53:40Z</time>
      </trkpt>
      <trkpt lat="44.89085" lon="1.75676">
        <ele>300.07</ele>
        <time>2026-05-14T06:53:57Z</time>
      </trkpt>
      <trkpt lat="44.89107" lon="1.7567">
        <ele>295.74</ele>
        <time>2026-05-14T06:54:15Z</time>
      </trkpt>
      <trkpt lat="44.8914" lon="1.75667">
        <ele>293.82</ele>
        <time>2026-05-14T06:54:37Z</time>
      </trkpt>
      <trkpt lat="44.89173" lon="1.75661">
        <ele>290.94</ele>
        <time>2026-05-14T06:55:01Z</time>
      </trkpt>
      <trkpt lat="44.89205" lon="1.7566">
        <ele>287.57</ele>
        <time>2026-05-14T06:55:22Z</time>
      </trkpt>
      <trkpt lat="44.89213" lon="1.75659">
        <ele>287.09</ele>
        <time>2026-05-14T06:55:28Z</time>
      </trkpt>
      <trkpt lat="44.89232" lon="1.75654">
        <ele>284.21</ele>
        <time>2026-05-14T06:55:45Z</time>
      </trkpt>
      <trkpt lat="44.89262" lon="1.75646">
        <ele>282.28</ele>
        <time>2026-05-14T06:56:11Z</time>
      </trkpt>
      <trkpt lat="44.89287" lon="1.75637">
        <ele>281.32</ele>
        <time>2026-05-14T06:56:31Z</time>
      </trkpt>
      <trkpt lat="44.89289" lon="1.75637">
        <ele>283.73</ele>
        <time>2026-05-14T06:56:33Z</time>
      </trkpt>
      <trkpt lat="44.89298" lon="1.75638">
        <ele>283.73</ele>
        <time>2026-05-14T06:56:40Z</time>
      </trkpt>
      <trkpt lat="44.89301" lon="1.75637">
        <ele>282.77</ele>
        <time>2026-05-14T06:56:48Z</time>
      </trkpt>
      <trkpt lat="44.89299" lon="1.75639">
        <ele>284.69</ele>
        <time>2026-05-14T06:57:18Z</time>
      </trkpt>
      <trkpt lat="44.89327" lon="1.75638">
        <ele>285.65</ele>
        <time>2026-05-14T06:57:41Z</time>
      </trkpt>
      <trkpt lat="44.89348" lon="1.75648">
        <ele>288.53</ele>
        <time>2026-05-14T06:58:01Z</time>
      </trkpt>
      <trkpt lat="44.89366" lon="1.75655">
        <ele>289.97</ele>
        <time>2026-05-14T06:58:20Z</time>
      </trkpt>
      <trkpt lat="44.89366" lon="1.75654">
        <ele>288.53</ele>
        <time>2026-05-14T06:58:22Z</time>
      </trkpt>
      <trkpt lat="44.89366" lon="1.75653">
        <ele>287.57</ele>
        <time>2026-05-14T06:58:27Z</time>
      </trkpt>
      <trkpt lat="44.89367" lon="1.75652">
        <ele>291.9</ele>
        <time>2026-05-14T06:58:29Z</time>
      </trkpt>
      <trkpt lat="44.89368" lon="1.75651">
        <ele>296.7</ele>
        <time>2026-05-14T06:58:30Z</time>
      </trkpt>
      <trkpt lat="44.89369" lon="1.7565">
        <ele>292.38</ele>
        <time>2026-05-14T06:58:31Z</time>
      </trkpt>
      <trkpt lat="44.8937" lon="1.75648">
        <ele>289.97</ele>
        <time>2026-05-14T06:58:32Z</time>
      </trkpt>
      <trkpt lat="44.89374" lon="1.75636">
        <ele>290.94</ele>
        <time>2026-05-14T06:58:42Z</time>
      </trkpt>
      <trkpt lat="44.89375" lon="1.75604">
        <ele>290.94</ele>
        <time>2026-05-14T06:59:01Z</time>
      </trkpt>
      <trkpt lat="44.89374" lon="1.75564">
        <ele>289.49</ele>
        <time>2026-05-14T06:59:22Z</time>
      </trkpt>
      <trkpt lat="44.89366" lon="1.75519">
        <ele>288.05</ele>
        <time>2026-05-14T06:59:46Z</time>
      </trkpt>
      <trkpt lat="44.89365" lon="1.75481">
        <ele>286.13</ele>
        <time>2026-05-14T07:00:04Z</time>
      </trkpt>
      <trkpt lat="44.89377" lon="1.75459">
        <ele>285.65</ele>
        <time>2026-05-14T07:00:22Z</time>
      </trkpt>
      <trkpt lat="44.89394" lon="1.7544">
        <ele>287.57</ele>
        <time>2026-05-14T07:00:42Z</time>
      </trkpt>
      <trkpt lat="44.89423" lon="1.75415">
        <ele>287.09</ele>
        <time>2026-05-14T07:01:04Z</time>
      </trkpt>
      <trkpt lat="44.89445" lon="1.75394">
        <ele>287.57</ele>
        <time>2026-05-14T07:01:25Z</time>
      </trkpt>
      <trkpt lat="44.89468" lon="1.75373">
        <ele>287.57</ele>
        <time>2026-05-14T07:01:46Z</time>
      </trkpt>
      <trkpt lat="44.89482" lon="1.75362">
        <ele>286.13</ele>
        <time>2026-05-14T07:01:59Z</time>
      </trkpt>
      <trkpt lat="44.89498" lon="1.75336">
        <ele>282.77</ele>
        <time>2026-05-14T07:02:19Z</time>
      </trkpt>
      <trkpt lat="44.89499" lon="1.75335">
        <ele>282.77</ele>
        <time>2026-05-14T07:02:20Z</time>
      </trkpt>
      <trkpt lat="44.89515" lon="1.75333">
        <ele>280.36</ele>
        <time>2026-05-14T07:02:34Z</time>
      </trkpt>
      <trkpt lat="44.89527" lon="1.7534">
        <ele>277.96</ele>
        <time>2026-05-14T07:02:43Z</time>
      </trkpt>
      <trkpt lat="44.89538" lon="1.75346">
        <ele>273.63</ele>
        <time>2026-05-14T07:02:52Z</time>
      </trkpt>
      <trkpt lat="44.8954" lon="1.75347">
        <ele>277.96</ele>
        <time>2026-05-14T07:02:53Z</time>
      </trkpt>
      <trkpt lat="44.89541" lon="1.75348">
        <ele>278.44</ele>
        <time>2026-05-14T07:02:54Z</time>
      </trkpt>
      <trkpt lat="44.89544" lon="1.75351">
        <ele>276.04</ele>
        <time>2026-05-14T07:02:56Z</time>
      </trkpt>
      <trkpt lat="44.89558" lon="1.75366">
        <ele>273.15</ele>
        <time>2026-05-14T07:03:12Z</time>
      </trkpt>
      <trkpt lat="44.89568" lon="1.75381">
        <ele>270.27</ele>
        <time>2026-05-14T07:03:24Z</time>
      </trkpt>
      <trkpt lat="44.89581" lon="1.75392">
        <ele>268.35</ele>
        <time>2026-05-14T07:03:36Z</time>
      </trkpt>
      <trkpt lat="44.89593" lon="1.75406">
        <ele>267.38</ele>
        <time>2026-05-14T07:03:48Z</time>
      </trkpt>
      <trkpt lat="44.89599" lon="1.75415">
        <ele>264.98</ele>
        <time>2026-05-14T07:03:55Z</time>
      </trkpt>
      <trkpt lat="44.89609" lon="1.75441">
        <ele>264.5</ele>
        <time>2026-05-14T07:04:09Z</time>
      </trkpt>
      <trkpt lat="44.8961" lon="1.75443">
        <ele>263.54</ele>
        <time>2026-05-14T07:04:11Z</time>
      </trkpt>
      <trkpt lat="44.89618" lon="1.75471">
        <ele>261.14</ele>
        <time>2026-05-14T07:04:29Z</time>
      </trkpt>
      <trkpt lat="44.89634" lon="1.75492">
        <ele>258.25</ele>
        <time>2026-05-14T07:04:46Z</time>
      </trkpt>
      <trkpt lat="44.89648" lon="1.75494">
        <ele>254.89</ele>
        <time>2026-05-14T07:04:59Z</time>
      </trkpt>
      <trkpt lat="44.89666" lon="1.75489">
        <ele>252</ele>
        <time>2026-05-14T07:05:11Z</time>
      </trkpt>
      <trkpt lat="44.89678" lon="1.75486">
        <ele>248.64</ele>
        <time>2026-05-14T07:05:24Z</time>
      </trkpt>
      <trkpt lat="44.89697" lon="1.75486">
        <ele>245.27</ele>
        <time>2026-05-14T07:05:41Z</time>
      </trkpt>
      <trkpt lat="44.89723" lon="1.75484">
        <ele>242.39</ele>
        <time>2026-05-14T07:05:55Z</time>
      </trkpt>
      <trkpt lat="44.89731" lon="1.75481">
        <ele>239.02</ele>
        <time>2026-05-14T07:06:07Z</time>
      </trkpt>
      <trkpt lat="44.89745" lon="1.7547">
        <ele>236.62</ele>
        <time>2026-05-14T07:06:20Z</time>
      </trkpt>
      <trkpt lat="44.89746" lon="1.75469">
        <ele>236.62</ele>
        <time>2026-05-14T07:06:21Z</time>
      </trkpt>
      <trkpt lat="44.8976" lon="1.75467">
        <ele>233.74</ele>
        <time>2026-05-14T07:06:35Z</time>
      </trkpt>
      <trkpt lat="44.89779" lon="1.75469">
        <ele>230.85</ele>
        <time>2026-05-14T07:06:51Z</time>
      </trkpt>
      <trkpt lat="44.89782" lon="1.75469">
        <ele>230.37</ele>
        <time>2026-05-14T07:07:12Z</time>
      </trkpt>
      <trkpt lat="44.89795" lon="1.75464">
        <ele>228.93</ele>
        <time>2026-05-14T07:07:26Z</time>
      </trkpt>
      <trkpt lat="44.89807" lon="1.75462">
        <ele>226.53</ele>
        <time>2026-05-14T07:07:37Z</time>
      </trkpt>
      <trkpt lat="44.89825" lon="1.75454">
        <ele>224.61</ele>
        <time>2026-05-14T07:07:54Z</time>
      </trkpt>
      <trkpt lat="44.8984" lon="1.75433">
        <ele>222.2</ele>
        <time>2026-05-14T07:08:09Z</time>
      </trkpt>
      <trkpt lat="44.89846" lon="1.75409">
        <ele>221.24</ele>
        <time>2026-05-14T07:08:23Z</time>
      </trkpt>
      <trkpt lat="44.89852" lon="1.75374">
        <ele>221.24</ele>
        <time>2026-05-14T07:08:42Z</time>
      </trkpt>
      <trkpt lat="44.89851" lon="1.7535">
        <ele>221.24</ele>
        <time>2026-05-14T07:08:56Z</time>
      </trkpt>
      <trkpt lat="44.89846" lon="1.75324">
        <ele>221.24</ele>
        <time>2026-05-14T07:09:11Z</time>
      </trkpt>
      <trkpt lat="44.89848" lon="1.75301">
        <ele>219.32</ele>
        <time>2026-05-14T07:09:26Z</time>
      </trkpt>
      <trkpt lat="44.89856" lon="1.75284">
        <ele>215.95</ele>
        <time>2026-05-14T07:09:40Z</time>
      </trkpt>
      <trkpt lat="44.8986" lon="1.75281">
        <ele>213.07</ele>
        <time>2026-05-14T07:09:53Z</time>
      </trkpt>
      <trkpt lat="44.89882" lon="1.75279">
        <ele>209.7</ele>
        <time>2026-05-14T07:10:07Z</time>
      </trkpt>
      <trkpt lat="44.89898" lon="1.75268">
        <ele>206.82</ele>
        <time>2026-05-14T07:10:21Z</time>
      </trkpt>
      <trkpt lat="44.8991" lon="1.75265">
        <ele>203.94</ele>
        <time>2026-05-14T07:10:35Z</time>
      </trkpt>
      <trkpt lat="44.89926" lon="1.75272">
        <ele>201.53</ele>
        <time>2026-05-14T07:10:49Z</time>
      </trkpt>
      <trkpt lat="44.8994" lon="1.75271">
        <ele>198.17</ele>
        <time>2026-05-14T07:11:01Z</time>
      </trkpt>
      <trkpt lat="44.8995" lon="1.75281">
        <ele>194.8</ele>
        <time>2026-05-14T07:11:16Z</time>
      </trkpt>
      <trkpt lat="44.89967" lon="1.7529">
        <ele>191.44</ele>
        <time>2026-05-14T07:11:31Z</time>
      </trkpt>
      <trkpt lat="44.89975" lon="1.75304">
        <ele>188.08</ele>
        <time>2026-05-14T07:11:43Z</time>
      </trkpt>
      <trkpt lat="44.89979" lon="1.75317">
        <ele>185.19</ele>
        <time>2026-05-14T07:11:52Z</time>
      </trkpt>
      <trkpt lat="44.89987" lon="1.75311">
        <ele>181.83</ele>
        <time>2026-05-14T07:12:03Z</time>
      </trkpt>
      <trkpt lat="44.89995" lon="1.75297">
        <ele>178.94</ele>
        <time>2026-05-14T07:12:17Z</time>
      </trkpt>
      <trkpt lat="44.90003" lon="1.75285">
        <ele>175.1</ele>
        <time>2026-05-14T07:12:27Z</time>
      </trkpt>
      <trkpt lat="44.90011" lon="1.75271">
        <ele>172.21</ele>
        <time>2026-05-14T07:12:38Z</time>
      </trkpt>
      <trkpt lat="44.9002" lon="1.75257">
        <ele>168.85</ele>
        <time>2026-05-14T07:12:51Z</time>
      </trkpt>
      <trkpt lat="44.90026" lon="1.75239">
        <ele>165.96</ele>
        <time>2026-05-14T07:13:03Z</time>
      </trkpt>
      <trkpt lat="44.90027" lon="1.75232">
        <ele>164.52</ele>
        <time>2026-05-14T07:13:20Z</time>
      </trkpt>
      <trkpt lat="44.90022" lon="1.7522">
        <ele>161.16</ele>
        <time>2026-05-14T07:13:35Z</time>
      </trkpt>
      <trkpt lat="44.90017" lon="1.75207">
        <ele>158.27</ele>
        <time>2026-05-14T07:13:46Z</time>
      </trkpt>
      <trkpt lat="44.9002" lon="1.75201">
        <ele>154.91</ele>
        <time>2026-05-14T07:13:55Z</time>
      </trkpt>
      <trkpt lat="44.90031" lon="1.75207">
        <ele>151.54</ele>
        <time>2026-05-14T07:14:06Z</time>
      </trkpt>
      <trkpt lat="44.90036" lon="1.7521">
        <ele>149.62</ele>
        <time>2026-05-14T07:14:12Z</time>
      </trkpt>
      <trkpt lat="44.90049" lon="1.7522">
        <ele>146.26</ele>
        <time>2026-05-14T07:14:22Z</time>
      </trkpt>
      <trkpt lat="44.90061" lon="1.75237">
        <ele>142.89</ele>
        <time>2026-05-14T07:14:34Z</time>
      </trkpt>
      <trkpt lat="44.90069" lon="1.75248">
        <ele>139.53</ele>
        <time>2026-05-14T07:14:44Z</time>
      </trkpt>
      <trkpt lat="44.90076" lon="1.75256">
        <ele>136.64</ele>
        <time>2026-05-14T07:14:54Z</time>
      </trkpt>
      <trkpt lat="44.90086" lon="1.7527">
        <ele>133.28</ele>
        <time>2026-05-14T07:15:07Z</time>
      </trkpt>
      <trkpt lat="44.90101" lon="1.75275">
        <ele>129.92</ele>
        <time>2026-05-14T07:15:21Z</time>
      </trkpt>
      <trkpt lat="44.90109" lon="1.75265">
        <ele>126.55</ele>
        <time>2026-05-14T07:15:34Z</time>
      </trkpt>
      <trkpt lat="44.90126" lon="1.75253">
        <ele>123.67</ele>
        <time>2026-05-14T07:15:47Z</time>
      </trkpt>
      <trkpt lat="44.90116" lon="1.75229">
        <ele>124.63</ele>
        <time>2026-05-14T07:16:02Z</time>
      </trkpt>
      <trkpt lat="44.90114" lon="1.75211">
        <ele>125.11</ele>
        <time>2026-05-14T07:16:17Z</time>
      </trkpt>
      <trkpt lat="44.90108" lon="1.7518">
        <ele>126.07</ele>
        <time>2026-05-14T07:16:32Z</time>
      </trkpt>
      <trkpt lat="44.901" lon="1.75158">
        <ele>127.03</ele>
        <time>2026-05-14T07:16:49Z</time>
      </trkpt>
      <trkpt lat="44.90093" lon="1.75141">
        <ele>128.47</ele>
        <time>2026-05-14T07:17:06Z</time>
      </trkpt>
      <trkpt lat="44.90096" lon="1.75115">
        <ele>129.92</ele>
        <time>2026-05-14T07:17:23Z</time>
      </trkpt>
      <trkpt lat="44.90102" lon="1.75092">
        <ele>132.32</ele>
        <time>2026-05-14T07:17:39Z</time>
      </trkpt>
      <trkpt lat="44.90108" lon="1.75073">
        <ele>135.2</ele>
        <time>2026-05-14T07:17:55Z</time>
      </trkpt>
      <trkpt lat="44.90112" lon="1.75059">
        <ele>138.57</ele>
        <time>2026-05-14T07:18:14Z</time>
      </trkpt>
      <trkpt lat="44.90115" lon="1.75044">
        <ele>140.49</ele>
        <time>2026-05-14T07:18:30Z</time>
      </trkpt>
      <trkpt lat="44.90118" lon="1.75025">
        <ele>143.37</ele>
        <time>2026-05-14T07:18:48Z</time>
      </trkpt>
      <trkpt lat="44.90122" lon="1.75013">
        <ele>145.3</ele>
        <time>2026-05-14T07:19:08Z</time>
      </trkpt>
      <trkpt lat="44.90124" lon="1.7501">
        <ele>146.26</ele>
        <time>2026-05-14T07:19:27Z</time>
      </trkpt>
      <trkpt lat="44.90129" lon="1.74993">
        <ele>149.62</ele>
        <time>2026-05-14T07:19:43Z</time>
      </trkpt>
      <trkpt lat="44.90136" lon="1.74974">
        <ele>152.03</ele>
        <time>2026-05-14T07:20:00Z</time>
      </trkpt>
      <trkpt lat="44.90135" lon="1.74963">
        <ele>154.43</ele>
        <time>2026-05-14T07:20:17Z</time>
      </trkpt>
      <trkpt lat="44.90117" lon="1.7497">
        <ele>156.83</ele>
        <time>2026-05-14T07:20:38Z</time>
      </trkpt>
      <trkpt lat="44.90108" lon="1.74976">
        <ele>160.2</ele>
        <time>2026-05-14T07:20:54Z</time>
      </trkpt>
      <trkpt lat="44.90097" lon="1.74984">
        <ele>162.6</ele>
        <time>2026-05-14T07:21:13Z</time>
      </trkpt>
      <trkpt lat="44.90078" lon="1.74996">
        <ele>165.48</ele>
        <time>2026-05-14T07:21:34Z</time>
      </trkpt>
      <trkpt lat="44.90067" lon="1.74997">
        <ele>167.41</ele>
        <time>2026-05-14T07:21:52Z</time>
      </trkpt>
      <trkpt lat="44.90051" lon="1.74988">
        <ele>170.29</ele>
        <time>2026-05-14T07:22:10Z</time>
      </trkpt>
      <trkpt lat="44.90042" lon="1.74978">
        <ele>172.69</ele>
        <time>2026-05-14T07:22:26Z</time>
      </trkpt>
      <trkpt lat="44.90036" lon="1.74968">
        <ele>174.62</ele>
        <time>2026-05-14T07:22:40Z</time>
      </trkpt>
      <trkpt lat="44.90031" lon="1.74958">
        <ele>177.5</ele>
        <time>2026-05-14T07:22:55Z</time>
      </trkpt>
      <trkpt lat="44.90034" lon="1.74948">
        <ele>179.42</ele>
        <time>2026-05-14T07:23:07Z</time>
      </trkpt>
      <trkpt lat="44.90046" lon="1.7494">
        <ele>181.83</ele>
        <time>2026-05-14T07:23:25Z</time>
      </trkpt>
      <trkpt lat="44.90059" lon="1.74933">
        <ele>184.71</ele>
        <time>2026-05-14T07:23:42Z</time>
      </trkpt>
      <trkpt lat="44.90067" lon="1.74923">
        <ele>186.63</ele>
        <time>2026-05-14T07:23:56Z</time>
      </trkpt>
      <trkpt lat="44.90075" lon="1.74911">
        <ele>189.04</ele>
        <time>2026-05-14T07:24:12Z</time>
      </trkpt>
      <trkpt lat="44.90086" lon="1.74902">
        <ele>191.44</ele>
        <time>2026-05-14T07:24:28Z</time>
      </trkpt>
      <trkpt lat="44.90093" lon="1.74889">
        <ele>194.32</ele>
        <time>2026-05-14T07:24:44Z</time>
      </trkpt>
      <trkpt lat="44.901" lon="1.74879">
        <ele>196.25</ele>
        <time>2026-05-14T07:24:57Z</time>
      </trkpt>
      <trkpt lat="44.90107" lon="1.74869">
        <ele>198.17</ele>
        <time>2026-05-14T07:25:11Z</time>
      </trkpt>
      <trkpt lat="44.90114" lon="1.74853">
        <ele>200.09</ele>
        <time>2026-05-14T07:25:27Z</time>
      </trkpt>
      <trkpt lat="44.90122" lon="1.74836">
        <ele>201.05</ele>
        <time>2026-05-14T07:25:40Z</time>
      </trkpt>
      <trkpt lat="44.90129" lon="1.74818">
        <ele>203.46</ele>
        <time>2026-05-14T07:25:55Z</time>
      </trkpt>
      <trkpt lat="44.90135" lon="1.74799">
        <ele>206.34</ele>
        <time>2026-05-14T07:26:10Z</time>
      </trkpt>
      <trkpt lat="44.9014" lon="1.74784">
        <ele>208.74</ele>
        <time>2026-05-14T07:26:27Z</time>
      </trkpt>
      <trkpt lat="44.90145" lon="1.74764">
        <ele>210.67</ele>
        <time>2026-05-14T07:26:45Z</time>
      </trkpt>
      <trkpt lat="44.90152" lon="1.74739">
        <ele>212.59</ele>
        <time>2026-05-14T07:27:01Z</time>
      </trkpt>
      <trkpt lat="44.90154" lon="1.74732">
        <ele>213.07</ele>
        <time>2026-05-14T07:27:06Z</time>
      </trkpt>
      <trkpt lat="44.90158" lon="1.74713">
        <ele>214.03</ele>
        <time>2026-05-14T07:27:20Z</time>
      </trkpt>
      <trkpt lat="44.90158" lon="1.74698">
        <ele>214.99</ele>
        <time>2026-05-14T07:27:33Z</time>
      </trkpt>
      <trkpt lat="44.90158" lon="1.74695">
        <ele>214.99</ele>
        <time>2026-05-14T07:27:35Z</time>
      </trkpt>
      <trkpt lat="44.90161" lon="1.74677">
        <ele>216.91</ele>
        <time>2026-05-14T07:27:49Z</time>
      </trkpt>
      <trkpt lat="44.90161" lon="1.74674">
        <ele>210.67</ele>
        <time>2026-05-14T07:27:55Z</time>
      </trkpt>
      <trkpt lat="44.90161" lon="1.74673">
        <ele>219.32</ele>
        <time>2026-05-14T07:27:56Z</time>
      </trkpt>
      <trkpt lat="44.90161" lon="1.74672">
        <ele>219.32</ele>
        <time>2026-05-14T07:27:57Z</time>
      </trkpt>
      <trkpt lat="44.90161" lon="1.74671">
        <ele>216.91</ele>
        <time>2026-05-14T07:28:00Z</time>
      </trkpt>
      <trkpt lat="44.90164" lon="1.74654">
        <ele>216.43</ele>
        <time>2026-05-14T07:28:15Z</time>
      </trkpt>
      <trkpt lat="44.90164" lon="1.74647">
        <ele>217.88</ele>
        <time>2026-05-14T07:28:19Z</time>
      </trkpt>
      <trkpt lat="44.90165" lon="1.7464">
        <ele>218.36</ele>
        <time>2026-05-14T07:28:24Z</time>
      </trkpt>
      <trkpt lat="44.90165" lon="1.74613">
        <ele>219.8</ele>
        <time>2026-05-14T07:28:41Z</time>
      </trkpt>
      <trkpt lat="44.90163" lon="1.74592">
        <ele>221.24</ele>
        <time>2026-05-14T07:28:55Z</time>
      </trkpt>
      <trkpt lat="44.90161" lon="1.74581">
        <ele>223.16</ele>
        <time>2026-05-14T07:29:12Z</time>
      </trkpt>
      <trkpt lat="44.90158" lon="1.74566">
        <ele>224.12</ele>
        <time>2026-05-14T07:29:28Z</time>
      </trkpt>
      <trkpt lat="44.90155" lon="1.74547">
        <ele>227.01</ele>
        <time>2026-05-14T07:29:45Z</time>
      </trkpt>
      <trkpt lat="44.90152" lon="1.74527">
        <ele>228.45</ele>
        <time>2026-05-14T07:29:58Z</time>
      </trkpt>
      <trkpt lat="44.90151" lon="1.74508">
        <ele>230.85</ele>
        <time>2026-05-14T07:30:16Z</time>
      </trkpt>
      <trkpt lat="44.90151" lon="1.7449">
        <ele>233.26</ele>
        <time>2026-05-14T07:30:31Z</time>
      </trkpt>
      <trkpt lat="44.90158" lon="1.74479">
        <ele>234.7</ele>
        <time>2026-05-14T07:30:49Z</time>
      </trkpt>
      <trkpt lat="44.90167" lon="1.74469">
        <ele>235.66</ele>
        <time>2026-05-14T07:31:01Z</time>
      </trkpt>
      <trkpt lat="44.90176" lon="1.74453">
        <ele>236.62</ele>
        <time>2026-05-14T07:31:13Z</time>
      </trkpt>
      <trkpt lat="44.9018" lon="1.74444">
        <ele>238.54</ele>
        <time>2026-05-14T07:31:26Z</time>
      </trkpt>
      <trkpt lat="44.90181" lon="1.74426">
        <ele>240.47</ele>
        <time>2026-05-14T07:31:42Z</time>
      </trkpt>
      <trkpt lat="44.9018" lon="1.74407">
        <ele>242.87</ele>
        <time>2026-05-14T07:32:01Z</time>
      </trkpt>
      <trkpt lat="44.90175" lon="1.74387">
        <ele>246.23</ele>
        <time>2026-05-14T07:32:21Z</time>
      </trkpt>
      <trkpt lat="44.90169" lon="1.74379">
        <ele>249.12</ele>
        <time>2026-05-14T07:32:38Z</time>
      </trkpt>
      <trkpt lat="44.90157" lon="1.74366">
        <ele>252</ele>
        <time>2026-05-14T07:32:57Z</time>
      </trkpt>
      <trkpt lat="44.90147" lon="1.74362">
        <ele>254.41</ele>
        <time>2026-05-14T07:33:14Z</time>
      </trkpt>
      <trkpt lat="44.90137" lon="1.74355">
        <ele>256.81</ele>
        <time>2026-05-14T07:33:31Z</time>
      </trkpt>
      <trkpt lat="44.90128" lon="1.74348">
        <ele>260.17</ele>
        <time>2026-05-14T07:33:48Z</time>
      </trkpt>
      <trkpt lat="44.90117" lon="1.74328">
        <ele>263.06</ele>
        <time>2026-05-14T07:34:08Z</time>
      </trkpt>
      <trkpt lat="44.9011" lon="1.74319">
        <ele>264.98</ele>
        <time>2026-05-14T07:34:23Z</time>
      </trkpt>
      <trkpt lat="44.90111" lon="1.74312">
        <ele>263.54</ele>
        <time>2026-05-14T07:34:29Z</time>
      </trkpt>
      <trkpt lat="44.90108" lon="1.74286">
        <ele>262.58</ele>
        <time>2026-05-14T07:34:44Z</time>
      </trkpt>
      <trkpt lat="44.90106" lon="1.74259">
        <ele>260.17</ele>
        <time>2026-05-14T07:34:59Z</time>
      </trkpt>
      <trkpt lat="44.90112" lon="1.7423">
        <ele>258.73</ele>
        <time>2026-05-14T07:35:15Z</time>
      </trkpt>
      <trkpt lat="44.90118" lon="1.74218">
        <ele>256.81</ele>
        <time>2026-05-14T07:35:25Z</time>
      </trkpt>
      <trkpt lat="44.90129" lon="1.74198">
        <ele>256.81</ele>
        <time>2026-05-14T07:35:39Z</time>
      </trkpt>
      <trkpt lat="44.90142" lon="1.74181">
        <ele>254.89</ele>
        <time>2026-05-14T07:35:54Z</time>
      </trkpt>
      <trkpt lat="44.90149" lon="1.74166">
        <ele>253.44</ele>
        <time>2026-05-14T07:36:07Z</time>
      </trkpt>
      <trkpt lat="44.90161" lon="1.74135">
        <ele>251.52</ele>
        <time>2026-05-14T07:36:25Z</time>
      </trkpt>
      <trkpt lat="44.9016" lon="1.74116">
        <ele>250.08</ele>
        <time>2026-05-14T07:36:41Z</time>
      </trkpt>
      <trkpt lat="44.90152" lon="1.7409">
        <ele>248.16</ele>
        <time>2026-05-14T07:36:59Z</time>
      </trkpt>
      <trkpt lat="44.90144" lon="1.74061">
        <ele>247.68</ele>
        <time>2026-05-14T07:37:18Z</time>
      </trkpt>
      <trkpt lat="44.90136" lon="1.74041">
        <ele>247.2</ele>
        <time>2026-05-14T07:37:32Z</time>
      </trkpt>
      <trkpt lat="44.90127" lon="1.74008">
        <ele>245.75</ele>
        <time>2026-05-14T07:37:49Z</time>
      </trkpt>
      <trkpt lat="44.90125" lon="1.7399">
        <ele>244.31</ele>
        <time>2026-05-14T07:38:04Z</time>
      </trkpt>
      <trkpt lat="44.90127" lon="1.73967">
        <ele>242.87</ele>
        <time>2026-05-14T07:38:20Z</time>
      </trkpt>
      <trkpt lat="44.90136" lon="1.73933">
        <ele>240.95</ele>
        <time>2026-05-14T07:38:38Z</time>
      </trkpt>
      <trkpt lat="44.90147" lon="1.73909">
        <ele>239.99</ele>
        <time>2026-05-14T07:38:54Z</time>
      </trkpt>
      <trkpt lat="44.90161" lon="1.73886">
        <ele>238.06</ele>
        <time>2026-05-14T07:39:12Z</time>
      </trkpt>
      <trkpt lat="44.9017" lon="1.7387">
        <ele>237.1</ele>
        <time>2026-05-14T07:39:24Z</time>
      </trkpt>
      <trkpt lat="44.90188" lon="1.73847">
        <ele>235.18</ele>
        <time>2026-05-14T07:39:42Z</time>
      </trkpt>
      <trkpt lat="44.90205" lon="1.73828">
        <ele>234.22</ele>
        <time>2026-05-14T07:39:58Z</time>
      </trkpt>
      <trkpt lat="44.90224" lon="1.73802">
        <ele>231.81</ele>
        <time>2026-05-14T07:40:17Z</time>
      </trkpt>
      <trkpt lat="44.90226" lon="1.73797">
        <ele>231.81</ele>
        <time>2026-05-14T07:40:21Z</time>
      </trkpt>
      <trkpt lat="44.90239" lon="1.73783">
        <ele>230.37</ele>
        <time>2026-05-14T07:40:33Z</time>
      </trkpt>
      <trkpt lat="44.90254" lon="1.73754">
        <ele>227.49</ele>
        <time>2026-05-14T07:40:51Z</time>
      </trkpt>
      <trkpt lat="44.9026" lon="1.73737">
        <ele>226.53</ele>
        <time>2026-05-14T07:41:04Z</time>
      </trkpt>
      <trkpt lat="44.90257" lon="1.73738">
        <ele>226.53</ele>
        <time>2026-05-14T07:41:16Z</time>
      </trkpt>
      <trkpt lat="44.90254" lon="1.73733">
        <ele>226.53</ele>
        <time>2026-05-14T07:41:35Z</time>
      </trkpt>
      <trkpt lat="44.9026" lon="1.7374">
        <ele>226.53</ele>
        <time>2026-05-14T07:41:53Z</time>
      </trkpt>
      <trkpt lat="44.9026" lon="1.73733">
        <ele>226.53</ele>
        <time>2026-05-14T07:42:05Z</time>
      </trkpt>
      <trkpt lat="44.9027" lon="1.73731">
        <ele>226.53</ele>
        <time>2026-05-14T07:42:13Z</time>
      </trkpt>
      <trkpt lat="44.90281" lon="1.73729">
        <ele>225.57</ele>
        <time>2026-05-14T07:42:24Z</time>
      </trkpt>
      <trkpt lat="44.903" lon="1.73724">
        <ele>224.12</ele>
        <time>2026-05-14T07:42:40Z</time>
      </trkpt>
      <trkpt lat="44.90327" lon="1.73715">
        <ele>222.2</ele>
        <time>2026-05-14T07:42:57Z</time>
      </trkpt>
      <trkpt lat="44.90347" lon="1.7371">
        <ele>220.28</ele>
        <time>2026-05-14T07:43:12Z</time>
      </trkpt>
      <trkpt lat="44.90359" lon="1.73709">
        <ele>219.8</ele>
        <time>2026-05-14T07:43:22Z</time>
      </trkpt>
      <trkpt lat="44.90391" lon="1.73705">
        <ele>217.4</ele>
        <time>2026-05-14T07:43:43Z</time>
      </trkpt>
      <trkpt lat="44.90419" lon="1.73695">
        <ele>214.99</ele>
        <time>2026-05-14T07:44:04Z</time>
      </trkpt>
      <trkpt lat="44.90421" lon="1.73693">
        <ele>214.51</ele>
        <time>2026-05-14T07:44:16Z</time>
      </trkpt>
      <trkpt lat="44.90421" lon="1.7369">
        <ele>215.47</ele>
        <time>2026-05-14T07:44:35Z</time>
      </trkpt>
      <trkpt lat="44.90424" lon="1.73689">
        <ele>213.55</ele>
        <time>2026-05-14T07:44:40Z</time>
      </trkpt>
      <trkpt lat="44.90441" lon="1.73686">
        <ele>212.59</ele>
        <time>2026-05-14T07:44:52Z</time>
      </trkpt>
      <trkpt lat="44.90465" lon="1.73678">
        <ele>209.7</ele>
        <time>2026-05-14T07:45:14Z</time>
      </trkpt>
      <trkpt lat="44.90483" lon="1.73684">
        <ele>206.82</ele>
        <time>2026-05-14T07:45:34Z</time>
      </trkpt>
      <trkpt lat="44.90502" lon="1.73702">
        <ele>203.94</ele>
        <time>2026-05-14T07:45:53Z</time>
      </trkpt>
      <trkpt lat="44.90515" lon="1.73717">
        <ele>201.53</ele>
        <time>2026-05-14T07:46:14Z</time>
      </trkpt>
      <trkpt lat="44.90547" lon="1.73722">
        <ele>199.13</ele>
        <time>2026-05-14T07:46:32Z</time>
      </trkpt>
      <trkpt lat="44.90568" lon="1.7371">
        <ele>198.65</ele>
        <time>2026-05-14T07:46:50Z</time>
      </trkpt>
      <trkpt lat="44.90596" lon="1.73698">
        <ele>198.65</ele>
        <time>2026-05-14T07:47:11Z</time>
      </trkpt>
      <trkpt lat="44.90603" lon="1.73695">
        <ele>199.61</ele>
        <time>2026-05-14T07:47:17Z</time>
      </trkpt>
      <trkpt lat="44.90619" lon="1.73694">
        <ele>200.57</ele>
        <time>2026-05-14T07:47:37Z</time>
      </trkpt>
      <trkpt lat="44.90622" lon="1.73693">
        <ele>199.61</ele>
        <time>2026-05-14T07:47:39Z</time>
      </trkpt>
      <trkpt lat="44.9064" lon="1.737">
        <ele>196.25</ele>
        <time>2026-05-14T07:47:54Z</time>
      </trkpt>
      <trkpt lat="44.90664" lon="1.7371">
        <ele>192.88</ele>
        <time>2026-05-14T07:48:13Z</time>
      </trkpt>
      <trkpt lat="44.90673" lon="1.73709">
        <ele>191.92</ele>
        <time>2026-05-14T07:48:36Z</time>
      </trkpt>
      <trkpt lat="44.90693" lon="1.73713">
        <ele>190</ele>
        <time>2026-05-14T07:48:56Z</time>
      </trkpt>
      <trkpt lat="44.9072" lon="1.73713">
        <ele>188.56</ele>
        <time>2026-05-14T07:49:17Z</time>
      </trkpt>
      <trkpt lat="44.90749" lon="1.73714">
        <ele>186.15</ele>
        <time>2026-05-14T07:49:39Z</time>
      </trkpt>
      <trkpt lat="44.90761" lon="1.73708">
        <ele>182.79</ele>
        <time>2026-05-14T07:49:52Z</time>
      </trkpt>
      <trkpt lat="44.90767" lon="1.73703">
        <ele>179.42</ele>
        <time>2026-05-14T07:50:02Z</time>
      </trkpt>
      <trkpt lat="44.90774" lon="1.73701">
        <ele>176.54</ele>
        <time>2026-05-14T07:50:12Z</time>
      </trkpt>
      <trkpt lat="44.90788" lon="1.73701">
        <ele>173.17</ele>
        <time>2026-05-14T07:50:25Z</time>
      </trkpt>
      <trkpt lat="44.90807" lon="1.73706">
        <ele>169.81</ele>
        <time>2026-05-14T07:50:37Z</time>
      </trkpt>
      <trkpt lat="44.90826" lon="1.73713">
        <ele>166.45</ele>
        <time>2026-05-14T07:50:52Z</time>
      </trkpt>
      <trkpt lat="44.90841" lon="1.73723">
        <ele>163.08</ele>
        <time>2026-05-14T07:51:07Z</time>
      </trkpt>
      <trkpt lat="44.90862" lon="1.73734">
        <ele>159.72</ele>
        <time>2026-05-14T07:51:23Z</time>
      </trkpt>
      <trkpt lat="44.90897" lon="1.73742">
        <ele>156.83</ele>
        <time>2026-05-14T07:51:47Z</time>
      </trkpt>
      <trkpt lat="44.90922" lon="1.73748">
        <ele>154.43</ele>
        <time>2026-05-14T07:52:05Z</time>
      </trkpt>
      <trkpt lat="44.90948" lon="1.73756">
        <ele>152.03</ele>
        <time>2026-05-14T07:52:25Z</time>
      </trkpt>
      <trkpt lat="44.90972" lon="1.73761">
        <ele>149.14</ele>
        <time>2026-05-14T07:52:46Z</time>
      </trkpt>
      <trkpt lat="44.90998" lon="1.73767">
        <ele>145.3</ele>
        <time>2026-05-14T07:53:05Z</time>
      </trkpt>
      <trkpt lat="44.91019" lon="1.73755">
        <ele>142.41</ele>
        <time>2026-05-14T07:53:22Z</time>
      </trkpt>
      <trkpt lat="44.91029" lon="1.73752">
        <ele>139.05</ele>
        <time>2026-05-14T07:53:36Z</time>
      </trkpt>
      <trkpt lat="44.91058" lon="1.73766">
        <ele>136.16</ele>
        <time>2026-05-14T07:54:00Z</time>
      </trkpt>
      <trkpt lat="44.91085" lon="1.7377">
        <ele>134.24</ele>
        <time>2026-05-14T07:54:24Z</time>
      </trkpt>
      <trkpt lat="44.91108" lon="1.73777">
        <ele>133.76</ele>
        <time>2026-05-14T07:54:42Z</time>
      </trkpt>
      <trkpt lat="44.91139" lon="1.73787">
        <ele>131.36</ele>
        <time>2026-05-14T07:55:05Z</time>
      </trkpt>
      <trkpt lat="44.91146" lon="1.73789">
        <ele>130.88</ele>
        <time>2026-05-14T07:55:19Z</time>
      </trkpt>
      <trkpt lat="44.91167" lon="1.73803">
        <ele>128.95</ele>
        <time>2026-05-14T07:55:38Z</time>
      </trkpt>
      <trkpt lat="44.91186" lon="1.7382">
        <ele>127.99</ele>
        <time>2026-05-14T07:55:54Z</time>
      </trkpt>
      <trkpt lat="44.91194" lon="1.73852">
        <ele>126.55</ele>
        <time>2026-05-14T07:56:12Z</time>
      </trkpt>
      <trkpt lat="44.91196" lon="1.7388">
        <ele>124.63</ele>
        <time>2026-05-14T07:56:30Z</time>
      </trkpt>
      <trkpt lat="44.91218" lon="1.73877">
        <ele>123.67</ele>
        <time>2026-05-14T07:56:50Z</time>
      </trkpt>
      <trkpt lat="44.91246" lon="1.73872">
        <ele>121.26</ele>
        <time>2026-05-14T07:57:11Z</time>
      </trkpt>
      <trkpt lat="44.91271" lon="1.73871">
        <ele>120.3</ele>
        <time>2026-05-14T07:57:30Z</time>
      </trkpt>
      <trkpt lat="44.91277" lon="1.73872">
        <ele>120.3</ele>
        <time>2026-05-14T07:57:46Z</time>
      </trkpt>
      <trkpt lat="44.9128" lon="1.73866">
        <ele>120.3</ele>
        <time>2026-05-14T07:57:50Z</time>
      </trkpt>
      <trkpt lat="44.91301" lon="1.73841">
        <ele>120.78</ele>
        <time>2026-05-14T07:58:13Z</time>
      </trkpt>
      <trkpt lat="44.91289" lon="1.73811">
        <ele>122.71</ele>
        <time>2026-05-14T07:58:33Z</time>
      </trkpt>
      <trkpt lat="44.91273" lon="1.73796">
        <ele>124.15</ele>
        <time>2026-05-14T07:58:55Z</time>
      </trkpt>
      <trkpt lat="44.91271" lon="1.73797">
        <ele>125.59</ele>
        <time>2026-05-14T07:59:01Z</time>
      </trkpt>
      <trkpt lat="44.9127" lon="1.73799">
        <ele>124.15</ele>
        <time>2026-05-14T07:59:04Z</time>
      </trkpt>
      <trkpt lat="44.91273" lon="1.738">
        <ele>124.15</ele>
        <time>2026-05-14T07:59:14Z</time>
      </trkpt>
      <trkpt lat="44.91275" lon="1.73798">
        <ele>123.19</ele>
        <time>2026-05-14T07:59:19Z</time>
      </trkpt>
      <trkpt lat="44.91274" lon="1.73794">
        <ele>123.67</ele>
        <time>2026-05-14T07:59:40Z</time>
      </trkpt>
      <trkpt lat="44.9127" lon="1.73784">
        <ele>125.11</ele>
        <time>2026-05-14T08:00:02Z</time>
      </trkpt>
      <trkpt lat="44.91261" lon="1.73775">
        <ele>125.59</ele>
        <time>2026-05-14T08:00:26Z</time>
      </trkpt>
      <trkpt lat="44.91258" lon="1.73769">
        <ele>124.15</ele>
        <time>2026-05-14T08:00:30Z</time>
      </trkpt>
      <trkpt lat="44.91257" lon="1.73765">
        <ele>125.59</ele>
        <time>2026-05-14T08:00:32Z</time>
      </trkpt>
      <trkpt lat="44.91243" lon="1.73731">
        <ele>127.51</ele>
        <time>2026-05-14T08:00:53Z</time>
      </trkpt>
      <trkpt lat="44.9123" lon="1.73701">
        <ele>129.92</ele>
        <time>2026-05-14T08:01:15Z</time>
      </trkpt>
      <trkpt lat="44.91216" lon="1.73673">
        <ele>132.8</ele>
        <time>2026-05-14T08:01:37Z</time>
      </trkpt>
      <trkpt lat="44.91218" lon="1.73669">
        <ele>132.8</ele>
        <time>2026-05-14T08:01:41Z</time>
      </trkpt>
      <trkpt lat="44.91222" lon="1.73672">
        <ele>133.76</ele>
        <time>2026-05-14T08:01:47Z</time>
      </trkpt>
      <trkpt lat="44.91224" lon="1.73673">
        <ele>133.76</ele>
        <time>2026-05-14T08:01:49Z</time>
      </trkpt>
      <trkpt lat="44.91247" lon="1.73681">
        <ele>137.61</ele>
        <time>2026-05-14T08:02:12Z</time>
      </trkpt>
      <trkpt lat="44.91267" lon="1.73683">
        <ele>140.01</ele>
        <time>2026-05-14T08:02:33Z</time>
      </trkpt>
      <trkpt lat="44.91287" lon="1.73691">
        <ele>140.01</ele>
        <time>2026-05-14T08:02:51Z</time>
      </trkpt>
      <trkpt lat="44.91291" lon="1.73692">
        <ele>140.97</ele>
        <time>2026-05-14T08:02:54Z</time>
      </trkpt>
      <trkpt lat="44.91303" lon="1.73693">
        <ele>140.97</ele>
        <time>2026-05-14T08:03:04Z</time>
      </trkpt>
      <trkpt lat="44.91306" lon="1.73693">
        <ele>142.89</ele>
        <time>2026-05-14T08:03:06Z</time>
      </trkpt>
      <trkpt lat="44.91333" lon="1.73692">
        <ele>144.34</ele>
        <time>2026-05-14T08:03:31Z</time>
      </trkpt>
      <trkpt lat="44.91355" lon="1.73693">
        <ele>147.7</ele>
        <time>2026-05-14T08:03:50Z</time>
      </trkpt>
      <trkpt lat="44.91364" lon="1.73695">
        <ele>146.74</ele>
        <time>2026-05-14T08:04:01Z</time>
      </trkpt>
      <trkpt lat="44.91391" lon="1.73702">
        <ele>144.34</ele>
        <time>2026-05-14T08:04:22Z</time>
      </trkpt>
      <trkpt lat="44.91404" lon="1.737">
        <ele>142.89</ele>
        <time>2026-05-14T08:04:31Z</time>
      </trkpt>
      <trkpt lat="44.91434" lon="1.737">
        <ele>140.49</ele>
        <time>2026-05-14T08:04:52Z</time>
      </trkpt>
      <trkpt lat="44.91462" lon="1.73694">
        <ele>140.97</ele>
        <time>2026-05-14T08:05:14Z</time>
      </trkpt>
      <trkpt lat="44.91476" lon="1.7368">
        <ele>141.45</ele>
        <time>2026-05-14T08:05:34Z</time>
      </trkpt>
      <trkpt lat="44.91496" lon="1.7367">
        <ele>142.89</ele>
        <time>2026-05-14T08:05:52Z</time>
      </trkpt>
      <trkpt lat="44.91501" lon="1.73668">
        <ele>141.45</ele>
        <time>2026-05-14T08:05:56Z</time>
      </trkpt>
      <trkpt lat="44.91518" lon="1.73663">
        <ele>140.01</ele>
        <time>2026-05-14T08:06:08Z</time>
      </trkpt>
      <trkpt lat="44.91549" lon="1.73667">
        <ele>139.05</ele>
        <time>2026-05-14T08:06:28Z</time>
      </trkpt>
      <trkpt lat="44.9155" lon="1.73667">
        <ele>139.05</ele>
        <time>2026-05-14T08:06:29Z</time>
      </trkpt>
      <trkpt lat="44.91555" lon="1.73664">
        <ele>137.13</ele>
        <time>2026-05-14T08:06:33Z</time>
      </trkpt>
      <trkpt lat="44.91576" lon="1.73659">
        <ele>136.64</ele>
        <time>2026-05-14T08:06:51Z</time>
      </trkpt>
      <trkpt lat="44.91589" lon="1.73647">
        <ele>138.09</ele>
        <time>2026-05-14T08:07:04Z</time>
      </trkpt>
      <trkpt lat="44.91603" lon="1.73625">
        <ele>138.57</ele>
        <time>2026-05-14T08:07:22Z</time>
      </trkpt>
      <trkpt lat="44.91621" lon="1.73601">
        <ele>141.93</ele>
        <time>2026-05-14T08:07:40Z</time>
      </trkpt>
      <trkpt lat="44.91637" lon="1.73576">
        <ele>142.41</ele>
        <time>2026-05-14T08:08:00Z</time>
      </trkpt>
      <trkpt lat="44.91641" lon="1.7357">
        <ele>142.41</ele>
        <time>2026-05-14T08:08:03Z</time>
      </trkpt>
      <trkpt lat="44.91645" lon="1.7356">
        <ele>140.97</ele>
        <time>2026-05-14T08:08:09Z</time>
      </trkpt>
      <trkpt lat="44.91655" lon="1.73522">
        <ele>141.45</ele>
        <time>2026-05-14T08:08:29Z</time>
      </trkpt>
      <trkpt lat="44.91664" lon="1.73485">
        <ele>141.45</ele>
        <time>2026-05-14T08:08:50Z</time>
      </trkpt>
      <trkpt lat="44.91673" lon="1.73454">
        <ele>140.01</ele>
        <time>2026-05-14T08:09:08Z</time>
      </trkpt>
      <trkpt lat="44.91677" lon="1.73429">
        <ele>141.45</ele>
        <time>2026-05-14T08:09:24Z</time>
      </trkpt>
      <trkpt lat="44.91683" lon="1.73386">
        <ele>142.41</ele>
        <time>2026-05-14T08:09:47Z</time>
      </trkpt>
      <trkpt lat="44.91682" lon="1.73344">
        <ele>141.45</ele>
        <time>2026-05-14T08:10:09Z</time>
      </trkpt>
      <trkpt lat="44.91685" lon="1.7331">
        <ele>140.01</ele>
        <time>2026-05-14T08:10:28Z</time>
      </trkpt>
      <trkpt lat="44.91685" lon="1.73306">
        <ele>141.45</ele>
        <time>2026-05-14T08:10:30Z</time>
      </trkpt>
      <trkpt lat="44.91693" lon="1.73284">
        <ele>140.49</ele>
        <time>2026-05-14T08:10:45Z</time>
      </trkpt>
      <trkpt lat="44.91709" lon="1.73277">
        <ele>140.01</ele>
        <time>2026-05-14T08:10:57Z</time>
      </trkpt>
      <trkpt lat="44.91735" lon="1.73278">
        <ele>138.57</ele>
        <time>2026-05-14T08:11:17Z</time>
      </trkpt>
      <trkpt lat="44.91737" lon="1.73285">
        <ele>139.05</ele>
        <time>2026-05-14T08:11:41Z</time>
      </trkpt>
      <trkpt lat="44.91734" lon="1.73298">
        <ele>137.61</ele>
        <time>2026-05-14T08:11:57Z</time>
      </trkpt>
      <trkpt lat="44.9174" lon="1.73321">
        <ele>138.09</ele>
        <time>2026-05-14T08:12:16Z</time>
      </trkpt>
      <trkpt lat="44.91742" lon="1.73321">
        <ele>139.53</ele>
        <time>2026-05-14T08:12:22Z</time>
      </trkpt>
      <trkpt lat="44.91742" lon="1.7332">
        <ele>138.09</ele>
        <time>2026-05-14T08:12:26Z</time>
      </trkpt>
      <trkpt lat="44.91739" lon="1.73319">
        <ele>138.57</ele>
        <time>2026-05-14T08:12:46Z</time>
      </trkpt>
      <trkpt lat="44.91746" lon="1.73318">
        <ele>138.57</ele>
        <time>2026-05-14T08:13:09Z</time>
      </trkpt>
      <trkpt lat="44.91748" lon="1.73321">
        <ele>138.57</ele>
        <time>2026-05-14T08:13:22Z</time>
      </trkpt>
      <trkpt lat="44.91748" lon="1.73322">
        <ele>139.53</ele>
        <time>2026-05-14T08:13:24Z</time>
      </trkpt>
      <trkpt lat="44.91749" lon="1.73304">
        <ele>138.09</ele>
        <time>2026-05-14T08:22:52Z</time>
      </trkpt>
      <trkpt lat="44.91746" lon="1.73321">
        <ele>138.09</ele>
        <time>2026-05-14T08:23:14Z</time>
      </trkpt>
      <trkpt lat="44.91749" lon="1.73325">
        <ele>138.09</ele>
        <time>2026-05-14T08:23:43Z</time>
      </trkpt>
      <trkpt lat="44.9175" lon="1.73318">
        <ele>138.09</ele>
        <time>2026-05-14T08:24:09Z</time>
      </trkpt>
      <trkpt lat="44.91747" lon="1.73316">
        <ele>138.09</ele>
        <time>2026-05-14T08:24:35Z</time>
      </trkpt>
      <trkpt lat="44.91745" lon="1.73311">
        <ele>140.01</ele>
        <time>2026-05-14T08:24:45Z</time>
      </trkpt>
      <trkpt lat="44.91761" lon="1.73309">
        <ele>140.01</ele>
        <time>2026-05-14T08:25:28Z</time>
      </trkpt>
      <trkpt lat="44.91761" lon="1.73311">
        <ele>138.57</ele>
        <time>2026-05-14T08:25:35Z</time>
      </trkpt>
      <trkpt lat="44.9176" lon="1.73312">
        <ele>138.57</ele>
        <time>2026-05-14T08:25:58Z</time>
      </trkpt>
      <trkpt lat="44.9174" lon="1.7332">
        <ele>139.05</ele>
        <time>2026-05-14T08:26:15Z</time>
      </trkpt>
      <trkpt lat="44.91729" lon="1.73322">
        <ele>139.05</ele>
        <time>2026-05-14T08:26:39Z</time>
      </trkpt>
      <trkpt lat="44.91746" lon="1.7334">
        <ele>139.05</ele>
        <time>2026-05-14T08:27:20Z</time>
      </trkpt>
      <trkpt lat="44.91748" lon="1.73333">
        <ele>139.05</ele>
        <time>2026-05-14T08:27:43Z</time>
      </trkpt>
      <trkpt lat="44.91753" lon="1.73322">
        <ele>139.53</ele>
        <time>2026-05-14T08:28:09Z</time>
      </trkpt>
      <trkpt lat="44.91752" lon="1.73326">
        <ele>139.53</ele>
        <time>2026-05-14T08:28:24Z</time>
      </trkpt>
      <trkpt lat="44.91746" lon="1.7334">
        <ele>139.53</ele>
        <time>2026-05-14T08:28:42Z</time>
      </trkpt>
      <trkpt lat="44.9174" lon="1.73344">
        <ele>139.53</ele>
        <time>2026-05-14T08:29:06Z</time>
      </trkpt>
      <trkpt lat="44.91741" lon="1.73339">
        <ele>139.53</ele>
        <time>2026-05-14T08:29:33Z</time>
      </trkpt>
      <trkpt lat="44.91743" lon="1.73327">
        <ele>139.53</ele>
        <time>2026-05-14T08:29:55Z</time>
      </trkpt>
      <trkpt lat="44.91744" lon="1.73313">
        <ele>139.53</ele>
        <time>2026-05-14T08:30:20Z</time>
      </trkpt>
      <trkpt lat="44.91748" lon="1.73322">
        <ele>140.01</ele>
        <time>2026-05-14T08:30:33Z</time>
      </trkpt>
      <trkpt lat="44.91749" lon="1.73354">
        <ele>140.01</ele>
        <time>2026-05-14T08:31:00Z</time>
      </trkpt>
      <trkpt lat="44.91747" lon="1.73332">
        <ele>140.01</ele>
        <time>2026-05-14T08:31:21Z</time>
      </trkpt>
      <trkpt lat="44.91745" lon="1.73314">
        <ele>140.01</ele>
        <time>2026-05-14T08:31:53Z</time>
      </trkpt>
      <trkpt lat="44.91745" lon="1.7332">
        <ele>138.57</ele>
        <time>2026-05-14T08:32:19Z</time>
      </trkpt>
      <trkpt lat="44.91745" lon="1.7332">
        <ele>140.01</ele>
        <time>2026-05-14T08:32:21Z</time>
      </trkpt>
      <trkpt lat="44.91745" lon="1.7332">
        <ele>138.57</ele>
        <time>2026-05-14T08:32:23Z</time>
      </trkpt>
      <trkpt lat="44.91745" lon="1.73319">
        <ele>140.01</ele>
        <time>2026-05-14T08:32:25Z</time>
      </trkpt>
      <trkpt lat="44.91744" lon="1.73319">
        <ele>139.53</ele>
        <time>2026-05-14T08:32:29Z</time>
      </trkpt>
      <trkpt lat="44.91725" lon="1.73335">
        <ele>140.49</ele>
        <time>2026-05-14T08:32:52Z</time>
      </trkpt>
      <trkpt lat="44.91722" lon="1.73339">
        <ele>139.05</ele>
        <time>2026-05-14T08:32:57Z</time>
      </trkpt>
      <trkpt lat="44.91748" lon="1.73305">
        <ele>140.49</ele>
        <time>2026-05-14T08:37:47Z</time>
      </trkpt>
      <trkpt lat="44.91737" lon="1.73317">
        <ele>140.49</ele>
        <time>2026-05-14T08:38:15Z</time>
      </trkpt>
      <trkpt lat="44.91734" lon="1.73317">
        <ele>140.97</ele>
        <time>2026-05-14T08:38:47Z</time>
      </trkpt>
      <trkpt lat="44.91746" lon="1.7331">
        <ele>140.97</ele>
        <time>2026-05-14T08:39:09Z</time>
      </trkpt>
      <trkpt lat="44.91749" lon="1.73324">
        <ele>140.97</ele>
        <time>2026-05-14T08:39:31Z</time>
      </trkpt>
      <trkpt lat="44.91744" lon="1.73328">
        <ele>140.97</ele>
        <time>2026-05-14T08:39:55Z</time>
      </trkpt>
      <trkpt lat="44.91742" lon="1.73333">
        <ele>137.61</ele>
        <time>2026-05-14T08:40:10Z</time>
      </trkpt>
      <trkpt lat="44.91742" lon="1.73333">
        <ele>140.49</ele>
        <time>2026-05-14T08:40:12Z</time>
      </trkpt>
      <trkpt lat="44.91741" lon="1.73333">
        <ele>140.01</ele>
        <time>2026-05-14T08:40:13Z</time>
      </trkpt>
      <trkpt lat="44.91745" lon="1.73323">
        <ele>140.49</ele>
        <time>2026-05-14T08:41:45Z</time>
      </trkpt>
      <trkpt lat="44.91741" lon="1.73327">
        <ele>140.49</ele>
        <time>2026-05-14T08:41:46Z</time>
      </trkpt>
      <trkpt lat="44.91728" lon="1.73348">
        <ele>140.49</ele>
        <time>2026-05-14T08:41:51Z</time>
      </trkpt>
      <trkpt lat="44.91725" lon="1.73353">
        <ele>140.49</ele>
        <time>2026-05-14T08:41:52Z</time>
      </trkpt>
      <trkpt lat="44.91738" lon="1.73319">
        <ele>140.49</ele>
        <time>2026-05-14T08:41:59Z</time>
      </trkpt>
      <trkpt lat="44.91736" lon="1.73319">
        <ele>140.49</ele>
        <time>2026-05-14T08:42:17Z</time>
      </trkpt>
      <trkpt lat="44.91739" lon="1.73318">
        <ele>140.49</ele>
        <time>2026-05-14T08:42:35Z</time>
      </trkpt>
      <trkpt lat="44.91741" lon="1.73319">
        <ele>140.01</ele>
        <time>2026-05-14T08:42:50Z</time>
      </trkpt>
      <trkpt lat="44.91741" lon="1.73319">
        <ele>141.45</ele>
        <time>2026-05-14T08:42:54Z</time>
      </trkpt>
      <trkpt lat="44.91739" lon="1.73323">
        <ele>141.45</ele>
        <time>2026-05-14T08:43:16Z</time>
      </trkpt>
      <trkpt lat="44.91744" lon="1.73318">
        <ele>141.45</ele>
        <time>2026-05-14T08:43:42Z</time>
      </trkpt>
      <trkpt lat="44.91739" lon="1.73322">
        <ele>141.45</ele>
        <time>2026-05-14T08:44:03Z</time>
      </trkpt>
      <trkpt lat="44.91741" lon="1.73323">
        <ele>141.45</ele>
        <time>2026-05-14T08:44:28Z</time>
      </trkpt>
      <trkpt lat="44.91741" lon="1.73314">
        <ele>140.49</ele>
        <time>2026-05-14T08:44:43Z</time>
      </trkpt>
      <trkpt lat="44.91742" lon="1.73305">
        <ele>140.49</ele>
        <time>2026-05-14T08:45:04Z</time>
      </trkpt>
      <trkpt lat="44.91739" lon="1.73291">
        <ele>140.49</ele>
        <time>2026-05-14T08:45:22Z</time>
      </trkpt>
      <trkpt lat="44.91739" lon="1.73265">
        <ele>140.01</ele>
        <time>2026-05-14T08:45:38Z</time>
      </trkpt>
      <trkpt lat="44.91738" lon="1.73248">
        <ele>141.45</ele>
        <time>2026-05-14T08:45:49Z</time>
      </trkpt>
      <trkpt lat="44.91739" lon="1.73235">
        <ele>141.45</ele>
        <time>2026-05-14T08:46:04Z</time>
      </trkpt>
      <trkpt lat="44.91738" lon="1.73223">
        <ele>141.45</ele>
        <time>2026-05-14T08:46:11Z</time>
      </trkpt>
      <trkpt lat="44.91749" lon="1.73211">
        <ele>141.93</ele>
        <time>2026-05-14T08:46:17Z</time>
      </trkpt>
      <trkpt lat="44.91754" lon="1.73209">
        <ele>142.89</ele>
        <time>2026-05-14T08:46:21Z</time>
      </trkpt>
      <trkpt lat="44.91771" lon="1.7321">
        <ele>141.93</ele>
        <time>2026-05-14T08:46:35Z</time>
      </trkpt>
      <trkpt lat="44.91787" lon="1.73205">
        <ele>140.01</ele>
        <time>2026-05-14T08:46:50Z</time>
      </trkpt>
      <trkpt lat="44.91804" lon="1.73211">
        <ele>139.53</ele>
        <time>2026-05-14T08:47:04Z</time>
      </trkpt>
      <trkpt lat="44.91822" lon="1.73224">
        <ele>138.09</ele>
        <time>2026-05-14T08:47:18Z</time>
      </trkpt>
      <trkpt lat="44.91823" lon="1.73236">
        <ele>138.09</ele>
        <time>2026-05-14T08:47:24Z</time>
      </trkpt>
      <trkpt lat="44.91825" lon="1.73253">
        <ele>138.09</ele>
        <time>2026-05-14T08:47:32Z</time>
      </trkpt>
      <trkpt lat="44.91833" lon="1.73278">
        <ele>137.13</ele>
        <time>2026-05-14T08:47:48Z</time>
      </trkpt>
      <trkpt lat="44.91842" lon="1.73286">
        <ele>135.68</ele>
        <time>2026-05-14T08:48:01Z</time>
      </trkpt>
      <trkpt lat="44.91859" lon="1.73304">
        <ele>133.76</ele>
        <time>2026-05-14T08:48:13Z</time>
      </trkpt>
      <trkpt lat="44.91872" lon="1.73283">
        <ele>133.76</ele>
        <time>2026-05-14T08:48:34Z</time>
      </trkpt>
      <trkpt lat="44.9187" lon="1.73286">
        <ele>133.76</ele>
        <time>2026-05-14T08:48:58Z</time>
      </trkpt>
      <trkpt lat="44.91887" lon="1.73277">
        <ele>133.28</ele>
        <time>2026-05-14T08:49:16Z</time>
      </trkpt>
      <trkpt lat="44.91889" lon="1.73271">
        <ele>133.28</ele>
        <time>2026-05-14T08:49:40Z</time>
      </trkpt>
      <trkpt lat="44.91896" lon="1.73252">
        <ele>132.8</ele>
        <time>2026-05-14T08:49:59Z</time>
      </trkpt>
      <trkpt lat="44.919" lon="1.73233">
        <ele>132.32</ele>
        <time>2026-05-14T08:50:15Z</time>
      </trkpt>
      <trkpt lat="44.91904" lon="1.73213">
        <ele>131.36</ele>
        <time>2026-05-14T08:50:34Z</time>
      </trkpt>
      <trkpt lat="44.919" lon="1.73211">
        <ele>132.8</ele>
        <time>2026-05-14T08:50:46Z</time>
      </trkpt>
      <trkpt lat="44.91898" lon="1.73206">
        <ele>133.76</ele>
        <time>2026-05-14T08:50:53Z</time>
      </trkpt>
      <trkpt lat="44.91913" lon="1.73157">
        <ele>132.8</ele>
        <time>2026-05-14T08:51:23Z</time>
      </trkpt>
      <trkpt lat="44.91919" lon="1.73161">
        <ele>129.92</ele>
        <time>2026-05-14T08:51:47Z</time>
      </trkpt>
      <trkpt lat="44.9192" lon="1.73153">
        <ele>129.92</ele>
        <time>2026-05-14T08:52:06Z</time>
      </trkpt>
      <trkpt lat="44.9193" lon="1.73131">
        <ele>128.95</ele>
        <time>2026-05-14T08:52:20Z</time>
      </trkpt>
      <trkpt lat="44.91932" lon="1.73116">
        <ele>128.47</ele>
        <time>2026-05-14T08:52:33Z</time>
      </trkpt>
      <trkpt lat="44.91936" lon="1.73097">
        <ele>131.84</ele>
        <time>2026-05-14T08:52:49Z</time>
      </trkpt>
      <trkpt lat="44.91948" lon="1.73071">
        <ele>132.32</ele>
        <time>2026-05-14T08:53:05Z</time>
      </trkpt>
      <trkpt lat="44.91955" lon="1.73065">
        <ele>133.28</ele>
        <time>2026-05-14T08:53:12Z</time>
      </trkpt>
      <trkpt lat="44.91965" lon="1.73039">
        <ele>135.2</ele>
        <time>2026-05-14T08:53:30Z</time>
      </trkpt>
      <trkpt lat="44.91973" lon="1.73019">
        <ele>136.64</ele>
        <time>2026-05-14T08:53:47Z</time>
      </trkpt>
      <trkpt lat="44.91993" lon="1.72983">
        <ele>138.09</ele>
        <time>2026-05-14T08:54:05Z</time>
      </trkpt>
      <trkpt lat="44.92" lon="1.72966">
        <ele>139.05</ele>
        <time>2026-05-14T08:54:16Z</time>
      </trkpt>
      <trkpt lat="44.92011" lon="1.72946">
        <ele>140.49</ele>
        <time>2026-05-14T08:54:34Z</time>
      </trkpt>
      <trkpt lat="44.92016" lon="1.72923">
        <ele>141.93</ele>
        <time>2026-05-14T08:54:48Z</time>
      </trkpt>
      <trkpt lat="44.92023" lon="1.72909">
        <ele>141.93</ele>
        <time>2026-05-14T08:54:59Z</time>
      </trkpt>
      <trkpt lat="44.92031" lon="1.72889">
        <ele>141.93</ele>
        <time>2026-05-14T08:55:13Z</time>
      </trkpt>
      <trkpt lat="44.92041" lon="1.72867">
        <ele>142.41</ele>
        <time>2026-05-14T08:55:28Z</time>
      </trkpt>
      <trkpt lat="44.92051" lon="1.72837">
        <ele>142.89</ele>
        <time>2026-05-14T08:55:45Z</time>
      </trkpt>
      <trkpt lat="44.92054" lon="1.72824">
        <ele>142.89</ele>
        <time>2026-05-14T08:55:52Z</time>
      </trkpt>
      <trkpt lat="44.92065" lon="1.72797">
        <ele>140.97</ele>
        <time>2026-05-14T08:56:09Z</time>
      </trkpt>
      <trkpt lat="44.92079" lon="1.72774">
        <ele>140.49</ele>
        <time>2026-05-14T08:56:26Z</time>
      </trkpt>
      <trkpt lat="44.92084" lon="1.72747">
        <ele>140.01</ele>
        <time>2026-05-14T08:56:40Z</time>
      </trkpt>
      <trkpt lat="44.92091" lon="1.72711">
        <ele>140.01</ele>
        <time>2026-05-14T08:56:57Z</time>
      </trkpt>
      <trkpt lat="44.92094" lon="1.72677">
        <ele>139.05</ele>
        <time>2026-05-14T08:57:16Z</time>
      </trkpt>
      <trkpt lat="44.92105" lon="1.72648">
        <ele>137.61</ele>
        <time>2026-05-14T08:57:31Z</time>
      </trkpt>
      <trkpt lat="44.92113" lon="1.72632">
        <ele>134.24</ele>
        <time>2026-05-14T08:57:45Z</time>
      </trkpt>
      <trkpt lat="44.92122" lon="1.72612">
        <ele>131.36</ele>
        <time>2026-05-14T08:57:59Z</time>
      </trkpt>
      <trkpt lat="44.92138" lon="1.72602">
        <ele>129.43</ele>
        <time>2026-05-14T08:58:08Z</time>
      </trkpt>
      <trkpt lat="44.92157" lon="1.72601">
        <ele>126.07</ele>
        <time>2026-05-14T08:58:21Z</time>
      </trkpt>
      <trkpt lat="44.92173" lon="1.72609">
        <ele>123.19</ele>
        <time>2026-05-14T08:58:35Z</time>
      </trkpt>
      <trkpt lat="44.92188" lon="1.72591">
        <ele>124.15</ele>
        <time>2026-05-14T08:58:51Z</time>
      </trkpt>
      <trkpt lat="44.92188" lon="1.7259">
        <ele>124.15</ele>
        <time>2026-05-14T08:58:52Z</time>
      </trkpt>
      <trkpt lat="44.92197" lon="1.72575">
        <ele>127.03</ele>
        <time>2026-05-14T08:59:08Z</time>
      </trkpt>
      <trkpt lat="44.92185" lon="1.72563">
        <ele>129.92</ele>
        <time>2026-05-14T08:59:25Z</time>
      </trkpt>
      <trkpt lat="44.92173" lon="1.72556">
        <ele>132.8</ele>
        <time>2026-05-14T08:59:44Z</time>
      </trkpt>
      <trkpt lat="44.92173" lon="1.72545">
        <ele>136.16</ele>
        <time>2026-05-14T09:00:00Z</time>
      </trkpt>
      <trkpt lat="44.92173" lon="1.72535">
        <ele>139.05</ele>
        <time>2026-05-14T09:00:16Z</time>
      </trkpt>
      <trkpt lat="44.92173" lon="1.72519">
        <ele>141.93</ele>
        <time>2026-05-14T09:00:35Z</time>
      </trkpt>
      <trkpt lat="44.92175" lon="1.72503">
        <ele>144.82</ele>
        <time>2026-05-14T09:00:51Z</time>
      </trkpt>
      <trkpt lat="44.92178" lon="1.72484">
        <ele>146.74</ele>
        <time>2026-05-14T09:01:08Z</time>
      </trkpt>
      <trkpt lat="44.92181" lon="1.72468">
        <ele>149.62</ele>
        <time>2026-05-14T09:01:26Z</time>
      </trkpt>
      <trkpt lat="44.92184" lon="1.72452">
        <ele>152.03</ele>
        <time>2026-05-14T09:01:42Z</time>
      </trkpt>
      <trkpt lat="44.92186" lon="1.72433">
        <ele>154.91</ele>
        <time>2026-05-14T09:02:00Z</time>
      </trkpt>
      <trkpt lat="44.92191" lon="1.72416">
        <ele>158.27</ele>
        <time>2026-05-14T09:02:18Z</time>
      </trkpt>
      <trkpt lat="44.92193" lon="1.72398">
        <ele>160.2</ele>
        <time>2026-05-14T09:02:35Z</time>
      </trkpt>
      <trkpt lat="44.92198" lon="1.72375">
        <ele>162.12</ele>
        <time>2026-05-14T09:02:53Z</time>
      </trkpt>
      <trkpt lat="44.922" lon="1.72355">
        <ele>164.04</ele>
        <time>2026-05-14T09:03:09Z</time>
      </trkpt>
      <trkpt lat="44.92183" lon="1.72325">
        <ele>164.52</ele>
        <time>2026-05-14T09:03:29Z</time>
      </trkpt>
      <trkpt lat="44.92168" lon="1.72295">
        <ele>165.96</ele>
        <time>2026-05-14T09:03:49Z</time>
      </trkpt>
      <trkpt lat="44.92176" lon="1.72287">
        <ele>169.33</ele>
        <time>2026-05-14T09:04:05Z</time>
      </trkpt>
      <trkpt lat="44.92176" lon="1.72271">
        <ele>172.21</ele>
        <time>2026-05-14T09:04:24Z</time>
      </trkpt>
      <trkpt lat="44.92166" lon="1.72251">
        <ele>175.1</ele>
        <time>2026-05-14T09:04:42Z</time>
      </trkpt>
      <trkpt lat="44.92159" lon="1.7224">
        <ele>177.98</ele>
        <time>2026-05-14T09:04:59Z</time>
      </trkpt>
      <trkpt lat="44.92151" lon="1.72226">
        <ele>180.87</ele>
        <time>2026-05-14T09:05:16Z</time>
      </trkpt>
      <trkpt lat="44.9215" lon="1.72221">
        <ele>181.83</ele>
        <time>2026-05-14T09:05:23Z</time>
      </trkpt>
      <trkpt lat="44.92147" lon="1.7221">
        <ele>184.71</ele>
        <time>2026-05-14T09:05:40Z</time>
      </trkpt>
      <trkpt lat="44.92141" lon="1.7219">
        <ele>187.59</ele>
        <time>2026-05-14T09:05:58Z</time>
      </trkpt>
      <trkpt lat="44.92138" lon="1.72179">
        <ele>190.48</ele>
        <time>2026-05-14T09:06:15Z</time>
      </trkpt>
      <trkpt lat="44.92135" lon="1.72163">
        <ele>192.4</ele>
        <time>2026-05-14T09:06:32Z</time>
      </trkpt>
      <trkpt lat="44.92136" lon="1.72148">
        <ele>194.8</ele>
        <time>2026-05-14T09:06:50Z</time>
      </trkpt>
      <trkpt lat="44.92132" lon="1.72119">
        <ele>197.21</ele>
        <time>2026-05-14T09:07:08Z</time>
      </trkpt>
      <trkpt lat="44.92136" lon="1.72098">
        <ele>199.13</ele>
        <time>2026-05-14T09:07:26Z</time>
      </trkpt>
      <trkpt lat="44.92144" lon="1.72075">
        <ele>201.05</ele>
        <time>2026-05-14T09:07:46Z</time>
      </trkpt>
      <trkpt lat="44.9215" lon="1.72056">
        <ele>203.94</ele>
        <time>2026-05-14T09:08:04Z</time>
      </trkpt>
      <trkpt lat="44.92153" lon="1.72044">
        <ele>205.38</ele>
        <time>2026-05-14T09:08:18Z</time>
      </trkpt>
      <trkpt lat="44.92164" lon="1.72026">
        <ele>207.3</ele>
        <time>2026-05-14T09:08:35Z</time>
      </trkpt>
      <trkpt lat="44.9217" lon="1.7201">
        <ele>209.22</ele>
        <time>2026-05-14T09:08:52Z</time>
      </trkpt>
      <trkpt lat="44.92181" lon="1.71991">
        <ele>210.19</ele>
        <time>2026-05-14T09:09:05Z</time>
      </trkpt>
      <trkpt lat="44.92189" lon="1.71966">
        <ele>212.11</ele>
        <time>2026-05-14T09:09:23Z</time>
      </trkpt>
      <trkpt lat="44.92194" lon="1.71948">
        <ele>213.07</ele>
        <time>2026-05-14T09:09:36Z</time>
      </trkpt>
      <trkpt lat="44.92199" lon="1.71922">
        <ele>214.51</ele>
        <time>2026-05-14T09:09:52Z</time>
      </trkpt>
      <trkpt lat="44.92202" lon="1.719">
        <ele>215.47</ele>
        <time>2026-05-14T09:10:08Z</time>
      </trkpt>
      <trkpt lat="44.92208" lon="1.71886">
        <ele>216.43</ele>
        <time>2026-05-14T09:10:22Z</time>
      </trkpt>
      <trkpt lat="44.92225" lon="1.71869">
        <ele>216.43</ele>
        <time>2026-05-14T09:10:37Z</time>
      </trkpt>
      <trkpt lat="44.92237" lon="1.71859">
        <ele>216.43</ele>
        <time>2026-05-14T09:10:49Z</time>
      </trkpt>
      <trkpt lat="44.9224" lon="1.71856">
        <ele>216.91</ele>
        <time>2026-05-14T09:11:04Z</time>
      </trkpt>
      <trkpt lat="44.92253" lon="1.71846">
        <ele>216.91</ele>
        <time>2026-05-14T09:11:30Z</time>
      </trkpt>
      <trkpt lat="44.92265" lon="1.71833">
        <ele>217.4</ele>
        <time>2026-05-14T09:11:46Z</time>
      </trkpt>
      <trkpt lat="44.92278" lon="1.71824">
        <ele>217.88</ele>
        <time>2026-05-14T09:12:00Z</time>
      </trkpt>
      <trkpt lat="44.923" lon="1.71806">
        <ele>218.36</ele>
        <time>2026-05-14T09:12:20Z</time>
      </trkpt>
      <trkpt lat="44.92311" lon="1.71792">
        <ele>218.84</ele>
        <time>2026-05-14T09:12:30Z</time>
      </trkpt>
      <trkpt lat="44.9232" lon="1.71776">
        <ele>218.84</ele>
        <time>2026-05-14T09:12:43Z</time>
      </trkpt>
      <trkpt lat="44.92332" lon="1.71755">
        <ele>219.32</ele>
        <time>2026-05-14T09:12:58Z</time>
      </trkpt>
      <trkpt lat="44.92335" lon="1.71748">
        <ele>219.8</ele>
        <time>2026-05-14T09:13:03Z</time>
      </trkpt>
      <trkpt lat="44.92341" lon="1.71728">
        <ele>219.8</ele>
        <time>2026-05-14T09:13:14Z</time>
      </trkpt>
      <trkpt lat="44.92341" lon="1.71726">
        <ele>219.8</ele>
        <time>2026-05-14T09:13:15Z</time>
      </trkpt>
      <trkpt lat="44.92341" lon="1.71721">
        <ele>219.8</ele>
        <time>2026-05-14T09:13:18Z</time>
      </trkpt>
      <trkpt lat="44.92341" lon="1.71716">
        <ele>219.8</ele>
        <time>2026-05-14T09:13:21Z</time>
      </trkpt>
      <trkpt lat="44.92344" lon="1.71692">
        <ele>220.28</ele>
        <time>2026-05-14T09:13:36Z</time>
      </trkpt>
      <trkpt lat="44.92347" lon="1.71665">
        <ele>221.24</ele>
        <time>2026-05-14T09:13:48Z</time>
      </trkpt>
      <trkpt lat="44.92357" lon="1.71638">
        <ele>221.72</ele>
        <time>2026-05-14T09:14:05Z</time>
      </trkpt>
      <trkpt lat="44.92362" lon="1.71611">
        <ele>222.68</ele>
        <time>2026-05-14T09:14:20Z</time>
      </trkpt>
      <trkpt lat="44.92368" lon="1.71588">
        <ele>223.16</ele>
        <time>2026-05-14T09:14:36Z</time>
      </trkpt>
      <trkpt lat="44.9237" lon="1.71564">
        <ele>224.12</ele>
        <time>2026-05-14T09:14:50Z</time>
      </trkpt>
      <trkpt lat="44.92355" lon="1.71538">
        <ele>225.09</ele>
        <time>2026-05-14T09:15:07Z</time>
      </trkpt>
      <trkpt lat="44.92352" lon="1.7151">
        <ele>226.05</ele>
        <time>2026-05-14T09:15:24Z</time>
      </trkpt>
      <trkpt lat="44.92368" lon="1.71492">
        <ele>226.53</ele>
        <time>2026-05-14T09:15:40Z</time>
      </trkpt>
      <trkpt lat="44.92384" lon="1.71475">
        <ele>227.01</ele>
        <time>2026-05-14T09:15:55Z</time>
      </trkpt>
      <trkpt lat="44.9239" lon="1.71464">
        <ele>227.01</ele>
        <time>2026-05-14T09:16:03Z</time>
      </trkpt>
      <trkpt lat="44.92402" lon="1.71444">
        <ele>228.45</ele>
        <time>2026-05-14T09:16:19Z</time>
      </trkpt>
      <trkpt lat="44.92414" lon="1.71424">
        <ele>229.41</ele>
        <time>2026-05-14T09:16:34Z</time>
      </trkpt>
      <trkpt lat="44.92432" lon="1.71404">
        <ele>230.37</ele>
        <time>2026-05-14T09:16:50Z</time>
      </trkpt>
      <trkpt lat="44.92449" lon="1.7138">
        <ele>231.33</ele>
        <time>2026-05-14T09:17:07Z</time>
      </trkpt>
      <trkpt lat="44.92459" lon="1.7136">
        <ele>232.3</ele>
        <time>2026-05-14T09:17:23Z</time>
      </trkpt>
      <trkpt lat="44.9246" lon="1.71357">
        <ele>232.3</ele>
        <time>2026-05-14T09:17:25Z</time>
      </trkpt>
      <trkpt lat="44.92469" lon="1.71327">
        <ele>233.26</ele>
        <time>2026-05-14T09:17:43Z</time>
      </trkpt>
      <trkpt lat="44.92476" lon="1.71303">
        <ele>234.22</ele>
        <time>2026-05-14T09:17:59Z</time>
      </trkpt>
      <trkpt lat="44.92487" lon="1.71281">
        <ele>236.14</ele>
        <time>2026-05-14T09:18:15Z</time>
      </trkpt>
      <trkpt lat="44.92499" lon="1.7126">
        <ele>237.58</ele>
        <time>2026-05-14T09:18:32Z</time>
      </trkpt>
      <trkpt lat="44.9251" lon="1.71242">
        <ele>239.99</ele>
        <time>2026-05-14T09:18:47Z</time>
      </trkpt>
      <trkpt lat="44.92523" lon="1.71229">
        <ele>240.47</ele>
        <time>2026-05-14T09:19:01Z</time>
      </trkpt>
      <trkpt lat="44.92532" lon="1.7122">
        <ele>240.47</ele>
        <time>2026-05-14T09:19:10Z</time>
      </trkpt>
      <trkpt lat="44.92549" lon="1.7121">
        <ele>240.95</ele>
        <time>2026-05-14T09:19:24Z</time>
      </trkpt>
      <trkpt lat="44.92571" lon="1.71201">
        <ele>240.95</ele>
        <time>2026-05-14T09:19:37Z</time>
      </trkpt>
      <trkpt lat="44.92575" lon="1.71201">
        <ele>240.95</ele>
        <time>2026-05-14T09:19:40Z</time>
      </trkpt>
      <trkpt lat="44.9259" lon="1.71193">
        <ele>240.95</ele>
        <time>2026-05-14T09:19:52Z</time>
      </trkpt>
      <trkpt lat="44.92605" lon="1.71198">
        <ele>241.43</ele>
        <time>2026-05-14T09:20:05Z</time>
      </trkpt>
      <trkpt lat="44.92617" lon="1.71202">
        <ele>242.39</ele>
        <time>2026-05-14T09:20:17Z</time>
      </trkpt>
      <trkpt lat="44.92633" lon="1.71212">
        <ele>243.35</ele>
        <time>2026-05-14T09:20:30Z</time>
      </trkpt>
      <trkpt lat="44.92645" lon="1.7122">
        <ele>243.35</ele>
        <time>2026-05-14T09:20:43Z</time>
      </trkpt>
      <trkpt lat="44.92657" lon="1.71229">
        <ele>244.31</ele>
        <time>2026-05-14T09:20:55Z</time>
      </trkpt>
      <trkpt lat="44.92669" lon="1.71238">
        <ele>245.27</ele>
        <time>2026-05-14T09:21:07Z</time>
      </trkpt>
      <trkpt lat="44.92672" lon="1.7124">
        <ele>245.27</ele>
        <time>2026-05-14T09:21:10Z</time>
      </trkpt>
      <trkpt lat="44.92679" lon="1.71241">
        <ele>245.75</ele>
        <time>2026-05-14T09:21:25Z</time>
      </trkpt>
      <trkpt lat="44.92691" lon="1.71225">
        <ele>246.72</ele>
        <time>2026-05-14T09:21:40Z</time>
      </trkpt>
      <trkpt lat="44.92705" lon="1.71204">
        <ele>247.68</ele>
        <time>2026-05-14T09:21:56Z</time>
      </trkpt>
      <trkpt lat="44.92713" lon="1.71182">
        <ele>247.68</ele>
        <time>2026-05-14T09:22:10Z</time>
      </trkpt>
      <trkpt lat="44.92716" lon="1.71176">
        <ele>247.68</ele>
        <time>2026-05-14T09:22:13Z</time>
      </trkpt>
      <trkpt lat="44.92717" lon="1.71172">
        <ele>247.68</ele>
        <time>2026-05-14T09:22:16Z</time>
      </trkpt>
      <trkpt lat="44.92717" lon="1.7117">
        <ele>247.68</ele>
        <time>2026-05-14T09:22:17Z</time>
      </trkpt>
      <trkpt lat="44.92722" lon="1.71162">
        <ele>247.68</ele>
        <time>2026-05-14T09:22:21Z</time>
      </trkpt>
      <trkpt lat="44.92725" lon="1.71144">
        <ele>247.68</ele>
        <time>2026-05-14T09:22:31Z</time>
      </trkpt>
      <trkpt lat="44.92731" lon="1.71131">
        <ele>247.68</ele>
        <time>2026-05-14T09:22:40Z</time>
      </trkpt>
      <trkpt lat="44.92734" lon="1.71109">
        <ele>247.2</ele>
        <time>2026-05-14T09:22:52Z</time>
      </trkpt>
      <trkpt lat="44.92746" lon="1.71084">
        <ele>247.68</ele>
        <time>2026-05-14T09:23:07Z</time>
      </trkpt>
      <trkpt lat="44.92757" lon="1.71061">
        <ele>247.68</ele>
        <time>2026-05-14T09:23:22Z</time>
      </trkpt>
      <trkpt lat="44.92764" lon="1.7105">
        <ele>245.75</ele>
        <time>2026-05-14T09:23:38Z</time>
      </trkpt>
      <trkpt lat="44.92769" lon="1.71035">
        <ele>245.75</ele>
        <time>2026-05-14T09:23:59Z</time>
      </trkpt>
      <trkpt lat="44.92776" lon="1.71015">
        <ele>244.31</ele>
        <time>2026-05-14T09:24:13Z</time>
      </trkpt>
      <trkpt lat="44.92783" lon="1.71008">
        <ele>243.35</ele>
        <time>2026-05-14T09:24:29Z</time>
      </trkpt>
      <trkpt lat="44.92794" lon="1.71">
        <ele>242.39</ele>
        <time>2026-05-14T09:24:53Z</time>
      </trkpt>
      <trkpt lat="44.92818" lon="1.70988">
        <ele>240.47</ele>
        <time>2026-05-14T09:25:11Z</time>
      </trkpt>
      <trkpt lat="44.92831" lon="1.70959">
        <ele>239.51</ele>
        <time>2026-05-14T09:25:29Z</time>
      </trkpt>
      <trkpt lat="44.92849" lon="1.70937">
        <ele>239.02</ele>
        <time>2026-05-14T09:25:45Z</time>
      </trkpt>
      <trkpt lat="44.9286" lon="1.70918">
        <ele>239.02</ele>
        <time>2026-05-14T09:26:01Z</time>
      </trkpt>
      <trkpt lat="44.92869" lon="1.70908">
        <ele>239.02</ele>
        <time>2026-05-14T09:26:16Z</time>
      </trkpt>
      <trkpt lat="44.9287" lon="1.7091">
        <ele>238.54</ele>
        <time>2026-05-14T09:26:37Z</time>
      </trkpt>
      <trkpt lat="44.92872" lon="1.7091">
        <ele>238.06</ele>
        <time>2026-05-14T09:27:05Z</time>
      </trkpt>
      <trkpt lat="44.92879" lon="1.70885">
        <ele>238.06</ele>
        <time>2026-05-14T09:27:21Z</time>
      </trkpt>
      <trkpt lat="44.9288" lon="1.70881">
        <ele>238.06</ele>
        <time>2026-05-14T09:27:24Z</time>
      </trkpt>
      <trkpt lat="44.9289" lon="1.70855">
        <ele>237.58</ele>
        <time>2026-05-14T09:27:41Z</time>
      </trkpt>
      <trkpt lat="44.92908" lon="1.70839">
        <ele>238.54</ele>
        <time>2026-05-14T09:27:57Z</time>
      </trkpt>
      <trkpt lat="44.92913" lon="1.70817">
        <ele>239.02</ele>
        <time>2026-05-14T09:28:11Z</time>
      </trkpt>
      <trkpt lat="44.92927" lon="1.70793">
        <ele>238.54</ele>
        <time>2026-05-14T09:28:25Z</time>
      </trkpt>
      <trkpt lat="44.92939" lon="1.70769">
        <ele>238.54</ele>
        <time>2026-05-14T09:28:41Z</time>
      </trkpt>
      <trkpt lat="44.92951" lon="1.70748">
        <ele>238.54</ele>
        <time>2026-05-14T09:28:58Z</time>
      </trkpt>
      <trkpt lat="44.9296" lon="1.70723">
        <ele>238.06</ele>
        <time>2026-05-14T09:29:15Z</time>
      </trkpt>
      <trkpt lat="44.92969" lon="1.707">
        <ele>236.62</ele>
        <time>2026-05-14T09:29:29Z</time>
      </trkpt>
      <trkpt lat="44.92988" lon="1.70669">
        <ele>235.66</ele>
        <time>2026-05-14T09:29:45Z</time>
      </trkpt>
      <trkpt lat="44.92997" lon="1.70643">
        <ele>235.66</ele>
        <time>2026-05-14T09:29:59Z</time>
      </trkpt>
      <trkpt lat="44.92999" lon="1.70605">
        <ele>234.22</ele>
        <time>2026-05-14T09:30:18Z</time>
      </trkpt>
      <trkpt lat="44.93002" lon="1.70579">
        <ele>233.26</ele>
        <time>2026-05-14T09:30:32Z</time>
      </trkpt>
      <trkpt lat="44.93009" lon="1.70553">
        <ele>231.33</ele>
        <time>2026-05-14T09:30:47Z</time>
      </trkpt>
      <trkpt lat="44.93013" lon="1.70531">
        <ele>229.89</ele>
        <time>2026-05-14T09:31:01Z</time>
      </trkpt>
      <trkpt lat="44.93014" lon="1.70529">
        <ele>229.89</ele>
        <time>2026-05-14T09:31:02Z</time>
      </trkpt>
      <trkpt lat="44.93033" lon="1.70506">
        <ele>228.45</ele>
        <time>2026-05-14T09:31:18Z</time>
      </trkpt>
      <trkpt lat="44.93036" lon="1.70501">
        <ele>227.97</ele>
        <time>2026-05-14T09:31:21Z</time>
      </trkpt>
      <trkpt lat="44.93043" lon="1.70483">
        <ele>227.01</ele>
        <time>2026-05-14T09:31:32Z</time>
      </trkpt>
      <trkpt lat="44.93044" lon="1.70479">
        <ele>226.53</ele>
        <time>2026-05-14T09:31:34Z</time>
      </trkpt>
      <trkpt lat="44.93055" lon="1.70455">
        <ele>226.05</ele>
        <time>2026-05-14T09:31:46Z</time>
      </trkpt>
      <trkpt lat="44.93058" lon="1.70432">
        <ele>224.61</ele>
        <time>2026-05-14T09:32:00Z</time>
      </trkpt>
      <trkpt lat="44.93062" lon="1.70397">
        <ele>223.64</ele>
        <time>2026-05-14T09:32:17Z</time>
      </trkpt>
      <trkpt lat="44.93073" lon="1.70377">
        <ele>221.24</ele>
        <time>2026-05-14T09:32:31Z</time>
      </trkpt>
      <trkpt lat="44.93087" lon="1.7037">
        <ele>218.84</ele>
        <time>2026-05-14T09:32:44Z</time>
      </trkpt>
      <trkpt lat="44.93098" lon="1.70367">
        <ele>217.88</ele>
        <time>2026-05-14T09:32:49Z</time>
      </trkpt>
      <trkpt lat="44.93122" lon="1.70353">
        <ele>215.47</ele>
        <time>2026-05-14T09:33:04Z</time>
      </trkpt>
      <trkpt lat="44.93132" lon="1.70329">
        <ele>213.55</ele>
        <time>2026-05-14T09:33:20Z</time>
      </trkpt>
      <trkpt lat="44.9313" lon="1.70297">
        <ele>212.11</ele>
        <time>2026-05-14T09:33:35Z</time>
      </trkpt>
      <trkpt lat="44.93126" lon="1.70266">
        <ele>210.19</ele>
        <time>2026-05-14T09:33:51Z</time>
      </trkpt>
      <trkpt lat="44.93123" lon="1.70242">
        <ele>207.78</ele>
        <time>2026-05-14T09:34:05Z</time>
      </trkpt>
      <trkpt lat="44.93119" lon="1.70216">
        <ele>205.38</ele>
        <time>2026-05-14T09:34:19Z</time>
      </trkpt>
      <trkpt lat="44.93114" lon="1.70195">
        <ele>203.94</ele>
        <time>2026-05-14T09:34:35Z</time>
      </trkpt>
      <trkpt lat="44.93115" lon="1.70181">
        <ele>202.49</ele>
        <time>2026-05-14T09:34:47Z</time>
      </trkpt>
      <trkpt lat="44.93111" lon="1.70144">
        <ele>200.57</ele>
        <time>2026-05-14T09:35:03Z</time>
      </trkpt>
      <trkpt lat="44.93109" lon="1.70111">
        <ele>199.61</ele>
        <time>2026-05-14T09:35:18Z</time>
      </trkpt>
      <trkpt lat="44.93098" lon="1.70085">
        <ele>199.13</ele>
        <time>2026-05-14T09:35:34Z</time>
      </trkpt>
      <trkpt lat="44.93089" lon="1.70066">
        <ele>198.17</ele>
        <time>2026-05-14T09:35:54Z</time>
      </trkpt>
      <trkpt lat="44.93081" lon="1.7003">
        <ele>196.73</ele>
        <time>2026-05-14T09:36:11Z</time>
      </trkpt>
      <trkpt lat="44.93082" lon="1.70006">
        <ele>196.73</ele>
        <time>2026-05-14T09:36:28Z</time>
      </trkpt>
      <trkpt lat="44.93082" lon="1.69974">
        <ele>196.25</ele>
        <time>2026-05-14T09:36:46Z</time>
      </trkpt>
      <trkpt lat="44.93078" lon="1.69933">
        <ele>196.73</ele>
        <time>2026-05-14T09:37:03Z</time>
      </trkpt>
      <trkpt lat="44.9307" lon="1.69928">
        <ele>196.25</ele>
        <time>2026-05-14T09:37:26Z</time>
      </trkpt>
      <trkpt lat="44.9308" lon="1.69931">
        <ele>196.73</ele>
        <time>2026-05-14T09:37:50Z</time>
      </trkpt>
      <trkpt lat="44.93088" lon="1.69936">
        <ele>197.21</ele>
        <time>2026-05-14T09:38:21Z</time>
      </trkpt>
      <trkpt lat="44.93089" lon="1.69925">
        <ele>197.21</ele>
        <time>2026-05-14T09:38:46Z</time>
      </trkpt>
      <trkpt lat="44.93088" lon="1.69922">
        <ele>198.65</ele>
        <time>2026-05-14T09:38:49Z</time>
      </trkpt>
      <trkpt lat="44.93082" lon="1.69895">
        <ele>199.61</ele>
        <time>2026-05-14T09:39:06Z</time>
      </trkpt>
      <trkpt lat="44.93075" lon="1.6987">
        <ele>202.01</ele>
        <time>2026-05-14T09:39:23Z</time>
      </trkpt>
      <trkpt lat="44.9307" lon="1.69841">
        <ele>204.42</ele>
        <time>2026-05-14T09:39:41Z</time>
      </trkpt>
      <trkpt lat="44.93067" lon="1.6981">
        <ele>206.82</ele>
        <time>2026-05-14T09:39:59Z</time>
      </trkpt>
      <trkpt lat="44.93068" lon="1.69786">
        <ele>208.26</ele>
        <time>2026-05-14T09:40:13Z</time>
      </trkpt>
      <trkpt lat="44.93067" lon="1.69762">
        <ele>208.74</ele>
        <time>2026-05-14T09:40:29Z</time>
      </trkpt>
      <trkpt lat="44.93065" lon="1.69744">
        <ele>209.7</ele>
        <time>2026-05-14T09:40:42Z</time>
      </trkpt>
      <trkpt lat="44.93065" lon="1.69733">
        <ele>209.7</ele>
        <time>2026-05-14T09:40:50Z</time>
      </trkpt>
      <trkpt lat="44.93067" lon="1.69709">
        <ele>210.67</ele>
        <time>2026-05-14T09:41:05Z</time>
      </trkpt>
      <trkpt lat="44.93067" lon="1.69677">
        <ele>211.15</ele>
        <time>2026-05-14T09:41:22Z</time>
      </trkpt>
      <trkpt lat="44.93067" lon="1.69646">
        <ele>211.15</ele>
        <time>2026-05-14T09:41:38Z</time>
      </trkpt>
      <trkpt lat="44.93069" lon="1.69621">
        <ele>209.22</ele>
        <time>2026-05-14T09:41:57Z</time>
      </trkpt>
      <trkpt lat="44.93069" lon="1.69599">
        <ele>208.26</ele>
        <time>2026-05-14T09:42:11Z</time>
      </trkpt>
      <trkpt lat="44.93069" lon="1.69592">
        <ele>209.7</ele>
        <time>2026-05-14T09:42:15Z</time>
      </trkpt>
      <trkpt lat="44.93061" lon="1.69556">
        <ele>213.07</ele>
        <time>2026-05-14T09:42:30Z</time>
      </trkpt>
      <trkpt lat="44.93053" lon="1.69535">
        <ele>216.43</ele>
        <time>2026-05-14T09:42:50Z</time>
      </trkpt>
      <trkpt lat="44.93047" lon="1.69517">
        <ele>218.84</ele>
        <time>2026-05-14T09:43:06Z</time>
      </trkpt>
      <trkpt lat="44.9304" lon="1.69498">
        <ele>222.2</ele>
        <time>2026-05-14T09:43:23Z</time>
      </trkpt>
      <trkpt lat="44.9303" lon="1.69483">
        <ele>224.61</ele>
        <time>2026-05-14T09:43:39Z</time>
      </trkpt>
      <trkpt lat="44.93023" lon="1.69465">
        <ele>227.49</ele>
        <time>2026-05-14T09:43:56Z</time>
      </trkpt>
      <trkpt lat="44.93015" lon="1.69444">
        <ele>229.89</ele>
        <time>2026-05-14T09:44:13Z</time>
      </trkpt>
      <trkpt lat="44.93007" lon="1.6943">
        <ele>233.26</ele>
        <time>2026-05-14T09:44:28Z</time>
      </trkpt>
      <trkpt lat="44.92998" lon="1.69425">
        <ele>234.22</ele>
        <time>2026-05-14T09:44:50Z</time>
      </trkpt>
      <trkpt lat="44.92994" lon="1.6941">
        <ele>237.1</ele>
        <time>2026-05-14T09:45:08Z</time>
      </trkpt>
      <trkpt lat="44.92989" lon="1.69406">
        <ele>239.02</ele>
        <time>2026-05-14T09:45:34Z</time>
      </trkpt>
      <trkpt lat="44.92988" lon="1.694">
        <ele>239.99</ele>
        <time>2026-05-14T09:45:57Z</time>
      </trkpt>
      <trkpt lat="44.92983" lon="1.69385">
        <ele>242.87</ele>
        <time>2026-05-14T09:46:13Z</time>
      </trkpt>
      <trkpt lat="44.92981" lon="1.69372">
        <ele>246.23</ele>
        <time>2026-05-14T09:46:28Z</time>
      </trkpt>
      <trkpt lat="44.92975" lon="1.69361">
        <ele>249.12</ele>
        <time>2026-05-14T09:46:44Z</time>
      </trkpt>
      <trkpt lat="44.92969" lon="1.6935">
        <ele>252.48</ele>
        <time>2026-05-14T09:47:01Z</time>
      </trkpt>
      <trkpt lat="44.92964" lon="1.69339">
        <ele>254.41</ele>
        <time>2026-05-14T09:47:18Z</time>
      </trkpt>
      <trkpt lat="44.92956" lon="1.69326">
        <ele>257.29</ele>
        <time>2026-05-14T09:47:34Z</time>
      </trkpt>
      <trkpt lat="44.9295" lon="1.69314">
        <ele>259.69</ele>
        <time>2026-05-14T09:47:49Z</time>
      </trkpt>
      <trkpt lat="44.9294" lon="1.693">
        <ele>262.1</ele>
        <time>2026-05-14T09:48:05Z</time>
      </trkpt>
      <trkpt lat="44.92932" lon="1.69288">
        <ele>264.98</ele>
        <time>2026-05-14T09:48:21Z</time>
      </trkpt>
      <trkpt lat="44.92929" lon="1.69287">
        <ele>265.46</ele>
        <time>2026-05-14T09:48:40Z</time>
      </trkpt>
      <trkpt lat="44.92926" lon="1.69299">
        <ele>266.9</ele>
        <time>2026-05-14T09:49:01Z</time>
      </trkpt>
      <trkpt lat="44.92929" lon="1.69314">
        <ele>268.83</ele>
        <time>2026-05-14T09:49:17Z</time>
      </trkpt>
      <trkpt lat="44.92928" lon="1.69331">
        <ele>270.75</ele>
        <time>2026-05-14T09:49:31Z</time>
      </trkpt>
      <trkpt lat="44.92922" lon="1.69347">
        <ele>272.67</ele>
        <time>2026-05-14T09:49:44Z</time>
      </trkpt>
      <trkpt lat="44.92912" lon="1.69369">
        <ele>275.07</ele>
        <time>2026-05-14T09:49:59Z</time>
      </trkpt>
      <trkpt lat="44.92902" lon="1.69382">
        <ele>277</ele>
        <time>2026-05-14T09:50:13Z</time>
      </trkpt>
      <trkpt lat="44.92893" lon="1.69401">
        <ele>278.92</ele>
        <time>2026-05-14T09:50:30Z</time>
      </trkpt>
      <trkpt lat="44.92889" lon="1.6941">
        <ele>279.88</ele>
        <time>2026-05-14T09:50:43Z</time>
      </trkpt>
      <trkpt lat="44.92886" lon="1.69413">
        <ele>279.88</ele>
        <time>2026-05-14T09:51:03Z</time>
      </trkpt>
      <trkpt lat="44.92888" lon="1.69406">
        <ele>279.88</ele>
        <time>2026-05-14T09:51:34Z</time>
      </trkpt>
      <trkpt lat="44.92884" lon="1.69416">
        <ele>279.4</ele>
        <time>2026-05-14T09:51:52Z</time>
      </trkpt>
      <trkpt lat="44.92872" lon="1.69423">
        <ele>280.84</ele>
        <time>2026-05-14T09:52:07Z</time>
      </trkpt>
      <trkpt lat="44.92871" lon="1.69424">
        <ele>280.84</ele>
        <time>2026-05-14T09:52:08Z</time>
      </trkpt>
      <trkpt lat="44.92857" lon="1.69432">
        <ele>281.8</ele>
        <time>2026-05-14T09:52:22Z</time>
      </trkpt>
      <trkpt lat="44.92846" lon="1.69438">
        <ele>281.8</ele>
        <time>2026-05-14T09:52:32Z</time>
      </trkpt>
      <trkpt lat="44.9283" lon="1.69452">
        <ele>282.77</ele>
        <time>2026-05-14T09:52:49Z</time>
      </trkpt>
      <trkpt lat="44.9282" lon="1.69464">
        <ele>283.25</ele>
        <time>2026-05-14T09:53:02Z</time>
      </trkpt>
      <trkpt lat="44.92816" lon="1.69468">
        <ele>283.25</ele>
        <time>2026-05-14T09:53:25Z</time>
      </trkpt>
      <trkpt lat="44.92815" lon="1.69468">
        <ele>283.25</ele>
        <time>2026-05-14T09:53:27Z</time>
      </trkpt>
      <trkpt lat="44.92804" lon="1.69453">
        <ele>283.25</ele>
        <time>2026-05-14T09:53:41Z</time>
      </trkpt>
      <trkpt lat="44.92796" lon="1.69443">
        <ele>283.25</ele>
        <time>2026-05-14T09:53:54Z</time>
      </trkpt>
      <trkpt lat="44.92787" lon="1.69433">
        <ele>283.25</ele>
        <time>2026-05-14T09:54:08Z</time>
      </trkpt>
      <trkpt lat="44.92778" lon="1.69423">
        <ele>283.25</ele>
        <time>2026-05-14T09:54:19Z</time>
      </trkpt>
      <trkpt lat="44.9277" lon="1.69416">
        <ele>283.25</ele>
        <time>2026-05-14T09:54:25Z</time>
      </trkpt>
      <trkpt lat="44.92761" lon="1.69405">
        <ele>283.25</ele>
        <time>2026-05-14T09:54:33Z</time>
      </trkpt>
      <trkpt lat="44.92752" lon="1.69398">
        <ele>282.77</ele>
        <time>2026-05-14T09:54:41Z</time>
      </trkpt>
      <trkpt lat="44.92744" lon="1.69385">
        <ele>282.77</ele>
        <time>2026-05-14T09:54:51Z</time>
      </trkpt>
      <trkpt lat="44.92741" lon="1.6938">
        <ele>282.77</ele>
        <time>2026-05-14T09:54:54Z</time>
      </trkpt>
      <trkpt lat="44.92731" lon="1.69348">
        <ele>282.77</ele>
        <time>2026-05-14T09:55:11Z</time>
      </trkpt>
      <trkpt lat="44.92726" lon="1.69323">
        <ele>283.73</ele>
        <time>2026-05-14T09:55:26Z</time>
      </trkpt>
      <trkpt lat="44.92717" lon="1.69297">
        <ele>284.21</ele>
        <time>2026-05-14T09:55:43Z</time>
      </trkpt>
      <trkpt lat="44.92709" lon="1.6928">
        <ele>284.69</ele>
        <time>2026-05-14T09:55:57Z</time>
      </trkpt>
      <trkpt lat="44.92696" lon="1.69264">
        <ele>285.65</ele>
        <time>2026-05-14T09:56:12Z</time>
      </trkpt>
      <trkpt lat="44.92675" lon="1.69257">
        <ele>286.13</ele>
        <time>2026-05-14T09:56:28Z</time>
      </trkpt>
      <trkpt lat="44.9265" lon="1.69253">
        <ele>286.61</ele>
        <time>2026-05-14T09:56:44Z</time>
      </trkpt>
      <trkpt lat="44.92629" lon="1.69249">
        <ele>287.09</ele>
        <time>2026-05-14T09:57:00Z</time>
      </trkpt>
      <trkpt lat="44.92608" lon="1.69236">
        <ele>287.09</ele>
        <time>2026-05-14T09:57:16Z</time>
      </trkpt>
      <trkpt lat="44.92604" lon="1.69235">
        <ele>287.09</ele>
        <time>2026-05-14T09:57:22Z</time>
      </trkpt>
      <trkpt lat="44.92591" lon="1.69223">
        <ele>285.17</ele>
        <time>2026-05-14T09:57:36Z</time>
      </trkpt>
      <trkpt lat="44.92588" lon="1.69221">
        <ele>285.17</ele>
        <time>2026-05-14T09:57:38Z</time>
      </trkpt>
      <trkpt lat="44.92584" lon="1.69216">
        <ele>285.17</ele>
        <time>2026-05-14T09:57:42Z</time>
      </trkpt>
      <trkpt lat="44.92564" lon="1.69204">
        <ele>283.25</ele>
        <time>2026-05-14T09:57:57Z</time>
      </trkpt>
      <trkpt lat="44.92547" lon="1.69194">
        <ele>281.8</ele>
        <time>2026-05-14T09:58:11Z</time>
      </trkpt>
      <trkpt lat="44.92525" lon="1.69181">
        <ele>279.88</ele>
        <time>2026-05-14T09:58:28Z</time>
      </trkpt>
      <trkpt lat="44.92504" lon="1.69172">
        <ele>277.96</ele>
        <time>2026-05-14T09:58:44Z</time>
      </trkpt>
      <trkpt lat="44.92497" lon="1.69169">
        <ele>277.96</ele>
        <time>2026-05-14T09:58:50Z</time>
      </trkpt>
      <trkpt lat="44.92471" lon="1.69162">
        <ele>276.04</ele>
        <time>2026-05-14T09:59:08Z</time>
      </trkpt>
      <trkpt lat="44.92452" lon="1.69151">
        <ele>274.11</ele>
        <time>2026-05-14T09:59:24Z</time>
      </trkpt>
      <trkpt lat="44.92435" lon="1.69139">
        <ele>271.71</ele>
        <time>2026-05-14T09:59:41Z</time>
      </trkpt>
      <trkpt lat="44.9242" lon="1.6912">
        <ele>269.79</ele>
        <time>2026-05-14T09:59:55Z</time>
      </trkpt>
      <trkpt lat="44.92421" lon="1.69114">
        <ele>268.83</ele>
        <time>2026-05-14T09:59:59Z</time>
      </trkpt>
      <trkpt lat="44.92425" lon="1.69092">
        <ele>266.9</ele>
        <time>2026-05-14T10:00:13Z</time>
      </trkpt>
      <trkpt lat="44.92408" lon="1.69085">
        <ele>266.9</ele>
        <time>2026-05-14T10:00:28Z</time>
      </trkpt>
      <trkpt lat="44.92407" lon="1.69085">
        <ele>266.9</ele>
        <time>2026-05-14T10:00:29Z</time>
      </trkpt>
      <trkpt lat="44.92389" lon="1.69089">
        <ele>266.9</ele>
        <time>2026-05-14T10:00:42Z</time>
      </trkpt>
      <trkpt lat="44.92387" lon="1.69089">
        <ele>266.9</ele>
        <time>2026-05-14T10:00:43Z</time>
      </trkpt>
      <trkpt lat="44.92381" lon="1.69089">
        <ele>266.9</ele>
        <time>2026-05-14T10:00:48Z</time>
      </trkpt>
      <trkpt lat="44.92366" lon="1.69087">
        <ele>266.9</ele>
        <time>2026-05-14T10:01:03Z</time>
      </trkpt>
      <trkpt lat="44.92357" lon="1.69077">
        <ele>267.86</ele>
        <time>2026-05-14T10:01:16Z</time>
      </trkpt>
      <trkpt lat="44.92355" lon="1.69073">
        <ele>268.35</ele>
        <time>2026-05-14T10:01:19Z</time>
      </trkpt>
      <trkpt lat="44.92348" lon="1.69056">
        <ele>268.83</ele>
        <time>2026-05-14T10:01:30Z</time>
      </trkpt>
      <trkpt lat="44.92338" lon="1.69049">
        <ele>269.31</ele>
        <time>2026-05-14T10:01:44Z</time>
      </trkpt>
      <trkpt lat="44.92322" lon="1.69051">
        <ele>271.23</ele>
        <time>2026-05-14T10:02:01Z</time>
      </trkpt>
      <trkpt lat="44.92309" lon="1.69059">
        <ele>273.15</ele>
        <time>2026-05-14T10:02:17Z</time>
      </trkpt>
      <trkpt lat="44.92297" lon="1.69066">
        <ele>274.59</ele>
        <time>2026-05-14T10:02:30Z</time>
      </trkpt>
      <trkpt lat="44.92285" lon="1.69076">
        <ele>276.52</ele>
        <time>2026-05-14T10:02:45Z</time>
      </trkpt>
      <trkpt lat="44.92273" lon="1.69087">
        <ele>277.96</ele>
        <time>2026-05-14T10:03:01Z</time>
      </trkpt>
      <trkpt lat="44.92262" lon="1.69095">
        <ele>279.4</ele>
        <time>2026-05-14T10:03:14Z</time>
      </trkpt>
      <trkpt lat="44.92251" lon="1.69105">
        <ele>281.32</ele>
        <time>2026-05-14T10:03:28Z</time>
      </trkpt>
      <trkpt lat="44.9224" lon="1.69118">
        <ele>282.28</ele>
        <time>2026-05-14T10:03:42Z</time>
      </trkpt>
      <trkpt lat="44.92225" lon="1.69134">
        <ele>283.73</ele>
        <time>2026-05-14T10:03:57Z</time>
      </trkpt>
      <trkpt lat="44.92213" lon="1.69143">
        <ele>284.21</ele>
        <time>2026-05-14T10:04:11Z</time>
      </trkpt>
      <trkpt lat="44.92194" lon="1.69159">
        <ele>285.17</ele>
        <time>2026-05-14T10:04:24Z</time>
      </trkpt>
      <trkpt lat="44.92178" lon="1.6917">
        <ele>286.13</ele>
        <time>2026-05-14T10:04:38Z</time>
      </trkpt>
      <trkpt lat="44.92163" lon="1.69175">
        <ele>287.09</ele>
        <time>2026-05-14T10:04:52Z</time>
      </trkpt>
      <trkpt lat="44.92148" lon="1.69178">
        <ele>289.01</ele>
        <time>2026-05-14T10:05:06Z</time>
      </trkpt>
      <trkpt lat="44.92134" lon="1.6918">
        <ele>290.46</ele>
        <time>2026-05-14T10:05:19Z</time>
      </trkpt>
      <trkpt lat="44.9212" lon="1.6918">
        <ele>292.38</ele>
        <time>2026-05-14T10:05:33Z</time>
      </trkpt>
      <trkpt lat="44.92113" lon="1.69183">
        <ele>292.86</ele>
        <time>2026-05-14T10:05:39Z</time>
      </trkpt>
      <trkpt lat="44.92099" lon="1.69191">
        <ele>294.3</ele>
        <time>2026-05-14T10:05:53Z</time>
      </trkpt>
      <trkpt lat="44.92089" lon="1.69194">
        <ele>294.78</ele>
        <time>2026-05-14T10:06:03Z</time>
      </trkpt>
      <trkpt lat="44.92072" lon="1.69198">
        <ele>296.7</ele>
        <time>2026-05-14T10:06:17Z</time>
      </trkpt>
      <trkpt lat="44.92063" lon="1.692">
        <ele>296.7</ele>
        <time>2026-05-14T10:06:24Z</time>
      </trkpt>
      <trkpt lat="44.92051" lon="1.69203">
        <ele>297.67</ele>
        <time>2026-05-14T10:06:35Z</time>
      </trkpt>
      <trkpt lat="44.92038" lon="1.69206">
        <ele>299.59</ele>
        <time>2026-05-14T10:06:49Z</time>
      </trkpt>
      <trkpt lat="44.92032" lon="1.69205">
        <ele>299.59</ele>
        <time>2026-05-14T10:07:05Z</time>
      </trkpt>
      <trkpt lat="44.92019" lon="1.69202">
        <ele>299.59</ele>
        <time>2026-05-14T10:07:29Z</time>
      </trkpt>
      <trkpt lat="44.91993" lon="1.692">
        <ele>301.51</ele>
        <time>2026-05-14T10:07:49Z</time>
      </trkpt>
      <trkpt lat="44.91975" lon="1.69194">
        <ele>303.43</ele>
        <time>2026-05-14T10:08:08Z</time>
      </trkpt>
      <trkpt lat="44.91957" lon="1.69186">
        <ele>305.36</ele>
        <time>2026-05-14T10:08:26Z</time>
      </trkpt>
      <trkpt lat="44.9194" lon="1.69179">
        <ele>305.84</ele>
        <time>2026-05-14T10:08:38Z</time>
      </trkpt>
      <trkpt lat="44.91917" lon="1.69174">
        <ele>304.39</ele>
        <time>2026-05-14T10:08:56Z</time>
      </trkpt>
      <trkpt lat="44.91912" lon="1.69173">
        <ele>304.39</ele>
        <time>2026-05-14T10:09:00Z</time>
      </trkpt>
      <trkpt lat="44.91891" lon="1.69171">
        <ele>303.91</ele>
        <time>2026-05-14T10:09:17Z</time>
      </trkpt>
      <trkpt lat="44.91869" lon="1.69167">
        <ele>303.91</ele>
        <time>2026-05-14T10:09:35Z</time>
      </trkpt>
      <trkpt lat="44.91846" lon="1.69156">
        <ele>303.91</ele>
        <time>2026-05-14T10:09:55Z</time>
      </trkpt>
      <trkpt lat="44.91827" lon="1.69165">
        <ele>303.91</ele>
        <time>2026-05-14T10:10:11Z</time>
      </trkpt>
      <trkpt lat="44.91815" lon="1.69179">
        <ele>303.91</ele>
        <time>2026-05-14T10:10:25Z</time>
      </trkpt>
      <trkpt lat="44.91792" lon="1.69175">
        <ele>305.36</ele>
        <time>2026-05-14T10:10:44Z</time>
      </trkpt>
      <trkpt lat="44.91779" lon="1.69172">
        <ele>303.91</ele>
        <time>2026-05-14T10:10:54Z</time>
      </trkpt>
      <trkpt lat="44.91757" lon="1.69171">
        <ele>302.47</ele>
        <time>2026-05-14T10:11:11Z</time>
      </trkpt>
      <trkpt lat="44.91736" lon="1.69174">
        <ele>300.07</ele>
        <time>2026-05-14T10:11:29Z</time>
      </trkpt>
      <trkpt lat="44.91714" lon="1.69168">
        <ele>298.63</ele>
        <time>2026-05-14T10:11:46Z</time>
      </trkpt>
      <trkpt lat="44.91714" lon="1.69168">
        <ele>298.63</ele>
        <time>2026-05-14T10:11:47Z</time>
      </trkpt>
      <trkpt lat="44.91707" lon="1.69164">
        <ele>298.63</ele>
        <time>2026-05-14T10:11:52Z</time>
      </trkpt>
      <trkpt lat="44.91681" lon="1.69161">
        <ele>296.22</ele>
        <time>2026-05-14T10:12:13Z</time>
      </trkpt>
      <trkpt lat="44.91674" lon="1.69155">
        <ele>296.22</ele>
        <time>2026-05-14T10:12:40Z</time>
      </trkpt>
      <trkpt lat="44.91652" lon="1.69161">
        <ele>295.26</ele>
        <time>2026-05-14T10:12:58Z</time>
      </trkpt>
      <trkpt lat="44.91636" lon="1.69175">
        <ele>294.3</ele>
        <time>2026-05-14T10:13:14Z</time>
      </trkpt>
      <trkpt lat="44.91618" lon="1.69191">
        <ele>294.3</ele>
        <time>2026-05-14T10:13:29Z</time>
      </trkpt>
      <trkpt lat="44.91599" lon="1.69197">
        <ele>295.26</ele>
        <time>2026-05-14T10:13:45Z</time>
      </trkpt>
      <trkpt lat="44.91578" lon="1.69207">
        <ele>296.22</ele>
        <time>2026-05-14T10:14:03Z</time>
      </trkpt>
      <trkpt lat="44.91561" lon="1.69214">
        <ele>296.7</ele>
        <time>2026-05-14T10:14:17Z</time>
      </trkpt>
      <trkpt lat="44.91543" lon="1.6922">
        <ele>298.63</ele>
        <time>2026-05-14T10:14:32Z</time>
      </trkpt>
      <trkpt lat="44.91526" lon="1.69223">
        <ele>299.59</ele>
        <time>2026-05-14T10:14:48Z</time>
      </trkpt>
      <trkpt lat="44.91501" lon="1.69202">
        <ele>299.59</ele>
        <time>2026-05-14T10:15:08Z</time>
      </trkpt>
      <trkpt lat="44.91481" lon="1.69187">
        <ele>301.03</ele>
        <time>2026-05-14T10:15:27Z</time>
      </trkpt>
      <trkpt lat="44.91465" lon="1.69174">
        <ele>302.95</ele>
        <time>2026-05-14T10:15:46Z</time>
      </trkpt>
      <trkpt lat="44.91463" lon="1.69172">
        <ele>302.95</ele>
        <time>2026-05-14T10:15:48Z</time>
      </trkpt>
      <trkpt lat="44.9146" lon="1.69168">
        <ele>302.95</ele>
        <time>2026-05-14T10:15:51Z</time>
      </trkpt>
      <trkpt lat="44.91436" lon="1.69156">
        <ele>304.39</ele>
        <time>2026-05-14T10:16:13Z</time>
      </trkpt>
      <trkpt lat="44.91425" lon="1.69151">
        <ele>304.88</ele>
        <time>2026-05-14T10:16:23Z</time>
      </trkpt>
      <trkpt lat="44.91408" lon="1.69138">
        <ele>304.88</ele>
        <time>2026-05-14T10:16:38Z</time>
      </trkpt>
      <trkpt lat="44.91406" lon="1.6913">
        <ele>303.91</ele>
        <time>2026-05-14T10:16:43Z</time>
      </trkpt>
      <trkpt lat="44.91408" lon="1.69101">
        <ele>300.07</ele>
        <time>2026-05-14T10:17:00Z</time>
      </trkpt>
      <trkpt lat="44.91409" lon="1.691">
        <ele>300.07</ele>
        <time>2026-05-14T10:17:01Z</time>
      </trkpt>
      <trkpt lat="44.91415" lon="1.69072">
        <ele>297.18</ele>
        <time>2026-05-14T10:17:18Z</time>
      </trkpt>
      <trkpt lat="44.91413" lon="1.69068">
        <ele>297.18</ele>
        <time>2026-05-14T10:17:22Z</time>
      </trkpt>
      <trkpt lat="44.9139" lon="1.69061">
        <ele>297.18</ele>
        <time>2026-05-14T10:17:42Z</time>
      </trkpt>
      <trkpt lat="44.91367" lon="1.69054">
        <ele>297.18</ele>
        <time>2026-05-14T10:18:00Z</time>
      </trkpt>
      <trkpt lat="44.91346" lon="1.69046">
        <ele>297.18</ele>
        <time>2026-05-14T10:18:16Z</time>
      </trkpt>
      <trkpt lat="44.91338" lon="1.69041">
        <ele>295.74</ele>
        <time>2026-05-14T10:18:22Z</time>
      </trkpt>
      <trkpt lat="44.91342" lon="1.69011">
        <ele>295.26</ele>
        <time>2026-05-14T10:18:38Z</time>
      </trkpt>
      <trkpt lat="44.91344" lon="1.68981">
        <ele>295.26</ele>
        <time>2026-05-14T10:18:53Z</time>
      </trkpt>
      <trkpt lat="44.91344" lon="1.68969">
        <ele>295.26</ele>
        <time>2026-05-14T10:18:59Z</time>
      </trkpt>
      <trkpt lat="44.91337" lon="1.6895">
        <ele>294.78</ele>
        <time>2026-05-14T10:19:12Z</time>
      </trkpt>
      <trkpt lat="44.91337" lon="1.68942">
        <ele>294.78</ele>
        <time>2026-05-14T10:19:16Z</time>
      </trkpt>
      <trkpt lat="44.91333" lon="1.6893">
        <ele>296.22</ele>
        <time>2026-05-14T10:19:23Z</time>
      </trkpt>
      <trkpt lat="44.91328" lon="1.68897">
        <ele>296.7</ele>
        <time>2026-05-14T10:19:41Z</time>
      </trkpt>
      <trkpt lat="44.91324" lon="1.68868">
        <ele>297.67</ele>
        <time>2026-05-14T10:19:58Z</time>
      </trkpt>
      <trkpt lat="44.91318" lon="1.6884">
        <ele>298.15</ele>
        <time>2026-05-14T10:20:16Z</time>
      </trkpt>
      <trkpt lat="44.91317" lon="1.68835">
        <ele>298.15</ele>
        <time>2026-05-14T10:20:19Z</time>
      </trkpt>
      <trkpt lat="44.91316" lon="1.68824">
        <ele>298.15</ele>
        <time>2026-05-14T10:20:25Z</time>
      </trkpt>
      <trkpt lat="44.91314" lon="1.688">
        <ele>298.15</ele>
        <time>2026-05-14T10:20:38Z</time>
      </trkpt>
      <trkpt lat="44.91316" lon="1.68786">
        <ele>296.7</ele>
        <time>2026-05-14T10:20:45Z</time>
      </trkpt>
      <trkpt lat="44.91317" lon="1.68755">
        <ele>295.26</ele>
        <time>2026-05-14T10:21:03Z</time>
      </trkpt>
      <trkpt lat="44.91316" lon="1.68724">
        <ele>292.86</ele>
        <time>2026-05-14T10:21:22Z</time>
      </trkpt>
      <trkpt lat="44.91315" lon="1.68698">
        <ele>291.42</ele>
        <time>2026-05-14T10:21:36Z</time>
      </trkpt>
      <trkpt lat="44.91315" lon="1.68684">
        <ele>290.94</ele>
        <time>2026-05-14T10:21:42Z</time>
      </trkpt>
      <trkpt lat="44.91315" lon="1.68668">
        <ele>290.94</ele>
        <time>2026-05-14T10:21:49Z</time>
      </trkpt>
      <trkpt lat="44.91316" lon="1.68646">
        <ele>290.46</ele>
        <time>2026-05-14T10:21:59Z</time>
      </trkpt>
      <trkpt lat="44.91315" lon="1.6862">
        <ele>289.01</ele>
        <time>2026-05-14T10:22:12Z</time>
      </trkpt>
      <trkpt lat="44.91311" lon="1.68589">
        <ele>288.53</ele>
        <time>2026-05-14T10:22:29Z</time>
      </trkpt>
      <trkpt lat="44.91302" lon="1.68568">
        <ele>288.05</ele>
        <time>2026-05-14T10:22:42Z</time>
      </trkpt>
      <trkpt lat="44.913" lon="1.68558">
        <ele>288.05</ele>
        <time>2026-05-14T10:22:48Z</time>
      </trkpt>
      <trkpt lat="44.913" lon="1.68555">
        <ele>287.09</ele>
        <time>2026-05-14T10:22:50Z</time>
      </trkpt>
      <trkpt lat="44.91299" lon="1.68531">
        <ele>286.13</ele>
        <time>2026-05-14T10:23:03Z</time>
      </trkpt>
      <trkpt lat="44.91299" lon="1.68511">
        <ele>285.65</ele>
        <time>2026-05-14T10:23:14Z</time>
      </trkpt>
      <trkpt lat="44.91298" lon="1.68479">
        <ele>284.21</ele>
        <time>2026-05-14T10:23:30Z</time>
      </trkpt>
      <trkpt lat="44.91297" lon="1.68454">
        <ele>283.73</ele>
        <time>2026-05-14T10:23:43Z</time>
      </trkpt>
      <trkpt lat="44.91296" lon="1.68426">
        <ele>281.8</ele>
        <time>2026-05-14T10:24:00Z</time>
      </trkpt>
      <trkpt lat="44.91297" lon="1.68403">
        <ele>280.36</ele>
        <time>2026-05-14T10:24:13Z</time>
      </trkpt>
      <trkpt lat="44.91298" lon="1.68389">
        <ele>279.88</ele>
        <time>2026-05-14T10:24:19Z</time>
      </trkpt>
      <trkpt lat="44.91297" lon="1.6838">
        <ele>279.88</ele>
        <time>2026-05-14T10:24:25Z</time>
      </trkpt>
      <trkpt lat="44.91296" lon="1.68373">
        <ele>279.4</ele>
        <time>2026-05-14T10:24:28Z</time>
      </trkpt>
      <trkpt lat="44.91294" lon="1.68335">
        <ele>278.44</ele>
        <time>2026-05-14T10:24:48Z</time>
      </trkpt>
      <trkpt lat="44.91295" lon="1.68309">
        <ele>278.44</ele>
        <time>2026-05-14T10:25:01Z</time>
      </trkpt>
      <trkpt lat="44.91298" lon="1.68277">
        <ele>277.96</ele>
        <time>2026-05-14T10:25:18Z</time>
      </trkpt>
      <trkpt lat="44.91299" lon="1.68247">
        <ele>277.48</ele>
        <time>2026-05-14T10:25:34Z</time>
      </trkpt>
      <trkpt lat="44.91299" lon="1.68217">
        <ele>277.48</ele>
        <time>2026-05-14T10:25:49Z</time>
      </trkpt>
      <trkpt lat="44.91301" lon="1.68209">
        <ele>277.48</ele>
        <time>2026-05-14T10:25:53Z</time>
      </trkpt>
      <trkpt lat="44.91299" lon="1.68179">
        <ele>277</ele>
        <time>2026-05-14T10:26:10Z</time>
      </trkpt>
      <trkpt lat="44.913" lon="1.68158">
        <ele>276.52</ele>
        <time>2026-05-14T10:26:23Z</time>
      </trkpt>
      <trkpt lat="44.91302" lon="1.68131">
        <ele>275.07</ele>
        <time>2026-05-14T10:26:39Z</time>
      </trkpt>
      <trkpt lat="44.91301" lon="1.68117">
        <ele>274.11</ele>
        <time>2026-05-14T10:26:46Z</time>
      </trkpt>
      <trkpt lat="44.91302" lon="1.68104">
        <ele>273.15</ele>
        <time>2026-05-14T10:26:53Z</time>
      </trkpt>
      <trkpt lat="44.91302" lon="1.68094">
        <ele>273.15</ele>
        <time>2026-05-14T10:26:58Z</time>
      </trkpt>
      <trkpt lat="44.91304" lon="1.68065">
        <ele>271.71</ele>
        <time>2026-05-14T10:27:13Z</time>
      </trkpt>
      <trkpt lat="44.91305" lon="1.68036">
        <ele>270.27</ele>
        <time>2026-05-14T10:27:28Z</time>
      </trkpt>
      <trkpt lat="44.91309" lon="1.68012">
        <ele>268.83</ele>
        <time>2026-05-14T10:27:43Z</time>
      </trkpt>
      <trkpt lat="44.91316" lon="1.67996">
        <ele>268.83</ele>
        <time>2026-05-14T10:27:57Z</time>
      </trkpt>
      <trkpt lat="44.9132" lon="1.67988">
        <ele>269.31</ele>
        <time>2026-05-14T10:28:03Z</time>
      </trkpt>
      <trkpt lat="44.91321" lon="1.67988">
        <ele>268.35</ele>
        <time>2026-05-14T10:28:08Z</time>
      </trkpt>
      <trkpt lat="44.9131" lon="1.68005">
        <ele>268.83</ele>
        <time>2026-05-14T10:28:23Z</time>
      </trkpt>
      <trkpt lat="44.91301" lon="1.67986">
        <ele>267.38</ele>
        <time>2026-05-14T10:28:39Z</time>
      </trkpt>
      <trkpt lat="44.91298" lon="1.67977">
        <ele>266.9</ele>
        <time>2026-05-14T10:28:44Z</time>
      </trkpt>
      <trkpt lat="44.91286" lon="1.67933">
        <ele>264.98</ele>
        <time>2026-05-14T10:29:06Z</time>
      </trkpt>
      <trkpt lat="44.91277" lon="1.679">
        <ele>263.54</ele>
        <time>2026-05-14T10:29:23Z</time>
      </trkpt>
      <trkpt lat="44.91268" lon="1.67875">
        <ele>262.58</ele>
        <time>2026-05-14T10:29:38Z</time>
      </trkpt>
      <trkpt lat="44.91246" lon="1.67863">
        <ele>261.14</ele>
        <time>2026-05-14T10:29:56Z</time>
      </trkpt>
      <trkpt lat="44.91225" lon="1.67846">
        <ele>260.17</ele>
        <time>2026-05-14T10:30:14Z</time>
      </trkpt>
      <trkpt lat="44.91205" lon="1.67814">
        <ele>258.73</ele>
        <time>2026-05-14T10:30:35Z</time>
      </trkpt>
      <trkpt lat="44.91195" lon="1.67782">
        <ele>257.77</ele>
        <time>2026-05-14T10:30:54Z</time>
      </trkpt>
      <trkpt lat="44.91181" lon="1.67756">
        <ele>256.33</ele>
        <time>2026-05-14T10:31:12Z</time>
      </trkpt>
      <trkpt lat="44.91195" lon="1.67744">
        <ele>254.89</ele>
        <time>2026-05-14T10:31:28Z</time>
      </trkpt>
      <trkpt lat="44.91219" lon="1.67736">
        <ele>254.89</ele>
        <time>2026-05-14T10:31:45Z</time>
      </trkpt>
      <trkpt lat="44.91238" lon="1.67729">
        <ele>252.96</ele>
        <time>2026-05-14T10:32:01Z</time>
      </trkpt>
      <trkpt lat="44.91264" lon="1.67722">
        <ele>252.48</ele>
        <time>2026-05-14T10:32:20Z</time>
      </trkpt>
      <trkpt lat="44.91266" lon="1.67721">
        <ele>252.48</ele>
        <time>2026-05-14T10:32:21Z</time>
      </trkpt>
      <trkpt lat="44.91274" lon="1.67714">
        <ele>252.48</ele>
        <time>2026-05-14T10:32:27Z</time>
      </trkpt>
      <trkpt lat="44.91276" lon="1.67707">
        <ele>253.93</ele>
        <time>2026-05-14T10:32:31Z</time>
      </trkpt>
      <trkpt lat="44.9127" lon="1.67688">
        <ele>252.48</ele>
        <time>2026-05-14T10:32:44Z</time>
      </trkpt>
      <trkpt lat="44.9127" lon="1.67661">
        <ele>251.52</ele>
        <time>2026-05-14T10:32:58Z</time>
      </trkpt>
      <trkpt lat="44.9127" lon="1.67653">
        <ele>251.04</ele>
        <time>2026-05-14T10:33:14Z</time>
      </trkpt>
      <trkpt lat="44.91277" lon="1.67637">
        <ele>251.04</ele>
        <time>2026-05-14T10:33:35Z</time>
      </trkpt>
      <trkpt lat="44.91279" lon="1.67631">
        <ele>250.56</ele>
        <time>2026-05-14T10:33:38Z</time>
      </trkpt>
      <trkpt lat="44.91287" lon="1.67606">
        <ele>249.6</ele>
        <time>2026-05-14T10:33:53Z</time>
      </trkpt>
      <trkpt lat="44.91295" lon="1.67578">
        <ele>247.68</ele>
        <time>2026-05-14T10:34:08Z</time>
      </trkpt>
      <trkpt lat="44.91302" lon="1.67565">
        <ele>246.72</ele>
        <time>2026-05-14T10:34:17Z</time>
      </trkpt>
      <trkpt lat="44.91315" lon="1.67544">
        <ele>245.75</ele>
        <time>2026-05-14T10:34:32Z</time>
      </trkpt>
      <trkpt lat="44.91322" lon="1.67534">
        <ele>244.79</ele>
        <time>2026-05-14T10:34:39Z</time>
      </trkpt>
      <trkpt lat="44.91338" lon="1.67506">
        <ele>243.35</ele>
        <time>2026-05-14T10:34:57Z</time>
      </trkpt>
      <trkpt lat="44.91342" lon="1.67503">
        <ele>243.83</ele>
        <time>2026-05-14T10:35:02Z</time>
      </trkpt>
      <trkpt lat="44.91343" lon="1.67497">
        <ele>242.87</ele>
        <time>2026-05-14T10:35:05Z</time>
      </trkpt>
      <trkpt lat="44.91356" lon="1.67472">
        <ele>240.47</ele>
        <time>2026-05-14T10:35:22Z</time>
      </trkpt>
      <trkpt lat="44.91362" lon="1.67459">
        <ele>238.06</ele>
        <time>2026-05-14T10:35:31Z</time>
      </trkpt>
      <trkpt lat="44.9137" lon="1.67448">
        <ele>236.62</ele>
        <time>2026-05-14T10:35:40Z</time>
      </trkpt>
      <trkpt lat="44.9138" lon="1.67439">
        <ele>235.18</ele>
        <time>2026-05-14T10:35:49Z</time>
      </trkpt>
      <trkpt lat="44.91396" lon="1.67425">
        <ele>232.78</ele>
        <time>2026-05-14T10:36:04Z</time>
      </trkpt>
      <trkpt lat="44.91415" lon="1.67407">
        <ele>229.89</ele>
        <time>2026-05-14T10:36:21Z</time>
      </trkpt>
      <trkpt lat="44.91432" lon="1.6739">
        <ele>227.01</ele>
        <time>2026-05-14T10:36:37Z</time>
      </trkpt>
      <trkpt lat="44.91447" lon="1.67374">
        <ele>224.12</ele>
        <time>2026-05-14T10:36:54Z</time>
      </trkpt>
      <trkpt lat="44.91467" lon="1.67353">
        <ele>221.24</ele>
        <time>2026-05-14T10:37:13Z</time>
      </trkpt>
      <trkpt lat="44.91482" lon="1.67337">
        <ele>218.36</ele>
        <time>2026-05-14T10:37:29Z</time>
      </trkpt>
      <trkpt lat="44.91496" lon="1.6732">
        <ele>215.47</ele>
        <time>2026-05-14T10:37:44Z</time>
      </trkpt>
      <trkpt lat="44.91513" lon="1.67297">
        <ele>212.59</ele>
        <time>2026-05-14T10:38:01Z</time>
      </trkpt>
      <trkpt lat="44.91523" lon="1.67276">
        <ele>210.67</ele>
        <time>2026-05-14T10:38:16Z</time>
      </trkpt>
      <trkpt lat="44.91538" lon="1.67249">
        <ele>207.78</ele>
        <time>2026-05-14T10:38:33Z</time>
      </trkpt>
      <trkpt lat="44.91543" lon="1.67225">
        <ele>205.38</ele>
        <time>2026-05-14T10:38:46Z</time>
      </trkpt>
      <trkpt lat="44.9156" lon="1.67204">
        <ele>202.98</ele>
        <time>2026-05-14T10:39:04Z</time>
      </trkpt>
      <trkpt lat="44.91562" lon="1.67201">
        <ele>202.98</ele>
        <time>2026-05-14T10:39:06Z</time>
      </trkpt>
      <trkpt lat="44.91564" lon="1.67198">
        <ele>202.01</ele>
        <time>2026-05-14T10:39:08Z</time>
      </trkpt>
      <trkpt lat="44.91579" lon="1.67178">
        <ele>200.57</ele>
        <time>2026-05-14T10:39:24Z</time>
      </trkpt>
      <trkpt lat="44.91594" lon="1.67155">
        <ele>196.73</ele>
        <time>2026-05-14T10:39:41Z</time>
      </trkpt>
      <trkpt lat="44.91607" lon="1.67138">
        <ele>195.28</ele>
        <time>2026-05-14T10:39:53Z</time>
      </trkpt>
      <trkpt lat="44.91626" lon="1.67116">
        <ele>192.4</ele>
        <time>2026-05-14T10:40:11Z</time>
      </trkpt>
      <trkpt lat="44.91645" lon="1.67097">
        <ele>190.48</ele>
        <time>2026-05-14T10:40:27Z</time>
      </trkpt>
      <trkpt lat="44.91664" lon="1.67075">
        <ele>190</ele>
        <time>2026-05-14T10:40:45Z</time>
      </trkpt>
      <trkpt lat="44.91663" lon="1.67049">
        <ele>190</ele>
        <time>2026-05-14T10:41:00Z</time>
      </trkpt>
      <trkpt lat="44.91661" lon="1.6704">
        <ele>190</ele>
        <time>2026-05-14T10:41:06Z</time>
      </trkpt>
      <trkpt lat="44.91655" lon="1.67013">
        <ele>187.59</ele>
        <time>2026-05-14T10:41:19Z</time>
      </trkpt>
      <trkpt lat="44.91648" lon="1.66982">
        <ele>185.19</ele>
        <time>2026-05-14T10:41:35Z</time>
      </trkpt>
      <trkpt lat="44.91642" lon="1.66953">
        <ele>181.35</ele>
        <time>2026-05-14T10:41:52Z</time>
      </trkpt>
      <trkpt lat="44.9164" lon="1.66923">
        <ele>177.98</ele>
        <time>2026-05-14T10:42:09Z</time>
      </trkpt>
      <trkpt lat="44.91639" lon="1.66898">
        <ele>176.06</ele>
        <time>2026-05-14T10:42:23Z</time>
      </trkpt>
      <trkpt lat="44.91638" lon="1.66866">
        <ele>173.17</ele>
        <time>2026-05-14T10:42:40Z</time>
      </trkpt>
      <trkpt lat="44.91642" lon="1.66841">
        <ele>170.77</ele>
        <time>2026-05-14T10:42:54Z</time>
      </trkpt>
      <trkpt lat="44.91645" lon="1.66818">
        <ele>168.37</ele>
        <time>2026-05-14T10:43:06Z</time>
      </trkpt>
      <trkpt lat="44.91647" lon="1.6679">
        <ele>165.48</ele>
        <time>2026-05-14T10:43:21Z</time>
      </trkpt>
      <trkpt lat="44.91645" lon="1.66782">
        <ele>165</ele>
        <time>2026-05-14T10:43:26Z</time>
      </trkpt>
      <trkpt lat="44.91645" lon="1.66763">
        <ele>163.56</ele>
        <time>2026-05-14T10:43:36Z</time>
      </trkpt>
      <trkpt lat="44.91648" lon="1.66732">
        <ele>161.16</ele>
        <time>2026-05-14T10:43:53Z</time>
      </trkpt>
      <trkpt lat="44.91654" lon="1.66709">
        <ele>157.79</ele>
        <time>2026-05-14T10:44:09Z</time>
      </trkpt>
      <trkpt lat="44.91657" lon="1.66697">
        <ele>157.31</ele>
        <time>2026-05-14T10:44:17Z</time>
      </trkpt>
      <trkpt lat="44.91668" lon="1.66668">
        <ele>155.39</ele>
        <time>2026-05-14T10:44:32Z</time>
      </trkpt>
      <trkpt lat="44.9167" lon="1.66658">
        <ele>154.43</ele>
        <time>2026-05-14T10:44:54Z</time>
      </trkpt>
      <trkpt lat="44.91671" lon="1.66652">
        <ele>154.43</ele>
        <time>2026-05-14T10:45:25Z</time>
      </trkpt>
      <trkpt lat="44.91696" lon="1.66632">
        <ele>152.51</ele>
        <time>2026-05-14T10:45:43Z</time>
      </trkpt>
      <trkpt lat="44.91705" lon="1.66608">
        <ele>150.58</ele>
        <time>2026-05-14T10:45:59Z</time>
      </trkpt>
      <trkpt lat="44.91716" lon="1.66581">
        <ele>147.22</ele>
        <time>2026-05-14T10:46:17Z</time>
      </trkpt>
      <trkpt lat="44.91732" lon="1.66562">
        <ele>145.78</ele>
        <time>2026-05-14T10:46:35Z</time>
      </trkpt>
      <trkpt lat="44.91754" lon="1.6654">
        <ele>144.82</ele>
        <time>2026-05-14T10:46:52Z</time>
      </trkpt>
      <trkpt lat="44.91767" lon="1.66518">
        <ele>144.34</ele>
        <time>2026-05-14T10:47:07Z</time>
      </trkpt>
      <trkpt lat="44.91778" lon="1.66491">
        <ele>142.89</ele>
        <time>2026-05-14T10:47:25Z</time>
      </trkpt>
      <trkpt lat="44.9179" lon="1.66469">
        <ele>141.93</ele>
        <time>2026-05-14T10:47:40Z</time>
      </trkpt>
      <trkpt lat="44.91801" lon="1.66452">
        <ele>141.93</ele>
        <time>2026-05-14T10:47:56Z</time>
      </trkpt>
      <trkpt lat="44.91805" lon="1.66434">
        <ele>141.93</ele>
        <time>2026-05-14T10:48:15Z</time>
      </trkpt>
      <trkpt lat="44.91815" lon="1.66403">
        <ele>140.97</ele>
        <time>2026-05-14T10:48:34Z</time>
      </trkpt>
      <trkpt lat="44.91827" lon="1.66372">
        <ele>140.97</ele>
        <time>2026-05-14T10:48:52Z</time>
      </trkpt>
      <trkpt lat="44.91829" lon="1.6636">
        <ele>141.93</ele>
        <time>2026-05-14T10:48:59Z</time>
      </trkpt>
      <trkpt lat="44.91828" lon="1.66337">
        <ele>144.82</ele>
        <time>2026-05-14T10:49:16Z</time>
      </trkpt>
      <trkpt lat="44.91832" lon="1.66316">
        <ele>147.7</ele>
        <time>2026-05-14T10:49:33Z</time>
      </trkpt>
      <trkpt lat="44.91838" lon="1.66295">
        <ele>150.58</ele>
        <time>2026-05-14T10:49:50Z</time>
      </trkpt>
      <trkpt lat="44.91837" lon="1.66288">
        <ele>152.03</ele>
        <time>2026-05-14T10:49:59Z</time>
      </trkpt>
      <trkpt lat="44.91838" lon="1.66274">
        <ele>154.43</ele>
        <time>2026-05-14T10:50:12Z</time>
      </trkpt>
      <trkpt lat="44.91841" lon="1.6626">
        <ele>155.87</ele>
        <time>2026-05-14T10:50:26Z</time>
      </trkpt>
      <trkpt lat="44.91844" lon="1.66243">
        <ele>158.75</ele>
        <time>2026-05-14T10:50:42Z</time>
      </trkpt>
      <trkpt lat="44.91836" lon="1.66227">
        <ele>160.2</ele>
        <time>2026-05-14T10:50:59Z</time>
      </trkpt>
      <trkpt lat="44.91814" lon="1.66225">
        <ele>161.64</ele>
        <time>2026-05-14T10:51:18Z</time>
      </trkpt>
      <trkpt lat="44.91789" lon="1.66215">
        <ele>159.72</ele>
        <time>2026-05-14T10:51:39Z</time>
      </trkpt>
      <trkpt lat="44.91765" lon="1.662">
        <ele>158.75</ele>
        <time>2026-05-14T10:51:58Z</time>
      </trkpt>
      <trkpt lat="44.9175" lon="1.66173">
        <ele>157.79</ele>
        <time>2026-05-14T10:52:16Z</time>
      </trkpt>
      <trkpt lat="44.91739" lon="1.6615">
        <ele>156.83</ele>
        <time>2026-05-14T10:52:31Z</time>
      </trkpt>
      <trkpt lat="44.91736" lon="1.66141">
        <ele>156.35</ele>
        <time>2026-05-14T10:52:45Z</time>
      </trkpt>
      <trkpt lat="44.91732" lon="1.66141">
        <ele>156.35</ele>
        <time>2026-05-14T10:52:54Z</time>
      </trkpt>
      <trkpt lat="44.91722" lon="1.66116">
        <ele>154.91</ele>
        <time>2026-05-14T10:53:11Z</time>
      </trkpt>
      <trkpt lat="44.91712" lon="1.66086">
        <ele>153.47</ele>
        <time>2026-05-14T10:53:29Z</time>
      </trkpt>
      <trkpt lat="44.91691" lon="1.66065">
        <ele>153.47</ele>
        <time>2026-05-14T10:53:46Z</time>
      </trkpt>
      <trkpt lat="44.91677" lon="1.66035">
        <ele>153.47</ele>
        <time>2026-05-14T10:54:05Z</time>
      </trkpt>
      <trkpt lat="44.91669" lon="1.66007">
        <ele>154.91</ele>
        <time>2026-05-14T10:54:22Z</time>
      </trkpt>
      <trkpt lat="44.91665" lon="1.65985">
        <ele>157.31</ele>
        <time>2026-05-14T10:54:38Z</time>
      </trkpt>
      <trkpt lat="44.91664" lon="1.65973">
        <ele>158.75</ele>
        <time>2026-05-14T10:54:47Z</time>
      </trkpt>
      <trkpt lat="44.91656" lon="1.65966">
        <ele>159.24</ele>
        <time>2026-05-14T10:55:04Z</time>
      </trkpt>
      <trkpt lat="44.91651" lon="1.65978">
        <ele>160.68</ele>
        <time>2026-05-14T10:55:18Z</time>
      </trkpt>
      <trkpt lat="44.9164" lon="1.66003">
        <ele>162.12</ele>
        <time>2026-05-14T10:55:37Z</time>
      </trkpt>
      <trkpt lat="44.91629" lon="1.66028">
        <ele>164.04</ele>
        <time>2026-05-14T10:55:54Z</time>
      </trkpt>
      <trkpt lat="44.91617" lon="1.66051">
        <ele>166.93</ele>
        <time>2026-05-14T10:56:14Z</time>
      </trkpt>
      <trkpt lat="44.91608" lon="1.66074">
        <ele>169.81</ele>
        <time>2026-05-14T10:56:33Z</time>
      </trkpt>
      <trkpt lat="44.91605" lon="1.66078">
        <ele>170.29</ele>
        <time>2026-05-14T10:56:52Z</time>
      </trkpt>
      <trkpt lat="44.91603" lon="1.66076">
        <ele>170.29</ele>
        <time>2026-05-14T10:57:19Z</time>
      </trkpt>
      <trkpt lat="44.91606" lon="1.66074">
        <ele>170.29</ele>
        <time>2026-05-14T10:57:34Z</time>
      </trkpt>
      <trkpt lat="44.91611" lon="1.66074">
        <ele>170.77</ele>
        <time>2026-05-14T10:58:06Z</time>
      </trkpt>
      <trkpt lat="44.91616" lon="1.66071">
        <ele>170.77</ele>
        <time>2026-05-14T10:58:37Z</time>
      </trkpt>
      <trkpt lat="44.9161" lon="1.66075">
        <ele>170.77</ele>
        <time>2026-05-14T10:59:04Z</time>
      </trkpt>
      <trkpt lat="44.91612" lon="1.66074">
        <ele>170.77</ele>
        <time>2026-05-14T10:59:28Z</time>
      </trkpt>
      <trkpt lat="44.91609" lon="1.66074">
        <ele>171.25</ele>
        <time>2026-05-14T11:00:01Z</time>
      </trkpt>
      <trkpt lat="44.9161" lon="1.66073">
        <ele>166.45</ele>
        <time>2026-05-14T11:00:26Z</time>
      </trkpt>
      <trkpt lat="44.91609" lon="1.66073">
        <ele>173.66</ele>
        <time>2026-05-14T11:00:27Z</time>
      </trkpt>
      <trkpt lat="44.9161" lon="1.66073">
        <ele>172.21</ele>
        <time>2026-05-14T11:00:28Z</time>
      </trkpt>
      <trkpt lat="44.9161" lon="1.66074">
        <ele>170.77</ele>
        <time>2026-05-14T11:00:30Z</time>
      </trkpt>
      <trkpt lat="44.91607" lon="1.66078">
        <ele>170.77</ele>
        <time>2026-05-14T11:00:59Z</time>
      </trkpt>
      <trkpt lat="44.91613" lon="1.66072">
        <ele>170.77</ele>
        <time>2026-05-14T11:01:26Z</time>
      </trkpt>
      <trkpt lat="44.9161" lon="1.66076">
        <ele>170.77</ele>
        <time>2026-05-14T11:01:57Z</time>
      </trkpt>
      <trkpt lat="44.9161" lon="1.66076">
        <ele>164.04</ele>
        <time>2026-05-14T11:02:08Z</time>
      </trkpt>
      <trkpt lat="44.9161" lon="1.66076">
        <ele>165.96</ele>
        <time>2026-05-14T11:02:09Z</time>
      </trkpt>
      <trkpt lat="44.9161" lon="1.66076">
        <ele>176.06</ele>
        <time>2026-05-14T11:02:10Z</time>
      </trkpt>
      <trkpt lat="44.91609" lon="1.66077">
        <ele>176.06</ele>
        <time>2026-05-14T11:02:11Z</time>
      </trkpt>
      <trkpt lat="44.91609" lon="1.66078">
        <ele>172.21</ele>
        <time>2026-05-14T11:02:12Z</time>
      </trkpt>
      <trkpt lat="44.91609" lon="1.66079">
        <ele>171.25</ele>
        <time>2026-05-14T11:02:14Z</time>
      </trkpt>
      <trkpt lat="44.91604" lon="1.66079">
        <ele>170.77</ele>
        <time>2026-05-14T11:02:35Z</time>
      </trkpt>
      <trkpt lat="44.91595" lon="1.66079">
        <ele>171.25</ele>
        <time>2026-05-14T11:02:59Z</time>
      </trkpt>
      <trkpt lat="44.91605" lon="1.66077">
        <ele>170.77</ele>
        <time>2026-05-14T11:03:32Z</time>
      </trkpt>
      <trkpt lat="44.91611" lon="1.66077">
        <ele>170.77</ele>
        <time>2026-05-14T11:03:55Z</time>
      </trkpt>
      <trkpt lat="44.91611" lon="1.66076">
        <ele>170.77</ele>
        <time>2026-05-14T11:04:24Z</time>
      </trkpt>
      <trkpt lat="44.91613" lon="1.66075">
        <ele>170.77</ele>
        <time>2026-05-14T11:04:54Z</time>
      </trkpt>
      <trkpt lat="44.91616" lon="1.66074">
        <ele>172.21</ele>
        <time>2026-05-14T11:05:17Z</time>
      </trkpt>
      <trkpt lat="44.91614" lon="1.66074">
        <ele>170.29</ele>
        <time>2026-05-14T11:05:22Z</time>
      </trkpt>
      <trkpt lat="44.91614" lon="1.66075">
        <ele>171.73</ele>
        <time>2026-05-14T11:05:25Z</time>
      </trkpt>
      <trkpt lat="44.91613" lon="1.66075">
        <ele>170.77</ele>
        <time>2026-05-14T11:05:49Z</time>
      </trkpt>
      <trkpt lat="44.9161" lon="1.66073">
        <ele>172.21</ele>
        <time>2026-05-14T11:06:01Z</time>
      </trkpt>
      <trkpt lat="44.91608" lon="1.66076">
        <ele>170.29</ele>
        <time>2026-05-14T11:06:05Z</time>
      </trkpt>
      <trkpt lat="44.91607" lon="1.66077">
        <ele>171.73</ele>
        <time>2026-05-14T11:06:09Z</time>
      </trkpt>
      <trkpt lat="44.91597" lon="1.66086">
        <ele>172.21</ele>
        <time>2026-05-14T11:06:37Z</time>
      </trkpt>
      <trkpt lat="44.91592" lon="1.66086">
        <ele>171.25</ele>
        <time>2026-05-14T11:07:04Z</time>
      </trkpt>
      <trkpt lat="44.91597" lon="1.66079">
        <ele>172.69</ele>
        <time>2026-05-14T11:07:28Z</time>
      </trkpt>
      <trkpt lat="44.91599" lon="1.66079">
        <ele>171.25</ele>
        <time>2026-05-14T11:07:30Z</time>
      </trkpt>
      <trkpt lat="44.91606" lon="1.66074">
        <ele>172.69</ele>
        <time>2026-05-14T11:07:38Z</time>
      </trkpt>
      <trkpt lat="44.91618" lon="1.66074">
        <ele>172.21</ele>
        <time>2026-05-14T11:08:01Z</time>
      </trkpt>
      <trkpt lat="44.91612" lon="1.66074">
        <ele>171.73</ele>
        <time>2026-05-14T11:08:31Z</time>
      </trkpt>
      <trkpt lat="44.91622" lon="1.66073">
        <ele>171.73</ele>
        <time>2026-05-14T11:08:58Z</time>
      </trkpt>
      <trkpt lat="44.9161" lon="1.66074">
        <ele>171.73</ele>
        <time>2026-05-14T11:09:22Z</time>
      </trkpt>
      <trkpt lat="44.91606" lon="1.66075">
        <ele>171.73</ele>
        <time>2026-05-14T11:09:47Z</time>
      </trkpt>
      <trkpt lat="44.91606" lon="1.66076">
        <ele>171.73</ele>
        <time>2026-05-14T11:10:18Z</time>
      </trkpt>
      <trkpt lat="44.91607" lon="1.66075">
        <ele>173.17</ele>
        <time>2026-05-14T11:10:26Z</time>
      </trkpt>
      <trkpt lat="44.91608" lon="1.66078">
        <ele>173.17</ele>
        <time>2026-05-14T11:10:51Z</time>
      </trkpt>
      <trkpt lat="44.91608" lon="1.66078">
        <ele>172.21</ele>
        <time>2026-05-14T11:10:56Z</time>
      </trkpt>
      <trkpt lat="44.91608" lon="1.66078">
        <ele>173.66</ele>
        <time>2026-05-14T11:11:01Z</time>
      </trkpt>
      <trkpt lat="44.91607" lon="1.66078">
        <ele>171.73</ele>
        <time>2026-05-14T11:11:04Z</time>
      </trkpt>
      <trkpt lat="44.91607" lon="1.66078">
        <ele>173.66</ele>
        <time>2026-05-14T11:11:07Z</time>
      </trkpt>
      <trkpt lat="44.91602" lon="1.66076">
        <ele>172.69</ele>
        <time>2026-05-14T11:11:29Z</time>
      </trkpt>
      <trkpt lat="44.91605" lon="1.6608">
        <ele>173.66</ele>
        <time>2026-05-14T11:11:53Z</time>
      </trkpt>
      <trkpt lat="44.91603" lon="1.66091">
        <ele>172.69</ele>
        <time>2026-05-14T11:12:30Z</time>
      </trkpt>
      <trkpt lat="44.91597" lon="1.66089">
        <ele>173.66</ele>
        <time>2026-05-14T11:12:45Z</time>
      </trkpt>
      <trkpt lat="44.91588" lon="1.66079">
        <ele>172.21</ele>
        <time>2026-05-14T11:13:04Z</time>
      </trkpt>
      <trkpt lat="44.91577" lon="1.66069">
        <ele>169.81</ele>
        <time>2026-05-14T11:13:22Z</time>
      </trkpt>
      <trkpt lat="44.91567" lon="1.66059">
        <ele>166.45</ele>
        <time>2026-05-14T11:13:33Z</time>
      </trkpt>
      <trkpt lat="44.91559" lon="1.6605">
        <ele>165.48</ele>
        <time>2026-05-14T11:13:52Z</time>
      </trkpt>
      <trkpt lat="44.91552" lon="1.66037">
        <ele>162.6</ele>
        <time>2026-05-14T11:14:17Z</time>
      </trkpt>
      <trkpt lat="44.9155" lon="1.66028">
        <ele>159.72</ele>
        <time>2026-05-14T11:14:27Z</time>
      </trkpt>
      <trkpt lat="44.91545" lon="1.66015">
        <ele>156.83</ele>
        <time>2026-05-14T11:14:38Z</time>
      </trkpt>
      <trkpt lat="44.91535" lon="1.66">
        <ele>153.47</ele>
        <time>2026-05-14T11:14:51Z</time>
      </trkpt>
      <trkpt lat="44.91528" lon="1.65979">
        <ele>150.1</ele>
        <time>2026-05-14T11:15:05Z</time>
      </trkpt>
      <trkpt lat="44.91527" lon="1.65978">
        <ele>150.1</ele>
        <time>2026-05-14T11:15:06Z</time>
      </trkpt>
      <trkpt lat="44.91511" lon="1.6596">
        <ele>148.18</ele>
        <time>2026-05-14T11:15:21Z</time>
      </trkpt>
      <trkpt lat="44.91488" lon="1.65939">
        <ele>146.74</ele>
        <time>2026-05-14T11:15:37Z</time>
      </trkpt>
      <trkpt lat="44.91468" lon="1.65921">
        <ele>146.74</ele>
        <time>2026-05-14T11:15:55Z</time>
      </trkpt>
      <trkpt lat="44.91455" lon="1.65899">
        <ele>147.7</ele>
        <time>2026-05-14T11:16:11Z</time>
      </trkpt>
      <trkpt lat="44.91447" lon="1.65892">
        <ele>147.7</ele>
        <time>2026-05-14T11:16:21Z</time>
      </trkpt>
      <trkpt lat="44.91442" lon="1.65887">
        <ele>147.7</ele>
        <time>2026-05-14T11:16:24Z</time>
      </trkpt>
      <trkpt lat="44.91433" lon="1.65883">
        <ele>148.18</ele>
        <time>2026-05-14T11:16:29Z</time>
      </trkpt>
      <trkpt lat="44.91429" lon="1.6586">
        <ele>146.74</ele>
        <time>2026-05-14T11:16:43Z</time>
      </trkpt>
      <trkpt lat="44.91426" lon="1.65844">
        <ele>146.26</ele>
        <time>2026-05-14T11:16:56Z</time>
      </trkpt>
      <trkpt lat="44.91421" lon="1.65832">
        <ele>146.26</ele>
        <time>2026-05-14T11:17:05Z</time>
      </trkpt>
      <trkpt lat="44.91422" lon="1.65801">
        <ele>147.7</ele>
        <time>2026-05-14T11:17:23Z</time>
      </trkpt>
      <trkpt lat="44.9142" lon="1.65796">
        <ele>147.22</ele>
        <time>2026-05-14T11:17:26Z</time>
      </trkpt>
      <trkpt lat="44.91411" lon="1.65786">
        <ele>148.18</ele>
        <time>2026-05-14T11:17:34Z</time>
      </trkpt>
      <trkpt lat="44.91411" lon="1.65784">
        <ele>148.66</ele>
        <time>2026-05-14T11:17:54Z</time>
      </trkpt>
      <trkpt lat="44.91403" lon="1.65782">
        <ele>148.18</ele>
        <time>2026-05-14T11:18:20Z</time>
      </trkpt>
      <trkpt lat="44.91397" lon="1.65773">
        <ele>149.62</ele>
        <time>2026-05-14T11:18:31Z</time>
      </trkpt>
      <trkpt lat="44.91387" lon="1.65759">
        <ele>151.06</ele>
        <time>2026-05-14T11:18:45Z</time>
      </trkpt>
      <trkpt lat="44.91382" lon="1.65755">
        <ele>151.54</ele>
        <time>2026-05-14T11:18:50Z</time>
      </trkpt>
      <trkpt lat="44.91374" lon="1.6574">
        <ele>150.1</ele>
        <time>2026-05-14T11:19:03Z</time>
      </trkpt>
      <trkpt lat="44.91384" lon="1.65719">
        <ele>148.18</ele>
        <time>2026-05-14T11:19:18Z</time>
      </trkpt>
      <trkpt lat="44.91395" lon="1.65691">
        <ele>146.26</ele>
        <time>2026-05-14T11:19:34Z</time>
      </trkpt>
      <trkpt lat="44.91408" lon="1.65667">
        <ele>144.82</ele>
        <time>2026-05-14T11:19:49Z</time>
      </trkpt>
      <trkpt lat="44.91408" lon="1.65665">
        <ele>144.82</ele>
        <time>2026-05-14T11:19:51Z</time>
      </trkpt>
      <trkpt lat="44.9141" lon="1.65656">
        <ele>144.82</ele>
        <time>2026-05-14T11:19:56Z</time>
      </trkpt>
      <trkpt lat="44.91415" lon="1.65637">
        <ele>143.37</ele>
        <time>2026-05-14T11:20:09Z</time>
      </trkpt>
      <trkpt lat="44.91414" lon="1.65635">
        <ele>142.89</ele>
        <time>2026-05-14T11:20:11Z</time>
      </trkpt>
      <trkpt lat="44.91414" lon="1.65631">
        <ele>142.89</ele>
        <time>2026-05-14T11:20:13Z</time>
      </trkpt>
      <trkpt lat="44.91414" lon="1.65621">
        <ele>142.41</ele>
        <time>2026-05-14T11:20:17Z</time>
      </trkpt>
      <trkpt lat="44.91418" lon="1.65601">
        <ele>141.93</ele>
        <time>2026-05-14T11:20:26Z</time>
      </trkpt>
      <trkpt lat="44.91413" lon="1.65596">
        <ele>141.45</ele>
        <time>2026-05-14T11:20:33Z</time>
      </trkpt>
      <trkpt lat="44.91393" lon="1.65597">
        <ele>140.01</ele>
        <time>2026-05-14T11:20:48Z</time>
      </trkpt>
      <trkpt lat="44.91385" lon="1.65597">
        <ele>140.49</ele>
        <time>2026-05-14T11:20:54Z</time>
      </trkpt>
      <trkpt lat="44.9136" lon="1.6561">
        <ele>140.01</ele>
        <time>2026-05-14T11:21:13Z</time>
      </trkpt>
      <trkpt lat="44.91349" lon="1.65615">
        <ele>139.53</ele>
        <time>2026-05-14T11:21:22Z</time>
      </trkpt>
      <trkpt lat="44.91326" lon="1.65617">
        <ele>138.09</ele>
        <time>2026-05-14T11:21:39Z</time>
      </trkpt>
      <trkpt lat="44.91305" lon="1.65616">
        <ele>136.64</ele>
        <time>2026-05-14T11:21:55Z</time>
      </trkpt>
      <trkpt lat="44.91287" lon="1.65619">
        <ele>136.64</ele>
        <time>2026-05-14T11:22:09Z</time>
      </trkpt>
      <trkpt lat="44.91275" lon="1.65621">
        <ele>138.09</ele>
        <time>2026-05-14T11:22:22Z</time>
      </trkpt>
      <trkpt lat="44.91256" lon="1.65623">
        <ele>138.09</ele>
        <time>2026-05-14T11:22:37Z</time>
      </trkpt>
      <trkpt lat="44.91237" lon="1.65625">
        <ele>138.57</ele>
        <time>2026-05-14T11:22:53Z</time>
      </trkpt>
      <trkpt lat="44.91233" lon="1.65624">
        <ele>138.57</ele>
        <time>2026-05-14T11:22:56Z</time>
      </trkpt>
      <trkpt lat="44.91212" lon="1.65626">
        <ele>138.57</ele>
        <time>2026-05-14T11:23:12Z</time>
      </trkpt>
      <trkpt lat="44.91194" lon="1.65629">
        <ele>138.57</ele>
        <time>2026-05-14T11:23:26Z</time>
      </trkpt>
      <trkpt lat="44.91171" lon="1.65633">
        <ele>138.57</ele>
        <time>2026-05-14T11:23:41Z</time>
      </trkpt>
      <trkpt lat="44.91169" lon="1.65633">
        <ele>137.13</ele>
        <time>2026-05-14T11:23:43Z</time>
      </trkpt>
      <trkpt lat="44.91147" lon="1.65635">
        <ele>137.13</ele>
        <time>2026-05-14T11:23:58Z</time>
      </trkpt>
      <trkpt lat="44.91128" lon="1.65637">
        <ele>137.13</ele>
        <time>2026-05-14T11:24:13Z</time>
      </trkpt>
      <trkpt lat="44.9111" lon="1.65638">
        <ele>137.13</ele>
        <time>2026-05-14T11:24:28Z</time>
      </trkpt>
      <trkpt lat="44.91107" lon="1.65639">
        <ele>138.57</ele>
        <time>2026-05-14T11:24:30Z</time>
      </trkpt>
      <trkpt lat="44.91079" lon="1.65642">
        <ele>138.57</ele>
        <time>2026-05-14T11:24:51Z</time>
      </trkpt>
      <trkpt lat="44.91061" lon="1.65647">
        <ele>139.05</ele>
        <time>2026-05-14T11:25:06Z</time>
      </trkpt>
      <trkpt lat="44.91041" lon="1.65658">
        <ele>140.01</ele>
        <time>2026-05-14T11:25:22Z</time>
      </trkpt>
      <trkpt lat="44.91018" lon="1.65671">
        <ele>140.97</ele>
        <time>2026-05-14T11:25:41Z</time>
      </trkpt>
      <trkpt lat="44.90995" lon="1.65684">
        <ele>141.93</ele>
        <time>2026-05-14T11:26:00Z</time>
      </trkpt>
      <trkpt lat="44.90972" lon="1.65693">
        <ele>141.93</ele>
        <time>2026-05-14T11:26:18Z</time>
      </trkpt>
      <trkpt lat="44.90946" lon="1.65699">
        <ele>140.49</ele>
        <time>2026-05-14T11:26:38Z</time>
      </trkpt>
      <trkpt lat="44.90945" lon="1.65699">
        <ele>140.49</ele>
        <time>2026-05-14T11:26:39Z</time>
      </trkpt>
      <trkpt lat="44.90922" lon="1.657">
        <ele>139.05</ele>
        <time>2026-05-14T11:26:55Z</time>
      </trkpt>
      <trkpt lat="44.90898" lon="1.65706">
        <ele>137.13</ele>
        <time>2026-05-14T11:27:13Z</time>
      </trkpt>
      <trkpt lat="44.90878" lon="1.65709">
        <ele>135.68</ele>
        <time>2026-05-14T11:27:30Z</time>
      </trkpt>
      <trkpt lat="44.90858" lon="1.65714">
        <ele>133.76</ele>
        <time>2026-05-14T11:27:45Z</time>
      </trkpt>
      <trkpt lat="44.90842" lon="1.65707">
        <ele>132.32</ele>
        <time>2026-05-14T11:27:57Z</time>
      </trkpt>
      <trkpt lat="44.90834" lon="1.65696">
        <ele>131.84</ele>
        <time>2026-05-14T11:28:09Z</time>
      </trkpt>
      <trkpt lat="44.90839" lon="1.6569">
        <ele>131.84</ele>
        <time>2026-05-14T11:28:25Z</time>
      </trkpt>
      <trkpt lat="44.90838" lon="1.65695">
        <ele>131.84</ele>
        <time>2026-05-14T11:28:29Z</time>
      </trkpt>
      <trkpt lat="44.90834" lon="1.65708">
        <ele>132.8</ele>
        <time>2026-05-14T11:28:39Z</time>
      </trkpt>
      <trkpt lat="44.90837" lon="1.65704">
        <ele>132.8</ele>
        <time>2026-05-14T11:28:57Z</time>
      </trkpt>
      <trkpt lat="44.90828" lon="1.6571">
        <ele>133.76</ele>
        <time>2026-05-14T11:29:11Z</time>
      </trkpt>
      <trkpt lat="44.90822" lon="1.65709">
        <ele>134.72</ele>
        <time>2026-05-14T11:29:18Z</time>
      </trkpt>
      <trkpt lat="44.90812" lon="1.65704">
        <ele>135.68</ele>
        <time>2026-05-14T11:29:25Z</time>
      </trkpt>
      <trkpt lat="44.908" lon="1.65701">
        <ele>138.57</ele>
        <time>2026-05-14T11:29:39Z</time>
      </trkpt>
      <trkpt lat="44.90798" lon="1.65707">
        <ele>139.53</ele>
        <time>2026-05-14T11:29:51Z</time>
      </trkpt>
      <trkpt lat="44.90786" lon="1.65711">
        <ele>142.41</ele>
        <time>2026-05-14T11:30:08Z</time>
      </trkpt>
      <trkpt lat="44.90773" lon="1.65708">
        <ele>144.82</ele>
        <time>2026-05-14T11:30:22Z</time>
      </trkpt>
      <trkpt lat="44.90759" lon="1.65713">
        <ele>147.7</ele>
        <time>2026-05-14T11:30:39Z</time>
      </trkpt>
      <trkpt lat="44.90753" lon="1.65715">
        <ele>150.58</ele>
        <time>2026-05-14T11:30:55Z</time>
      </trkpt>
      <trkpt lat="44.90743" lon="1.6572">
        <ele>152.51</ele>
        <time>2026-05-14T11:31:08Z</time>
      </trkpt>
      <trkpt lat="44.90731" lon="1.65723">
        <ele>154.43</ele>
        <time>2026-05-14T11:31:22Z</time>
      </trkpt>
      <trkpt lat="44.90725" lon="1.65726">
        <ele>156.35</ele>
        <time>2026-05-14T11:31:34Z</time>
      </trkpt>
      <trkpt lat="44.90718" lon="1.65728">
        <ele>157.79</ele>
        <time>2026-05-14T11:31:46Z</time>
      </trkpt>
      <trkpt lat="44.90705" lon="1.65733">
        <ele>160.2</ele>
        <time>2026-05-14T11:32:02Z</time>
      </trkpt>
      <trkpt lat="44.90691" lon="1.65735">
        <ele>163.08</ele>
        <time>2026-05-14T11:32:17Z</time>
      </trkpt>
      <trkpt lat="44.90682" lon="1.65736">
        <ele>165</ele>
        <time>2026-05-14T11:32:32Z</time>
      </trkpt>
      <trkpt lat="44.90674" lon="1.6574">
        <ele>167.89</ele>
        <time>2026-05-14T11:32:47Z</time>
      </trkpt>
      <trkpt lat="44.90666" lon="1.65743">
        <ele>169.33</ele>
        <time>2026-05-14T11:32:59Z</time>
      </trkpt>
      <trkpt lat="44.90657" lon="1.65745">
        <ele>171.73</ele>
        <time>2026-05-14T11:33:13Z</time>
      </trkpt>
      <trkpt lat="44.90648" lon="1.6575">
        <ele>173.66</ele>
        <time>2026-05-14T11:33:27Z</time>
      </trkpt>
      <trkpt lat="44.90637" lon="1.65751">
        <ele>176.06</ele>
        <time>2026-05-14T11:33:43Z</time>
      </trkpt>
      <trkpt lat="44.90627" lon="1.65752">
        <ele>178.46</ele>
        <time>2026-05-14T11:33:58Z</time>
      </trkpt>
      <trkpt lat="44.90616" lon="1.65754">
        <ele>180.38</ele>
        <time>2026-05-14T11:34:12Z</time>
      </trkpt>
      <trkpt lat="44.90604" lon="1.65761">
        <ele>182.31</ele>
        <time>2026-05-14T11:34:26Z</time>
      </trkpt>
      <trkpt lat="44.90591" lon="1.65762">
        <ele>184.71</ele>
        <time>2026-05-14T11:34:40Z</time>
      </trkpt>
      <trkpt lat="44.9058" lon="1.65763">
        <ele>186.63</ele>
        <time>2026-05-14T11:34:54Z</time>
      </trkpt>
      <trkpt lat="44.90569" lon="1.65765">
        <ele>188.56</ele>
        <time>2026-05-14T11:35:07Z</time>
      </trkpt>
      <trkpt lat="44.90557" lon="1.65767">
        <ele>190.48</ele>
        <time>2026-05-14T11:35:21Z</time>
      </trkpt>
      <trkpt lat="44.90544" lon="1.65766">
        <ele>191.92</ele>
        <time>2026-05-14T11:35:34Z</time>
      </trkpt>
      <trkpt lat="44.90527" lon="1.65766">
        <ele>194.32</ele>
        <time>2026-05-14T11:35:49Z</time>
      </trkpt>
      <trkpt lat="44.90512" lon="1.65771">
        <ele>196.73</ele>
        <time>2026-05-14T11:36:02Z</time>
      </trkpt>
      <trkpt lat="44.90517" lon="1.65775">
        <ele>197.21</ele>
        <time>2026-05-14T11:36:15Z</time>
      </trkpt>
      <trkpt lat="44.90528" lon="1.65782">
        <ele>200.09</ele>
        <time>2026-05-14T11:36:33Z</time>
      </trkpt>
      <trkpt lat="44.90531" lon="1.65794">
        <ele>201.53</ele>
        <time>2026-05-14T11:36:47Z</time>
      </trkpt>
      <trkpt lat="44.90527" lon="1.65795">
        <ele>202.01</ele>
        <time>2026-05-14T11:37:06Z</time>
      </trkpt>
      <trkpt lat="44.90525" lon="1.65788">
        <ele>202.49</ele>
        <time>2026-05-14T11:37:30Z</time>
      </trkpt>
      <trkpt lat="44.90509" lon="1.65786">
        <ele>204.9</ele>
        <time>2026-05-14T11:37:47Z</time>
      </trkpt>
      <trkpt lat="44.90496" lon="1.65793">
        <ele>206.82</ele>
        <time>2026-05-14T11:38:01Z</time>
      </trkpt>
      <trkpt lat="44.90487" lon="1.65795">
        <ele>209.7</ele>
        <time>2026-05-14T11:38:16Z</time>
      </trkpt>
      <trkpt lat="44.90472" lon="1.65795">
        <ele>211.63</ele>
        <time>2026-05-14T11:38:31Z</time>
      </trkpt>
      <trkpt lat="44.90461" lon="1.65797">
        <ele>214.03</ele>
        <time>2026-05-14T11:38:43Z</time>
      </trkpt>
      <trkpt lat="44.9045" lon="1.65798">
        <ele>215.47</ele>
        <time>2026-05-14T11:38:54Z</time>
      </trkpt>
      <trkpt lat="44.90438" lon="1.65799">
        <ele>217.4</ele>
        <time>2026-05-14T11:39:06Z</time>
      </trkpt>
      <trkpt lat="44.90429" lon="1.65801">
        <ele>219.8</ele>
        <time>2026-05-14T11:39:19Z</time>
      </trkpt>
      <trkpt lat="44.90419" lon="1.65804">
        <ele>222.2</ele>
        <time>2026-05-14T11:39:31Z</time>
      </trkpt>
      <trkpt lat="44.90416" lon="1.65806">
        <ele>221.72</ele>
        <time>2026-05-14T11:39:43Z</time>
      </trkpt>
      <trkpt lat="44.90416" lon="1.65806">
        <ele>223.16</ele>
        <time>2026-05-14T11:39:44Z</time>
      </trkpt>
      <trkpt lat="44.90414" lon="1.65806">
        <ele>222.2</ele>
        <time>2026-05-14T11:40:07Z</time>
      </trkpt>
      <trkpt lat="44.90413" lon="1.65805">
        <ele>223.64</ele>
        <time>2026-05-14T11:40:24Z</time>
      </trkpt>
      <trkpt lat="44.90413" lon="1.65805">
        <ele>222.2</ele>
        <time>2026-05-14T11:40:27Z</time>
      </trkpt>
      <trkpt lat="44.90414" lon="1.65805">
        <ele>223.16</ele>
        <time>2026-05-14T11:40:30Z</time>
      </trkpt>
      <trkpt lat="44.90415" lon="1.65806">
        <ele>221.72</ele>
        <time>2026-05-14T11:40:36Z</time>
      </trkpt>
      <trkpt lat="44.90419" lon="1.65806">
        <ele>223.16</ele>
        <time>2026-05-14T11:40:57Z</time>
      </trkpt>
      <trkpt lat="44.90418" lon="1.65807">
        <ele>222.2</ele>
        <time>2026-05-14T11:41:01Z</time>
      </trkpt>
      <trkpt lat="44.90417" lon="1.65808">
        <ele>224.12</ele>
        <time>2026-05-14T11:41:12Z</time>
      </trkpt>
      <trkpt lat="44.90417" lon="1.65807">
        <ele>222.68</ele>
        <time>2026-05-14T11:41:13Z</time>
      </trkpt>
      <trkpt lat="44.90418" lon="1.65804">
        <ele>218.84</ele>
        <time>2026-05-14T11:41:16Z</time>
      </trkpt>
      <trkpt lat="44.90418" lon="1.65804">
        <ele>225.57</ele>
        <time>2026-05-14T11:41:18Z</time>
      </trkpt>
      <trkpt lat="44.90418" lon="1.65804">
        <ele>222.2</ele>
        <time>2026-05-14T11:41:19Z</time>
      </trkpt>
      <trkpt lat="44.90427" lon="1.6579">
        <ele>221.72</ele>
        <time>2026-05-14T11:41:42Z</time>
      </trkpt>
      <trkpt lat="44.90426" lon="1.65791">
        <ele>222.2</ele>
        <time>2026-05-14T11:42:15Z</time>
      </trkpt>
      <trkpt lat="44.90427" lon="1.65791">
        <ele>222.2</ele>
        <time>2026-05-14T11:42:35Z</time>
      </trkpt>
      <trkpt lat="44.90427" lon="1.65791">
        <ele>222.2</ele>
        <time>2026-05-14T11:43:02Z</time>
      </trkpt>
      <trkpt lat="44.90425" lon="1.65793">
        <ele>222.2</ele>
        <time>2026-05-14T11:43:28Z</time>
      </trkpt>
      <trkpt lat="44.90427" lon="1.65789">
        <ele>223.16</ele>
        <time>2026-05-14T11:44:03Z</time>
      </trkpt>
      <trkpt lat="44.90428" lon="1.6579">
        <ele>223.64</ele>
        <time>2026-05-14T11:44:34Z</time>
      </trkpt>
      <trkpt lat="44.90429" lon="1.6579">
        <ele>222.2</ele>
        <time>2026-05-14T11:44:38Z</time>
      </trkpt>
      <trkpt lat="44.90429" lon="1.65792">
        <ele>224.12</ele>
        <time>2026-05-14T11:44:58Z</time>
      </trkpt>
      <trkpt lat="44.90429" lon="1.65792">
        <ele>224.12</ele>
        <time>2026-05-14T11:44:59Z</time>
      </trkpt>
      <trkpt lat="44.9043" lon="1.6579">
        <ele>222.68</ele>
        <time>2026-05-14T11:45:08Z</time>
      </trkpt>
      <trkpt lat="44.90434" lon="1.65788">
        <ele>222.68</ele>
        <time>2026-05-14T11:45:38Z</time>
      </trkpt>
      <trkpt lat="44.90426" lon="1.6579">
        <ele>226.05</ele>
        <time>2026-05-14T11:45:57Z</time>
      </trkpt>
      <trkpt lat="44.90423" lon="1.6579">
        <ele>226.53</ele>
        <time>2026-05-14T11:46:00Z</time>
      </trkpt>
      <trkpt lat="44.9042" lon="1.65791">
        <ele>226.05</ele>
        <time>2026-05-14T11:46:03Z</time>
      </trkpt>
      <trkpt lat="44.90418" lon="1.65791">
        <ele>226.05</ele>
        <time>2026-05-14T11:46:04Z</time>
      </trkpt>
      <trkpt lat="44.90406" lon="1.65795">
        <ele>228.93</ele>
        <time>2026-05-14T11:46:18Z</time>
      </trkpt>
      <trkpt lat="44.90394" lon="1.65796">
        <ele>230.37</ele>
        <time>2026-05-14T11:46:32Z</time>
      </trkpt>
      <trkpt lat="44.90392" lon="1.65796">
        <ele>231.81</ele>
        <time>2026-05-14T11:46:35Z</time>
      </trkpt>
      <trkpt lat="44.90381" lon="1.65796">
        <ele>234.22</ele>
        <time>2026-05-14T11:46:53Z</time>
      </trkpt>
      <trkpt lat="44.90377" lon="1.65796">
        <ele>234.7</ele>
        <time>2026-05-14T11:46:57Z</time>
      </trkpt>
      <trkpt lat="44.90368" lon="1.65789">
        <ele>237.1</ele>
        <time>2026-05-14T11:47:08Z</time>
      </trkpt>
      <trkpt lat="44.90364" lon="1.65786">
        <ele>237.58</ele>
        <time>2026-05-14T11:47:13Z</time>
      </trkpt>
      <trkpt lat="44.9036" lon="1.65781">
        <ele>238.54</ele>
        <time>2026-05-14T11:47:18Z</time>
      </trkpt>
      <trkpt lat="44.90356" lon="1.65776">
        <ele>238.54</ele>
        <time>2026-05-14T11:47:23Z</time>
      </trkpt>
      <trkpt lat="44.90351" lon="1.6577">
        <ele>238.54</ele>
        <time>2026-05-14T11:47:39Z</time>
      </trkpt>
      <trkpt lat="44.90347" lon="1.65771">
        <ele>239.51</ele>
        <time>2026-05-14T11:47:58Z</time>
      </trkpt>
      <trkpt lat="44.9033" lon="1.65766">
        <ele>240.47</ele>
        <time>2026-05-14T11:48:13Z</time>
      </trkpt>
      <trkpt lat="44.90321" lon="1.65765">
        <ele>241.91</ele>
        <time>2026-05-14T11:48:21Z</time>
      </trkpt>
      <trkpt lat="44.90299" lon="1.65766">
        <ele>243.83</ele>
        <time>2026-05-14T11:48:39Z</time>
      </trkpt>
      <trkpt lat="44.90286" lon="1.65769">
        <ele>245.27</ele>
        <time>2026-05-14T11:48:53Z</time>
      </trkpt>
      <trkpt lat="44.90271" lon="1.65771">
        <ele>246.72</ele>
        <time>2026-05-14T11:49:09Z</time>
      </trkpt>
      <trkpt lat="44.90257" lon="1.65773">
        <ele>249.6</ele>
        <time>2026-05-14T11:49:26Z</time>
      </trkpt>
      <trkpt lat="44.90254" lon="1.65773">
        <ele>249.6</ele>
        <time>2026-05-14T11:49:29Z</time>
      </trkpt>
      <trkpt lat="44.90238" lon="1.65772">
        <ele>252</ele>
        <time>2026-05-14T11:49:46Z</time>
      </trkpt>
      <trkpt lat="44.90233" lon="1.65771">
        <ele>252.48</ele>
        <time>2026-05-14T11:49:51Z</time>
      </trkpt>
      <trkpt lat="44.90213" lon="1.65775">
        <ele>253.93</ele>
        <time>2026-05-14T11:50:06Z</time>
      </trkpt>
      <trkpt lat="44.90204" lon="1.6578">
        <ele>254.89</ele>
        <time>2026-05-14T11:50:15Z</time>
      </trkpt>
      <trkpt lat="44.90192" lon="1.65798">
        <ele>256.81</ele>
        <time>2026-05-14T11:50:30Z</time>
      </trkpt>
      <trkpt lat="44.90191" lon="1.658">
        <ele>256.81</ele>
        <time>2026-05-14T11:50:31Z</time>
      </trkpt>
      <trkpt lat="44.90184" lon="1.65821">
        <ele>259.21</ele>
        <time>2026-05-14T11:50:45Z</time>
      </trkpt>
      <trkpt lat="44.90179" lon="1.65836">
        <ele>260.65</ele>
        <time>2026-05-14T11:50:57Z</time>
      </trkpt>
      <trkpt lat="44.90175" lon="1.65844">
        <ele>262.1</ele>
        <time>2026-05-14T11:51:05Z</time>
      </trkpt>
      <trkpt lat="44.90175" lon="1.65847">
        <ele>262.1</ele>
        <time>2026-05-14T11:51:07Z</time>
      </trkpt>
      <trkpt lat="44.90168" lon="1.65867">
        <ele>263.06</ele>
        <time>2026-05-14T11:51:20Z</time>
      </trkpt>
      <trkpt lat="44.90167" lon="1.65876">
        <ele>263.06</ele>
        <time>2026-05-14T11:51:27Z</time>
      </trkpt>
      <trkpt lat="44.90163" lon="1.65886">
        <ele>263.54</ele>
        <time>2026-05-14T11:51:36Z</time>
      </trkpt>
      <trkpt lat="44.9016" lon="1.65893">
        <ele>264.5</ele>
        <time>2026-05-14T11:51:40Z</time>
      </trkpt>
      <trkpt lat="44.90157" lon="1.65914">
        <ele>265.46</ele>
        <time>2026-05-14T11:51:56Z</time>
      </trkpt>
      <trkpt lat="44.90153" lon="1.65934">
        <ele>266.9</ele>
        <time>2026-05-14T11:52:11Z</time>
      </trkpt>
      <trkpt lat="44.90142" lon="1.65951">
        <ele>267.86</ele>
        <time>2026-05-14T11:52:28Z</time>
      </trkpt>
      <trkpt lat="44.9013" lon="1.65955">
        <ele>268.35</ele>
        <time>2026-05-14T11:52:44Z</time>
      </trkpt>
      <trkpt lat="44.90128" lon="1.65955">
        <ele>268.35</ele>
        <time>2026-05-14T11:52:46Z</time>
      </trkpt>
      <trkpt lat="44.90108" lon="1.65949">
        <ele>269.79</ele>
        <time>2026-05-14T11:53:02Z</time>
      </trkpt>
      <trkpt lat="44.90094" lon="1.65929">
        <ele>270.27</ele>
        <time>2026-05-14T11:53:18Z</time>
      </trkpt>
      <trkpt lat="44.9008" lon="1.65912">
        <ele>271.23</ele>
        <time>2026-05-14T11:53:34Z</time>
      </trkpt>
      <trkpt lat="44.90073" lon="1.65907">
        <ele>271.23</ele>
        <time>2026-05-14T11:53:38Z</time>
      </trkpt>
      <trkpt lat="44.90065" lon="1.65902">
        <ele>272.19</ele>
        <time>2026-05-14T11:53:45Z</time>
      </trkpt>
      <trkpt lat="44.90045" lon="1.65889">
        <ele>272.67</ele>
        <time>2026-05-14T11:54:00Z</time>
      </trkpt>
      <trkpt lat="44.90035" lon="1.6588">
        <ele>272.67</ele>
        <time>2026-05-14T11:54:15Z</time>
      </trkpt>
      <trkpt lat="44.90023" lon="1.65871">
        <ele>272.67</ele>
        <time>2026-05-14T11:54:34Z</time>
      </trkpt>
      <trkpt lat="44.90012" lon="1.65861">
        <ele>272.67</ele>
        <time>2026-05-14T11:54:46Z</time>
      </trkpt>
      <trkpt lat="44.89995" lon="1.65848">
        <ele>272.67</ele>
        <time>2026-05-14T11:55:02Z</time>
      </trkpt>
      <trkpt lat="44.89979" lon="1.65834">
        <ele>272.67</ele>
        <time>2026-05-14T11:55:15Z</time>
      </trkpt>
      <trkpt lat="44.89959" lon="1.65817">
        <ele>271.71</ele>
        <time>2026-05-14T11:55:31Z</time>
      </trkpt>
      <trkpt lat="44.89939" lon="1.658">
        <ele>270.75</ele>
        <time>2026-05-14T11:55:46Z</time>
      </trkpt>
      <trkpt lat="44.89921" lon="1.65783">
        <ele>270.27</ele>
        <time>2026-05-14T11:56:01Z</time>
      </trkpt>
      <trkpt lat="44.89908" lon="1.65767">
        <ele>269.79</ele>
        <time>2026-05-14T11:56:15Z</time>
      </trkpt>
      <trkpt lat="44.89899" lon="1.65762">
        <ele>269.79</ele>
        <time>2026-05-14T11:56:24Z</time>
      </trkpt>
      <trkpt lat="44.89896" lon="1.6576">
        <ele>269.79</ele>
        <time>2026-05-14T11:56:27Z</time>
      </trkpt>
      <trkpt lat="44.89883" lon="1.65754">
        <ele>270.75</ele>
        <time>2026-05-14T11:56:39Z</time>
      </trkpt>
      <trkpt lat="44.89858" lon="1.65753">
        <ele>270.75</ele>
        <time>2026-05-14T11:56:55Z</time>
      </trkpt>
      <trkpt lat="44.89845" lon="1.65753">
        <ele>270.75</ele>
        <time>2026-05-14T11:57:04Z</time>
      </trkpt>
      <trkpt lat="44.89843" lon="1.65753">
        <ele>269.31</ele>
        <time>2026-05-14T11:57:05Z</time>
      </trkpt>
      <trkpt lat="44.89842" lon="1.65753">
        <ele>269.31</ele>
        <time>2026-05-14T11:57:06Z</time>
      </trkpt>
      <trkpt lat="44.8984" lon="1.65754">
        <ele>269.31</ele>
        <time>2026-05-14T11:57:07Z</time>
      </trkpt>
      <trkpt lat="44.89839" lon="1.65754">
        <ele>269.31</ele>
        <time>2026-05-14T11:57:08Z</time>
      </trkpt>
      <trkpt lat="44.89832" lon="1.65754">
        <ele>270.75</ele>
        <time>2026-05-14T11:57:15Z</time>
      </trkpt>
      <trkpt lat="44.89803" lon="1.65753">
        <ele>270.75</ele>
        <time>2026-05-14T11:57:35Z</time>
      </trkpt>
      <trkpt lat="44.89799" lon="1.65748">
        <ele>270.75</ele>
        <time>2026-05-14T11:57:40Z</time>
      </trkpt>
      <trkpt lat="44.89783" lon="1.65734">
        <ele>268.83</ele>
        <time>2026-05-14T11:57:55Z</time>
      </trkpt>
      <trkpt lat="44.8977" lon="1.65721">
        <ele>268.35</ele>
        <time>2026-05-14T11:58:07Z</time>
      </trkpt>
      <trkpt lat="44.8977" lon="1.6572">
        <ele>267.86</ele>
        <time>2026-05-14T11:58:22Z</time>
      </trkpt>
      <trkpt lat="44.8977" lon="1.65717">
        <ele>267.38</ele>
        <time>2026-05-14T11:58:45Z</time>
      </trkpt>
      <trkpt lat="44.89767" lon="1.65715">
        <ele>267.38</ele>
        <time>2026-05-14T11:58:48Z</time>
      </trkpt>
      <trkpt lat="44.89758" lon="1.65711">
        <ele>267.38</ele>
        <time>2026-05-14T11:58:56Z</time>
      </trkpt>
      <trkpt lat="44.89754" lon="1.6571">
        <ele>267.38</ele>
        <time>2026-05-14T11:59:02Z</time>
      </trkpt>
      <trkpt lat="44.89748" lon="1.65709">
        <ele>266.9</ele>
        <time>2026-05-14T11:59:16Z</time>
      </trkpt>
      <trkpt lat="44.89744" lon="1.65709">
        <ele>266.9</ele>
        <time>2026-05-14T11:59:29Z</time>
      </trkpt>
      <trkpt lat="44.89743" lon="1.65708">
        <ele>266.9</ele>
        <time>2026-05-14T11:59:30Z</time>
      </trkpt>
      <trkpt lat="44.89729" lon="1.65696">
        <ele>266.42</ele>
        <time>2026-05-14T11:59:43Z</time>
      </trkpt>
      <trkpt lat="44.89714" lon="1.65683">
        <ele>265.94</ele>
        <time>2026-05-14T11:59:57Z</time>
      </trkpt>
      <trkpt lat="44.89695" lon="1.65659">
        <ele>265.94</ele>
        <time>2026-05-14T12:00:13Z</time>
      </trkpt>
      <trkpt lat="44.89677" lon="1.65643">
        <ele>265.46</ele>
        <time>2026-05-14T12:00:29Z</time>
      </trkpt>
      <trkpt lat="44.89661" lon="1.65635">
        <ele>264.98</ele>
        <time>2026-05-14T12:00:44Z</time>
      </trkpt>
      <trkpt lat="44.89637" lon="1.65627">
        <ele>264.5</ele>
        <time>2026-05-14T12:01:01Z</time>
      </trkpt>
      <trkpt lat="44.89613" lon="1.65623">
        <ele>264.02</ele>
        <time>2026-05-14T12:01:18Z</time>
      </trkpt>
      <trkpt lat="44.89596" lon="1.65618">
        <ele>263.54</ele>
        <time>2026-05-14T12:01:32Z</time>
      </trkpt>
      <trkpt lat="44.89579" lon="1.65615">
        <ele>263.54</ele>
        <time>2026-05-14T12:01:46Z</time>
      </trkpt>
      <trkpt lat="44.8956" lon="1.65616">
        <ele>263.06</ele>
        <time>2026-05-14T12:02:01Z</time>
      </trkpt>
      <trkpt lat="44.89537" lon="1.6562">
        <ele>262.58</ele>
        <time>2026-05-14T12:02:18Z</time>
      </trkpt>
      <trkpt lat="44.89518" lon="1.65624">
        <ele>261.62</ele>
        <time>2026-05-14T12:02:32Z</time>
      </trkpt>
      <trkpt lat="44.895" lon="1.65621">
        <ele>260.65</ele>
        <time>2026-05-14T12:02:45Z</time>
      </trkpt>
      <trkpt lat="44.89494" lon="1.6562">
        <ele>260.65</ele>
        <time>2026-05-14T12:02:51Z</time>
      </trkpt>
      <trkpt lat="44.89492" lon="1.6562">
        <ele>260.65</ele>
        <time>2026-05-14T12:02:52Z</time>
      </trkpt>
      <trkpt lat="44.8949" lon="1.6562">
        <ele>260.65</ele>
        <time>2026-05-14T12:02:53Z</time>
      </trkpt>
      <trkpt lat="44.89488" lon="1.6562">
        <ele>260.65</ele>
        <time>2026-05-14T12:02:54Z</time>
      </trkpt>
      <trkpt lat="44.89487" lon="1.6562">
        <ele>260.17</ele>
        <time>2026-05-14T12:02:55Z</time>
      </trkpt>
      <trkpt lat="44.89485" lon="1.65621">
        <ele>260.17</ele>
        <time>2026-05-14T12:02:56Z</time>
      </trkpt>
      <trkpt lat="44.89483" lon="1.65622">
        <ele>260.17</ele>
        <time>2026-05-14T12:02:57Z</time>
      </trkpt>
      <trkpt lat="44.89481" lon="1.65622">
        <ele>260.17</ele>
        <time>2026-05-14T12:02:58Z</time>
      </trkpt>
      <trkpt lat="44.8948" lon="1.65623">
        <ele>260.17</ele>
        <time>2026-05-14T12:02:59Z</time>
      </trkpt>
      <trkpt lat="44.89461" lon="1.6563">
        <ele>258.73</ele>
        <time>2026-05-14T12:03:12Z</time>
      </trkpt>
      <trkpt lat="44.89447" lon="1.65636">
        <ele>258.25</ele>
        <time>2026-05-14T12:03:24Z</time>
      </trkpt>
      <trkpt lat="44.89429" lon="1.65645">
        <ele>257.29</ele>
        <time>2026-05-14T12:03:37Z</time>
      </trkpt>
      <trkpt lat="44.89423" lon="1.6565">
        <ele>257.29</ele>
        <time>2026-05-14T12:03:42Z</time>
      </trkpt>
      <trkpt lat="44.89405" lon="1.65659">
        <ele>256.33</ele>
        <time>2026-05-14T12:03:57Z</time>
      </trkpt>
      <trkpt lat="44.89387" lon="1.65665">
        <ele>255.37</ele>
        <time>2026-05-14T12:04:10Z</time>
      </trkpt>
      <trkpt lat="44.89378" lon="1.65671">
        <ele>254.89</ele>
        <time>2026-05-14T12:04:17Z</time>
      </trkpt>
      <trkpt lat="44.89377" lon="1.65672">
        <ele>254.89</ele>
        <time>2026-05-14T12:04:18Z</time>
      </trkpt>
      <trkpt lat="44.89368" lon="1.65673">
        <ele>254.89</ele>
        <time>2026-05-14T12:04:28Z</time>
      </trkpt>
      <trkpt lat="44.89366" lon="1.65674">
        <ele>254.89</ele>
        <time>2026-05-14T12:04:29Z</time>
      </trkpt>
      <trkpt lat="44.89347" lon="1.65675">
        <ele>254.89</ele>
        <time>2026-05-14T12:04:43Z</time>
      </trkpt>
      <trkpt lat="44.89336" lon="1.65674">
        <ele>255.85</ele>
        <time>2026-05-14T12:04:54Z</time>
      </trkpt>
      <trkpt lat="44.89332" lon="1.65673">
        <ele>255.85</ele>
        <time>2026-05-14T12:04:57Z</time>
      </trkpt>
      <trkpt lat="44.89331" lon="1.65672">
        <ele>255.85</ele>
        <time>2026-05-14T12:04:58Z</time>
      </trkpt>
      <trkpt lat="44.8933" lon="1.6567">
        <ele>255.85</ele>
        <time>2026-05-14T12:04:59Z</time>
      </trkpt>
      <trkpt lat="44.89329" lon="1.65668">
        <ele>255.85</ele>
        <time>2026-05-14T12:05:00Z</time>
      </trkpt>
      <trkpt lat="44.89328" lon="1.65667">
        <ele>255.85</ele>
        <time>2026-05-14T12:05:01Z</time>
      </trkpt>
      <trkpt lat="44.89326" lon="1.65666">
        <ele>255.85</ele>
        <time>2026-05-14T12:05:02Z</time>
      </trkpt>
      <trkpt lat="44.89325" lon="1.65665">
        <ele>255.85</ele>
        <time>2026-05-14T12:05:03Z</time>
      </trkpt>
      <trkpt lat="44.89323" lon="1.65662">
        <ele>254.89</ele>
        <time>2026-05-14T12:05:08Z</time>
      </trkpt>
      <trkpt lat="44.89322" lon="1.6566">
        <ele>254.89</ele>
        <time>2026-05-14T12:05:09Z</time>
      </trkpt>
      <trkpt lat="44.8932" lon="1.65637">
        <ele>253.44</ele>
        <time>2026-05-14T12:05:22Z</time>
      </trkpt>
      <trkpt lat="44.89319" lon="1.65613">
        <ele>252</ele>
        <time>2026-05-14T12:05:34Z</time>
      </trkpt>
      <trkpt lat="44.89315" lon="1.65587">
        <ele>251.52</ele>
        <time>2026-05-14T12:05:48Z</time>
      </trkpt>
      <trkpt lat="44.89312" lon="1.65574">
        <ele>251.52</ele>
        <time>2026-05-14T12:05:54Z</time>
      </trkpt>
      <trkpt lat="44.89312" lon="1.65572">
        <ele>251.04</ele>
        <time>2026-05-14T12:05:55Z</time>
      </trkpt>
      <trkpt lat="44.89312" lon="1.65569">
        <ele>251.04</ele>
        <time>2026-05-14T12:05:56Z</time>
      </trkpt>
      <trkpt lat="44.89311" lon="1.65567">
        <ele>251.04</ele>
        <time>2026-05-14T12:05:57Z</time>
      </trkpt>
      <trkpt lat="44.8931" lon="1.65559">
        <ele>251.04</ele>
        <time>2026-05-14T12:06:03Z</time>
      </trkpt>
      <trkpt lat="44.8931" lon="1.65557">
        <ele>251.04</ele>
        <time>2026-05-14T12:06:04Z</time>
      </trkpt>
      <trkpt lat="44.89305" lon="1.6553">
        <ele>250.56</ele>
        <time>2026-05-14T12:06:18Z</time>
      </trkpt>
      <trkpt lat="44.89293" lon="1.65511">
        <ele>250.08</ele>
        <time>2026-05-14T12:06:32Z</time>
      </trkpt>
      <trkpt lat="44.89278" lon="1.65498">
        <ele>250.08</ele>
        <time>2026-05-14T12:06:46Z</time>
      </trkpt>
      <trkpt lat="44.89265" lon="1.65485">
        <ele>250.08</ele>
        <time>2026-05-14T12:07:00Z</time>
      </trkpt>
      <trkpt lat="44.89245" lon="1.6547">
        <ele>250.08</ele>
        <time>2026-05-14T12:07:16Z</time>
      </trkpt>
      <trkpt lat="44.89231" lon="1.65455">
        <ele>249.6</ele>
        <time>2026-05-14T12:07:30Z</time>
      </trkpt>
      <trkpt lat="44.8923" lon="1.65454">
        <ele>249.12</ele>
        <time>2026-05-14T12:07:31Z</time>
      </trkpt>
      <trkpt lat="44.89228" lon="1.65452">
        <ele>249.12</ele>
        <time>2026-05-14T12:07:32Z</time>
      </trkpt>
      <trkpt lat="44.89226" lon="1.65451">
        <ele>249.12</ele>
        <time>2026-05-14T12:07:33Z</time>
      </trkpt>
      <trkpt lat="44.89225" lon="1.65449">
        <ele>249.12</ele>
        <time>2026-05-14T12:07:34Z</time>
      </trkpt>
      <trkpt lat="44.89223" lon="1.65447">
        <ele>249.12</ele>
        <time>2026-05-14T12:07:35Z</time>
      </trkpt>
      <trkpt lat="44.89222" lon="1.65446">
        <ele>249.12</ele>
        <time>2026-05-14T12:07:36Z</time>
      </trkpt>
      <trkpt lat="44.8922" lon="1.65444">
        <ele>249.12</ele>
        <time>2026-05-14T12:07:37Z</time>
      </trkpt>
      <trkpt lat="44.89218" lon="1.65442">
        <ele>249.12</ele>
        <time>2026-05-14T12:07:38Z</time>
      </trkpt>
      <trkpt lat="44.89216" lon="1.6544">
        <ele>249.12</ele>
        <time>2026-05-14T12:07:39Z</time>
      </trkpt>
      <trkpt lat="44.89205" lon="1.65427">
        <ele>249.6</ele>
        <time>2026-05-14T12:07:52Z</time>
      </trkpt>
      <trkpt lat="44.89188" lon="1.65408">
        <ele>249.6</ele>
        <time>2026-05-14T12:08:07Z</time>
      </trkpt>
      <trkpt lat="44.89166" lon="1.65389">
        <ele>249.6</ele>
        <time>2026-05-14T12:08:22Z</time>
      </trkpt>
      <trkpt lat="44.89159" lon="1.6537">
        <ele>249.12</ele>
        <time>2026-05-14T12:08:36Z</time>
      </trkpt>
      <trkpt lat="44.89151" lon="1.65341">
        <ele>248.16</ele>
        <time>2026-05-14T12:08:51Z</time>
      </trkpt>
      <trkpt lat="44.89146" lon="1.65316">
        <ele>247.68</ele>
        <time>2026-05-14T12:09:04Z</time>
      </trkpt>
      <trkpt lat="44.89141" lon="1.65297">
        <ele>246.72</ele>
        <time>2026-05-14T12:09:15Z</time>
      </trkpt>
      <trkpt lat="44.8914" lon="1.65296">
        <ele>246.23</ele>
        <time>2026-05-14T12:09:27Z</time>
      </trkpt>
      <trkpt lat="44.89139" lon="1.6529">
        <ele>246.23</ele>
        <time>2026-05-14T12:09:44Z</time>
      </trkpt>
      <trkpt lat="44.89138" lon="1.65288">
        <ele>246.23</ele>
        <time>2026-05-14T12:09:45Z</time>
      </trkpt>
      <trkpt lat="44.89138" lon="1.65264">
        <ele>245.75</ele>
        <time>2026-05-14T12:09:59Z</time>
      </trkpt>
      <trkpt lat="44.8913" lon="1.65238">
        <ele>243.83</ele>
        <time>2026-05-14T12:10:13Z</time>
      </trkpt>
      <trkpt lat="44.89124" lon="1.6521">
        <ele>242.87</ele>
        <time>2026-05-14T12:10:28Z</time>
      </trkpt>
      <trkpt lat="44.89121" lon="1.65183">
        <ele>240.47</ele>
        <time>2026-05-14T12:10:42Z</time>
      </trkpt>
      <trkpt lat="44.89121" lon="1.65181">
        <ele>240.95</ele>
        <time>2026-05-14T12:10:43Z</time>
      </trkpt>
      <trkpt lat="44.8912" lon="1.65179">
        <ele>240.95</ele>
        <time>2026-05-14T12:10:44Z</time>
      </trkpt>
      <trkpt lat="44.89119" lon="1.65177">
        <ele>240.95</ele>
        <time>2026-05-14T12:10:45Z</time>
      </trkpt>
      <trkpt lat="44.89119" lon="1.65175">
        <ele>240.47</ele>
        <time>2026-05-14T12:10:46Z</time>
      </trkpt>
      <trkpt lat="44.89112" lon="1.65156">
        <ele>239.51</ele>
        <time>2026-05-14T12:10:57Z</time>
      </trkpt>
      <trkpt lat="44.89107" lon="1.65149">
        <ele>238.54</ele>
        <time>2026-05-14T12:11:16Z</time>
      </trkpt>
      <trkpt lat="44.89106" lon="1.65146">
        <ele>238.06</ele>
        <time>2026-05-14T12:11:44Z</time>
      </trkpt>
      <trkpt lat="44.89106" lon="1.65145">
        <ele>238.06</ele>
        <time>2026-05-14T12:11:45Z</time>
      </trkpt>
      <trkpt lat="44.89106" lon="1.65143">
        <ele>238.06</ele>
        <time>2026-05-14T12:11:46Z</time>
      </trkpt>
      <trkpt lat="44.89103" lon="1.65121">
        <ele>236.62</ele>
        <time>2026-05-14T12:11:58Z</time>
      </trkpt>
      <trkpt lat="44.891" lon="1.65096">
        <ele>235.66</ele>
        <time>2026-05-14T12:12:11Z</time>
      </trkpt>
      <trkpt lat="44.89096" lon="1.6507">
        <ele>234.22</ele>
        <time>2026-05-14T12:12:25Z</time>
      </trkpt>
      <trkpt lat="44.89091" lon="1.65045">
        <ele>233.26</ele>
        <time>2026-05-14T12:12:38Z</time>
      </trkpt>
      <trkpt lat="44.89085" lon="1.6502">
        <ele>231.33</ele>
        <time>2026-05-14T12:12:52Z</time>
      </trkpt>
      <trkpt lat="44.89079" lon="1.64994">
        <ele>230.37</ele>
        <time>2026-05-14T12:13:07Z</time>
      </trkpt>
      <trkpt lat="44.89068" lon="1.64967">
        <ele>229.89</ele>
        <time>2026-05-14T12:13:22Z</time>
      </trkpt>
      <trkpt lat="44.89059" lon="1.64947">
        <ele>228.93</ele>
        <time>2026-05-14T12:13:35Z</time>
      </trkpt>
      <trkpt lat="44.89054" lon="1.64935">
        <ele>228.45</ele>
        <time>2026-05-14T12:13:43Z</time>
      </trkpt>
      <trkpt lat="44.89054" lon="1.64933">
        <ele>228.45</ele>
        <time>2026-05-14T12:13:44Z</time>
      </trkpt>
      <trkpt lat="44.89053" lon="1.64931">
        <ele>227.97</ele>
        <time>2026-05-14T12:13:45Z</time>
      </trkpt>
      <trkpt lat="44.89052" lon="1.64929">
        <ele>227.97</ele>
        <time>2026-05-14T12:13:46Z</time>
      </trkpt>
      <trkpt lat="44.89052" lon="1.64927">
        <ele>227.97</ele>
        <time>2026-05-14T12:13:47Z</time>
      </trkpt>
      <trkpt lat="44.89052" lon="1.64925">
        <ele>227.97</ele>
        <time>2026-05-14T12:13:48Z</time>
      </trkpt>
      <trkpt lat="44.89044" lon="1.649">
        <ele>227.49</ele>
        <time>2026-05-14T12:14:03Z</time>
      </trkpt>
      <trkpt lat="44.89038" lon="1.64878">
        <ele>227.01</ele>
        <time>2026-05-14T12:14:16Z</time>
      </trkpt>
      <trkpt lat="44.89036" lon="1.64873">
        <ele>227.01</ele>
        <time>2026-05-14T12:14:19Z</time>
      </trkpt>
      <trkpt lat="44.89035" lon="1.64871">
        <ele>227.01</ele>
        <time>2026-05-14T12:14:20Z</time>
      </trkpt>
      <trkpt lat="44.89034" lon="1.64869">
        <ele>227.01</ele>
        <time>2026-05-14T12:14:21Z</time>
      </trkpt>
      <trkpt lat="44.89034" lon="1.64867">
        <ele>227.01</ele>
        <time>2026-05-14T12:14:22Z</time>
      </trkpt>
      <trkpt lat="44.89034" lon="1.64865">
        <ele>227.01</ele>
        <time>2026-05-14T12:14:23Z</time>
      </trkpt>
      <trkpt lat="44.89025" lon="1.64843">
        <ele>227.01</ele>
        <time>2026-05-14T12:14:37Z</time>
      </trkpt>
      <trkpt lat="44.89016" lon="1.64818">
        <ele>227.01</ele>
        <time>2026-05-14T12:14:52Z</time>
      </trkpt>
      <trkpt lat="44.88999" lon="1.648">
        <ele>227.01</ele>
        <time>2026-05-14T12:15:06Z</time>
      </trkpt>
      <trkpt lat="44.8898" lon="1.64786">
        <ele>227.01</ele>
        <time>2026-05-14T12:15:21Z</time>
      </trkpt>
      <trkpt lat="44.88965" lon="1.64775">
        <ele>226.53</ele>
        <time>2026-05-14T12:15:35Z</time>
      </trkpt>
      <trkpt lat="44.88952" lon="1.64763">
        <ele>226.53</ele>
        <time>2026-05-14T12:15:47Z</time>
      </trkpt>
      <trkpt lat="44.88938" lon="1.64747">
        <ele>226.53</ele>
        <time>2026-05-14T12:16:00Z</time>
      </trkpt>
      <trkpt lat="44.88933" lon="1.6474">
        <ele>226.05</ele>
        <time>2026-05-14T12:16:07Z</time>
      </trkpt>
      <trkpt lat="44.88933" lon="1.64738">
        <ele>226.05</ele>
        <time>2026-05-14T12:16:08Z</time>
      </trkpt>
      <trkpt lat="44.88932" lon="1.64736">
        <ele>226.05</ele>
        <time>2026-05-14T12:16:09Z</time>
      </trkpt>
      <trkpt lat="44.88931" lon="1.64734">
        <ele>226.05</ele>
        <time>2026-05-14T12:16:10Z</time>
      </trkpt>
      <trkpt lat="44.8893" lon="1.64733">
        <ele>226.05</ele>
        <time>2026-05-14T12:16:11Z</time>
      </trkpt>
      <trkpt lat="44.88929" lon="1.64731">
        <ele>226.05</ele>
        <time>2026-05-14T12:16:12Z</time>
      </trkpt>
      <trkpt lat="44.88928" lon="1.64729">
        <ele>226.05</ele>
        <time>2026-05-14T12:16:13Z</time>
      </trkpt>
      <trkpt lat="44.88928" lon="1.64727">
        <ele>226.05</ele>
        <time>2026-05-14T12:16:14Z</time>
      </trkpt>
      <trkpt lat="44.88922" lon="1.64706">
        <ele>226.05</ele>
        <time>2026-05-14T12:16:27Z</time>
      </trkpt>
      <trkpt lat="44.88917" lon="1.64681">
        <ele>226.05</ele>
        <time>2026-05-14T12:16:41Z</time>
      </trkpt>
      <trkpt lat="44.8891" lon="1.64658">
        <ele>226.05</ele>
        <time>2026-05-14T12:16:53Z</time>
      </trkpt>
      <trkpt lat="44.88905" lon="1.64633">
        <ele>226.05</ele>
        <time>2026-05-14T12:17:07Z</time>
      </trkpt>
      <trkpt lat="44.88896" lon="1.64611">
        <ele>226.05</ele>
        <time>2026-05-14T12:17:20Z</time>
      </trkpt>
      <trkpt lat="44.88884" lon="1.64589">
        <ele>225.57</ele>
        <time>2026-05-14T12:17:35Z</time>
      </trkpt>
      <trkpt lat="44.88874" lon="1.64568">
        <ele>224.12</ele>
        <time>2026-05-14T12:17:48Z</time>
      </trkpt>
      <trkpt lat="44.88863" lon="1.6455">
        <ele>223.64</ele>
        <time>2026-05-14T12:17:59Z</time>
      </trkpt>
      <trkpt lat="44.8885" lon="1.64532">
        <ele>223.64</ele>
        <time>2026-05-14T12:18:13Z</time>
      </trkpt>
      <trkpt lat="44.88835" lon="1.64516">
        <ele>221.72</ele>
        <time>2026-05-14T12:18:27Z</time>
      </trkpt>
      <trkpt lat="44.88822" lon="1.64507">
        <ele>220.76</ele>
        <time>2026-05-14T12:18:36Z</time>
      </trkpt>
      <trkpt lat="44.88813" lon="1.64517">
        <ele>220.76</ele>
        <time>2026-05-14T12:18:48Z</time>
      </trkpt>
      <trkpt lat="44.88812" lon="1.6452">
        <ele>220.28</ele>
        <time>2026-05-14T12:19:01Z</time>
      </trkpt>
      <trkpt lat="44.88814" lon="1.64518">
        <ele>220.28</ele>
        <time>2026-05-14T12:19:05Z</time>
      </trkpt>
      <trkpt lat="44.88816" lon="1.64513">
        <ele>220.28</ele>
        <time>2026-05-14T12:19:08Z</time>
      </trkpt>
      <trkpt lat="44.88816" lon="1.64511">
        <ele>220.28</ele>
        <time>2026-05-14T12:19:09Z</time>
      </trkpt>
      <trkpt lat="44.88816" lon="1.6451">
        <ele>220.28</ele>
        <time>2026-05-14T12:19:10Z</time>
      </trkpt>
      <trkpt lat="44.88813" lon="1.64511">
        <ele>220.28</ele>
        <time>2026-05-14T12:19:22Z</time>
      </trkpt>
      <trkpt lat="44.88815" lon="1.64506">
        <ele>220.28</ele>
        <time>2026-05-14T12:19:35Z</time>
      </trkpt>
      <trkpt lat="44.88814" lon="1.64504">
        <ele>220.28</ele>
        <time>2026-05-14T12:19:36Z</time>
      </trkpt>
      <trkpt lat="44.88814" lon="1.64503">
        <ele>220.28</ele>
        <time>2026-05-14T12:19:37Z</time>
      </trkpt>
      <trkpt lat="44.88813" lon="1.64502">
        <ele>220.28</ele>
        <time>2026-05-14T12:19:38Z</time>
      </trkpt>
      <trkpt lat="44.88811" lon="1.64501">
        <ele>220.28</ele>
        <time>2026-05-14T12:19:39Z</time>
      </trkpt>
      <trkpt lat="44.888" lon="1.64492">
        <ele>219.32</ele>
        <time>2026-05-14T12:19:51Z</time>
      </trkpt>
      <trkpt lat="44.88801" lon="1.64491">
        <ele>218.84</ele>
        <time>2026-05-14T12:20:04Z</time>
      </trkpt>
      <trkpt lat="44.88803" lon="1.6449">
        <ele>218.84</ele>
        <time>2026-05-14T12:20:26Z</time>
      </trkpt>
      <trkpt lat="44.88802" lon="1.64493">
        <ele>218.84</ele>
        <time>2026-05-14T12:20:48Z</time>
      </trkpt>
      <trkpt lat="44.88794" lon="1.64483">
        <ele>218.84</ele>
        <time>2026-05-14T12:21:02Z</time>
      </trkpt>
      <trkpt lat="44.88787" lon="1.64473">
        <ele>218.84</ele>
        <time>2026-05-14T12:21:08Z</time>
      </trkpt>
      <trkpt lat="44.88773" lon="1.64455">
        <ele>217.88</ele>
        <time>2026-05-14T12:21:21Z</time>
      </trkpt>
      <trkpt lat="44.88765" lon="1.64446">
        <ele>217.4</ele>
        <time>2026-05-14T12:21:29Z</time>
      </trkpt>
      <trkpt lat="44.88764" lon="1.64445">
        <ele>216.91</ele>
        <time>2026-05-14T12:21:30Z</time>
      </trkpt>
      <trkpt lat="44.88748" lon="1.64429">
        <ele>214.51</ele>
        <time>2026-05-14T12:21:44Z</time>
      </trkpt>
      <trkpt lat="44.88728" lon="1.64429">
        <ele>213.55</ele>
        <time>2026-05-14T12:21:57Z</time>
      </trkpt>
      <trkpt lat="44.88726" lon="1.64433">
        <ele>213.55</ele>
        <time>2026-05-14T12:22:01Z</time>
      </trkpt>
      <trkpt lat="44.88725" lon="1.64434">
        <ele>213.55</ele>
        <time>2026-05-14T12:22:02Z</time>
      </trkpt>
      <trkpt lat="44.88723" lon="1.64435">
        <ele>213.55</ele>
        <time>2026-05-14T12:22:03Z</time>
      </trkpt>
      <trkpt lat="44.88703" lon="1.64433">
        <ele>213.07</ele>
        <time>2026-05-14T12:22:17Z</time>
      </trkpt>
      <trkpt lat="44.88686" lon="1.64417">
        <ele>212.11</ele>
        <time>2026-05-14T12:22:33Z</time>
      </trkpt>
      <trkpt lat="44.88672" lon="1.64397">
        <ele>211.63</ele>
        <time>2026-05-14T12:22:47Z</time>
      </trkpt>
      <trkpt lat="44.88653" lon="1.64389">
        <ele>210.67</ele>
        <time>2026-05-14T12:23:00Z</time>
      </trkpt>
      <trkpt lat="44.88639" lon="1.64384">
        <ele>210.67</ele>
        <time>2026-05-14T12:23:13Z</time>
      </trkpt>
      <trkpt lat="44.88619" lon="1.64377">
        <ele>210.67</ele>
        <time>2026-05-14T12:23:28Z</time>
      </trkpt>
      <trkpt lat="44.88607" lon="1.64372">
        <ele>210.67</ele>
        <time>2026-05-14T12:23:40Z</time>
      </trkpt>
      <trkpt lat="44.88605" lon="1.64372">
        <ele>210.67</ele>
        <time>2026-05-14T12:23:41Z</time>
      </trkpt>
      <trkpt lat="44.88587" lon="1.64365">
        <ele>212.11</ele>
        <time>2026-05-14T12:23:55Z</time>
      </trkpt>
      <trkpt lat="44.88583" lon="1.64363">
        <ele>212.59</ele>
        <time>2026-05-14T12:24:11Z</time>
      </trkpt>
      <trkpt lat="44.88581" lon="1.64362">
        <ele>212.59</ele>
        <time>2026-05-14T12:24:21Z</time>
      </trkpt>
      <trkpt lat="44.88579" lon="1.64362">
        <ele>212.59</ele>
        <time>2026-05-14T12:24:22Z</time>
      </trkpt>
      <trkpt lat="44.88562" lon="1.64359">
        <ele>213.07</ele>
        <time>2026-05-14T12:24:36Z</time>
      </trkpt>
      <trkpt lat="44.88546" lon="1.64354">
        <ele>213.55</ele>
        <time>2026-05-14T12:24:50Z</time>
      </trkpt>
      <trkpt lat="44.8853" lon="1.64346">
        <ele>214.03</ele>
        <time>2026-05-14T12:25:05Z</time>
      </trkpt>
      <trkpt lat="44.88517" lon="1.64337">
        <ele>214.99</ele>
        <time>2026-05-14T12:25:18Z</time>
      </trkpt>
      <trkpt lat="44.88499" lon="1.64323">
        <ele>214.99</ele>
        <time>2026-05-14T12:25:32Z</time>
      </trkpt>
      <trkpt lat="44.88478" lon="1.64307">
        <ele>215.95</ele>
        <time>2026-05-14T12:25:48Z</time>
      </trkpt>
      <trkpt lat="44.88462" lon="1.64296">
        <ele>216.43</ele>
        <time>2026-05-14T12:26:02Z</time>
      </trkpt>
      <trkpt lat="44.88446" lon="1.64284">
        <ele>217.4</ele>
        <time>2026-05-14T12:26:18Z</time>
      </trkpt>
      <trkpt lat="44.88428" lon="1.6427">
        <ele>218.36</ele>
        <time>2026-05-14T12:26:31Z</time>
      </trkpt>
      <trkpt lat="44.88415" lon="1.64261">
        <ele>219.8</ele>
        <time>2026-05-14T12:26:47Z</time>
      </trkpt>
      <trkpt lat="44.88391" lon="1.64245">
        <ele>220.76</ele>
        <time>2026-05-14T12:27:03Z</time>
      </trkpt>
      <trkpt lat="44.88375" lon="1.64235">
        <ele>221.24</ele>
        <time>2026-05-14T12:27:18Z</time>
      </trkpt>
      <trkpt lat="44.88357" lon="1.64225">
        <ele>220.76</ele>
        <time>2026-05-14T12:27:34Z</time>
      </trkpt>
      <trkpt lat="44.88337" lon="1.6421">
        <ele>220.76</ele>
        <time>2026-05-14T12:27:51Z</time>
      </trkpt>
      <trkpt lat="44.88316" lon="1.6419">
        <ele>219.8</ele>
        <time>2026-05-14T12:28:07Z</time>
      </trkpt>
      <trkpt lat="44.88315" lon="1.6419">
        <ele>219.8</ele>
        <time>2026-05-14T12:28:08Z</time>
      </trkpt>
      <trkpt lat="44.88309" lon="1.64182">
        <ele>219.8</ele>
        <time>2026-05-14T12:28:16Z</time>
      </trkpt>
      <trkpt lat="44.88308" lon="1.64181">
        <ele>219.8</ele>
        <time>2026-05-14T12:28:17Z</time>
      </trkpt>
      <trkpt lat="44.88307" lon="1.64179">
        <ele>219.8</ele>
        <time>2026-05-14T12:28:18Z</time>
      </trkpt>
      <trkpt lat="44.88306" lon="1.64177">
        <ele>218.84</ele>
        <time>2026-05-14T12:28:19Z</time>
      </trkpt>
      <trkpt lat="44.88305" lon="1.64175">
        <ele>218.84</ele>
        <time>2026-05-14T12:28:20Z</time>
      </trkpt>
      <trkpt lat="44.88304" lon="1.64173">
        <ele>218.84</ele>
        <time>2026-05-14T12:28:21Z</time>
      </trkpt>
      <trkpt lat="44.88304" lon="1.64171">
        <ele>218.84</ele>
        <time>2026-05-14T12:28:22Z</time>
      </trkpt>
      <trkpt lat="44.88303" lon="1.64169">
        <ele>218.84</ele>
        <time>2026-05-14T12:28:23Z</time>
      </trkpt>
      <trkpt lat="44.88295" lon="1.64143">
        <ele>217.88</ele>
        <time>2026-05-14T12:28:38Z</time>
      </trkpt>
      <trkpt lat="44.88288" lon="1.6412">
        <ele>216.91</ele>
        <time>2026-05-14T12:28:52Z</time>
      </trkpt>
      <trkpt lat="44.88279" lon="1.64095">
        <ele>216.43</ele>
        <time>2026-05-14T12:29:07Z</time>
      </trkpt>
      <trkpt lat="44.88276" lon="1.64074">
        <ele>215.47</ele>
        <time>2026-05-14T12:29:21Z</time>
      </trkpt>
      <trkpt lat="44.88274" lon="1.64069">
        <ele>214.99</ele>
        <time>2026-05-14T12:29:24Z</time>
      </trkpt>
      <trkpt lat="44.88273" lon="1.64065">
        <ele>214.99</ele>
        <time>2026-05-14T12:29:26Z</time>
      </trkpt>
      <trkpt lat="44.88272" lon="1.64044">
        <ele>213.55</ele>
        <time>2026-05-14T12:29:38Z</time>
      </trkpt>
      <trkpt lat="44.88272" lon="1.64042">
        <ele>213.55</ele>
        <time>2026-05-14T12:29:39Z</time>
      </trkpt>
      <trkpt lat="44.88272" lon="1.6404">
        <ele>213.07</ele>
        <time>2026-05-14T12:29:40Z</time>
      </trkpt>
      <trkpt lat="44.88272" lon="1.64038">
        <ele>213.07</ele>
        <time>2026-05-14T12:29:41Z</time>
      </trkpt>
      <trkpt lat="44.88272" lon="1.64035">
        <ele>213.07</ele>
        <time>2026-05-14T12:29:42Z</time>
      </trkpt>
      <trkpt lat="44.88267" lon="1.6401">
        <ele>211.15</ele>
        <time>2026-05-14T12:29:55Z</time>
      </trkpt>
      <trkpt lat="44.88265" lon="1.63997">
        <ele>210.67</ele>
        <time>2026-05-14T12:30:04Z</time>
      </trkpt>
      <trkpt lat="44.88264" lon="1.63995">
        <ele>210.19</ele>
        <time>2026-05-14T12:30:05Z</time>
      </trkpt>
      <trkpt lat="44.88263" lon="1.63993">
        <ele>209.7</ele>
        <time>2026-05-14T12:30:06Z</time>
      </trkpt>
      <trkpt lat="44.88263" lon="1.63991">
        <ele>209.7</ele>
        <time>2026-05-14T12:30:07Z</time>
      </trkpt>
      <trkpt lat="44.88262" lon="1.63989">
        <ele>209.7</ele>
        <time>2026-05-14T12:30:08Z</time>
      </trkpt>
      <trkpt lat="44.88258" lon="1.6398">
        <ele>207.78</ele>
        <time>2026-05-14T12:30:14Z</time>
      </trkpt>
      <trkpt lat="44.88258" lon="1.63978">
        <ele>207.78</ele>
        <time>2026-05-14T12:30:15Z</time>
      </trkpt>
      <trkpt lat="44.88246" lon="1.63953">
        <ele>205.38</ele>
        <time>2026-05-14T12:30:29Z</time>
      </trkpt>
      <trkpt lat="44.88242" lon="1.63939">
        <ele>204.42</ele>
        <time>2026-05-14T12:30:38Z</time>
      </trkpt>
      <trkpt lat="44.88222" lon="1.63919">
        <ele>203.94</ele>
        <time>2026-05-14T12:30:51Z</time>
      </trkpt>
      <trkpt lat="44.88204" lon="1.63908">
        <ele>203.94</ele>
        <time>2026-05-14T12:31:02Z</time>
      </trkpt>
      <trkpt lat="44.88195" lon="1.63899">
        <ele>203.46</ele>
        <time>2026-05-14T12:31:10Z</time>
      </trkpt>
      <trkpt lat="44.88191" lon="1.63901">
        <ele>202.98</ele>
        <time>2026-05-14T12:31:26Z</time>
      </trkpt>
      <trkpt lat="44.88191" lon="1.63899">
        <ele>202.98</ele>
        <time>2026-05-14T12:31:28Z</time>
      </trkpt>
      <trkpt lat="44.8819" lon="1.63898">
        <ele>202.98</ele>
        <time>2026-05-14T12:31:29Z</time>
      </trkpt>
      <trkpt lat="44.8819" lon="1.63889">
        <ele>202.49</ele>
        <time>2026-05-14T12:31:39Z</time>
      </trkpt>
      <trkpt lat="44.8819" lon="1.63887">
        <ele>202.49</ele>
        <time>2026-05-14T12:31:40Z</time>
      </trkpt>
      <trkpt lat="44.88191" lon="1.63875">
        <ele>201.05</ele>
        <time>2026-05-14T12:31:48Z</time>
      </trkpt>
      <trkpt lat="44.88191" lon="1.63873">
        <ele>201.05</ele>
        <time>2026-05-14T12:31:49Z</time>
      </trkpt>
      <trkpt lat="44.88192" lon="1.63871">
        <ele>200.57</ele>
        <time>2026-05-14T12:31:50Z</time>
      </trkpt>
      <trkpt lat="44.88192" lon="1.63869">
        <ele>200.09</ele>
        <time>2026-05-14T12:31:51Z</time>
      </trkpt>
      <trkpt lat="44.88192" lon="1.63867">
        <ele>200.09</ele>
        <time>2026-05-14T12:31:52Z</time>
      </trkpt>
      <trkpt lat="44.88186" lon="1.6385">
        <ele>197.69</ele>
        <time>2026-05-14T12:32:02Z</time>
      </trkpt>
      <trkpt lat="44.8818" lon="1.63839">
        <ele>196.73</ele>
        <time>2026-05-14T12:32:16Z</time>
      </trkpt>
      <trkpt lat="44.88168" lon="1.63819">
        <ele>193.84</ele>
        <time>2026-05-14T12:32:30Z</time>
      </trkpt>
      <trkpt lat="44.88159" lon="1.63801">
        <ele>190.96</ele>
        <time>2026-05-14T12:32:43Z</time>
      </trkpt>
      <trkpt lat="44.88152" lon="1.6379">
        <ele>189.04</ele>
        <time>2026-05-14T12:32:50Z</time>
      </trkpt>
      <trkpt lat="44.88152" lon="1.63788">
        <ele>188.56</ele>
        <time>2026-05-14T12:32:51Z</time>
      </trkpt>
      <trkpt lat="44.88151" lon="1.63787">
        <ele>188.56</ele>
        <time>2026-05-14T12:32:52Z</time>
      </trkpt>
      <trkpt lat="44.88144" lon="1.63772">
        <ele>185.19</ele>
        <time>2026-05-14T12:33:03Z</time>
      </trkpt>
      <trkpt lat="44.88139" lon="1.63761">
        <ele>182.79</ele>
        <time>2026-05-14T12:33:11Z</time>
      </trkpt>
      <trkpt lat="44.88138" lon="1.6376">
        <ele>182.31</ele>
        <time>2026-05-14T12:33:12Z</time>
      </trkpt>
      <trkpt lat="44.88137" lon="1.63758">
        <ele>182.31</ele>
        <time>2026-05-14T12:33:13Z</time>
      </trkpt>
      <trkpt lat="44.88134" lon="1.6374">
        <ele>179.42</ele>
        <time>2026-05-14T12:33:25Z</time>
      </trkpt>
      <trkpt lat="44.88133" lon="1.63722">
        <ele>176.54</ele>
        <time>2026-05-14T12:33:36Z</time>
      </trkpt>
      <trkpt lat="44.8813" lon="1.63703">
        <ele>173.17</ele>
        <time>2026-05-14T12:33:48Z</time>
      </trkpt>
      <trkpt lat="44.88131" lon="1.63683">
        <ele>170.29</ele>
        <time>2026-05-14T12:34:00Z</time>
      </trkpt>
      <trkpt lat="44.88132" lon="1.63677">
        <ele>169.33</ele>
        <time>2026-05-14T12:34:04Z</time>
      </trkpt>
      <trkpt lat="44.88133" lon="1.63675">
        <ele>169.33</ele>
        <time>2026-05-14T12:34:05Z</time>
      </trkpt>
      <trkpt lat="44.88133" lon="1.63674">
        <ele>168.85</ele>
        <time>2026-05-14T12:34:06Z</time>
      </trkpt>
      <trkpt lat="44.88135" lon="1.63666">
        <ele>167.89</ele>
        <time>2026-05-14T12:34:11Z</time>
      </trkpt>
      <trkpt lat="44.88136" lon="1.63664">
        <ele>167.89</ele>
        <time>2026-05-14T12:34:12Z</time>
      </trkpt>
      <trkpt lat="44.88136" lon="1.63662">
        <ele>167.89</ele>
        <time>2026-05-14T12:34:13Z</time>
      </trkpt>
      <trkpt lat="44.88136" lon="1.6366">
        <ele>167.41</ele>
        <time>2026-05-14T12:34:14Z</time>
      </trkpt>
      <trkpt lat="44.88136" lon="1.63658">
        <ele>167.41</ele>
        <time>2026-05-14T12:34:15Z</time>
      </trkpt>
      <trkpt lat="44.88136" lon="1.6365">
        <ele>165.96</ele>
        <time>2026-05-14T12:34:20Z</time>
      </trkpt>
      <trkpt lat="44.88136" lon="1.63648">
        <ele>165.96</ele>
        <time>2026-05-14T12:34:21Z</time>
      </trkpt>
      <trkpt lat="44.88136" lon="1.63645">
        <ele>165</ele>
        <time>2026-05-14T12:34:23Z</time>
      </trkpt>
      <trkpt lat="44.88136" lon="1.63643">
        <ele>165</ele>
        <time>2026-05-14T12:34:24Z</time>
      </trkpt>
      <trkpt lat="44.88137" lon="1.63634">
        <ele>163.56</ele>
        <time>2026-05-14T12:34:30Z</time>
      </trkpt>
      <trkpt lat="44.88137" lon="1.63632">
        <ele>163.56</ele>
        <time>2026-05-14T12:34:31Z</time>
      </trkpt>
      <trkpt lat="44.88138" lon="1.6363">
        <ele>163.08</ele>
        <time>2026-05-14T12:34:32Z</time>
      </trkpt>
      <trkpt lat="44.88139" lon="1.63628">
        <ele>163.08</ele>
        <time>2026-05-14T12:34:33Z</time>
      </trkpt>
      <trkpt lat="44.8814" lon="1.63624">
        <ele>162.12</ele>
        <time>2026-05-14T12:34:36Z</time>
      </trkpt>
      <trkpt lat="44.88139" lon="1.63619">
        <ele>161.16</ele>
        <time>2026-05-14T12:34:40Z</time>
      </trkpt>
      <trkpt lat="44.8814" lon="1.63617">
        <ele>161.16</ele>
        <time>2026-05-14T12:34:41Z</time>
      </trkpt>
      <trkpt lat="44.88147" lon="1.63598">
        <ele>158.75</ele>
        <time>2026-05-14T12:34:54Z</time>
      </trkpt>
      <trkpt lat="44.88156" lon="1.63578">
        <ele>155.87</ele>
        <time>2026-05-14T12:35:07Z</time>
      </trkpt>
      <trkpt lat="44.88159" lon="1.63573">
        <ele>155.39</ele>
        <time>2026-05-14T12:35:11Z</time>
      </trkpt>
      <trkpt lat="44.88161" lon="1.6357">
        <ele>154.91</ele>
        <time>2026-05-14T12:35:14Z</time>
      </trkpt>
      <trkpt lat="44.88161" lon="1.63568">
        <ele>154.43</ele>
        <time>2026-05-14T12:35:15Z</time>
      </trkpt>
      <trkpt lat="44.88164" lon="1.63564">
        <ele>153.95</ele>
        <time>2026-05-14T12:35:19Z</time>
      </trkpt>
      <trkpt lat="44.88165" lon="1.63562">
        <ele>153.95</ele>
        <time>2026-05-14T12:35:20Z</time>
      </trkpt>
      <trkpt lat="44.88166" lon="1.63561">
        <ele>152.99</ele>
        <time>2026-05-14T12:35:21Z</time>
      </trkpt>
      <trkpt lat="44.88167" lon="1.6356">
        <ele>152.99</ele>
        <time>2026-05-14T12:35:22Z</time>
      </trkpt>
      <trkpt lat="44.88168" lon="1.63558">
        <ele>152.99</ele>
        <time>2026-05-14T12:35:23Z</time>
      </trkpt>
      <trkpt lat="44.88169" lon="1.63557">
        <ele>152.51</ele>
        <time>2026-05-14T12:35:24Z</time>
      </trkpt>
      <trkpt lat="44.88171" lon="1.63556">
        <ele>152.51</ele>
        <time>2026-05-14T12:35:25Z</time>
      </trkpt>
      <trkpt lat="44.88174" lon="1.6355">
        <ele>151.06</ele>
        <time>2026-05-14T12:35:36Z</time>
      </trkpt>
      <trkpt lat="44.88174" lon="1.63547">
        <ele>151.06</ele>
        <time>2026-05-14T12:36:09Z</time>
      </trkpt>
      <trkpt lat="44.8818" lon="1.63548">
        <ele>150.58</ele>
        <time>2026-05-14T12:36:27Z</time>
      </trkpt>
      <trkpt lat="44.88184" lon="1.63546">
        <ele>149.62</ele>
        <time>2026-05-14T12:36:30Z</time>
      </trkpt>
      <trkpt lat="44.88196" lon="1.63537">
        <ele>148.66</ele>
        <time>2026-05-14T12:36:40Z</time>
      </trkpt>
      <trkpt lat="44.88206" lon="1.63528">
        <ele>148.18</ele>
        <time>2026-05-14T12:36:52Z</time>
      </trkpt>
      <trkpt lat="44.88209" lon="1.63526">
        <ele>148.18</ele>
        <time>2026-05-14T12:36:56Z</time>
      </trkpt>
      <trkpt lat="44.88214" lon="1.63529">
        <ele>149.62</ele>
        <time>2026-05-14T12:37:06Z</time>
      </trkpt>
      <trkpt lat="44.88223" lon="1.63532">
        <ele>150.58</ele>
        <time>2026-05-14T12:37:16Z</time>
      </trkpt>
      <trkpt lat="44.88232" lon="1.63534">
        <ele>152.03</ele>
        <time>2026-05-14T12:37:27Z</time>
      </trkpt>
      <trkpt lat="44.8825" lon="1.63536">
        <ele>153.47</ele>
        <time>2026-05-14T12:37:39Z</time>
      </trkpt>
      <trkpt lat="44.8827" lon="1.63525">
        <ele>154.91</ele>
        <time>2026-05-14T12:37:53Z</time>
      </trkpt>
      <trkpt lat="44.88279" lon="1.63516">
        <ele>155.39</ele>
        <time>2026-05-14T12:38:02Z</time>
      </trkpt>
      <trkpt lat="44.88288" lon="1.63504">
        <ele>157.31</ele>
        <time>2026-05-14T12:38:15Z</time>
      </trkpt>
      <trkpt lat="44.88296" lon="1.63497">
        <ele>158.27</ele>
        <time>2026-05-14T12:38:28Z</time>
      </trkpt>
      <trkpt lat="44.88296" lon="1.63496">
        <ele>158.27</ele>
        <time>2026-05-14T12:38:29Z</time>
      </trkpt>
      <trkpt lat="44.88301" lon="1.63491">
        <ele>158.75</ele>
        <time>2026-05-14T12:38:34Z</time>
      </trkpt>
      <trkpt lat="44.88303" lon="1.63487">
        <ele>158.75</ele>
        <time>2026-05-14T12:38:37Z</time>
      </trkpt>
      <trkpt lat="44.88308" lon="1.63479">
        <ele>159.72</ele>
        <time>2026-05-14T12:38:44Z</time>
      </trkpt>
      <trkpt lat="44.88311" lon="1.63474">
        <ele>160.2</ele>
        <time>2026-05-14T12:38:47Z</time>
      </trkpt>
      <trkpt lat="44.88318" lon="1.63466">
        <ele>161.16</ele>
        <time>2026-05-14T12:38:56Z</time>
      </trkpt>
      <trkpt lat="44.88326" lon="1.63456">
        <ele>162.6</ele>
        <time>2026-05-14T12:39:09Z</time>
      </trkpt>
      <trkpt lat="44.88331" lon="1.63449">
        <ele>163.56</ele>
        <time>2026-05-14T12:39:15Z</time>
      </trkpt>
      <trkpt lat="44.88344" lon="1.63441">
        <ele>165.48</ele>
        <time>2026-05-14T12:39:29Z</time>
      </trkpt>
      <trkpt lat="44.88347" lon="1.63438">
        <ele>165.48</ele>
        <time>2026-05-14T12:39:33Z</time>
      </trkpt>
      <trkpt lat="44.88348" lon="1.63436">
        <ele>165.48</ele>
        <time>2026-05-14T12:39:35Z</time>
      </trkpt>
      <trkpt lat="44.88355" lon="1.6343">
        <ele>166.93</ele>
        <time>2026-05-14T12:39:43Z</time>
      </trkpt>
      <trkpt lat="44.88364" lon="1.63423">
        <ele>168.85</ele>
        <time>2026-05-14T12:39:55Z</time>
      </trkpt>
      <trkpt lat="44.88375" lon="1.63415">
        <ele>170.77</ele>
        <time>2026-05-14T12:40:07Z</time>
      </trkpt>
      <trkpt lat="44.88377" lon="1.63414">
        <ele>171.25</ele>
        <time>2026-05-14T12:40:10Z</time>
      </trkpt>
      <trkpt lat="44.88382" lon="1.63411">
        <ele>171.73</ele>
        <time>2026-05-14T12:40:15Z</time>
      </trkpt>
      <trkpt lat="44.88396" lon="1.63401">
        <ele>173.66</ele>
        <time>2026-05-14T12:40:28Z</time>
      </trkpt>
      <trkpt lat="44.88409" lon="1.63397">
        <ele>175.1</ele>
        <time>2026-05-14T12:40:40Z</time>
      </trkpt>
      <trkpt lat="44.88412" lon="1.6338">
        <ele>177.02</ele>
        <time>2026-05-14T12:40:54Z</time>
      </trkpt>
      <trkpt lat="44.884" lon="1.63371">
        <ele>179.42</ele>
        <time>2026-05-14T12:41:08Z</time>
      </trkpt>
      <trkpt lat="44.88391" lon="1.63368">
        <ele>181.35</ele>
        <time>2026-05-14T12:41:21Z</time>
      </trkpt>
      <trkpt lat="44.88376" lon="1.63363">
        <ele>183.75</ele>
        <time>2026-05-14T12:41:35Z</time>
      </trkpt>
      <trkpt lat="44.88365" lon="1.63357">
        <ele>185.67</ele>
        <time>2026-05-14T12:41:49Z</time>
      </trkpt>
      <trkpt lat="44.88351" lon="1.63353">
        <ele>187.59</ele>
        <time>2026-05-14T12:42:03Z</time>
      </trkpt>
      <trkpt lat="44.88337" lon="1.63351">
        <ele>190.48</ele>
        <time>2026-05-14T12:42:18Z</time>
      </trkpt>
      <trkpt lat="44.88326" lon="1.63349">
        <ele>191.44</ele>
        <time>2026-05-14T12:42:29Z</time>
      </trkpt>
      <trkpt lat="44.88325" lon="1.63349">
        <ele>191.92</ele>
        <time>2026-05-14T12:42:30Z</time>
      </trkpt>
      <trkpt lat="44.88315" lon="1.63348">
        <ele>194.32</ele>
        <time>2026-05-14T12:42:44Z</time>
      </trkpt>
      <trkpt lat="44.88302" lon="1.63343">
        <ele>197.21</ele>
        <time>2026-05-14T12:42:59Z</time>
      </trkpt>
      <trkpt lat="44.88291" lon="1.63341">
        <ele>199.61</ele>
        <time>2026-05-14T12:43:13Z</time>
      </trkpt>
      <trkpt lat="44.88279" lon="1.63337">
        <ele>201.05</ele>
        <time>2026-05-14T12:43:25Z</time>
      </trkpt>
      <trkpt lat="44.88264" lon="1.63332">
        <ele>203.46</ele>
        <time>2026-05-14T12:43:40Z</time>
      </trkpt>
      <trkpt lat="44.88262" lon="1.63327">
        <ele>204.42</ele>
        <time>2026-05-14T12:43:51Z</time>
      </trkpt>
      <trkpt lat="44.88265" lon="1.63325">
        <ele>205.86</ele>
        <time>2026-05-14T12:43:57Z</time>
      </trkpt>
      <trkpt lat="44.88279" lon="1.63311">
        <ele>207.78</ele>
        <time>2026-05-14T12:44:12Z</time>
      </trkpt>
      <trkpt lat="44.88286" lon="1.63299">
        <ele>209.7</ele>
        <time>2026-05-14T12:44:24Z</time>
      </trkpt>
      <trkpt lat="44.8829" lon="1.63292">
        <ele>210.67</ele>
        <time>2026-05-14T12:44:30Z</time>
      </trkpt>
      <trkpt lat="44.88292" lon="1.63272">
        <ele>212.59</ele>
        <time>2026-05-14T12:44:43Z</time>
      </trkpt>
      <trkpt lat="44.88288" lon="1.63257">
        <ele>214.03</ele>
        <time>2026-05-14T12:44:54Z</time>
      </trkpt>
      <trkpt lat="44.88288" lon="1.63254">
        <ele>214.51</ele>
        <time>2026-05-14T12:44:56Z</time>
      </trkpt>
      <trkpt lat="44.88287" lon="1.63247">
        <ele>214.51</ele>
        <time>2026-05-14T12:45:02Z</time>
      </trkpt>
      <trkpt lat="44.88286" lon="1.63221">
        <ele>216.43</ele>
        <time>2026-05-14T12:45:15Z</time>
      </trkpt>
      <trkpt lat="44.88283" lon="1.63203">
        <ele>216.91</ele>
        <time>2026-05-14T12:45:27Z</time>
      </trkpt>
      <trkpt lat="44.88281" lon="1.63181">
        <ele>217.88</ele>
        <time>2026-05-14T12:45:39Z</time>
      </trkpt>
      <trkpt lat="44.88276" lon="1.63156">
        <ele>218.84</ele>
        <time>2026-05-14T12:45:54Z</time>
      </trkpt>
      <trkpt lat="44.88276" lon="1.63141">
        <ele>219.32</ele>
        <time>2026-05-14T12:46:03Z</time>
      </trkpt>
      <trkpt lat="44.88276" lon="1.63133">
        <ele>219.8</ele>
        <time>2026-05-14T12:46:09Z</time>
      </trkpt>
      <trkpt lat="44.88275" lon="1.63124">
        <ele>220.28</ele>
        <time>2026-05-14T12:46:13Z</time>
      </trkpt>
      <trkpt lat="44.88273" lon="1.63113">
        <ele>221.24</ele>
        <time>2026-05-14T12:46:21Z</time>
      </trkpt>
      <trkpt lat="44.88273" lon="1.63094">
        <ele>221.72</ele>
        <time>2026-05-14T12:46:34Z</time>
      </trkpt>
      <trkpt lat="44.88274" lon="1.63082">
        <ele>222.68</ele>
        <time>2026-05-14T12:46:40Z</time>
      </trkpt>
      <trkpt lat="44.88274" lon="1.63068">
        <ele>223.64</ele>
        <time>2026-05-14T12:46:50Z</time>
      </trkpt>
      <trkpt lat="44.88272" lon="1.63046">
        <ele>223.64</ele>
        <time>2026-05-14T12:47:02Z</time>
      </trkpt>
      <trkpt lat="44.88276" lon="1.6303">
        <ele>224.61</ele>
        <time>2026-05-14T12:47:14Z</time>
      </trkpt>
      <trkpt lat="44.88281" lon="1.63011">
        <ele>226.05</ele>
        <time>2026-05-14T12:47:27Z</time>
      </trkpt>
      <trkpt lat="44.88286" lon="1.62988">
        <ele>227.97</ele>
        <time>2026-05-14T12:47:40Z</time>
      </trkpt>
      <trkpt lat="44.8829" lon="1.62965">
        <ele>228.93</ele>
        <time>2026-05-14T12:47:54Z</time>
      </trkpt>
      <trkpt lat="44.88294" lon="1.62946">
        <ele>229.41</ele>
        <time>2026-05-14T12:48:04Z</time>
      </trkpt>
      <trkpt lat="44.88299" lon="1.62918">
        <ele>230.37</ele>
        <time>2026-05-14T12:48:19Z</time>
      </trkpt>
      <trkpt lat="44.88302" lon="1.62893">
        <ele>230.85</ele>
        <time>2026-05-14T12:48:33Z</time>
      </trkpt>
      <trkpt lat="44.88307" lon="1.6287">
        <ele>231.33</ele>
        <time>2026-05-14T12:48:46Z</time>
      </trkpt>
      <trkpt lat="44.88307" lon="1.62858">
        <ele>231.33</ele>
        <time>2026-05-14T12:48:54Z</time>
      </trkpt>
      <trkpt lat="44.88307" lon="1.62849">
        <ele>231.33</ele>
        <time>2026-05-14T12:48:58Z</time>
      </trkpt>
      <trkpt lat="44.88305" lon="1.62825">
        <ele>229.89</ele>
        <time>2026-05-14T12:49:11Z</time>
      </trkpt>
      <trkpt lat="44.88306" lon="1.62808">
        <ele>229.41</ele>
        <time>2026-05-14T12:49:20Z</time>
      </trkpt>
      <trkpt lat="44.88304" lon="1.62781">
        <ele>228.45</ele>
        <time>2026-05-14T12:49:34Z</time>
      </trkpt>
      <trkpt lat="44.88299" lon="1.62755">
        <ele>227.49</ele>
        <time>2026-05-14T12:49:48Z</time>
      </trkpt>
      <trkpt lat="44.8829" lon="1.62731">
        <ele>226.53</ele>
        <time>2026-05-14T12:50:02Z</time>
      </trkpt>
      <trkpt lat="44.88281" lon="1.62708">
        <ele>226.05</ele>
        <time>2026-05-14T12:50:16Z</time>
      </trkpt>
      <trkpt lat="44.88273" lon="1.62682">
        <ele>226.05</ele>
        <time>2026-05-14T12:50:30Z</time>
      </trkpt>
      <trkpt lat="44.88271" lon="1.62653">
        <ele>226.05</ele>
        <time>2026-05-14T12:50:45Z</time>
      </trkpt>
      <trkpt lat="44.8827" lon="1.62623">
        <ele>226.05</ele>
        <time>2026-05-14T12:51:01Z</time>
      </trkpt>
      <trkpt lat="44.8827" lon="1.62599">
        <ele>225.57</ele>
        <time>2026-05-14T12:51:15Z</time>
      </trkpt>
      <trkpt lat="44.88269" lon="1.62572">
        <ele>225.57</ele>
        <time>2026-05-14T12:51:30Z</time>
      </trkpt>
      <trkpt lat="44.88268" lon="1.6257">
        <ele>225.57</ele>
        <time>2026-05-14T12:51:31Z</time>
      </trkpt>
      <trkpt lat="44.88267" lon="1.62567">
        <ele>225.57</ele>
        <time>2026-05-14T12:51:32Z</time>
      </trkpt>
      <trkpt lat="44.88266" lon="1.62565">
        <ele>225.57</ele>
        <time>2026-05-14T12:51:33Z</time>
      </trkpt>
      <trkpt lat="44.88262" lon="1.62539">
        <ele>225.57</ele>
        <time>2026-05-14T12:51:49Z</time>
      </trkpt>
      <trkpt lat="44.88261" lon="1.62537">
        <ele>225.57</ele>
        <time>2026-05-14T12:51:50Z</time>
      </trkpt>
      <trkpt lat="44.8826" lon="1.62535">
        <ele>225.57</ele>
        <time>2026-05-14T12:51:51Z</time>
      </trkpt>
      <trkpt lat="44.8826" lon="1.62533">
        <ele>225.57</ele>
        <time>2026-05-14T12:51:52Z</time>
      </trkpt>
      <trkpt lat="44.88259" lon="1.6253">
        <ele>225.57</ele>
        <time>2026-05-14T12:51:53Z</time>
      </trkpt>
      <trkpt lat="44.88259" lon="1.62528">
        <ele>225.57</ele>
        <time>2026-05-14T12:51:54Z</time>
      </trkpt>
      <trkpt lat="44.88258" lon="1.6251">
        <ele>225.57</ele>
        <time>2026-05-14T12:52:06Z</time>
      </trkpt>
      <trkpt lat="44.88257" lon="1.62508">
        <ele>225.57</ele>
        <time>2026-05-14T12:52:07Z</time>
      </trkpt>
      <trkpt lat="44.88256" lon="1.62506">
        <ele>225.57</ele>
        <time>2026-05-14T12:52:08Z</time>
      </trkpt>
      <trkpt lat="44.88255" lon="1.62504">
        <ele>225.57</ele>
        <time>2026-05-14T12:52:09Z</time>
      </trkpt>
      <trkpt lat="44.88254" lon="1.62502">
        <ele>225.57</ele>
        <time>2026-05-14T12:52:10Z</time>
      </trkpt>
      <trkpt lat="44.88246" lon="1.62477">
        <ele>225.57</ele>
        <time>2026-05-14T12:52:25Z</time>
      </trkpt>
      <trkpt lat="44.88238" lon="1.62456">
        <ele>225.57</ele>
        <time>2026-05-14T12:52:38Z</time>
      </trkpt>
      <trkpt lat="44.88226" lon="1.62433">
        <ele>225.57</ele>
        <time>2026-05-14T12:52:52Z</time>
      </trkpt>
      <trkpt lat="44.88218" lon="1.62407">
        <ele>225.57</ele>
        <time>2026-05-14T12:53:07Z</time>
      </trkpt>
      <trkpt lat="44.88216" lon="1.62375">
        <ele>225.57</ele>
        <time>2026-05-14T12:53:24Z</time>
      </trkpt>
      <trkpt lat="44.88218" lon="1.62364">
        <ele>225.57</ele>
        <time>2026-05-14T12:53:32Z</time>
      </trkpt>
      <trkpt lat="44.88218" lon="1.62362">
        <ele>225.57</ele>
        <time>2026-05-14T12:53:33Z</time>
      </trkpt>
      <trkpt lat="44.88218" lon="1.6236">
        <ele>225.57</ele>
        <time>2026-05-14T12:53:34Z</time>
      </trkpt>
      <trkpt lat="44.8822" lon="1.62332">
        <ele>225.57</ele>
        <time>2026-05-14T12:53:49Z</time>
      </trkpt>
      <trkpt lat="44.8822" lon="1.62328">
        <ele>225.57</ele>
        <time>2026-05-14T12:53:51Z</time>
      </trkpt>
      <trkpt lat="44.88222" lon="1.62302">
        <ele>225.57</ele>
        <time>2026-05-14T12:54:05Z</time>
      </trkpt>
      <trkpt lat="44.88226" lon="1.62272">
        <ele>227.01</ele>
        <time>2026-05-14T12:54:20Z</time>
      </trkpt>
      <trkpt lat="44.88227" lon="1.62241">
        <ele>227.49</ele>
        <time>2026-05-14T12:54:37Z</time>
      </trkpt>
      <trkpt lat="44.8823" lon="1.62223">
        <ele>228.45</ele>
        <time>2026-05-14T12:54:50Z</time>
      </trkpt>
      <trkpt lat="44.8823" lon="1.62201">
        <ele>229.41</ele>
        <time>2026-05-14T12:55:02Z</time>
      </trkpt>
      <trkpt lat="44.8823" lon="1.62178">
        <ele>230.37</ele>
        <time>2026-05-14T12:55:15Z</time>
      </trkpt>
      <trkpt lat="44.8823" lon="1.62177">
        <ele>230.37</ele>
        <time>2026-05-14T12:55:16Z</time>
      </trkpt>
      <trkpt lat="44.8823" lon="1.62175">
        <ele>231.33</ele>
        <time>2026-05-14T12:55:17Z</time>
      </trkpt>
      <trkpt lat="44.88229" lon="1.62156">
        <ele>231.81</ele>
        <time>2026-05-14T12:55:28Z</time>
      </trkpt>
      <trkpt lat="44.88226" lon="1.62134">
        <ele>232.3</ele>
        <time>2026-05-14T12:55:41Z</time>
      </trkpt>
      <trkpt lat="44.88219" lon="1.62107">
        <ele>232.3</ele>
        <time>2026-05-14T12:55:55Z</time>
      </trkpt>
      <trkpt lat="44.88214" lon="1.62086">
        <ele>232.3</ele>
        <time>2026-05-14T12:56:08Z</time>
      </trkpt>
      <trkpt lat="44.88212" lon="1.6208">
        <ele>232.3</ele>
        <time>2026-05-14T12:56:12Z</time>
      </trkpt>
      <trkpt lat="44.88212" lon="1.62078">
        <ele>232.3</ele>
        <time>2026-05-14T12:56:13Z</time>
      </trkpt>
      <trkpt lat="44.88211" lon="1.62076">
        <ele>232.3</ele>
        <time>2026-05-14T12:56:14Z</time>
      </trkpt>
      <trkpt lat="44.88208" lon="1.62064">
        <ele>230.85</ele>
        <time>2026-05-14T12:56:21Z</time>
      </trkpt>
      <trkpt lat="44.88212" lon="1.62067">
        <ele>230.85</ele>
        <time>2026-05-14T12:56:33Z</time>
      </trkpt>
      <trkpt lat="44.88211" lon="1.62062">
        <ele>230.85</ele>
        <time>2026-05-14T12:56:52Z</time>
      </trkpt>
      <trkpt lat="44.8821" lon="1.62061">
        <ele>230.85</ele>
        <time>2026-05-14T12:56:53Z</time>
      </trkpt>
      <trkpt lat="44.88209" lon="1.6206">
        <ele>230.85</ele>
        <time>2026-05-14T12:56:54Z</time>
      </trkpt>
      <trkpt lat="44.88205" lon="1.62057">
        <ele>230.85</ele>
        <time>2026-05-14T12:56:59Z</time>
      </trkpt>
      <trkpt lat="44.88205" lon="1.62055">
        <ele>230.85</ele>
        <time>2026-05-14T12:57:00Z</time>
      </trkpt>
      <trkpt lat="44.88205" lon="1.62054">
        <ele>230.37</ele>
        <time>2026-05-14T12:57:01Z</time>
      </trkpt>
      <trkpt lat="44.88199" lon="1.62035">
        <ele>229.41</ele>
        <time>2026-05-14T12:57:13Z</time>
      </trkpt>
      <trkpt lat="44.88201" lon="1.62029">
        <ele>229.41</ele>
        <time>2026-05-14T12:57:17Z</time>
      </trkpt>
      <trkpt lat="44.88202" lon="1.62026">
        <ele>229.41</ele>
        <time>2026-05-14T12:57:18Z</time>
      </trkpt>
      <trkpt lat="44.88203" lon="1.62024">
        <ele>229.89</ele>
        <time>2026-05-14T12:57:19Z</time>
      </trkpt>
      <trkpt lat="44.88203" lon="1.62022">
        <ele>229.89</ele>
        <time>2026-05-14T12:57:20Z</time>
      </trkpt>
      <trkpt lat="44.88204" lon="1.62019">
        <ele>229.41</ele>
        <time>2026-05-14T12:57:21Z</time>
      </trkpt>
      <trkpt lat="44.88205" lon="1.62017">
        <ele>229.89</ele>
        <time>2026-05-14T12:57:22Z</time>
      </trkpt>
      <trkpt lat="44.88214" lon="1.62001">
        <ele>228.93</ele>
        <time>2026-05-14T12:57:34Z</time>
      </trkpt>
      <trkpt lat="44.88223" lon="1.61981">
        <ele>227.01</ele>
        <time>2026-05-14T12:57:47Z</time>
      </trkpt>
      <trkpt lat="44.88226" lon="1.61963">
        <ele>225.57</ele>
        <time>2026-05-14T12:58:00Z</time>
      </trkpt>
      <trkpt lat="44.88229" lon="1.61956">
        <ele>225.09</ele>
        <time>2026-05-14T12:58:10Z</time>
      </trkpt>
      <trkpt lat="44.8823" lon="1.6195">
        <ele>225.09</ele>
        <time>2026-05-14T12:58:22Z</time>
      </trkpt>
      <trkpt lat="44.88229" lon="1.61947">
        <ele>225.09</ele>
        <time>2026-05-14T12:58:40Z</time>
      </trkpt>
      <trkpt lat="44.88225" lon="1.61954">
        <ele>224.61</ele>
        <time>2026-05-14T12:58:52Z</time>
      </trkpt>
      <trkpt lat="44.88225" lon="1.61955">
        <ele>226.05</ele>
        <time>2026-05-14T12:58:55Z</time>
      </trkpt>
      <trkpt lat="44.88226" lon="1.61955">
        <ele>226.05</ele>
        <time>2026-05-14T12:59:21Z</time>
      </trkpt>
      <trkpt lat="44.88222" lon="1.61959">
        <ele>224.61</ele>
        <time>2026-05-14T12:59:29Z</time>
      </trkpt>
      <trkpt lat="44.88221" lon="1.61959">
        <ele>224.61</ele>
        <time>2026-05-14T12:59:30Z</time>
      </trkpt>
      <trkpt lat="44.88216" lon="1.61956">
        <ele>223.16</ele>
        <time>2026-05-14T12:59:35Z</time>
      </trkpt>
      <trkpt lat="44.88195" lon="1.61948">
        <ele>221.24</ele>
        <time>2026-05-14T12:59:52Z</time>
      </trkpt>
      <trkpt lat="44.88177" lon="1.61945">
        <ele>219.8</ele>
        <time>2026-05-14T13:00:05Z</time>
      </trkpt>
      <trkpt lat="44.88168" lon="1.6195">
        <ele>219.32</ele>
        <time>2026-05-14T13:00:13Z</time>
      </trkpt>
      <trkpt lat="44.88163" lon="1.61954">
        <ele>218.36</ele>
        <time>2026-05-14T13:00:18Z</time>
      </trkpt>
      <trkpt lat="44.88163" lon="1.61955">
        <ele>218.36</ele>
        <time>2026-05-14T13:00:19Z</time>
      </trkpt>
      <trkpt lat="44.88162" lon="1.61957">
        <ele>217.88</ele>
        <time>2026-05-14T13:00:20Z</time>
      </trkpt>
      <trkpt lat="44.88161" lon="1.61958">
        <ele>217.88</ele>
        <time>2026-05-14T13:00:21Z</time>
      </trkpt>
      <trkpt lat="44.88159" lon="1.61959">
        <ele>217.88</ele>
        <time>2026-05-14T13:00:22Z</time>
      </trkpt>
      <trkpt lat="44.88148" lon="1.61971">
        <ele>216.43</ele>
        <time>2026-05-14T13:00:34Z</time>
      </trkpt>
      <trkpt lat="44.8814" lon="1.61981">
        <ele>214.99</ele>
        <time>2026-05-14T13:00:43Z</time>
      </trkpt>
      <trkpt lat="44.88139" lon="1.61983">
        <ele>214.99</ele>
        <time>2026-05-14T13:00:44Z</time>
      </trkpt>
      <trkpt lat="44.88131" lon="1.61993">
        <ele>214.03</ele>
        <time>2026-05-14T13:00:52Z</time>
      </trkpt>
      <trkpt lat="44.8813" lon="1.61995">
        <ele>214.03</ele>
        <time>2026-05-14T13:00:53Z</time>
      </trkpt>
      <trkpt lat="44.8812" lon="1.62016">
        <ele>211.15</ele>
        <time>2026-05-14T13:01:06Z</time>
      </trkpt>
      <trkpt lat="44.88111" lon="1.62032">
        <ele>208.74</ele>
        <time>2026-05-14T13:01:18Z</time>
      </trkpt>
      <trkpt lat="44.88102" lon="1.62044">
        <ele>205.86</ele>
        <time>2026-05-14T13:01:29Z</time>
      </trkpt>
      <trkpt lat="44.8809" lon="1.62049">
        <ele>203.46</ele>
        <time>2026-05-14T13:01:40Z</time>
      </trkpt>
      <trkpt lat="44.88084" lon="1.62047">
        <ele>201.05</ele>
        <time>2026-05-14T13:01:52Z</time>
      </trkpt>
      <trkpt lat="44.88083" lon="1.62048">
        <ele>201.05</ele>
        <time>2026-05-14T13:02:09Z</time>
      </trkpt>
      <trkpt lat="44.88089" lon="1.62043">
        <ele>200.57</ele>
        <time>2026-05-14T13:02:18Z</time>
      </trkpt>
      <trkpt lat="44.88089" lon="1.6204">
        <ele>200.09</ele>
        <time>2026-05-14T13:02:19Z</time>
      </trkpt>
      <trkpt lat="44.88096" lon="1.62023">
        <ele>198.65</ele>
        <time>2026-05-14T13:02:31Z</time>
      </trkpt>
      <trkpt lat="44.88096" lon="1.62022">
        <ele>198.65</ele>
        <time>2026-05-14T13:02:32Z</time>
      </trkpt>
      <trkpt lat="44.88097" lon="1.6202">
        <ele>198.17</ele>
        <time>2026-05-14T13:02:33Z</time>
      </trkpt>
      <trkpt lat="44.881" lon="1.62013">
        <ele>198.17</ele>
        <time>2026-05-14T13:02:37Z</time>
      </trkpt>
      <trkpt lat="44.88106" lon="1.61994">
        <ele>196.73</ele>
        <time>2026-05-14T13:02:49Z</time>
      </trkpt>
      <trkpt lat="44.88105" lon="1.61991">
        <ele>196.73</ele>
        <time>2026-05-14T13:02:50Z</time>
      </trkpt>
      <trkpt lat="44.88105" lon="1.61989">
        <ele>196.25</ele>
        <time>2026-05-14T13:02:51Z</time>
      </trkpt>
      <trkpt lat="44.88106" lon="1.61984">
        <ele>195.77</ele>
        <time>2026-05-14T13:02:54Z</time>
      </trkpt>
      <trkpt lat="44.88106" lon="1.61984">
        <ele>195.77</ele>
        <time>2026-05-14T13:02:55Z</time>
      </trkpt>
      <trkpt lat="44.88107" lon="1.61976">
        <ele>195.28</ele>
        <time>2026-05-14T13:02:59Z</time>
      </trkpt>
      <trkpt lat="44.88107" lon="1.61973">
        <ele>194.8</ele>
        <time>2026-05-14T13:03:01Z</time>
      </trkpt>
      <trkpt lat="44.88108" lon="1.61971">
        <ele>194.8</ele>
        <time>2026-05-14T13:03:02Z</time>
      </trkpt>
      <trkpt lat="44.88111" lon="1.61967">
        <ele>194.8</ele>
        <time>2026-05-14T13:03:07Z</time>
      </trkpt>
      <trkpt lat="44.88111" lon="1.61967">
        <ele>195.77</ele>
        <time>2026-05-14T13:03:21Z</time>
      </trkpt>
      <trkpt lat="44.88107" lon="1.61967">
        <ele>195.77</ele>
        <time>2026-05-14T13:03:42Z</time>
      </trkpt>
      <trkpt lat="44.88107" lon="1.61972">
        <ele>194.32</ele>
        <time>2026-05-14T13:04:00Z</time>
      </trkpt>
      <trkpt lat="44.88104" lon="1.61976">
        <ele>193.84</ele>
        <time>2026-05-14T13:04:20Z</time>
      </trkpt>
      <trkpt lat="44.88106" lon="1.61966">
        <ele>193.84</ele>
        <time>2026-05-14T13:04:34Z</time>
      </trkpt>
      <trkpt lat="44.88109" lon="1.61921">
        <ele>194.32</ele>
        <time>2026-05-14T13:04:51Z</time>
      </trkpt>
      <trkpt lat="44.88102" lon="1.61971">
        <ele>194.32</ele>
        <time>2026-05-14T13:05:06Z</time>
      </trkpt>
      <trkpt lat="44.88101" lon="1.61963">
        <ele>194.8</ele>
        <time>2026-05-14T13:05:26Z</time>
      </trkpt>
      <trkpt lat="44.88104" lon="1.61968">
        <ele>195.28</ele>
        <time>2026-05-14T13:05:45Z</time>
      </trkpt>
      <trkpt lat="44.88103" lon="1.61973">
        <ele>194.32</ele>
        <time>2026-05-14T13:06:10Z</time>
      </trkpt>
      <trkpt lat="44.88099" lon="1.61976">
        <ele>196.25</ele>
        <time>2026-05-14T13:06:35Z</time>
      </trkpt>
      <trkpt lat="44.88098" lon="1.61962">
        <ele>195.28</ele>
        <time>2026-05-14T13:06:46Z</time>
      </trkpt>
      <trkpt lat="44.88098" lon="1.61959">
        <ele>195.28</ele>
        <time>2026-05-14T13:06:47Z</time>
      </trkpt>
      <trkpt lat="44.88102" lon="1.61936">
        <ele>193.84</ele>
        <time>2026-05-14T13:06:59Z</time>
      </trkpt>
      <trkpt lat="44.88111" lon="1.61914">
        <ele>192.4</ele>
        <time>2026-05-14T13:07:09Z</time>
      </trkpt>
      <trkpt lat="44.88112" lon="1.61912">
        <ele>192.4</ele>
        <time>2026-05-14T13:07:10Z</time>
      </trkpt>
      <trkpt lat="44.88112" lon="1.61911">
        <ele>192.4</ele>
        <time>2026-05-14T13:07:11Z</time>
      </trkpt>
      <trkpt lat="44.88118" lon="1.61894">
        <ele>191.92</ele>
        <time>2026-05-14T13:07:24Z</time>
      </trkpt>
      <trkpt lat="44.88119" lon="1.61887">
        <ele>191.44</ele>
        <time>2026-05-14T13:07:27Z</time>
      </trkpt>
      <trkpt lat="44.88118" lon="1.61876">
        <ele>190</ele>
        <time>2026-05-14T13:07:35Z</time>
      </trkpt>
      <trkpt lat="44.88114" lon="1.61855">
        <ele>190.48</ele>
        <time>2026-05-14T13:07:46Z</time>
      </trkpt>
      <trkpt lat="44.88116" lon="1.61849">
        <ele>189.04</ele>
        <time>2026-05-14T13:07:49Z</time>
      </trkpt>
      <trkpt lat="44.88126" lon="1.61818">
        <ele>186.63</ele>
        <time>2026-05-14T13:08:01Z</time>
      </trkpt>
      <trkpt lat="44.88125" lon="1.61811">
        <ele>185.19</ele>
        <time>2026-05-14T13:08:10Z</time>
      </trkpt>
      <trkpt lat="44.88122" lon="1.61807">
        <ele>183.27</ele>
        <time>2026-05-14T13:08:23Z</time>
      </trkpt>
      <trkpt lat="44.88122" lon="1.61805">
        <ele>182.79</ele>
        <time>2026-05-14T13:08:36Z</time>
      </trkpt>
      <trkpt lat="44.88121" lon="1.61803">
        <ele>182.79</ele>
        <time>2026-05-14T13:08:43Z</time>
      </trkpt>
      <trkpt lat="44.88124" lon="1.61798">
        <ele>182.79</ele>
        <time>2026-05-14T13:08:47Z</time>
      </trkpt>
      <trkpt lat="44.88126" lon="1.61791">
        <ele>182.31</ele>
        <time>2026-05-14T13:08:51Z</time>
      </trkpt>
      <trkpt lat="44.88128" lon="1.61779">
        <ele>181.35</ele>
        <time>2026-05-14T13:08:59Z</time>
      </trkpt>
      <trkpt lat="44.88128" lon="1.61767">
        <ele>179.42</ele>
        <time>2026-05-14T13:09:14Z</time>
      </trkpt>
      <trkpt lat="44.88127" lon="1.61767">
        <ele>178.94</ele>
        <time>2026-05-14T13:09:16Z</time>
      </trkpt>
      <trkpt lat="44.88126" lon="1.61768">
        <ele>178.46</ele>
        <time>2026-05-14T13:09:29Z</time>
      </trkpt>
      <trkpt lat="44.88127" lon="1.61766">
        <ele>177.98</ele>
        <time>2026-05-14T13:09:32Z</time>
      </trkpt>
      <trkpt lat="44.88132" lon="1.61761">
        <ele>181.83</ele>
        <time>2026-05-14T13:09:41Z</time>
      </trkpt>
      <trkpt lat="44.88144" lon="1.6178">
        <ele>178.46</ele>
        <time>2026-05-14T13:09:54Z</time>
      </trkpt>
      <trkpt lat="44.88157" lon="1.61798">
        <ele>177.02</ele>
        <time>2026-05-14T13:10:07Z</time>
      </trkpt>
      <trkpt lat="44.88175" lon="1.61814">
        <ele>176.06</ele>
        <time>2026-05-14T13:10:22Z</time>
      </trkpt>
      <trkpt lat="44.88177" lon="1.61816">
        <ele>177.02</ele>
        <time>2026-05-14T13:10:24Z</time>
      </trkpt>
      <trkpt lat="44.88194" lon="1.61828">
        <ele>175.1</ele>
        <time>2026-05-14T13:10:38Z</time>
      </trkpt>
      <trkpt lat="44.88209" lon="1.6183">
        <ele>171.73</ele>
        <time>2026-05-14T13:10:52Z</time>
      </trkpt>
      <trkpt lat="44.88229" lon="1.61825">
        <ele>169.33</ele>
        <time>2026-05-14T13:11:05Z</time>
      </trkpt>
      <trkpt lat="44.88247" lon="1.61828">
        <ele>165.96</ele>
        <time>2026-05-14T13:11:21Z</time>
      </trkpt>
      <trkpt lat="44.88256" lon="1.61832">
        <ele>163.08</ele>
        <time>2026-05-14T13:11:28Z</time>
      </trkpt>
      <trkpt lat="44.88257" lon="1.61833">
        <ele>163.56</ele>
        <time>2026-05-14T13:11:29Z</time>
      </trkpt>
      <trkpt lat="44.88267" lon="1.61838">
        <ele>161.64</ele>
        <time>2026-05-14T13:11:37Z</time>
      </trkpt>
      <trkpt lat="44.88286" lon="1.61845">
        <ele>159.72</ele>
        <time>2026-05-14T13:11:52Z</time>
      </trkpt>
      <trkpt lat="44.88292" lon="1.61847">
        <ele>159.24</ele>
        <time>2026-05-14T13:11:56Z</time>
      </trkpt>
      <trkpt lat="44.88293" lon="1.61847">
        <ele>159.24</ele>
        <time>2026-05-14T13:11:57Z</time>
      </trkpt>
      <trkpt lat="44.88303" lon="1.61852">
        <ele>157.79</ele>
        <time>2026-05-14T13:12:06Z</time>
      </trkpt>
      <trkpt lat="44.88304" lon="1.61853">
        <ele>157.31</ele>
        <time>2026-05-14T13:12:07Z</time>
      </trkpt>
      <trkpt lat="44.88313" lon="1.61856">
        <ele>155.39</ele>
        <time>2026-05-14T13:12:14Z</time>
      </trkpt>
      <trkpt lat="44.88325" lon="1.61854">
        <ele>154.91</ele>
        <time>2026-05-14T13:12:32Z</time>
      </trkpt>
      <trkpt lat="44.88319" lon="1.61851">
        <ele>157.31</ele>
        <time>2026-05-14T13:12:40Z</time>
      </trkpt>
      <trkpt lat="44.88311" lon="1.61848">
        <ele>157.79</ele>
        <time>2026-05-14T13:12:46Z</time>
      </trkpt>
      <trkpt lat="44.88294" lon="1.61842">
        <ele>160.2</ele>
        <time>2026-05-14T13:13:01Z</time>
      </trkpt>
      <trkpt lat="44.88275" lon="1.61836">
        <ele>163.08</ele>
        <time>2026-05-14T13:13:16Z</time>
      </trkpt>
      <trkpt lat="44.88258" lon="1.61831">
        <ele>165.48</ele>
        <time>2026-05-14T13:13:31Z</time>
      </trkpt>
      <trkpt lat="44.88241" lon="1.61825">
        <ele>167.41</ele>
        <time>2026-05-14T13:13:46Z</time>
      </trkpt>
      <trkpt lat="44.8822" lon="1.61818">
        <ele>170.77</ele>
        <time>2026-05-14T13:14:04Z</time>
      </trkpt>
      <trkpt lat="44.88201" lon="1.61803">
        <ele>173.66</ele>
        <time>2026-05-14T13:14:22Z</time>
      </trkpt>
      <trkpt lat="44.88192" lon="1.61802">
        <ele>175.58</ele>
        <time>2026-05-14T13:14:36Z</time>
      </trkpt>
      <trkpt lat="44.88187" lon="1.61799">
        <ele>175.58</ele>
        <time>2026-05-14T13:14:42Z</time>
      </trkpt>
      <trkpt lat="44.88185" lon="1.61797">
        <ele>176.54</ele>
        <time>2026-05-14T13:14:44Z</time>
      </trkpt>
      <trkpt lat="44.88172" lon="1.61794">
        <ele>176.54</ele>
        <time>2026-05-14T13:14:54Z</time>
      </trkpt>
      <trkpt lat="44.88153" lon="1.61776">
        <ele>177.5</ele>
        <time>2026-05-14T13:15:14Z</time>
      </trkpt>
      <trkpt lat="44.88146" lon="1.61772">
        <ele>174.14</ele>
        <time>2026-05-14T13:15:20Z</time>
      </trkpt>
      <trkpt lat="44.88145" lon="1.61771">
        <ele>181.35</ele>
        <time>2026-05-14T13:15:21Z</time>
      </trkpt>
      <trkpt lat="44.8813" lon="1.61769">
        <ele>177.98</ele>
        <time>2026-05-14T13:15:33Z</time>
      </trkpt>
      <trkpt lat="44.88128" lon="1.61766">
        <ele>177.98</ele>
        <time>2026-05-14T13:15:35Z</time>
      </trkpt>
      <trkpt lat="44.8812" lon="1.61761">
        <ele>179.42</ele>
        <time>2026-05-14T13:15:46Z</time>
      </trkpt>
      <trkpt lat="44.88104" lon="1.61772">
        <ele>178.46</ele>
        <time>2026-05-14T13:16:02Z</time>
      </trkpt>
      <trkpt lat="44.88102" lon="1.61781">
        <ele>179.42</ele>
        <time>2026-05-14T13:16:21Z</time>
      </trkpt>
      <trkpt lat="44.88101" lon="1.61786">
        <ele>179.42</ele>
        <time>2026-05-14T13:16:28Z</time>
      </trkpt>
      <trkpt lat="44.88101" lon="1.61791">
        <ele>177.98</ele>
        <time>2026-05-14T13:16:37Z</time>
      </trkpt>
      <trkpt lat="44.881" lon="1.61818">
        <ele>177.98</ele>
        <time>2026-05-14T13:16:53Z</time>
      </trkpt>
      <trkpt lat="44.88102" lon="1.61823">
        <ele>179.42</ele>
        <time>2026-05-14T13:16:59Z</time>
      </trkpt>
      <trkpt lat="44.88101" lon="1.61851">
        <ele>180.38</ele>
        <time>2026-05-14T13:17:18Z</time>
      </trkpt>
      <trkpt lat="44.88095" lon="1.61901">
        <ele>182.31</ele>
        <time>2026-05-14T13:17:40Z</time>
      </trkpt>
      <trkpt lat="44.88096" lon="1.61935">
        <ele>183.27</ele>
        <time>2026-05-14T13:18:00Z</time>
      </trkpt>
      <trkpt lat="44.88082" lon="1.61963">
        <ele>184.23</ele>
        <time>2026-05-14T13:18:17Z</time>
      </trkpt>
      <trkpt lat="44.88071" lon="1.61969">
        <ele>184.71</ele>
        <time>2026-05-14T13:18:26Z</time>
      </trkpt>
      <trkpt lat="44.88049" lon="1.61955">
        <ele>186.15</ele>
        <time>2026-05-14T13:18:45Z</time>
      </trkpt>
      <trkpt lat="44.88047" lon="1.61951">
        <ele>185.67</ele>
        <time>2026-05-14T13:18:48Z</time>
      </trkpt>
      <trkpt lat="44.88035" lon="1.61928">
        <ele>186.15</ele>
        <time>2026-05-14T13:19:03Z</time>
      </trkpt>
      <trkpt lat="44.88023" lon="1.61903">
        <ele>187.59</ele>
        <time>2026-05-14T13:19:20Z</time>
      </trkpt>
      <trkpt lat="44.88003" lon="1.61887">
        <ele>188.08</ele>
        <time>2026-05-14T13:19:37Z</time>
      </trkpt>
      <trkpt lat="44.87982" lon="1.61886">
        <ele>190</ele>
        <time>2026-05-14T13:19:56Z</time>
      </trkpt>
      <trkpt lat="44.87951" lon="1.61898">
        <ele>191.44</ele>
        <time>2026-05-14T13:20:19Z</time>
      </trkpt>
      <trkpt lat="44.87926" lon="1.61912">
        <ele>192.4</ele>
        <time>2026-05-14T13:20:41Z</time>
      </trkpt>
      <trkpt lat="44.87897" lon="1.61934">
        <ele>193.84</ele>
        <time>2026-05-14T13:21:06Z</time>
      </trkpt>
      <trkpt lat="44.87873" lon="1.61954">
        <ele>194.8</ele>
        <time>2026-05-14T13:21:28Z</time>
      </trkpt>
      <trkpt lat="44.87846" lon="1.6198">
        <ele>195.77</ele>
        <time>2026-05-14T13:21:53Z</time>
      </trkpt>
      <trkpt lat="44.87825" lon="1.62005">
        <ele>197.21</ele>
        <time>2026-05-14T13:22:15Z</time>
      </trkpt>
      <trkpt lat="44.87807" lon="1.62022">
        <ele>198.65</ele>
        <time>2026-05-14T13:22:33Z</time>
      </trkpt>
      <trkpt lat="44.87798" lon="1.62031">
        <ele>199.13</ele>
        <time>2026-05-14T13:22:51Z</time>
      </trkpt>
      <trkpt lat="44.8779" lon="1.62043">
        <ele>199.13</ele>
        <time>2026-05-14T13:23:10Z</time>
      </trkpt>
      <trkpt lat="44.87774" lon="1.62057">
        <ele>199.61</ele>
        <time>2026-05-14T13:23:26Z</time>
      </trkpt>
      <trkpt lat="44.87757" lon="1.62076">
        <ele>200.57</ele>
        <time>2026-05-14T13:23:43Z</time>
      </trkpt>
      <trkpt lat="44.87741" lon="1.62094">
        <ele>201.53</ele>
        <time>2026-05-14T13:24:00Z</time>
      </trkpt>
      <trkpt lat="44.8772" lon="1.62107">
        <ele>202.98</ele>
        <time>2026-05-14T13:24:18Z</time>
      </trkpt>
      <trkpt lat="44.87697" lon="1.62122">
        <ele>203.94</ele>
        <time>2026-05-14T13:24:37Z</time>
      </trkpt>
      <trkpt lat="44.87672" lon="1.62136">
        <ele>205.38</ele>
        <time>2026-05-14T13:24:58Z</time>
      </trkpt>
      <trkpt lat="44.87656" lon="1.62145">
        <ele>206.34</ele>
        <time>2026-05-14T13:25:12Z</time>
      </trkpt>
      <trkpt lat="44.87638" lon="1.62157">
        <ele>207.3</ele>
        <time>2026-05-14T13:25:29Z</time>
      </trkpt>
      <trkpt lat="44.87626" lon="1.62169">
        <ele>200.09</ele>
        <time>2026-05-14T13:25:41Z</time>
      </trkpt>
      <trkpt lat="44.87625" lon="1.6217">
        <ele>212.59</ele>
        <time>2026-05-14T13:25:42Z</time>
      </trkpt>
      <trkpt lat="44.87624" lon="1.62172">
        <ele>209.22</ele>
        <time>2026-05-14T13:25:43Z</time>
      </trkpt>
      <trkpt lat="44.87621" lon="1.62174">
        <ele>208.26</ele>
        <time>2026-05-14T13:25:45Z</time>
      </trkpt>
      <trkpt lat="44.87605" lon="1.62188">
        <ele>208.26</ele>
        <time>2026-05-14T13:26:03Z</time>
      </trkpt>
      <trkpt lat="44.87579" lon="1.62225">
        <ele>209.7</ele>
        <time>2026-05-14T13:26:27Z</time>
      </trkpt>
      <trkpt lat="44.87559" lon="1.6225">
        <ele>211.15</ele>
        <time>2026-05-14T13:26:47Z</time>
      </trkpt>
      <trkpt lat="44.87534" lon="1.62273">
        <ele>212.59</ele>
        <time>2026-05-14T13:27:10Z</time>
      </trkpt>
      <trkpt lat="44.87515" lon="1.62294">
        <ele>213.55</ele>
        <time>2026-05-14T13:27:30Z</time>
      </trkpt>
      <trkpt lat="44.87503" lon="1.62312">
        <ele>214.51</ele>
        <time>2026-05-14T13:27:48Z</time>
      </trkpt>
      <trkpt lat="44.87501" lon="1.62317">
        <ele>214.51</ele>
        <time>2026-05-14T13:27:53Z</time>
      </trkpt>
      <trkpt lat="44.87475" lon="1.62332">
        <ele>215.95</ele>
        <time>2026-05-14T13:28:17Z</time>
      </trkpt>
      <trkpt lat="44.87469" lon="1.62336">
        <ele>216.43</ele>
        <time>2026-05-14T13:28:35Z</time>
      </trkpt>
      <trkpt lat="44.87469" lon="1.62337">
        <ele>214.99</ele>
        <time>2026-05-14T13:28:41Z</time>
      </trkpt>
      <trkpt lat="44.87469" lon="1.62337">
        <ele>216.91</ele>
        <time>2026-05-14T13:28:43Z</time>
      </trkpt>
      <trkpt lat="44.87453" lon="1.62334">
        <ele>216.43</ele>
        <time>2026-05-14T13:29:04Z</time>
      </trkpt>
      <trkpt lat="44.87424" lon="1.62333">
        <ele>217.4</ele>
        <time>2026-05-14T13:29:26Z</time>
      </trkpt>
      <trkpt lat="44.87395" lon="1.62329">
        <ele>219.32</ele>
        <time>2026-05-14T13:29:50Z</time>
      </trkpt>
      <trkpt lat="44.87368" lon="1.62333">
        <ele>220.28</ele>
        <time>2026-05-14T13:30:13Z</time>
      </trkpt>
      <trkpt lat="44.87347" lon="1.62336">
        <ele>221.24</ele>
        <time>2026-05-14T13:30:33Z</time>
      </trkpt>
      <trkpt lat="44.8732" lon="1.62334">
        <ele>222.2</ele>
        <time>2026-05-14T13:30:53Z</time>
      </trkpt>
      <trkpt lat="44.87297" lon="1.62333">
        <ele>223.16</ele>
        <time>2026-05-14T13:31:14Z</time>
      </trkpt>
      <trkpt lat="44.87281" lon="1.62336">
        <ele>224.61</ele>
        <time>2026-05-14T13:31:32Z</time>
      </trkpt>
      <trkpt lat="44.87255" lon="1.62332">
        <ele>227.01</ele>
        <time>2026-05-14T13:31:54Z</time>
      </trkpt>
      <trkpt lat="44.87231" lon="1.62328">
        <ele>229.41</ele>
        <time>2026-05-14T13:32:16Z</time>
      </trkpt>
      <trkpt lat="44.87208" lon="1.6232">
        <ele>232.3</ele>
        <time>2026-05-14T13:32:38Z</time>
      </trkpt>
      <trkpt lat="44.87183" lon="1.62318">
        <ele>234.7</ele>
        <time>2026-05-14T13:32:59Z</time>
      </trkpt>
      <trkpt lat="44.87157" lon="1.62323">
        <ele>236.62</ele>
        <time>2026-05-14T13:33:21Z</time>
      </trkpt>
      <trkpt lat="44.87151" lon="1.62323">
        <ele>237.1</ele>
        <time>2026-05-14T13:33:25Z</time>
      </trkpt>
      <trkpt lat="44.87123" lon="1.62322">
        <ele>238.54</ele>
        <time>2026-05-14T13:33:48Z</time>
      </trkpt>
      <trkpt lat="44.87091" lon="1.62323">
        <ele>239.99</ele>
        <time>2026-05-14T13:34:12Z</time>
      </trkpt>
      <trkpt lat="44.8706" lon="1.62326">
        <ele>240.95</ele>
        <time>2026-05-14T13:34:36Z</time>
      </trkpt>
      <trkpt lat="44.87035" lon="1.62333">
        <ele>240.95</ele>
        <time>2026-05-14T13:34:56Z</time>
      </trkpt>
      <trkpt lat="44.87004" lon="1.62336">
        <ele>241.91</ele>
        <time>2026-05-14T13:35:18Z</time>
      </trkpt>
      <trkpt lat="44.86977" lon="1.62338">
        <ele>241.91</ele>
        <time>2026-05-14T13:35:39Z</time>
      </trkpt>
      <trkpt lat="44.8695" lon="1.62339">
        <ele>241.91</ele>
        <time>2026-05-14T13:35:59Z</time>
      </trkpt>
      <trkpt lat="44.86923" lon="1.62342">
        <ele>241.43</ele>
        <time>2026-05-14T13:36:19Z</time>
      </trkpt>
      <trkpt lat="44.86902" lon="1.62346">
        <ele>241.43</ele>
        <time>2026-05-14T13:36:36Z</time>
      </trkpt>
      <trkpt lat="44.86882" lon="1.62354">
        <ele>241.43</ele>
        <time>2026-05-14T13:36:55Z</time>
      </trkpt>
      <trkpt lat="44.86854" lon="1.62362">
        <ele>239.99</ele>
        <time>2026-05-14T13:37:15Z</time>
      </trkpt>
      <trkpt lat="44.8683" lon="1.6237">
        <ele>239.02</ele>
        <time>2026-05-14T13:37:34Z</time>
      </trkpt>
      <trkpt lat="44.86804" lon="1.62377">
        <ele>237.58</ele>
        <time>2026-05-14T13:37:53Z</time>
      </trkpt>
      <trkpt lat="44.8678" lon="1.62381">
        <ele>236.62</ele>
        <time>2026-05-14T13:38:10Z</time>
      </trkpt>
      <trkpt lat="44.86755" lon="1.62385">
        <ele>235.66</ele>
        <time>2026-05-14T13:38:31Z</time>
      </trkpt>
      <trkpt lat="44.86736" lon="1.62388">
        <ele>235.66</ele>
        <time>2026-05-14T13:38:48Z</time>
      </trkpt>
      <trkpt lat="44.86721" lon="1.62393">
        <ele>235.66</ele>
        <time>2026-05-14T13:39:03Z</time>
      </trkpt>
      <trkpt lat="44.86691" lon="1.62396">
        <ele>235.18</ele>
        <time>2026-05-14T13:39:26Z</time>
      </trkpt>
      <trkpt lat="44.86663" lon="1.62409">
        <ele>234.7</ele>
        <time>2026-05-14T13:39:49Z</time>
      </trkpt>
      <trkpt lat="44.8665" lon="1.62417">
        <ele>235.66</ele>
        <time>2026-05-14T13:40:00Z</time>
      </trkpt>
      <trkpt lat="44.86625" lon="1.62431">
        <ele>235.66</ele>
        <time>2026-05-14T13:40:21Z</time>
      </trkpt>
      <trkpt lat="44.86598" lon="1.62439">
        <ele>236.62</ele>
        <time>2026-05-14T13:40:41Z</time>
      </trkpt>
      <trkpt lat="44.8657" lon="1.62448">
        <ele>236.62</ele>
        <time>2026-05-14T13:41:02Z</time>
      </trkpt>
      <trkpt lat="44.86548" lon="1.62458">
        <ele>237.1</ele>
        <time>2026-05-14T13:41:24Z</time>
      </trkpt>
      <trkpt lat="44.86545" lon="1.62468">
        <ele>236.62</ele>
        <time>2026-05-14T13:42:01Z</time>
      </trkpt>
      <trkpt lat="44.86547" lon="1.62466">
        <ele>236.62</ele>
        <time>2026-05-14T13:42:31Z</time>
      </trkpt>
      <trkpt lat="44.86547" lon="1.62464">
        <ele>235.66</ele>
        <time>2026-05-14T13:43:11Z</time>
      </trkpt>
      <trkpt lat="44.86545" lon="1.62466">
        <ele>235.66</ele>
        <time>2026-05-14T13:43:14Z</time>
      </trkpt>
      <trkpt lat="44.86517" lon="1.62473">
        <ele>235.66</ele>
        <time>2026-05-14T13:43:36Z</time>
      </trkpt>
      <trkpt lat="44.86488" lon="1.6248">
        <ele>234.7</ele>
        <time>2026-05-14T13:43:57Z</time>
      </trkpt>
      <trkpt lat="44.86465" lon="1.62489">
        <ele>234.22</ele>
        <time>2026-05-14T13:44:15Z</time>
      </trkpt>
      <trkpt lat="44.86438" lon="1.62494">
        <ele>233.26</ele>
        <time>2026-05-14T13:44:36Z</time>
      </trkpt>
      <trkpt lat="44.86422" lon="1.62498">
        <ele>232.78</ele>
        <time>2026-05-14T13:45:02Z</time>
      </trkpt>
      <trkpt lat="44.86413" lon="1.62494">
        <ele>232.3</ele>
        <time>2026-05-14T13:45:20Z</time>
      </trkpt>
      <trkpt lat="44.86389" lon="1.62503">
        <ele>231.33</ele>
        <time>2026-05-14T13:45:42Z</time>
      </trkpt>
      <trkpt lat="44.86357" lon="1.62496">
        <ele>229.89</ele>
        <time>2026-05-14T13:46:04Z</time>
      </trkpt>
      <trkpt lat="44.86331" lon="1.62496">
        <ele>228.93</ele>
        <time>2026-05-14T13:46:23Z</time>
      </trkpt>
      <trkpt lat="44.86303" lon="1.62496">
        <ele>227.01</ele>
        <time>2026-05-14T13:46:46Z</time>
      </trkpt>
      <trkpt lat="44.86267" lon="1.62495">
        <ele>227.49</ele>
        <time>2026-05-14T13:47:12Z</time>
      </trkpt>
      <trkpt lat="44.8624" lon="1.62506">
        <ele>227.49</ele>
        <time>2026-05-14T13:47:33Z</time>
      </trkpt>
      <trkpt lat="44.86212" lon="1.6252">
        <ele>227.97</ele>
        <time>2026-05-14T13:47:55Z</time>
      </trkpt>
      <trkpt lat="44.86185" lon="1.6253">
        <ele>228.45</ele>
        <time>2026-05-14T13:48:17Z</time>
      </trkpt>
      <trkpt lat="44.86166" lon="1.62535">
        <ele>228.93</ele>
        <time>2026-05-14T13:48:36Z</time>
      </trkpt>
      <trkpt lat="44.86131" lon="1.62533">
        <ele>229.41</ele>
        <time>2026-05-14T13:48:57Z</time>
      </trkpt>
      <trkpt lat="44.86107" lon="1.62545">
        <ele>229.89</ele>
        <time>2026-05-14T13:49:18Z</time>
      </trkpt>
      <trkpt lat="44.86082" lon="1.62556">
        <ele>230.85</ele>
        <time>2026-05-14T13:49:39Z</time>
      </trkpt>
      <trkpt lat="44.86072" lon="1.62574">
        <ele>230.37</ele>
        <time>2026-05-14T13:50:02Z</time>
      </trkpt>
      <trkpt lat="44.8607" lon="1.62571">
        <ele>231.81</ele>
        <time>2026-05-14T13:50:09Z</time>
      </trkpt>
      <trkpt lat="44.86063" lon="1.62571">
        <ele>232.3</ele>
        <time>2026-05-14T13:50:17Z</time>
      </trkpt>
      <trkpt lat="44.86046" lon="1.62583">
        <ele>233.74</ele>
        <time>2026-05-14T13:50:43Z</time>
      </trkpt>
      <trkpt lat="44.86014" lon="1.62598">
        <ele>236.62</ele>
        <time>2026-05-14T13:51:07Z</time>
      </trkpt>
      <trkpt lat="44.85992" lon="1.62607">
        <ele>238.06</ele>
        <time>2026-05-14T13:51:28Z</time>
      </trkpt>
      <trkpt lat="44.85968" lon="1.62612">
        <ele>239.02</ele>
        <time>2026-05-14T13:51:51Z</time>
      </trkpt>
      <trkpt lat="44.85936" lon="1.62613">
        <ele>239.99</ele>
        <time>2026-05-14T13:52:14Z</time>
      </trkpt>
      <trkpt lat="44.85905" lon="1.62613">
        <ele>239.51</ele>
        <time>2026-05-14T13:52:36Z</time>
      </trkpt>
      <trkpt lat="44.85877" lon="1.6261">
        <ele>238.06</ele>
        <time>2026-05-14T13:52:58Z</time>
      </trkpt>
      <trkpt lat="44.85876" lon="1.62611">
        <ele>238.06</ele>
        <time>2026-05-14T13:52:59Z</time>
      </trkpt>
      <trkpt lat="44.85848" lon="1.62611">
        <ele>238.06</ele>
        <time>2026-05-14T13:53:22Z</time>
      </trkpt>
      <trkpt lat="44.85817" lon="1.62606">
        <ele>236.62</ele>
        <time>2026-05-14T13:53:44Z</time>
      </trkpt>
      <trkpt lat="44.85789" lon="1.62601">
        <ele>235.18</ele>
        <time>2026-05-14T13:54:06Z</time>
      </trkpt>
      <trkpt lat="44.85758" lon="1.62597">
        <ele>233.26</ele>
        <time>2026-05-14T13:54:30Z</time>
      </trkpt>
      <trkpt lat="44.85724" lon="1.6259">
        <ele>230.85</ele>
        <time>2026-05-14T13:54:54Z</time>
      </trkpt>
      <trkpt lat="44.85695" lon="1.62593">
        <ele>229.41</ele>
        <time>2026-05-14T13:55:17Z</time>
      </trkpt>
      <trkpt lat="44.8567" lon="1.62595">
        <ele>229.41</ele>
        <time>2026-05-14T13:55:35Z</time>
      </trkpt>
      <trkpt lat="44.85636" lon="1.62599">
        <ele>229.89</ele>
        <time>2026-05-14T13:56:03Z</time>
      </trkpt>
      <trkpt lat="44.85605" lon="1.62597">
        <ele>230.85</ele>
        <time>2026-05-14T13:56:30Z</time>
      </trkpt>
      <trkpt lat="44.85575" lon="1.62602">
        <ele>230.85</ele>
        <time>2026-05-14T13:56:57Z</time>
      </trkpt>
      <trkpt lat="44.85561" lon="1.62614">
        <ele>229.41</ele>
        <time>2026-05-14T13:57:14Z</time>
      </trkpt>
      <trkpt lat="44.85527" lon="1.62616">
        <ele>230.37</ele>
        <time>2026-05-14T13:57:35Z</time>
      </trkpt>
      <trkpt lat="44.85526" lon="1.62616">
        <ele>228.93</ele>
        <time>2026-05-14T13:57:37Z</time>
      </trkpt>
      <trkpt lat="44.85496" lon="1.62625">
        <ele>227.49</ele>
        <time>2026-05-14T13:58:02Z</time>
      </trkpt>
      <trkpt lat="44.8547" lon="1.62628">
        <ele>226.05</ele>
        <time>2026-05-14T13:58:25Z</time>
      </trkpt>
      <trkpt lat="44.85436" lon="1.6261">
        <ele>225.09</ele>
        <time>2026-05-14T13:58:49Z</time>
      </trkpt>
      <trkpt lat="44.85416" lon="1.62597">
        <ele>224.12</ele>
        <time>2026-05-14T13:59:08Z</time>
      </trkpt>
      <trkpt lat="44.85384" lon="1.62589">
        <ele>222.2</ele>
        <time>2026-05-14T13:59:30Z</time>
      </trkpt>
      <trkpt lat="44.85362" lon="1.62582">
        <ele>221.72</ele>
        <time>2026-05-14T13:59:49Z</time>
      </trkpt>
      <trkpt lat="44.85344" lon="1.62582">
        <ele>221.24</ele>
        <time>2026-05-14T14:00:11Z</time>
      </trkpt>
      <trkpt lat="44.85312" lon="1.62562">
        <ele>220.28</ele>
        <time>2026-05-14T14:00:33Z</time>
      </trkpt>
      <trkpt lat="44.85286" lon="1.62544">
        <ele>219.8</ele>
        <time>2026-05-14T14:00:52Z</time>
      </trkpt>
      <trkpt lat="44.85261" lon="1.62546">
        <ele>219.32</ele>
        <time>2026-05-14T14:01:15Z</time>
      </trkpt>
      <trkpt lat="44.85222" lon="1.62548">
        <ele>219.32</ele>
        <time>2026-05-14T14:01:36Z</time>
      </trkpt>
      <trkpt lat="44.85192" lon="1.62549">
        <ele>218.84</ele>
        <time>2026-05-14T14:01:59Z</time>
      </trkpt>
      <trkpt lat="44.85161" lon="1.62549">
        <ele>218.36</ele>
        <time>2026-05-14T14:02:23Z</time>
      </trkpt>
      <trkpt lat="44.85139" lon="1.62558">
        <ele>218.36</ele>
        <time>2026-05-14T14:02:41Z</time>
      </trkpt>
      <trkpt lat="44.85111" lon="1.62561">
        <ele>218.36</ele>
        <time>2026-05-14T14:03:02Z</time>
      </trkpt>
      <trkpt lat="44.8508" lon="1.62558">
        <ele>218.36</ele>
        <time>2026-05-14T14:03:23Z</time>
      </trkpt>
      <trkpt lat="44.85051" lon="1.62563">
        <ele>218.36</ele>
        <time>2026-05-14T14:03:45Z</time>
      </trkpt>
      <trkpt lat="44.85022" lon="1.62559">
        <ele>216.91</ele>
        <time>2026-05-14T14:04:06Z</time>
      </trkpt>
      <trkpt lat="44.84996" lon="1.62562">
        <ele>215.47</ele>
        <time>2026-05-14T14:04:26Z</time>
      </trkpt>
      <trkpt lat="44.84988" lon="1.62563">
        <ele>214.51</ele>
        <time>2026-05-14T14:04:31Z</time>
      </trkpt>
      <trkpt lat="44.84964" lon="1.62575">
        <ele>212.59</ele>
        <time>2026-05-14T14:04:49Z</time>
      </trkpt>
      <trkpt lat="44.84942" lon="1.62582">
        <ele>210.67</ele>
        <time>2026-05-14T14:05:07Z</time>
      </trkpt>
      <trkpt lat="44.8492" lon="1.62594">
        <ele>209.7</ele>
        <time>2026-05-14T14:05:27Z</time>
      </trkpt>
      <trkpt lat="44.84894" lon="1.62602">
        <ele>207.78</ele>
        <time>2026-05-14T14:05:47Z</time>
      </trkpt>
      <trkpt lat="44.84866" lon="1.62607">
        <ele>205.38</ele>
        <time>2026-05-14T14:06:07Z</time>
      </trkpt>
      <trkpt lat="44.84833" lon="1.62607">
        <ele>202.49</ele>
        <time>2026-05-14T14:06:29Z</time>
      </trkpt>
      <trkpt lat="44.84808" lon="1.62607">
        <ele>199.13</ele>
        <time>2026-05-14T14:06:45Z</time>
      </trkpt>
      <trkpt lat="44.8478" lon="1.62608">
        <ele>197.69</ele>
        <time>2026-05-14T14:07:04Z</time>
      </trkpt>
      <trkpt lat="44.84755" lon="1.62607">
        <ele>196.25</ele>
        <time>2026-05-14T14:07:23Z</time>
      </trkpt>
      <trkpt lat="44.84726" lon="1.62602">
        <ele>195.28</ele>
        <time>2026-05-14T14:07:45Z</time>
      </trkpt>
      <trkpt lat="44.84692" lon="1.62586">
        <ele>194.32</ele>
        <time>2026-05-14T14:08:09Z</time>
      </trkpt>
      <trkpt lat="44.8467" lon="1.6257">
        <ele>192.88</ele>
        <time>2026-05-14T14:08:29Z</time>
      </trkpt>
      <trkpt lat="44.84638" lon="1.62554">
        <ele>191.44</ele>
        <time>2026-05-14T14:08:50Z</time>
      </trkpt>
      <trkpt lat="44.84614" lon="1.62554">
        <ele>190</ele>
        <time>2026-05-14T14:09:08Z</time>
      </trkpt>
      <trkpt lat="44.8459" lon="1.62555">
        <ele>186.63</ele>
        <time>2026-05-14T14:09:26Z</time>
      </trkpt>
      <trkpt lat="44.84569" lon="1.62557">
        <ele>183.27</ele>
        <time>2026-05-14T14:09:44Z</time>
      </trkpt>
      <trkpt lat="44.84551" lon="1.62562">
        <ele>180.87</ele>
        <time>2026-05-14T14:10:00Z</time>
      </trkpt>
      <trkpt lat="44.84533" lon="1.62569">
        <ele>177.5</ele>
        <time>2026-05-14T14:10:14Z</time>
      </trkpt>
      <trkpt lat="44.84518" lon="1.6258">
        <ele>174.14</ele>
        <time>2026-05-14T14:10:27Z</time>
      </trkpt>
      <trkpt lat="44.84502" lon="1.62594">
        <ele>170.77</ele>
        <time>2026-05-14T14:10:43Z</time>
      </trkpt>
      <trkpt lat="44.84492" lon="1.62608">
        <ele>167.41</ele>
        <time>2026-05-14T14:10:56Z</time>
      </trkpt>
      <trkpt lat="44.84471" lon="1.62628">
        <ele>164.52</ele>
        <time>2026-05-14T14:11:12Z</time>
      </trkpt>
      <trkpt lat="44.84475" lon="1.62646">
        <ele>163.08</ele>
        <time>2026-05-14T14:11:34Z</time>
      </trkpt>
      <trkpt lat="44.84492" lon="1.62661">
        <ele>162.6</ele>
        <time>2026-05-14T14:12:03Z</time>
      </trkpt>
      <trkpt lat="44.84468" lon="1.62652">
        <ele>160.2</ele>
        <time>2026-05-14T14:12:27Z</time>
      </trkpt>
      <trkpt lat="44.84442" lon="1.62642">
        <ele>159.24</ele>
        <time>2026-05-14T14:12:50Z</time>
      </trkpt>
      <trkpt lat="44.84441" lon="1.6264">
        <ele>160.68</ele>
        <time>2026-05-14T14:12:53Z</time>
      </trkpt>
      <trkpt lat="44.84439" lon="1.62637">
        <ele>158.75</ele>
        <time>2026-05-14T14:12:56Z</time>
      </trkpt>
      <trkpt lat="44.84411" lon="1.62608">
        <ele>158.27</ele>
        <time>2026-05-14T14:13:18Z</time>
      </trkpt>
      <trkpt lat="44.84384" lon="1.62582">
        <ele>159.72</ele>
        <time>2026-05-14T14:13:39Z</time>
      </trkpt>
      <trkpt lat="44.84372" lon="1.62574">
        <ele>159.72</ele>
        <time>2026-05-14T14:13:49Z</time>
      </trkpt>
      <trkpt lat="44.84367" lon="1.62576">
        <ele>160.68</ele>
        <time>2026-05-14T14:13:51Z</time>
      </trkpt>
      <trkpt lat="44.84337" lon="1.62567">
        <ele>161.16</ele>
        <time>2026-05-14T14:14:15Z</time>
      </trkpt>
      <trkpt lat="44.84314" lon="1.62559">
        <ele>162.12</ele>
        <time>2026-05-14T14:14:34Z</time>
      </trkpt>
      <trkpt lat="44.84301" lon="1.62556">
        <ele>162.12</ele>
        <time>2026-05-14T14:14:43Z</time>
      </trkpt>
      <trkpt lat="44.84273" lon="1.62551">
        <ele>163.08</ele>
        <time>2026-05-14T14:15:05Z</time>
      </trkpt>
      <trkpt lat="44.84239" lon="1.62542">
        <ele>164.52</ele>
        <time>2026-05-14T14:15:30Z</time>
      </trkpt>
      <trkpt lat="44.84209" lon="1.62535">
        <ele>165</ele>
        <time>2026-05-14T14:15:53Z</time>
      </trkpt>
      <trkpt lat="44.8419" lon="1.62531">
        <ele>165.48</ele>
        <time>2026-05-14T14:16:10Z</time>
      </trkpt>
      <trkpt lat="44.84165" lon="1.62528">
        <ele>165.96</ele>
        <time>2026-05-14T14:16:29Z</time>
      </trkpt>
      <trkpt lat="44.8414" lon="1.62533">
        <ele>167.41</ele>
        <time>2026-05-14T14:16:49Z</time>
      </trkpt>
      <trkpt lat="44.84117" lon="1.62542">
        <ele>167.89</ele>
        <time>2026-05-14T14:17:08Z</time>
      </trkpt>
      <trkpt lat="44.84092" lon="1.62546">
        <ele>168.37</ele>
        <time>2026-05-14T14:17:27Z</time>
      </trkpt>
      <trkpt lat="44.84065" lon="1.62541">
        <ele>168.85</ele>
        <time>2026-05-14T14:17:48Z</time>
      </trkpt>
      <trkpt lat="44.84045" lon="1.62534">
        <ele>169.81</ele>
        <time>2026-05-14T14:18:04Z</time>
      </trkpt>
      <trkpt lat="44.84036" lon="1.62529">
        <ele>160.68</ele>
        <time>2026-05-14T14:18:11Z</time>
      </trkpt>
      <trkpt lat="44.84035" lon="1.62528">
        <ele>174.62</ele>
        <time>2026-05-14T14:18:12Z</time>
      </trkpt>
      <trkpt lat="44.84034" lon="1.62527">
        <ele>170.77</ele>
        <time>2026-05-14T14:18:13Z</time>
      </trkpt>
      <trkpt lat="44.84017" lon="1.62517">
        <ele>167.89</ele>
        <time>2026-05-14T14:18:29Z</time>
      </trkpt>
      <trkpt lat="44.83999" lon="1.62506">
        <ele>169.33</ele>
        <time>2026-05-14T14:18:46Z</time>
      </trkpt>
      <trkpt lat="44.83977" lon="1.62483">
        <ele>171.25</ele>
        <time>2026-05-14T14:19:09Z</time>
      </trkpt>
      <trkpt lat="44.83964" lon="1.62458">
        <ele>174.14</ele>
        <time>2026-05-14T14:19:29Z</time>
      </trkpt>
      <trkpt lat="44.8395" lon="1.62428">
        <ele>176.54</ele>
        <time>2026-05-14T14:19:51Z</time>
      </trkpt>
      <trkpt lat="44.83945" lon="1.62396">
        <ele>178.46</ele>
        <time>2026-05-14T14:20:14Z</time>
      </trkpt>
      <trkpt lat="44.83934" lon="1.62361">
        <ele>180.38</ele>
        <time>2026-05-14T14:20:37Z</time>
      </trkpt>
      <trkpt lat="44.83915" lon="1.62339">
        <ele>183.27</ele>
        <time>2026-05-14T14:20:59Z</time>
      </trkpt>
      <trkpt lat="44.83896" lon="1.62326">
        <ele>185.67</ele>
        <time>2026-05-14T14:21:19Z</time>
      </trkpt>
      <trkpt lat="44.83875" lon="1.62317">
        <ele>186.63</ele>
        <time>2026-05-14T14:21:39Z</time>
      </trkpt>
      <trkpt lat="44.83851" lon="1.62307">
        <ele>187.11</ele>
        <time>2026-05-14T14:21:58Z</time>
      </trkpt>
      <trkpt lat="44.83832" lon="1.62301">
        <ele>188.08</ele>
        <time>2026-05-14T14:22:15Z</time>
      </trkpt>
      <trkpt lat="44.83811" lon="1.6229">
        <ele>188.56</ele>
        <time>2026-05-14T14:22:34Z</time>
      </trkpt>
      <trkpt lat="44.83786" lon="1.6228">
        <ele>190.48</ele>
        <time>2026-05-14T14:22:54Z</time>
      </trkpt>
      <trkpt lat="44.83761" lon="1.62272">
        <ele>191.44</ele>
        <time>2026-05-14T14:23:15Z</time>
      </trkpt>
      <trkpt lat="44.83734" lon="1.6226">
        <ele>192.88</ele>
        <time>2026-05-14T14:23:38Z</time>
      </trkpt>
      <trkpt lat="44.83709" lon="1.62248">
        <ele>194.8</ele>
        <time>2026-05-14T14:24:00Z</time>
      </trkpt>
      <trkpt lat="44.83685" lon="1.62247">
        <ele>195.28</ele>
        <time>2026-05-14T14:24:18Z</time>
      </trkpt>
      <trkpt lat="44.8366" lon="1.62247">
        <ele>196.25</ele>
        <time>2026-05-14T14:24:37Z</time>
      </trkpt>
      <trkpt lat="44.8364" lon="1.62247">
        <ele>197.69</ele>
        <time>2026-05-14T14:24:57Z</time>
      </trkpt>
      <trkpt lat="44.83611" lon="1.62241">
        <ele>198.65</ele>
        <time>2026-05-14T14:25:18Z</time>
      </trkpt>
      <trkpt lat="44.83589" lon="1.62236">
        <ele>199.61</ele>
        <time>2026-05-14T14:25:37Z</time>
      </trkpt>
      <trkpt lat="44.83565" lon="1.62222">
        <ele>200.57</ele>
        <time>2026-05-14T14:25:58Z</time>
      </trkpt>
      <trkpt lat="44.83544" lon="1.62204">
        <ele>202.98</ele>
        <time>2026-05-14T14:26:18Z</time>
      </trkpt>
      <trkpt lat="44.83532" lon="1.62196">
        <ele>203.46</ele>
        <time>2026-05-14T14:26:43Z</time>
      </trkpt>
      <trkpt lat="44.83527" lon="1.62197">
        <ele>203.46</ele>
        <time>2026-05-14T14:27:12Z</time>
      </trkpt>
      <trkpt lat="44.83517" lon="1.62189">
        <ele>204.42</ele>
        <time>2026-05-14T14:27:28Z</time>
      </trkpt>
      <trkpt lat="44.83514" lon="1.62187">
        <ele>204.9</ele>
        <time>2026-05-14T14:27:38Z</time>
      </trkpt>
      <trkpt lat="44.83494" lon="1.62179">
        <ele>207.3</ele>
        <time>2026-05-14T14:27:58Z</time>
      </trkpt>
      <trkpt lat="44.83472" lon="1.62173">
        <ele>208.74</ele>
        <time>2026-05-14T14:28:16Z</time>
      </trkpt>
      <trkpt lat="44.83447" lon="1.6217">
        <ele>210.67</ele>
        <time>2026-05-14T14:28:38Z</time>
      </trkpt>
      <trkpt lat="44.83428" lon="1.62168">
        <ele>212.59</ele>
        <time>2026-05-14T14:28:58Z</time>
      </trkpt>
      <trkpt lat="44.83421" lon="1.62172">
        <ele>213.07</ele>
        <time>2026-05-14T14:29:27Z</time>
      </trkpt>
      <trkpt lat="44.83402" lon="1.6219">
        <ele>214.99</ele>
        <time>2026-05-14T14:29:48Z</time>
      </trkpt>
      <trkpt lat="44.834" lon="1.62193">
        <ele>214.99</ele>
        <time>2026-05-14T14:29:50Z</time>
      </trkpt>
      <trkpt lat="44.83385" lon="1.62216">
        <ele>216.91</ele>
        <time>2026-05-14T14:30:09Z</time>
      </trkpt>
      <trkpt lat="44.83372" lon="1.6224">
        <ele>219.32</ele>
        <time>2026-05-14T14:30:29Z</time>
      </trkpt>
      <trkpt lat="44.8335" lon="1.62264">
        <ele>221.72</ele>
        <time>2026-05-14T14:30:51Z</time>
      </trkpt>
      <trkpt lat="44.83331" lon="1.62286">
        <ele>223.64</ele>
        <time>2026-05-14T14:31:11Z</time>
      </trkpt>
      <trkpt lat="44.83315" lon="1.62299">
        <ele>225.57</ele>
        <time>2026-05-14T14:31:28Z</time>
      </trkpt>
      <trkpt lat="44.83296" lon="1.6232">
        <ele>227.97</ele>
        <time>2026-05-14T14:31:50Z</time>
      </trkpt>
      <trkpt lat="44.83283" lon="1.62344">
        <ele>230.85</ele>
        <time>2026-05-14T14:32:10Z</time>
      </trkpt>
      <trkpt lat="44.83274" lon="1.62373">
        <ele>233.74</ele>
        <time>2026-05-14T14:32:31Z</time>
      </trkpt>
      <trkpt lat="44.83264" lon="1.62391">
        <ele>237.1</ele>
        <time>2026-05-14T14:32:50Z</time>
      </trkpt>
      <trkpt lat="44.83253" lon="1.62415">
        <ele>240.47</ele>
        <time>2026-05-14T14:33:11Z</time>
      </trkpt>
      <trkpt lat="44.83239" lon="1.62428">
        <ele>242.39</ele>
        <time>2026-05-14T14:33:28Z</time>
      </trkpt>
      <trkpt lat="44.83226" lon="1.62428">
        <ele>244.31</ele>
        <time>2026-05-14T14:33:40Z</time>
      </trkpt>
      <trkpt lat="44.83222" lon="1.62428">
        <ele>245.27</ele>
        <time>2026-05-14T14:33:43Z</time>
      </trkpt>
      <trkpt lat="44.83218" lon="1.62429">
        <ele>245.27</ele>
        <time>2026-05-14T14:33:47Z</time>
      </trkpt>
      <trkpt lat="44.832" lon="1.62431">
        <ele>248.64</ele>
        <time>2026-05-14T14:34:05Z</time>
      </trkpt>
      <trkpt lat="44.83183" lon="1.6243">
        <ele>250.08</ele>
        <time>2026-05-14T14:34:21Z</time>
      </trkpt>
      <trkpt lat="44.83161" lon="1.62431">
        <ele>252.96</ele>
        <time>2026-05-14T14:34:40Z</time>
      </trkpt>
      <trkpt lat="44.83136" lon="1.62435">
        <ele>255.37</ele>
        <time>2026-05-14T14:35:01Z</time>
      </trkpt>
      <trkpt lat="44.83114" lon="1.62438">
        <ele>257.77</ele>
        <time>2026-05-14T14:35:21Z</time>
      </trkpt>
      <trkpt lat="44.83086" lon="1.62435">
        <ele>260.17</ele>
        <time>2026-05-14T14:35:44Z</time>
      </trkpt>
      <trkpt lat="44.83056" lon="1.62429">
        <ele>261.14</ele>
        <time>2026-05-14T14:36:08Z</time>
      </trkpt>
      <trkpt lat="44.8304" lon="1.62428">
        <ele>262.1</ele>
        <time>2026-05-14T14:36:25Z</time>
      </trkpt>
      <trkpt lat="44.83018" lon="1.62424">
        <ele>262.1</ele>
        <time>2026-05-14T14:36:42Z</time>
      </trkpt>
      <trkpt lat="44.83003" lon="1.62412">
        <ele>258.73</ele>
        <time>2026-05-14T14:36:56Z</time>
      </trkpt>
      <trkpt lat="44.83" lon="1.62409">
        <ele>263.06</ele>
        <time>2026-05-14T14:36:58Z</time>
      </trkpt>
      <trkpt lat="44.82999" lon="1.62408">
        <ele>263.06</ele>
        <time>2026-05-14T14:36:59Z</time>
      </trkpt>
      <trkpt lat="44.82994" lon="1.62403">
        <ele>261.62</ele>
        <time>2026-05-14T14:37:05Z</time>
      </trkpt>
      <trkpt lat="44.82969" lon="1.62395">
        <ele>260.17</ele>
        <time>2026-05-14T14:37:25Z</time>
      </trkpt>
      <trkpt lat="44.82944" lon="1.62399">
        <ele>259.69</ele>
        <time>2026-05-14T14:37:44Z</time>
      </trkpt>
      <trkpt lat="44.82936" lon="1.62421">
        <ele>258.73</ele>
        <time>2026-05-14T14:37:59Z</time>
      </trkpt>
      <trkpt lat="44.82921" lon="1.62448">
        <ele>258.73</ele>
        <time>2026-05-14T14:38:16Z</time>
      </trkpt>
      <trkpt lat="44.8292" lon="1.62449">
        <ele>258.73</ele>
        <time>2026-05-14T14:38:17Z</time>
      </trkpt>
      <trkpt lat="44.82904" lon="1.62478">
        <ele>257.77</ele>
        <time>2026-05-14T14:38:36Z</time>
      </trkpt>
      <trkpt lat="44.82886" lon="1.62512">
        <ele>256.81</ele>
        <time>2026-05-14T14:38:56Z</time>
      </trkpt>
      <trkpt lat="44.82872" lon="1.62538">
        <ele>255.85</ele>
        <time>2026-05-14T14:39:13Z</time>
      </trkpt>
      <trkpt lat="44.82857" lon="1.62567">
        <ele>255.37</ele>
        <time>2026-05-14T14:39:32Z</time>
      </trkpt>
      <trkpt lat="44.82843" lon="1.62593">
        <ele>254.41</ele>
        <time>2026-05-14T14:39:49Z</time>
      </trkpt>
      <trkpt lat="44.8283" lon="1.62617">
        <ele>252.96</ele>
        <time>2026-05-14T14:40:04Z</time>
      </trkpt>
      <trkpt lat="44.82815" lon="1.62644">
        <ele>252.48</ele>
        <time>2026-05-14T14:40:22Z</time>
      </trkpt>
      <trkpt lat="44.82799" lon="1.62675">
        <ele>252.96</ele>
        <time>2026-05-14T14:40:42Z</time>
      </trkpt>
      <trkpt lat="44.82795" lon="1.62681">
        <ele>252.96</ele>
        <time>2026-05-14T14:40:46Z</time>
      </trkpt>
      <trkpt lat="44.82781" lon="1.62708">
        <ele>252.96</ele>
        <time>2026-05-14T14:41:04Z</time>
      </trkpt>
      <trkpt lat="44.82764" lon="1.62738">
        <ele>253.44</ele>
        <time>2026-05-14T14:41:26Z</time>
      </trkpt>
      <trkpt lat="44.82748" lon="1.6277">
        <ele>253.93</ele>
        <time>2026-05-14T14:41:47Z</time>
      </trkpt>
      <trkpt lat="44.82729" lon="1.62804">
        <ele>253.93</ele>
        <time>2026-05-14T14:42:10Z</time>
      </trkpt>
      <trkpt lat="44.82713" lon="1.62832">
        <ele>255.37</ele>
        <time>2026-05-14T14:42:30Z</time>
      </trkpt>
      <trkpt lat="44.82712" lon="1.62835">
        <ele>254.41</ele>
        <time>2026-05-14T14:42:50Z</time>
      </trkpt>
      <trkpt lat="44.82704" lon="1.62858">
        <ele>256.33</ele>
        <time>2026-05-14T14:43:07Z</time>
      </trkpt>
      <trkpt lat="44.82698" lon="1.62901">
        <ele>257.77</ele>
        <time>2026-05-14T14:43:29Z</time>
      </trkpt>
      <trkpt lat="44.82695" lon="1.62934">
        <ele>258.73</ele>
        <time>2026-05-14T14:43:47Z</time>
      </trkpt>
      <trkpt lat="44.82688" lon="1.62965">
        <ele>259.21</ele>
        <time>2026-05-14T14:44:05Z</time>
      </trkpt>
      <trkpt lat="44.82678" lon="1.62992">
        <ele>260.65</ele>
        <time>2026-05-14T14:44:23Z</time>
      </trkpt>
      <trkpt lat="44.82659" lon="1.6302">
        <ele>261.62</ele>
        <time>2026-05-14T14:44:44Z</time>
      </trkpt>
      <trkpt lat="44.82634" lon="1.63045">
        <ele>262.1</ele>
        <time>2026-05-14T14:45:06Z</time>
      </trkpt>
      <trkpt lat="44.82614" lon="1.63062">
        <ele>262.58</ele>
        <time>2026-05-14T14:45:23Z</time>
      </trkpt>
      <trkpt lat="44.82591" lon="1.63078">
        <ele>262.58</ele>
        <time>2026-05-14T14:45:42Z</time>
      </trkpt>
      <trkpt lat="44.82567" lon="1.63093">
        <ele>262.58</ele>
        <time>2026-05-14T14:46:02Z</time>
      </trkpt>
      <trkpt lat="44.82541" lon="1.63111">
        <ele>263.06</ele>
        <time>2026-05-14T14:46:23Z</time>
      </trkpt>
      <trkpt lat="44.82522" lon="1.63128">
        <ele>261.62</ele>
        <time>2026-05-14T14:46:40Z</time>
      </trkpt>
      <trkpt lat="44.825" lon="1.63153">
        <ele>261.62</ele>
        <time>2026-05-14T14:47:01Z</time>
      </trkpt>
      <trkpt lat="44.82479" lon="1.63181">
        <ele>262.1</ele>
        <time>2026-05-14T14:47:23Z</time>
      </trkpt>
      <trkpt lat="44.82459" lon="1.63203">
        <ele>261.62</ele>
        <time>2026-05-14T14:47:42Z</time>
      </trkpt>
      <trkpt lat="44.82436" lon="1.63231">
        <ele>261.62</ele>
        <time>2026-05-14T14:48:04Z</time>
      </trkpt>
      <trkpt lat="44.82412" lon="1.63256">
        <ele>261.62</ele>
        <time>2026-05-14T14:48:26Z</time>
      </trkpt>
      <trkpt lat="44.82403" lon="1.6326">
        <ele>261.62</ele>
        <time>2026-05-14T14:48:45Z</time>
      </trkpt>
      <trkpt lat="44.82391" lon="1.63252">
        <ele>263.54</ele>
        <time>2026-05-14T14:49:06Z</time>
      </trkpt>
      <trkpt lat="44.82386" lon="1.6325">
        <ele>263.54</ele>
        <time>2026-05-14T14:49:11Z</time>
      </trkpt>
      <trkpt lat="44.82357" lon="1.63238">
        <ele>264.5</ele>
        <time>2026-05-14T14:49:33Z</time>
      </trkpt>
      <trkpt lat="44.82336" lon="1.63231">
        <ele>263.06</ele>
        <time>2026-05-14T14:49:49Z</time>
      </trkpt>
      <trkpt lat="44.82308" lon="1.63222">
        <ele>261.62</ele>
        <time>2026-05-14T14:50:11Z</time>
      </trkpt>
      <trkpt lat="44.82282" lon="1.63212">
        <ele>259.21</ele>
        <time>2026-05-14T14:50:31Z</time>
      </trkpt>
      <trkpt lat="44.82261" lon="1.63207">
        <ele>256.33</ele>
        <time>2026-05-14T14:50:47Z</time>
      </trkpt>
      <trkpt lat="44.82241" lon="1.63203">
        <ele>253.93</ele>
        <time>2026-05-14T14:51:06Z</time>
      </trkpt>
      <trkpt lat="44.82221" lon="1.63199">
        <ele>252</ele>
        <time>2026-05-14T14:51:26Z</time>
      </trkpt>
      <trkpt lat="44.82192" lon="1.63189">
        <ele>252</ele>
        <time>2026-05-14T14:51:47Z</time>
      </trkpt>
      <trkpt lat="44.82167" lon="1.63181">
        <ele>250.56</ele>
        <time>2026-05-14T14:52:07Z</time>
      </trkpt>
      <trkpt lat="44.8214" lon="1.63171">
        <ele>249.12</ele>
        <time>2026-05-14T14:52:27Z</time>
      </trkpt>
      <trkpt lat="44.82118" lon="1.63166">
        <ele>246.72</ele>
        <time>2026-05-14T14:52:46Z</time>
      </trkpt>
      <trkpt lat="44.82099" lon="1.63158">
        <ele>245.27</ele>
        <time>2026-05-14T14:53:13Z</time>
      </trkpt>
      <trkpt lat="44.82073" lon="1.6314">
        <ele>244.31</ele>
        <time>2026-05-14T14:53:37Z</time>
      </trkpt>
      <trkpt lat="44.82051" lon="1.63119">
        <ele>243.35</ele>
        <time>2026-05-14T14:53:58Z</time>
      </trkpt>
      <trkpt lat="44.8202" lon="1.63103">
        <ele>241.91</ele>
        <time>2026-05-14T14:54:21Z</time>
      </trkpt>
      <trkpt lat="44.8199" lon="1.63088">
        <ele>240.47</ele>
        <time>2026-05-14T14:54:42Z</time>
      </trkpt>
      <trkpt lat="44.81961" lon="1.63072">
        <ele>239.51</ele>
        <time>2026-05-14T14:55:04Z</time>
      </trkpt>
      <trkpt lat="44.81934" lon="1.63055">
        <ele>237.58</ele>
        <time>2026-05-14T14:55:25Z</time>
      </trkpt>
      <trkpt lat="44.81905" lon="1.63036">
        <ele>236.14</ele>
        <time>2026-05-14T14:55:47Z</time>
      </trkpt>
      <trkpt lat="44.81872" lon="1.63017">
        <ele>235.66</ele>
        <time>2026-05-14T14:56:12Z</time>
      </trkpt>
      <trkpt lat="44.81843" lon="1.62996">
        <ele>234.7</ele>
        <time>2026-05-14T14:56:35Z</time>
      </trkpt>
      <trkpt lat="44.81817" lon="1.62976">
        <ele>233.74</ele>
        <time>2026-05-14T14:56:57Z</time>
      </trkpt>
      <trkpt lat="44.81793" lon="1.62957">
        <ele>233.26</ele>
        <time>2026-05-14T14:57:18Z</time>
      </trkpt>
      <trkpt lat="44.81765" lon="1.62938">
        <ele>233.26</ele>
        <time>2026-05-14T14:57:42Z</time>
      </trkpt>
      <trkpt lat="44.81734" lon="1.6292">
        <ele>232.78</ele>
        <time>2026-05-14T14:58:09Z</time>
      </trkpt>
      <trkpt lat="44.81702" lon="1.62911">
        <ele>232.3</ele>
        <time>2026-05-14T14:58:31Z</time>
      </trkpt>
      <trkpt lat="44.81675" lon="1.629">
        <ele>232.3</ele>
        <time>2026-05-14T14:58:52Z</time>
      </trkpt>
      <trkpt lat="44.8165" lon="1.62882">
        <ele>232.3</ele>
        <time>2026-05-14T14:59:14Z</time>
      </trkpt>
      <trkpt lat="44.81624" lon="1.62865">
        <ele>232.3</ele>
        <time>2026-05-14T14:59:35Z</time>
      </trkpt>
      <trkpt lat="44.81601" lon="1.62851">
        <ele>234.7</ele>
        <time>2026-05-14T14:59:55Z</time>
      </trkpt>
      <trkpt lat="44.8158" lon="1.62839">
        <ele>237.1</ele>
        <time>2026-05-14T15:00:14Z</time>
      </trkpt>
      <trkpt lat="44.8156" lon="1.62828">
        <ele>239.02</ele>
        <time>2026-05-14T15:00:33Z</time>
      </trkpt>
      <trkpt lat="44.81538" lon="1.62813">
        <ele>241.91</ele>
        <time>2026-05-14T15:00:57Z</time>
      </trkpt>
      <trkpt lat="44.81523" lon="1.62805">
        <ele>243.83</ele>
        <time>2026-05-14T15:01:13Z</time>
      </trkpt>
      <trkpt lat="44.81507" lon="1.62806">
        <ele>242.39</ele>
        <time>2026-05-14T15:01:26Z</time>
      </trkpt>
      <trkpt lat="44.81501" lon="1.62808">
        <ele>243.83</ele>
        <time>2026-05-14T15:01:30Z</time>
      </trkpt>
      <trkpt lat="44.81481" lon="1.62823">
        <ele>242.39</ele>
        <time>2026-05-14T15:01:46Z</time>
      </trkpt>
      <trkpt lat="44.81467" lon="1.62818">
        <ele>242.39</ele>
        <time>2026-05-14T15:02:05Z</time>
      </trkpt>
      <trkpt lat="44.81465" lon="1.62822">
        <ele>241.91</ele>
        <time>2026-05-14T15:02:21Z</time>
      </trkpt>
      <trkpt lat="44.81448" lon="1.62818">
        <ele>241.91</ele>
        <time>2026-05-14T15:02:38Z</time>
      </trkpt>
      <trkpt lat="44.81427" lon="1.62828">
        <ele>240.47</ele>
        <time>2026-05-14T15:02:49Z</time>
      </trkpt>
      <trkpt lat="44.81416" lon="1.62834">
        <ele>239.51</ele>
        <time>2026-05-14T15:03:00Z</time>
      </trkpt>
      <trkpt lat="44.81412" lon="1.62833">
        <ele>239.51</ele>
        <time>2026-05-14T15:03:17Z</time>
      </trkpt>
      <trkpt lat="44.81408" lon="1.62833">
        <ele>239.51</ele>
        <time>2026-05-14T15:03:39Z</time>
      </trkpt>
      <trkpt lat="44.81401" lon="1.62836">
        <ele>239.99</ele>
        <time>2026-05-14T15:04:06Z</time>
      </trkpt>
      <trkpt lat="44.81399" lon="1.62839">
        <ele>239.99</ele>
        <time>2026-05-14T15:04:36Z</time>
      </trkpt>
      <trkpt lat="44.814" lon="1.62822">
        <ele>239.02</ele>
        <time>2026-05-14T15:04:50Z</time>
      </trkpt>
      <trkpt lat="44.81388" lon="1.62787">
        <ele>239.02</ele>
        <time>2026-05-14T15:05:15Z</time>
      </trkpt>
      <trkpt lat="44.81378" lon="1.62766">
        <ele>239.02</ele>
        <time>2026-05-14T15:05:33Z</time>
      </trkpt>
      <trkpt lat="44.8136" lon="1.62717">
        <ele>238.06</ele>
        <time>2026-05-14T15:05:58Z</time>
      </trkpt>
      <trkpt lat="44.81348" lon="1.62686">
        <ele>238.06</ele>
        <time>2026-05-14T15:06:16Z</time>
      </trkpt>
      <trkpt lat="44.81347" lon="1.62675">
        <ele>239.51</ele>
        <time>2026-05-14T15:06:21Z</time>
      </trkpt>
      <trkpt lat="44.81347" lon="1.62637">
        <ele>239.02</ele>
        <time>2026-05-14T15:06:38Z</time>
      </trkpt>
      <trkpt lat="44.81344" lon="1.62612">
        <ele>239.51</ele>
        <time>2026-05-14T15:06:53Z</time>
      </trkpt>
      <trkpt lat="44.81336" lon="1.62608">
        <ele>238.54</ele>
        <time>2026-05-14T15:07:01Z</time>
      </trkpt>
      <trkpt lat="44.81308" lon="1.62598">
        <ele>236.62</ele>
        <time>2026-05-14T15:07:21Z</time>
      </trkpt>
      <trkpt lat="44.81288" lon="1.62586">
        <ele>236.14</ele>
        <time>2026-05-14T15:07:39Z</time>
      </trkpt>
      <trkpt lat="44.81277" lon="1.62579">
        <ele>236.14</ele>
        <time>2026-05-14T15:07:49Z</time>
      </trkpt>
      <trkpt lat="44.81254" lon="1.62564">
        <ele>235.18</ele>
        <time>2026-05-14T15:08:09Z</time>
      </trkpt>
      <trkpt lat="44.81231" lon="1.62549">
        <ele>235.18</ele>
        <time>2026-05-14T15:08:28Z</time>
      </trkpt>
      <trkpt lat="44.81203" lon="1.62534">
        <ele>235.18</ele>
        <time>2026-05-14T15:08:50Z</time>
      </trkpt>
      <trkpt lat="44.81181" lon="1.62522">
        <ele>236.62</ele>
        <time>2026-05-14T15:09:09Z</time>
      </trkpt>
      <trkpt lat="44.8116" lon="1.62508">
        <ele>237.58</ele>
        <time>2026-05-14T15:09:28Z</time>
      </trkpt>
      <trkpt lat="44.81135" lon="1.62491">
        <ele>238.54</ele>
        <time>2026-05-14T15:09:49Z</time>
      </trkpt>
      <trkpt lat="44.81115" lon="1.62473">
        <ele>239.99</ele>
        <time>2026-05-14T15:10:10Z</time>
      </trkpt>
      <trkpt lat="44.81094" lon="1.62457">
        <ele>241.91</ele>
        <time>2026-05-14T15:10:34Z</time>
      </trkpt>
      <trkpt lat="44.81069" lon="1.62448">
        <ele>242.39</ele>
        <time>2026-05-14T15:10:57Z</time>
      </trkpt>
      <trkpt lat="44.81063" lon="1.62448">
        <ele>243.35</ele>
        <time>2026-05-14T15:11:02Z</time>
      </trkpt>
      <trkpt lat="44.81029" lon="1.62441">
        <ele>244.31</ele>
        <time>2026-05-14T15:11:26Z</time>
      </trkpt>
      <trkpt lat="44.81017" lon="1.62442">
        <ele>244.79</ele>
        <time>2026-05-14T15:11:34Z</time>
      </trkpt>
      <trkpt lat="44.80985" lon="1.62447">
        <ele>245.27</ele>
        <time>2026-05-14T15:11:56Z</time>
      </trkpt>
      <trkpt lat="44.80953" lon="1.6245">
        <ele>244.79</ele>
        <time>2026-05-14T15:12:18Z</time>
      </trkpt>
      <trkpt lat="44.80925" lon="1.62454">
        <ele>245.75</ele>
        <time>2026-05-14T15:12:39Z</time>
      </trkpt>
      <trkpt lat="44.80895" lon="1.62466">
        <ele>246.23</ele>
        <time>2026-05-14T15:13:03Z</time>
      </trkpt>
      <trkpt lat="44.80871" lon="1.62481">
        <ele>247.2</ele>
        <time>2026-05-14T15:13:23Z</time>
      </trkpt>
      <trkpt lat="44.80846" lon="1.62494">
        <ele>249.12</ele>
        <time>2026-05-14T15:13:44Z</time>
      </trkpt>
      <trkpt lat="44.80822" lon="1.62507">
        <ele>250.56</ele>
        <time>2026-05-14T15:14:04Z</time>
      </trkpt>
      <trkpt lat="44.80805" lon="1.62519">
        <ele>252.48</ele>
        <time>2026-05-14T15:14:22Z</time>
      </trkpt>
      <trkpt lat="44.80794" lon="1.62526">
        <ele>252.96</ele>
        <time>2026-05-14T15:14:29Z</time>
      </trkpt>
      <trkpt lat="44.80772" lon="1.6254">
        <ele>254.41</ele>
        <time>2026-05-14T15:14:50Z</time>
      </trkpt>
      <trkpt lat="44.80765" lon="1.62541">
        <ele>254.89</ele>
        <time>2026-05-14T15:15:13Z</time>
      </trkpt>
      <trkpt lat="44.80758" lon="1.62543">
        <ele>255.37</ele>
        <time>2026-05-14T15:15:20Z</time>
      </trkpt>
      <trkpt lat="44.80732" lon="1.62559">
        <ele>256.33</ele>
        <time>2026-05-14T15:15:43Z</time>
      </trkpt>
      <trkpt lat="44.80706" lon="1.62569">
        <ele>256.81</ele>
        <time>2026-05-14T15:16:03Z</time>
      </trkpt>
      <trkpt lat="44.80684" lon="1.62575">
        <ele>257.77</ele>
        <time>2026-05-14T15:16:22Z</time>
      </trkpt>
      <trkpt lat="44.80674" lon="1.62577">
        <ele>257.77</ele>
        <time>2026-05-14T15:16:30Z</time>
      </trkpt>
      <trkpt lat="44.80647" lon="1.62588">
        <ele>257.77</ele>
        <time>2026-05-14T15:16:51Z</time>
      </trkpt>
      <trkpt lat="44.80644" lon="1.62589">
        <ele>256.33</ele>
        <time>2026-05-14T15:16:54Z</time>
      </trkpt>
      <trkpt lat="44.80626" lon="1.62602">
        <ele>255.85</ele>
        <time>2026-05-14T15:17:09Z</time>
      </trkpt>
      <trkpt lat="44.80618" lon="1.62604">
        <ele>255.37</ele>
        <time>2026-05-14T15:17:26Z</time>
      </trkpt>
      <trkpt lat="44.80609" lon="1.62605">
        <ele>256.81</ele>
        <time>2026-05-14T15:17:53Z</time>
      </trkpt>
      <trkpt lat="44.80612" lon="1.62607">
        <ele>256.81</ele>
        <time>2026-05-14T15:18:23Z</time>
      </trkpt>
      <trkpt lat="44.80609" lon="1.62608">
        <ele>256.81</ele>
        <time>2026-05-14T15:18:50Z</time>
      </trkpt>
      <trkpt lat="44.80608" lon="1.62609">
        <ele>255.37</ele>
        <time>2026-05-14T15:18:52Z</time>
      </trkpt>
      <trkpt lat="44.80585" lon="1.62626">
        <ele>254.41</ele>
        <time>2026-05-14T15:19:12Z</time>
      </trkpt>
      <trkpt lat="44.80567" lon="1.62644">
        <ele>253.44</ele>
        <time>2026-05-14T15:19:32Z</time>
      </trkpt>
      <trkpt lat="44.80571" lon="1.6265">
        <ele>253.44</ele>
        <time>2026-05-14T15:20:02Z</time>
      </trkpt>
      <trkpt lat="44.80589" lon="1.62666">
        <ele>253.44</ele>
        <time>2026-05-14T15:20:23Z</time>
      </trkpt>
      <trkpt lat="44.80617" lon="1.62674">
        <ele>253.44</ele>
        <time>2026-05-14T15:20:46Z</time>
      </trkpt>
      <trkpt lat="44.80626" lon="1.62676">
        <ele>253.44</ele>
        <time>2026-05-14T15:20:53Z</time>
      </trkpt>
      <trkpt lat="44.80652" lon="1.62685">
        <ele>251.04</ele>
        <time>2026-05-14T15:21:14Z</time>
      </trkpt>
      <trkpt lat="44.80653" lon="1.62686">
        <ele>254.41</ele>
        <time>2026-05-14T15:21:15Z</time>
      </trkpt>
      <trkpt lat="44.80656" lon="1.62688">
        <ele>252.96</ele>
        <time>2026-05-14T15:21:17Z</time>
      </trkpt>
      <trkpt lat="44.80662" lon="1.6269">
        <ele>252.96</ele>
        <time>2026-05-14T15:21:30Z</time>
      </trkpt>
      <trkpt lat="44.80645" lon="1.62684">
        <ele>252.48</ele>
        <time>2026-05-14T15:21:45Z</time>
      </trkpt>
      <trkpt lat="44.80633" lon="1.6268">
        <ele>253.44</ele>
        <time>2026-05-14T15:21:56Z</time>
      </trkpt>
      <trkpt lat="44.80607" lon="1.6267">
        <ele>253.44</ele>
        <time>2026-05-14T15:22:16Z</time>
      </trkpt>
      <trkpt lat="44.80585" lon="1.62666">
        <ele>253.93</ele>
        <time>2026-05-14T15:22:32Z</time>
      </trkpt>
      <trkpt lat="44.80562" lon="1.62661">
        <ele>253.44</ele>
        <time>2026-05-14T15:22:51Z</time>
      </trkpt>
      <trkpt lat="44.80552" lon="1.62657">
        <ele>252.48</ele>
        <time>2026-05-14T15:22:58Z</time>
      </trkpt>
      <trkpt lat="44.80534" lon="1.6266">
        <ele>252.48</ele>
        <time>2026-05-14T15:23:16Z</time>
      </trkpt>
      <trkpt lat="44.80502" lon="1.62678">
        <ele>252</ele>
        <time>2026-05-14T15:23:39Z</time>
      </trkpt>
      <trkpt lat="44.80477" lon="1.62698">
        <ele>252</ele>
        <time>2026-05-14T15:23:59Z</time>
      </trkpt>
      <trkpt lat="44.80467" lon="1.6271">
        <ele>252</ele>
        <time>2026-05-14T15:24:19Z</time>
      </trkpt>
      <trkpt lat="44.80461" lon="1.62704">
        <ele>252</ele>
        <time>2026-05-14T15:24:35Z</time>
      </trkpt>
      <trkpt lat="44.80443" lon="1.62712">
        <ele>252.48</ele>
        <time>2026-05-14T15:24:56Z</time>
      </trkpt>
      <trkpt lat="44.80438" lon="1.62724">
        <ele>252.48</ele>
        <time>2026-05-14T15:25:11Z</time>
      </trkpt>
      <trkpt lat="44.80439" lon="1.62751">
        <ele>251.04</ele>
        <time>2026-05-14T15:25:29Z</time>
      </trkpt>
      <trkpt lat="44.80458" lon="1.62762">
        <ele>250.08</ele>
        <time>2026-05-14T15:25:50Z</time>
      </trkpt>
      <trkpt lat="44.8045" lon="1.6276">
        <ele>250.08</ele>
        <time>2026-05-14T15:26:15Z</time>
      </trkpt>
      <trkpt lat="44.80437" lon="1.62772">
        <ele>252</ele>
        <time>2026-05-14T15:26:33Z</time>
      </trkpt>
      <trkpt lat="44.80431" lon="1.62794">
        <ele>252</ele>
        <time>2026-05-14T15:26:47Z</time>
      </trkpt>
      <trkpt lat="44.80428" lon="1.62839">
        <ele>252</ele>
        <time>2026-05-14T15:27:11Z</time>
      </trkpt>
      <trkpt lat="44.80426" lon="1.62868">
        <ele>252.48</ele>
        <time>2026-05-14T15:27:29Z</time>
      </trkpt>
      <trkpt lat="44.80424" lon="1.62905">
        <ele>252.48</ele>
        <time>2026-05-14T15:27:51Z</time>
      </trkpt>
      <trkpt lat="44.80424" lon="1.62941">
        <ele>252.96</ele>
        <time>2026-05-14T15:28:07Z</time>
      </trkpt>
      <trkpt lat="44.80424" lon="1.62982">
        <ele>253.44</ele>
        <time>2026-05-14T15:28:26Z</time>
      </trkpt>
      <trkpt lat="44.80425" lon="1.63017">
        <ele>253.44</ele>
        <time>2026-05-14T15:28:45Z</time>
      </trkpt>
      <trkpt lat="44.80426" lon="1.63057">
        <ele>253.93</ele>
        <time>2026-05-14T15:29:05Z</time>
      </trkpt>
      <trkpt lat="44.80426" lon="1.63094">
        <ele>254.41</ele>
        <time>2026-05-14T15:29:24Z</time>
      </trkpt>
      <trkpt lat="44.80426" lon="1.63124">
        <ele>254.89</ele>
        <time>2026-05-14T15:29:40Z</time>
      </trkpt>
      <trkpt lat="44.80427" lon="1.63155">
        <ele>254.89</ele>
        <time>2026-05-14T15:29:57Z</time>
      </trkpt>
      <trkpt lat="44.80433" lon="1.63188">
        <ele>255.37</ele>
        <time>2026-05-14T15:30:14Z</time>
      </trkpt>
      <trkpt lat="44.80433" lon="1.63189">
        <ele>255.37</ele>
        <time>2026-05-14T15:30:15Z</time>
      </trkpt>
      <trkpt lat="44.80437" lon="1.63218">
        <ele>255.37</ele>
        <time>2026-05-14T15:30:32Z</time>
      </trkpt>
      <trkpt lat="44.80451" lon="1.63227">
        <ele>255.37</ele>
        <time>2026-05-14T15:30:50Z</time>
      </trkpt>
      <trkpt lat="44.80463" lon="1.63227">
        <ele>253.93</ele>
        <time>2026-05-14T15:31:03Z</time>
      </trkpt>
      <trkpt lat="44.80494" lon="1.63225">
        <ele>253.44</ele>
        <time>2026-05-14T15:31:23Z</time>
      </trkpt>
      <trkpt lat="44.80512" lon="1.63218">
        <ele>252.96</ele>
        <time>2026-05-14T15:31:38Z</time>
      </trkpt>
      <trkpt lat="44.80527" lon="1.6321">
        <ele>252</ele>
        <time>2026-05-14T15:31:56Z</time>
      </trkpt>
      <trkpt lat="44.80525" lon="1.63207">
        <ele>252</ele>
        <time>2026-05-14T15:32:19Z</time>
      </trkpt>
    </trkseg>
  </trk>
</gpx>